<?xml version='1.0' encoding='UTF-8'?><gpx version="1.1" creator="JPX - https://github.com/jenetics/jpx" xmlns="http://www.topografix.com/GPX/1/1"><trk><trkseg><trkpt lat="45.56512023020287" lon="8.209638018997277"><ele>288.0</ele><time>2026-04-18T12:36:00.999Z</time></trkpt><trkpt lat="45.56512778704516" lon="8.209734351059165"><ele>288.0</ele><time>2026-04-18T12:36:02.999Z</time></trkpt><trkpt lat="45.56509733365445" lon="8.209858141733667"><ele>288.0</ele><time>2026-04-18T12:36:04.999Z</time></trkpt><trkpt lat="45.56507904280683" lon="8.209944557382576"><ele>288.0</ele><time>2026-04-18T12:36:05.999Z</time></trkpt><trkpt lat="45.56506499835161" lon="8.210033572176247"><ele>288.0</ele><time>2026-04-18T12:36:06.999Z</time></trkpt><trkpt lat="45.5650383930367" lon="8.210193794928443"><ele>288.0</ele><time>2026-04-18T12:36:08.999Z</time></trkpt><trkpt lat="45.56497551122722" lon="8.21023910696633"><ele>288.3333333333333</ele><time>2026-04-18T12:36:09.999Z</time></trkpt><trkpt lat="45.56490909527925" lon="8.210277148097035"><ele>288.6666666666667</ele><time>2026-04-18T12:36:10.999Z</time></trkpt><trkpt lat="45.564826295589455" lon="8.21030125858844"><ele>289.0</ele><time>2026-04-18T12:36:11.999Z</time></trkpt><trkpt lat="45.564757148165036" lon="8.210325843963222"><ele>289.33333333333337</ele><time>2026-04-18T12:36:12.999Z</time></trkpt><trkpt lat="45.564693222050934" lon="8.210355501819416"><ele>289.6666666666667</ele><time>2026-04-18T12:36:13.999Z</time></trkpt><trkpt lat="45.56462944151604" lon="8.210383161471585"><ele>290.0</ele><time>2026-04-18T12:36:14.999Z</time></trkpt><trkpt lat="45.564539801371154" lon="8.210421619239074"><ele>290.0</ele><time>2026-04-18T12:36:16.999Z</time></trkpt><trkpt lat="45.564550061388566" lon="8.210539725324455"><ele>290.0</ele><time>2026-04-18T12:36:18.999Z</time></trkpt><trkpt lat="45.56458063529324" lon="8.210620400214765"><ele>290.0</ele><time>2026-04-18T12:36:19.999Z</time></trkpt><trkpt lat="45.56461283564813" lon="8.210717100421427"><ele>290.0</ele><time>2026-04-18T12:36:20.999Z</time></trkpt><trkpt lat="45.56463678378912" lon="8.21082813260045"><ele>290.0</ele><time>2026-04-18T12:36:21.999Z</time></trkpt><trkpt lat="45.56466066915226" lon="8.21094314771812"><ele>290.0</ele><time>2026-04-18T12:36:22.999Z</time></trkpt><trkpt lat="45.56468580757057" lon="8.211058626113836"><ele>290.1666666666667</ele><time>2026-04-18T12:36:23.999Z</time></trkpt><trkpt lat="45.564695581476094" lon="8.211177952775497"><ele>290.33333333333337</ele><time>2026-04-18T12:36:24.999Z</time></trkpt><trkpt lat="45.56470295369705" lon="8.211292727362077"><ele>290.5</ele><time>2026-04-18T12:36:25.999Z</time></trkpt><trkpt lat="45.56471341404273" lon="8.211407480146157"><ele>290.6666666666667</ele><time>2026-04-18T12:36:26.999Z</time></trkpt><trkpt lat="45.56471952330781" lon="8.211514292541082"><ele>290.8333333333333</ele><time>2026-04-18T12:36:27.999Z</time></trkpt><trkpt lat="45.56472401386823" lon="8.21161085341951"><ele>291.0</ele><time>2026-04-18T12:36:28.999Z</time></trkpt><trkpt lat="45.56473089970479" lon="8.211755523825149"><ele>291.40000000000003</ele><time>2026-04-18T12:36:30.999Z</time></trkpt><trkpt lat="45.56475976664536" lon="8.211842592607438"><ele>291.8</ele><time>2026-04-18T12:36:40.999Z</time></trkpt><trkpt lat="45.56487574138342" lon="8.211830684028167"><ele>292.20000000000005</ele><time>2026-04-18T12:36:42.999Z</time></trkpt><trkpt lat="45.5649574980087" lon="8.211774802049186"><ele>292.6</ele><time>2026-04-18T12:36:43.999Z</time></trkpt><trkpt lat="45.56504616660678" lon="8.211701295608476"><ele>293.0</ele><time>2026-04-18T12:36:44.999Z</time></trkpt><trkpt lat="45.56514478179374" lon="8.211632404291171"><ele>293.0</ele><time>2026-04-18T12:36:45.999Z</time></trkpt><trkpt lat="45.56525748401075" lon="8.211576555515611"><ele>293.0</ele><time>2026-04-18T12:36:47Z</time></trkpt><trkpt lat="45.565382061006034" lon="8.2115450677985"><ele>293.0</ele><time>2026-04-18T12:36:48Z</time></trkpt><trkpt lat="45.56551336840341" lon="8.211526329640755"><ele>293.0</ele><time>2026-04-18T12:36:49Z</time></trkpt><trkpt lat="45.565644342074904" lon="8.211507914474971"><ele>293.0</ele><time>2026-04-18T12:36:50Z</time></trkpt><trkpt lat="45.56577963288069" lon="8.211488012637798"><ele>293.0</ele><time>2026-04-18T12:36:51Z</time></trkpt><trkpt lat="45.56591726174953" lon="8.211459374457442"><ele>293.0</ele><time>2026-04-18T12:36:52Z</time></trkpt><trkpt lat="45.56605591910046" lon="8.211431466690982"><ele>293.0</ele><time>2026-04-18T12:36:53Z</time></trkpt><trkpt lat="45.56619690089861" lon="8.21140744587925"><ele>293.0</ele><time>2026-04-18T12:36:54Z</time></trkpt><trkpt lat="45.56634005114794" lon="8.211386569630315"><ele>293.0</ele><time>2026-04-18T12:36:55Z</time></trkpt><trkpt lat="45.56648482768633" lon="8.211362787699027"><ele>293.0</ele><time>2026-04-18T12:36:56Z</time></trkpt><trkpt lat="45.5666269739098" lon="8.211339997914449"><ele>293.0</ele><time>2026-04-18T12:36:57Z</time></trkpt><trkpt lat="45.56677198970985" lon="8.211316925592131"><ele>293.0</ele><time>2026-04-18T12:36:58Z</time></trkpt><trkpt lat="45.56691499435381" lon="8.211295179317773"><ele>293.0</ele><time>2026-04-18T12:36:59Z</time></trkpt><trkpt lat="45.5670565445997" lon="8.211273117639225"><ele>293.0</ele><time>2026-04-18T12:37:00Z</time></trkpt><trkpt lat="45.56719426966905" lon="8.211255256619571"><ele>293.0</ele><time>2026-04-18T12:37:01Z</time></trkpt><trkpt lat="45.567330759388895" lon="8.21123898187929"><ele>293.5</ele><time>2026-04-18T12:37:02Z</time></trkpt><trkpt lat="45.56746713869221" lon="8.211219477842308"><ele>294.0</ele><time>2026-04-18T12:37:03Z</time></trkpt><trkpt lat="45.567601467385416" lon="8.211195663985132"><ele>294.5</ele><time>2026-04-18T12:37:04Z</time></trkpt><trkpt lat="45.56773258375938" lon="8.211173079706587"><ele>295.0</ele><time>2026-04-18T12:37:05Z</time></trkpt><trkpt lat="45.56786017686" lon="8.211152848108322"><ele>295.0</ele><time>2026-04-18T12:37:06Z</time></trkpt><trkpt lat="45.56798036534863" lon="8.211133869089938"><ele>295.0</ele><time>2026-04-18T12:37:07Z</time></trkpt><trkpt lat="45.56809009231918" lon="8.21112182089482"><ele>295.0</ele><time>2026-04-18T12:37:08Z</time></trkpt><trkpt lat="45.5681925743462" lon="8.211106883107966"><ele>295.0</ele><time>2026-04-18T12:37:09Z</time></trkpt><trkpt lat="45.568289457900924" lon="8.211089275223781"><ele>295.0</ele><time>2026-04-18T12:37:10Z</time></trkpt><trkpt lat="45.56837115397568" lon="8.211078555273133"><ele>295.0</ele><time>2026-04-18T12:37:11Z</time></trkpt><trkpt lat="45.56843548103177" lon="8.211071409273082"><ele>295.0</ele><time>2026-04-18T12:37:12Z</time></trkpt><trkpt lat="45.56856688237431" lon="8.211049650204673"><ele>295.0</ele><time>2026-04-18T12:37:14Z</time></trkpt><trkpt lat="45.56864658034705" lon="8.211025731356013"><ele>295.0</ele><time>2026-04-18T12:37:15Z</time></trkpt><trkpt lat="45.56873211633162" lon="8.210996021067992"><ele>295.0</ele><time>2026-04-18T12:37:16Z</time></trkpt><trkpt lat="45.56882207737401" lon="8.210943719468773"><ele>295.75</ele><time>2026-04-18T12:37:17Z</time></trkpt><trkpt lat="45.56891171466104" lon="8.210856307333076"><ele>296.5</ele><time>2026-04-18T12:37:18Z</time></trkpt><trkpt lat="45.5690040081837" lon="8.210760410991986"><ele>297.25</ele><time>2026-04-18T12:37:19Z</time></trkpt><trkpt lat="45.56910543544229" lon="8.210663899134563"><ele>298.0</ele><time>2026-04-18T12:37:20Z</time></trkpt><trkpt lat="45.56921286340783" lon="8.210562374187726"><ele>298.25</ele><time>2026-04-18T12:37:21Z</time></trkpt><trkpt lat="45.56932490133363" lon="8.210455923456855"><ele>298.5</ele><time>2026-04-18T12:37:22Z</time></trkpt><trkpt lat="45.56943967086737" lon="8.210343709491845"><ele>298.75</ele><time>2026-04-18T12:37:23Z</time></trkpt><trkpt lat="45.56955798812585" lon="8.210230191379422"><ele>299.0</ele><time>2026-04-18T12:37:24Z</time></trkpt><trkpt lat="45.56967741790374" lon="8.210113840856767"><ele>299.25</ele><time>2026-04-18T12:37:25Z</time></trkpt><trkpt lat="45.56979857304946" lon="8.2099982255981"><ele>299.5</ele><time>2026-04-18T12:37:26Z</time></trkpt><trkpt lat="45.569919372281866" lon="8.2098808747007"><ele>299.75</ele><time>2026-04-18T12:37:27Z</time></trkpt><trkpt lat="45.57004049168903" lon="8.209765935217488"><ele>300.0</ele><time>2026-04-18T12:37:28Z</time></trkpt><trkpt lat="45.570161624905985" lon="8.209651833488596"><ele>300.0</ele><time>2026-04-18T12:37:29Z</time></trkpt><trkpt lat="45.57028126761088" lon="8.209534376460008"><ele>300.0</ele><time>2026-04-18T12:37:30Z</time></trkpt><trkpt lat="45.57040135899266" lon="8.209421113798289"><ele>300.0</ele><time>2026-04-18T12:37:31Z</time></trkpt><trkpt lat="45.57052130093335" lon="8.20930715908238"><ele>300.0</ele><time>2026-04-18T12:37:32Z</time></trkpt><trkpt lat="45.57063991244413" lon="8.209191330377656"><ele>300.0</ele><time>2026-04-18T12:37:33Z</time></trkpt><trkpt lat="45.570758156021" lon="8.209072005850388"><ele>300.0</ele><time>2026-04-18T12:37:34Z</time></trkpt><trkpt lat="45.57087717966487" lon="8.208955403937534"><ele>300.0</ele><time>2026-04-18T12:37:35Z</time></trkpt><trkpt lat="45.57099472688836" lon="8.208839660301827"><ele>300.0</ele><time>2026-04-18T12:37:36Z</time></trkpt><trkpt lat="45.57111382466362" lon="8.20872530159355"><ele>300.5</ele><time>2026-04-18T12:37:37Z</time></trkpt><trkpt lat="45.571233650060364" lon="8.208607695835386"><ele>301.0</ele><time>2026-04-18T12:37:38Z</time></trkpt><trkpt lat="45.571351411545194" lon="8.208491201695926"><ele>301.5</ele><time>2026-04-18T12:37:39Z</time></trkpt><trkpt lat="45.57146631276304" lon="8.208380498869346"><ele>302.0</ele><time>2026-04-18T12:37:40Z</time></trkpt><trkpt lat="45.571580305427716" lon="8.208270360935613"><ele>302.0</ele><time>2026-04-18T12:37:41Z</time></trkpt><trkpt lat="45.571694957975716" lon="8.208158287528237"><ele>302.0</ele><time>2026-04-18T12:37:42Z</time></trkpt><trkpt lat="45.57181140482403" lon="8.20805003294633"><ele>302.0</ele><time>2026-04-18T12:37:43Z</time></trkpt><trkpt lat="45.571928009395535" lon="8.20793894717725"><ele>302.0</ele><time>2026-04-18T12:37:44Z</time></trkpt><trkpt lat="45.57204468976346" lon="8.207825402462396"><ele>302.0</ele><time>2026-04-18T12:37:44.999Z</time></trkpt><trkpt lat="45.57216059047273" lon="8.207712660161024"><ele>302.0</ele><time>2026-04-18T12:37:45.999Z</time></trkpt><trkpt lat="45.57227864723496" lon="8.207597979165532"><ele>302.0</ele><time>2026-04-18T12:37:46.999Z</time></trkpt><trkpt lat="45.572398182206186" lon="8.207479895115915"><ele>302.0</ele><time>2026-04-18T12:37:47.999Z</time></trkpt><trkpt lat="45.572519345186144" lon="8.20736212655204"><ele>302.25</ele><time>2026-04-18T12:37:48.999Z</time></trkpt><trkpt lat="45.572641737504625" lon="8.207245027595413"><ele>302.5</ele><time>2026-04-18T12:37:49.999Z</time></trkpt><trkpt lat="45.572765314383965" lon="8.207125018678875"><ele>302.75</ele><time>2026-04-18T12:37:50.999Z</time></trkpt><trkpt lat="45.572887808976965" lon="8.207004780063642"><ele>303.0</ele><time>2026-04-18T12:37:51.999Z</time></trkpt><trkpt lat="45.57300606560851" lon="8.206882570754289"><ele>303.25</ele><time>2026-04-18T12:37:52.999Z</time></trkpt><trkpt lat="45.57312488526018" lon="8.206765144083542"><ele>303.5</ele><time>2026-04-18T12:37:53.999Z</time></trkpt><trkpt lat="45.57324550242486" lon="8.206653659716759"><ele>303.75</ele><time>2026-04-18T12:37:54.999Z</time></trkpt><trkpt lat="45.57337084081338" lon="8.20653991043814"><ele>304.0</ele><time>2026-04-18T12:37:55.999Z</time></trkpt><trkpt lat="45.57349329483469" lon="8.206415925800764"><ele>304.25</ele><time>2026-04-18T12:37:56.999Z</time></trkpt><trkpt lat="45.573615348861885" lon="8.206296657985302"><ele>304.5</ele><time>2026-04-18T12:37:57.999Z</time></trkpt><trkpt lat="45.57373834099136" lon="8.20617630505825"><ele>304.75</ele><time>2026-04-18T12:37:58.999Z</time></trkpt><trkpt lat="45.573859541049885" lon="8.206055045469187"><ele>305.0</ele><time>2026-04-18T12:37:59.999Z</time></trkpt><trkpt lat="45.573979035101615" lon="8.20593527234135"><ele>305.0</ele><time>2026-04-18T12:38:00.999Z</time></trkpt><trkpt lat="45.57410365848452" lon="8.205818055076293"><ele>305.0</ele><time>2026-04-18T12:38:01.999Z</time></trkpt><trkpt lat="45.57422761324149" lon="8.205704413912207"><ele>305.0</ele><time>2026-04-18T12:38:02.999Z</time></trkpt><trkpt lat="45.57435303309348" lon="8.205588333790926"><ele>305.0</ele><time>2026-04-18T12:38:03.999Z</time></trkpt><trkpt lat="45.57447728540421" lon="8.205473899949977"><ele>304.75</ele><time>2026-04-18T12:38:04.999Z</time></trkpt><trkpt lat="45.574602755930805" lon="8.205369596287609"><ele>304.5</ele><time>2026-04-18T12:38:05.999Z</time></trkpt><trkpt lat="45.57473128124664" lon="8.205273837178273"><ele>304.25</ele><time>2026-04-18T12:38:06.999Z</time></trkpt><trkpt lat="45.57485915827804" lon="8.205177592897785"><ele>304.0</ele><time>2026-04-18T12:38:07.999Z</time></trkpt><trkpt lat="45.57498335300478" lon="8.205072131173253"><ele>304.0</ele><time>2026-04-18T12:38:08.999Z</time></trkpt><trkpt lat="45.57510032781573" lon="8.204950902837684"><ele>304.0</ele><time>2026-04-18T12:38:09.999Z</time></trkpt><trkpt lat="45.57520941618715" lon="8.20481457586966"><ele>304.0</ele><time>2026-04-18T12:38:10.999Z</time></trkpt><trkpt lat="45.57531342457169" lon="8.204666705069537"><ele>304.0</ele><time>2026-04-18T12:38:11.999Z</time></trkpt><trkpt lat="45.575415615703406" lon="8.204508502527782"><ele>303.66666666666663</ele><time>2026-04-18T12:38:12.999Z</time></trkpt><trkpt lat="45.57551481232388" lon="8.204342200698141"><ele>303.3333333333333</ele><time>2026-04-18T12:38:13.999Z</time></trkpt><trkpt lat="45.57561330986788" lon="8.204170256544158"><ele>303.0</ele><time>2026-04-18T12:38:14.999Z</time></trkpt><trkpt lat="45.575713526036886" lon="8.204003402710844"><ele>303.25</ele><time>2026-04-18T12:38:15.999Z</time></trkpt><trkpt lat="45.57581391437047" lon="8.203847254650137"><ele>303.5</ele><time>2026-04-18T12:38:16.999Z</time></trkpt><trkpt lat="45.57591652742224" lon="8.203696197658104"><ele>303.75</ele><time>2026-04-18T12:38:17.999Z</time></trkpt><trkpt lat="45.57601756442768" lon="8.203549682650324"><ele>304.0</ele><time>2026-04-18T12:38:18.999Z</time></trkpt><trkpt lat="45.576117456648106" lon="8.203405891979314"><ele>304.5</ele><time>2026-04-18T12:38:19.999Z</time></trkpt><trkpt lat="45.57621737994578" lon="8.203265908447477"><ele>305.0</ele><time>2026-04-18T12:38:20.999Z</time></trkpt><trkpt lat="45.576316281096965" lon="8.203129102662121"><ele>305.5</ele><time>2026-04-18T12:38:21.999Z</time></trkpt><trkpt lat="45.576409292277994" lon="8.202999090965262"><ele>306.0</ele><time>2026-04-18T12:38:22.999Z</time></trkpt><trkpt lat="45.57649690878326" lon="8.202885582736519"><ele>306.40000000000003</ele><time>2026-04-18T12:38:23.999Z</time></trkpt><trkpt lat="45.57658065092637" lon="8.202784757400288"><ele>306.8</ele><time>2026-04-18T12:38:24.999Z</time></trkpt><trkpt lat="45.57666000563729" lon="8.202703844530417"><ele>307.20000000000005</ele><time>2026-04-18T12:38:25.999Z</time></trkpt><trkpt lat="45.57674572796088" lon="8.202649215115507"><ele>307.6</ele><time>2026-04-18T12:38:26.999Z</time></trkpt><trkpt lat="45.57683663597049" lon="8.20264552365933"><ele>308.0</ele><time>2026-04-18T12:38:27.999Z</time></trkpt><trkpt lat="45.576929591038294" lon="8.202686892699932"><ele>308.0</ele><time>2026-04-18T12:38:28.999Z</time></trkpt><trkpt lat="45.57701132583785" lon="8.202749641135261"><ele>308.0</ele><time>2026-04-18T12:38:29.999Z</time></trkpt><trkpt lat="45.57707326336442" lon="8.202805722578326"><ele>308.0</ele><time>2026-04-18T12:38:30.999Z</time></trkpt><trkpt lat="45.57712373817184" lon="8.202978758858979"><ele>308.0</ele><time>2026-04-18T12:38:32.999Z</time></trkpt><trkpt lat="45.57714444233615" lon="8.203085577754502"><ele>308.0</ele><time>2026-04-18T12:38:33.999Z</time></trkpt><trkpt lat="45.57716496417997" lon="8.203187933893126"><ele>308.0</ele><time>2026-04-18T12:38:34.999Z</time></trkpt><trkpt lat="45.577155434361615" lon="8.203280977462141"><ele>308.1666666666667</ele><time>2026-04-18T12:38:35.999Z</time></trkpt><trkpt lat="45.57710703936234" lon="8.203358878330233"><ele>308.33333333333337</ele><time>2026-04-18T12:38:36.999Z</time></trkpt><trkpt lat="45.577025938901606" lon="8.203382377146955"><ele>308.5</ele><time>2026-04-18T12:38:37.999Z</time></trkpt><trkpt lat="45.57696312741911" lon="8.20346037521442"><ele>308.6666666666667</ele><time>2026-04-18T12:38:38.999Z</time></trkpt><trkpt lat="45.576890580209096" lon="8.203519062174243"><ele>308.8333333333333</ele><time>2026-04-18T12:38:39.999Z</time></trkpt><trkpt lat="45.57683419408094" lon="8.203599853267944"><ele>309.0</ele><time>2026-04-18T12:38:40.999Z</time></trkpt><trkpt lat="45.57679776251115" lon="8.20367499460394"><ele>308.4</ele><time>2026-04-18T12:38:41.999Z</time></trkpt><trkpt lat="45.57672892615009" lon="8.203757422956869"><ele>307.79999999999995</ele><time>2026-04-18T12:38:43.999Z</time></trkpt><trkpt lat="45.57681385878753" lon="8.203936785292255"><ele>307.20000000000005</ele><time>2026-04-18T12:38:44.999Z</time></trkpt><trkpt lat="45.5768419543175" lon="8.204037602252729"><ele>306.6</ele><time>2026-04-18T12:38:45.999Z</time></trkpt><trkpt lat="45.576875452036546" lon="8.204148404004414"><ele>306.0</ele><time>2026-04-18T12:38:46.999Z</time></trkpt><trkpt lat="45.57690739144007" lon="8.204264231722444"><ele>305.8</ele><time>2026-04-18T12:38:47.999Z</time></trkpt><trkpt lat="45.57693967193471" lon="8.204368052050803"><ele>305.6</ele><time>2026-04-18T12:38:48.999Z</time></trkpt><trkpt lat="45.576964800457375" lon="8.20445189160322"><ele>305.4</ele><time>2026-04-18T12:38:49.999Z</time></trkpt><trkpt lat="45.577034069402345" lon="8.20458906192538"><ele>305.2</ele><time>2026-04-18T12:38:51.998Z</time></trkpt><trkpt lat="45.577069301218096" lon="8.204676287740238"><ele>305.0</ele><time>2026-04-18T12:38:53Z</time></trkpt><trkpt lat="45.577012781905204" lon="8.204828055829307"><ele>305.0</ele><time>2026-04-18T12:38:54Z</time></trkpt><trkpt lat="45.5770259690807" lon="8.204930808750433"><ele>305.0</ele><time>2026-04-18T12:38:55Z</time></trkpt><trkpt lat="45.57704192409913" lon="8.205022650510204"><ele>305.0</ele><time>2026-04-18T12:38:56Z</time></trkpt><trkpt lat="45.577113905230135" lon="8.205046542609447"><ele>305.0</ele><time>2026-04-18T12:38:59Z</time></trkpt><trkpt lat="45.57707131164716" lon="8.204892105479574"><ele>305.0</ele><time>2026-04-18T12:39:01Z</time></trkpt><trkpt lat="45.577076023850196" lon="8.204758894782852"><ele>305.0</ele><time>2026-04-18T12:39:03Z</time></trkpt><trkpt lat="45.57713889824563" lon="8.20474402339457"><ele>304.1666666666667</ele><time>2026-04-18T12:39:05Z</time></trkpt><trkpt lat="45.57715246215146" lon="8.204858399659106"><ele>303.33333333333337</ele><time>2026-04-18T12:39:07Z</time></trkpt><trkpt lat="45.57714400809476" lon="8.20500260831599"><ele>302.5</ele><time>2026-04-18T12:39:09Z</time></trkpt><trkpt lat="45.577181070141336" lon="8.20509592501049"><ele>301.6666666666667</ele><time>2026-04-18T12:39:10Z</time></trkpt><trkpt lat="45.57722866562838" lon="8.205177399756417"><ele>300.8333333333333</ele><time>2026-04-18T12:39:11Z</time></trkpt><trkpt lat="45.57726631253882" lon="8.205311133820452"><ele>300.0</ele><time>2026-04-18T12:39:13Z</time></trkpt><trkpt lat="45.577316445469464" lon="8.205412804379504"><ele>300.0</ele><time>2026-04-18T12:39:15Z</time></trkpt><trkpt lat="45.57736068449321" lon="8.205536749937803"><ele>300.0</ele><time>2026-04-18T12:39:17Z</time></trkpt><trkpt lat="45.57738740512881" lon="8.205688316874484"><ele>300.0</ele><time>2026-04-18T12:39:19Z</time></trkpt><trkpt lat="45.577399335472904" lon="8.205788077351958"><ele>300.0</ele><time>2026-04-18T12:39:20Z</time></trkpt><trkpt lat="45.577430360127174" lon="8.205868623366287"><ele>300.0</ele><time>2026-04-18T12:39:21Z</time></trkpt><trkpt lat="45.577477550385275" lon="8.205961343016739"><ele>300.0</ele><time>2026-04-18T12:39:22Z</time></trkpt><trkpt lat="45.57751174658907" lon="8.20606332353473"><ele>299.1428571428571</ele><time>2026-04-18T12:39:23Z</time></trkpt><trkpt lat="45.57754273093369" lon="8.206166443616821"><ele>298.2857142857143</ele><time>2026-04-18T12:39:24Z</time></trkpt><trkpt lat="45.57755682240215" lon="8.206271231954158"><ele>297.42857142857144</ele><time>2026-04-18T12:39:25Z</time></trkpt><trkpt lat="45.57756834359695" lon="8.20636468004094"><ele>296.57142857142856</ele><time>2026-04-18T12:39:26Z</time></trkpt><trkpt lat="45.57758967889244" lon="8.206464935710388"><ele>295.7142857142857</ele><time>2026-04-18T12:39:27Z</time></trkpt><trkpt lat="45.57761557790166" lon="8.206567541495115"><ele>294.85714285714283</ele><time>2026-04-18T12:39:28Z</time></trkpt><trkpt lat="45.57761957718722" lon="8.206662096476002"><ele>294.0</ele><time>2026-04-18T12:39:29Z</time></trkpt><trkpt lat="45.577590379816925" lon="8.20675969856785"><ele>292.8333333333333</ele><time>2026-04-18T12:39:30Z</time></trkpt><trkpt lat="45.57754611880458" lon="8.206854727996904"><ele>291.6666666666667</ele><time>2026-04-18T12:39:31Z</time></trkpt><trkpt lat="45.57750479656226" lon="8.206941942605015"><ele>290.5</ele><time>2026-04-18T12:39:32Z</time></trkpt><trkpt lat="45.57745891244424" lon="8.207055857121595"><ele>289.33333333333337</ele><time>2026-04-18T12:39:34Z</time></trkpt><trkpt lat="45.57749668818811" lon="8.207132578131219"><ele>288.1666666666667</ele><time>2026-04-18T12:39:36Z</time></trkpt><trkpt lat="45.57759953710917" lon="8.207108202457809"><ele>287.0</ele><time>2026-04-18T12:39:38Z</time></trkpt><trkpt lat="45.57767150820331" lon="8.20696990798062"><ele>287.0</ele><time>2026-04-18T12:39:40Z</time></trkpt><trkpt lat="45.577716283915066" lon="8.206870643902095"><ele>287.0</ele><time>2026-04-18T12:39:41Z</time></trkpt><trkpt lat="45.577752617952115" lon="8.206777417121721"><ele>287.0</ele><time>2026-04-18T12:39:41.999Z</time></trkpt><trkpt lat="45.57778308171745" lon="8.206636835757422"><ele>287.0</ele><time>2026-04-18T12:39:44.999Z</time></trkpt><trkpt lat="45.577828286142044" lon="8.206508847552868"><ele>287.0</ele><time>2026-04-18T12:39:46.999Z</time></trkpt><trkpt lat="45.57788025590161" lon="8.206456074155517"><ele>287.0</ele><time>2026-04-18T12:39:49.999Z</time></trkpt><trkpt lat="45.57794664247465" lon="8.206568252323091"><ele>287.0</ele><time>2026-04-18T12:39:51.999Z</time></trkpt><trkpt lat="45.577978862662015" lon="8.206646353558165"><ele>287.0</ele><time>2026-04-18T12:39:52.999Z</time></trkpt><trkpt lat="45.57806851738875" lon="8.206644395040541"><ele>287.0</ele><time>2026-04-18T12:39:55.999Z</time></trkpt><trkpt lat="45.578122913561586" lon="8.206567170526617"><ele>287.0</ele><time>2026-04-18T12:39:58.999Z</time></trkpt><trkpt lat="45.57818580563747" lon="8.206535932630722"><ele>287.0</ele><time>2026-04-18T12:40:00.999Z</time></trkpt><trkpt lat="45.57824751709413" lon="8.206515777582052"><ele>287.0</ele><time>2026-04-18T12:40:02.999Z</time></trkpt><trkpt lat="45.57832402690223" lon="8.20640702973759"><ele>287.0</ele><time>2026-04-18T12:40:04.999Z</time></trkpt><trkpt lat="45.57833754731267" lon="8.206311175800577"><ele>287.0</ele><time>2026-04-18T12:40:05.999Z</time></trkpt><trkpt lat="45.57838606815855" lon="8.206215907325925"><ele>287.0</ele><time>2026-04-18T12:40:07.999Z</time></trkpt><trkpt lat="45.57845400937504" lon="8.206163635688082"><ele>287.0</ele><time>2026-04-18T12:40:08.999Z</time></trkpt><trkpt lat="45.578506576378714" lon="8.206102851488966"><ele>287.0</ele><time>2026-04-18T12:40:09.999Z</time></trkpt><trkpt lat="45.57855592728185" lon="8.206002216752744"><ele>287.0</ele><time>2026-04-18T12:40:10.999Z</time></trkpt><trkpt lat="45.57859948562758" lon="8.205925865829284"><ele>288.1666666666667</ele><time>2026-04-18T12:40:11.999Z</time></trkpt><trkpt lat="45.57870070740793" lon="8.205819171992395"><ele>289.33333333333337</ele><time>2026-04-18T12:40:13.999Z</time></trkpt><trkpt lat="45.57876503749529" lon="8.205751756987459"><ele>290.5</ele><time>2026-04-18T12:40:14.999Z</time></trkpt><trkpt lat="45.578831376683645" lon="8.205692946710396"><ele>291.6666666666667</ele><time>2026-04-18T12:40:16.999Z</time></trkpt><trkpt lat="45.578915806127405" lon="8.205679944359765"><ele>292.8333333333333</ele><time>2026-04-18T12:40:18.999Z</time></trkpt><trkpt lat="45.578982469997236" lon="8.20563238253316"><ele>294.0</ele><time>2026-04-18T12:40:19.999Z</time></trkpt><trkpt lat="45.579092214818075" lon="8.205618476458953"><ele>294.0</ele><time>2026-04-18T12:40:24.999Z</time></trkpt><trkpt lat="45.57918929806604" lon="8.20558032237567"><ele>294.0</ele><time>2026-04-18T12:40:25.999Z</time></trkpt><trkpt lat="45.57924770459285" lon="8.205515595709432"><ele>294.0</ele><time>2026-04-18T12:40:26.999Z</time></trkpt><trkpt lat="45.57931168822104" lon="8.205471996123725"><ele>294.0</ele><time>2026-04-18T12:40:27.999Z</time></trkpt><trkpt lat="45.579377302004424" lon="8.205415538062226"><ele>294.0</ele><time>2026-04-18T12:40:28.999Z</time></trkpt><trkpt lat="45.579428610425396" lon="8.20534435311254"><ele>294.0</ele><time>2026-04-18T12:40:29.999Z</time></trkpt><trkpt lat="45.5794780523756" lon="8.205257965816877"><ele>294.0</ele><time>2026-04-18T12:40:30.999Z</time></trkpt><trkpt lat="45.57949307248507" lon="8.205168038198886"><ele>294.0</ele><time>2026-04-18T12:40:31.999Z</time></trkpt><trkpt lat="45.57950579721028" lon="8.205066562924"><ele>294.0</ele><time>2026-04-18T12:40:32.999Z</time></trkpt><trkpt lat="45.57957694294497" lon="8.204927092242277"><ele>294.0</ele><time>2026-04-18T12:40:34.999Z</time></trkpt><trkpt lat="45.579666986956305" lon="8.20482090146926"><ele>294.0</ele><time>2026-04-18T12:40:36.999Z</time></trkpt><trkpt lat="45.57967451095789" lon="8.204725188456285"><ele>294.0</ele><time>2026-04-18T12:40:37.999Z</time></trkpt><trkpt lat="45.579677546867465" lon="8.204624892225178"><ele>294.8</ele><time>2026-04-18T12:40:39.999Z</time></trkpt><trkpt lat="45.57981969815226" lon="8.204631953908567"><ele>295.59999999999997</ele><time>2026-04-18T12:40:41.999Z</time></trkpt><trkpt lat="45.57990411538369" lon="8.204606767364686"><ele>296.4</ele><time>2026-04-18T12:40:42.999Z</time></trkpt><trkpt lat="45.579982278208675" lon="8.204604692691184"><ele>297.2</ele><time>2026-04-18T12:40:43.999Z</time></trkpt><trkpt lat="45.58007535012533" lon="8.20460365693658"><ele>298.0</ele><time>2026-04-18T12:40:45.999Z</time></trkpt><trkpt lat="45.58014077734798" lon="8.204505392881957"><ele>298.0</ele><time>2026-04-18T12:40:47.999Z</time></trkpt><trkpt lat="45.58019907034779" lon="8.2044705698067"><ele>298.0</ele><time>2026-04-18T12:40:48.999Z</time></trkpt><trkpt lat="45.58024120412073" lon="8.20436579083964"><ele>298.0</ele><time>2026-04-18T12:40:51.998Z</time></trkpt><trkpt lat="45.580520527897" lon="8.20406373441878"><ele>299.0</ele><time>2026-04-18T12:40:54.998Z</time></trkpt><trkpt lat="45.58056712372008" lon="8.203966543054584"><ele>300.0</ele><time>2026-04-18T12:40:56.998Z</time></trkpt><trkpt lat="45.580609469434734" lon="8.203884788650331"><ele>301.0</ele><time>2026-04-18T12:40:59Z</time></trkpt><trkpt lat="45.58070267721992" lon="8.203866427069716"><ele>302.0</ele><time>2026-04-18T12:41:02Z</time></trkpt><trkpt lat="45.58078409005738" lon="8.203817272050117"><ele>303.0</ele><time>2026-04-18T12:41:03Z</time></trkpt><trkpt lat="45.58085366446099" lon="8.203796878372973"><ele>304.0</ele><time>2026-04-18T12:41:04Z</time></trkpt><trkpt lat="45.580924393328935" lon="8.203787346605381"><ele>304.0</ele><time>2026-04-18T12:41:05Z</time></trkpt><trkpt lat="45.581004443854056" lon="8.203742187778493"><ele>304.0</ele><time>2026-04-18T12:41:06Z</time></trkpt><trkpt lat="45.58110196958287" lon="8.203656083491765"><ele>304.0</ele><time>2026-04-18T12:41:07Z</time></trkpt><trkpt lat="45.58120258826009" lon="8.20357296240321"><ele>304.0</ele><time>2026-04-18T12:41:08Z</time></trkpt><trkpt lat="45.58128025933159" lon="8.203512566744134"><ele>304.0</ele><time>2026-04-18T12:41:09Z</time></trkpt><trkpt lat="45.58134659148063" lon="8.203436918392889"><ele>303.8333333333333</ele><time>2026-04-18T12:41:10Z</time></trkpt><trkpt lat="45.58142727573137" lon="8.203486842630488"><ele>303.66666666666663</ele><time>2026-04-18T12:41:13Z</time></trkpt><trkpt lat="45.58150518745015" lon="8.203442671961044"><ele>303.5</ele><time>2026-04-18T12:41:15Z</time></trkpt><trkpt lat="45.58157436146924" lon="8.203391220123482"><ele>303.3333333333333</ele><time>2026-04-18T12:41:16Z</time></trkpt><trkpt lat="45.581655791011" lon="8.203290859035262"><ele>303.1666666666667</ele><time>2026-04-18T12:41:17Z</time></trkpt><trkpt lat="45.581722880059104" lon="8.203201457658789"><ele>303.0</ele><time>2026-04-18T12:41:18Z</time></trkpt><trkpt lat="45.58176978850536" lon="8.20312323281517"><ele>303.0</ele><time>2026-04-18T12:41:19Z</time></trkpt><trkpt lat="45.58179887235574" lon="8.202901206884858"><ele>303.0</ele><time>2026-04-18T12:41:21Z</time></trkpt><trkpt lat="45.581801768427006" lon="8.202784496627682"><ele>303.0</ele><time>2026-04-18T12:41:22Z</time></trkpt><trkpt lat="45.581879495818384" lon="8.202854496977121"><ele>303.0</ele><time>2026-04-18T12:41:27Z</time></trkpt><trkpt lat="45.58195778184816" lon="8.202991073740822"><ele>303.0</ele><time>2026-04-18T12:41:29Z</time></trkpt><trkpt lat="45.58200163869254" lon="8.203063424330209"><ele>303.0</ele><time>2026-04-18T12:41:30Z</time></trkpt><trkpt lat="45.58208480867082" lon="8.203151591010801"><ele>303.0</ele><time>2026-04-18T12:41:32Z</time></trkpt><trkpt lat="45.582132194493305" lon="8.20324287540569"><ele>303.0</ele><time>2026-04-18T12:41:34Z</time></trkpt><trkpt lat="45.5822223408692" lon="8.203318218789533"><ele>303.0</ele><time>2026-04-18T12:41:37Z</time></trkpt><trkpt lat="45.58234194522421" lon="8.203358254357065"><ele>303.0</ele><time>2026-04-18T12:41:39Z</time></trkpt><trkpt lat="45.58242829893178" lon="8.203379650295322"><ele>303.0</ele><time>2026-04-18T12:41:40Z</time></trkpt><trkpt lat="45.582499580300016" lon="8.20347554680393"><ele>303.0</ele><time>2026-04-18T12:41:41.999Z</time></trkpt><trkpt lat="45.58252973696031" lon="8.203569494028581"><ele>303.0</ele><time>2026-04-18T12:41:42.999Z</time></trkpt><trkpt lat="45.58246982619896" lon="8.20376845951084"><ele>303.0</ele><time>2026-04-18T12:41:44.999Z</time></trkpt><trkpt lat="45.58244688956352" lon="8.203896848808771"><ele>304.6666666666667</ele><time>2026-04-18T12:41:45.999Z</time></trkpt><trkpt lat="45.582416357853084" lon="8.204019908238967"><ele>306.3333333333333</ele><time>2026-04-18T12:41:46.999Z</time></trkpt><trkpt lat="45.58239029886413" lon="8.20413066024757"><ele>308.0</ele><time>2026-04-18T12:41:47.999Z</time></trkpt><trkpt lat="45.582368771071316" lon="8.204245353333402"><ele>309.66666666666663</ele><time>2026-04-18T12:41:48.999Z</time></trkpt><trkpt lat="45.58235253708866" lon="8.2043430073294"><ele>311.3333333333333</ele><time>2026-04-18T12:41:49.999Z</time></trkpt><trkpt lat="45.58231946910614" lon="8.204449658603993"><ele>313.0</ele><time>2026-04-18T12:41:50.999Z</time></trkpt><trkpt lat="45.58229583891553" lon="8.204550290827317"><ele>313.0</ele><time>2026-04-18T12:41:51.999Z</time></trkpt><trkpt lat="45.58229213538239" lon="8.204641261395974"><ele>313.0</ele><time>2026-04-18T12:41:52.999Z</time></trkpt><trkpt lat="45.58230995545604" lon="8.204740902122209"><ele>313.0</ele><time>2026-04-18T12:41:53.999Z</time></trkpt><trkpt lat="45.5823339796006" lon="8.204834856923757"><ele>313.0</ele><time>2026-04-18T12:41:54.999Z</time></trkpt><trkpt lat="45.58239889020654" lon="8.204956921209678"><ele>313.0</ele><time>2026-04-18T12:41:56.999Z</time></trkpt><trkpt lat="45.58247940043278" lon="8.205018641708024"><ele>313.0</ele><time>2026-04-18T12:41:58.999Z</time></trkpt><trkpt lat="45.5825385430986" lon="8.205079297633029"><ele>313.16666666666663</ele><time>2026-04-18T12:42:00.999Z</time></trkpt><trkpt lat="45.58264688877147" lon="8.205150854654288"><ele>313.3333333333333</ele><time>2026-04-18T12:42:02.999Z</time></trkpt><trkpt lat="45.582712594885095" lon="8.20519764239349"><ele>313.5</ele><time>2026-04-18T12:42:03.999Z</time></trkpt><trkpt lat="45.582777656829585" lon="8.20522898013676"><ele>313.6666666666667</ele><time>2026-04-18T12:42:04.999Z</time></trkpt><trkpt lat="45.58284390440973" lon="8.205242643198423"><ele>313.83333333333337</ele><time>2026-04-18T12:42:05.999Z</time></trkpt><trkpt lat="45.58291525946526" lon="8.205224838418893"><ele>314.0</ele><time>2026-04-18T12:42:06.999Z</time></trkpt><trkpt lat="45.58300214133287" lon="8.205189661926338"><ele>315.1666666666667</ele><time>2026-04-18T12:42:07.999Z</time></trkpt><trkpt lat="45.583103591722896" lon="8.205141335162093"><ele>316.33333333333337</ele><time>2026-04-18T12:42:08.999Z</time></trkpt><trkpt lat="45.583205818824354" lon="8.205116795198867"><ele>317.5</ele><time>2026-04-18T12:42:09.999Z</time></trkpt><trkpt lat="45.58328593249734" lon="8.205110188309753"><ele>318.6666666666667</ele><time>2026-04-18T12:42:10.999Z</time></trkpt><trkpt lat="45.58334863239465" lon="8.205080287647062"><ele>319.8333333333333</ele><time>2026-04-18T12:42:11.999Z</time></trkpt><trkpt lat="45.58341475394498" lon="8.205013183724114"><ele>321.0</ele><time>2026-04-18T12:42:12.999Z</time></trkpt><trkpt lat="45.58348158650569" lon="8.204938044771342"><ele>321.0</ele><time>2026-04-18T12:42:13.999Z</time></trkpt><trkpt lat="45.583535073845496" lon="8.204855195441809"><ele>321.0</ele><time>2026-04-18T12:42:14.999Z</time></trkpt><trkpt lat="45.58359250885485" lon="8.204769872984134"><ele>321.0</ele><time>2026-04-18T12:42:15.999Z</time></trkpt><trkpt lat="45.583649977858045" lon="8.204686775372874"><ele>321.0</ele><time>2026-04-18T12:42:16.999Z</time></trkpt><trkpt lat="45.583700723630834" lon="8.204585659349597"><ele>321.0</ele><time>2026-04-18T12:42:17.999Z</time></trkpt><trkpt lat="45.58374390417888" lon="8.204491545946912"><ele>321.0</ele><time>2026-04-18T12:42:18.999Z</time></trkpt><trkpt lat="45.58378970212047" lon="8.204387324405625"><ele>322.0</ele><time>2026-04-18T12:42:19.999Z</time></trkpt><trkpt lat="45.58384750936614" lon="8.204300677445948"><ele>323.0</ele><time>2026-04-18T12:42:20.999Z</time></trkpt><trkpt lat="45.58391727574527" lon="8.204236170808054"><ele>324.0</ele><time>2026-04-18T12:42:21.999Z</time></trkpt><trkpt lat="45.58397864484743" lon="8.204181648508818"><ele>325.0</ele><time>2026-04-18T12:42:22.999Z</time></trkpt><trkpt lat="45.58408077402232" lon="8.204152846533633"><ele>326.0</ele><time>2026-04-18T12:42:24.999Z</time></trkpt><trkpt lat="45.584208351853846" lon="8.204132379194803"><ele>326.0</ele><time>2026-04-18T12:42:26.999Z</time></trkpt><trkpt lat="45.58427858601449" lon="8.204113374321322"><ele>326.0</ele><time>2026-04-18T12:42:27.999Z</time></trkpt><trkpt lat="45.58435782327171" lon="8.204097596288175"><ele>326.0</ele><time>2026-04-18T12:42:28.999Z</time></trkpt><trkpt lat="45.58444229532238" lon="8.204084839680077"><ele>326.0</ele><time>2026-04-18T12:42:29.999Z</time></trkpt><trkpt lat="45.58452077779874" lon="8.204075379545062"><ele>326.0</ele><time>2026-04-18T12:42:30.999Z</time></trkpt><trkpt lat="45.58459897599787" lon="8.204051023881977"><ele>326.0</ele><time>2026-04-18T12:42:31.999Z</time></trkpt><trkpt lat="45.584672129761444" lon="8.204022915284849"><ele>326.33333333333337</ele><time>2026-04-18T12:42:32.999Z</time></trkpt><trkpt lat="45.58474188836023" lon="8.203990964587799"><ele>326.6666666666667</ele><time>2026-04-18T12:42:33.999Z</time></trkpt><trkpt lat="45.58480469578591" lon="8.203962249891596"><ele>327.0</ele><time>2026-04-18T12:42:34.999Z</time></trkpt><trkpt lat="45.58491042065585" lon="8.203953334488094"><ele>327.3333333333333</ele><time>2026-04-18T12:42:36.999Z</time></trkpt><trkpt lat="45.58499875635148" lon="8.204009635831945"><ele>327.66666666666663</ele><time>2026-04-18T12:42:38.999Z</time></trkpt><trkpt lat="45.58508021754574" lon="8.2040896343389"><ele>328.0</ele><time>2026-04-18T12:42:40.999Z</time></trkpt><trkpt lat="45.58513233557887" lon="8.20422255117917"><ele>328.2</ele><time>2026-04-18T12:42:43.999Z</time></trkpt><trkpt lat="45.58514201875888" lon="8.20433161447767"><ele>328.4</ele><time>2026-04-18T12:42:44.999Z</time></trkpt><trkpt lat="45.58515869190052" lon="8.204466880644468"><ele>328.59999999999997</ele><time>2026-04-18T12:42:45.999Z</time></trkpt><trkpt lat="45.585189598353224" lon="8.204607554785"><ele>328.79999999999995</ele><time>2026-04-18T12:42:46.999Z</time></trkpt><trkpt lat="45.58525289401351" lon="8.204739939280993"><ele>329.0</ele><time>2026-04-18T12:42:47.999Z</time></trkpt><trkpt lat="45.58530319125527" lon="8.204894462262601"><ele>332.0</ele><time>2026-04-18T12:42:48.999Z</time></trkpt><trkpt lat="45.58537626490497" lon="8.205031212126649"><ele>335.0</ele><time>2026-04-18T12:42:49.999Z</time></trkpt><trkpt lat="45.58546577797296" lon="8.205146565035799"><ele>338.0</ele><time>2026-04-18T12:42:50.999Z</time></trkpt><trkpt lat="45.585549819822" lon="8.205259979551707"><ele>341.0</ele><time>2026-04-18T12:42:51.999Z</time></trkpt><trkpt lat="45.5856401366962" lon="8.205356199821837"><ele>341.0</ele><time>2026-04-18T12:42:52.999Z</time></trkpt><trkpt lat="45.58574876495159" lon="8.205414613424479"><ele>341.0</ele><time>2026-04-18T12:42:53.998Z</time></trkpt><trkpt lat="45.585858739745206" lon="8.205483952756461"><ele>341.0</ele><time>2026-04-18T12:42:54.998Z</time></trkpt><trkpt lat="45.585985304749656" lon="8.205507217962696"><ele>341.0</ele><time>2026-04-18T12:42:55.998Z</time></trkpt><trkpt lat="45.58610852842171" lon="8.205538475821012"><ele>342.25</ele><time>2026-04-18T12:42:56.998Z</time></trkpt><trkpt lat="45.586230790293726" lon="8.205587483264189"><ele>343.5</ele><time>2026-04-18T12:42:57.998Z</time></trkpt><trkpt lat="45.58635513159056" lon="8.205635697989285"><ele>344.75</ele><time>2026-04-18T12:42:58.998Z</time></trkpt><trkpt lat="45.58648085955162" lon="8.20568237840021"><ele>346.0</ele><time>2026-04-18T12:42:59.998Z</time></trkpt><trkpt lat="45.58661004991388" lon="8.205726904488321"><ele>344.75</ele><time>2026-04-18T12:43:00.998Z</time></trkpt><trkpt lat="45.58673899376136" lon="8.205775883547178"><ele>343.5</ele><time>2026-04-18T12:43:01.998Z</time></trkpt><trkpt lat="45.58686707312828" lon="8.20582818473097"><ele>342.25</ele><time>2026-04-18T12:43:03Z</time></trkpt><trkpt lat="45.58699525230167" lon="8.205883842965429"><ele>341.0</ele><time>2026-04-18T12:43:04Z</time></trkpt><trkpt lat="45.58712520857377" lon="8.205920254743441"><ele>341.0</ele><time>2026-04-18T12:43:05Z</time></trkpt><trkpt lat="45.58725429341517" lon="8.205966476623459"><ele>341.0</ele><time>2026-04-18T12:43:06Z</time></trkpt><trkpt lat="45.58738281482875" lon="8.206016500466387"><ele>341.0</ele><time>2026-04-18T12:43:07Z</time></trkpt><trkpt lat="45.58751018402308" lon="8.206057771774908"><ele>341.0</ele><time>2026-04-18T12:43:08Z</time></trkpt><trkpt lat="45.58763760043161" lon="8.20608556972406"><ele>341.0</ele><time>2026-04-18T12:43:09Z</time></trkpt><trkpt lat="45.58776531461722" lon="8.206093095111884"><ele>341.0</ele><time>2026-04-18T12:43:10Z</time></trkpt><trkpt lat="45.58788586179046" lon="8.206058429798789"><ele>341.0</ele><time>2026-04-18T12:43:11Z</time></trkpt><trkpt lat="45.587998781842465" lon="8.20599063197733"><ele>341.0</ele><time>2026-04-18T12:43:12Z</time></trkpt><trkpt lat="45.58810084132881" lon="8.20588827896037"><ele>342.75</ele><time>2026-04-18T12:43:13Z</time></trkpt><trkpt lat="45.58820003960207" lon="8.20577181713349"><ele>344.5</ele><time>2026-04-18T12:43:14Z</time></trkpt><trkpt lat="45.58830629662975" lon="8.20565399253262"><ele>346.25</ele><time>2026-04-18T12:43:15Z</time></trkpt><trkpt lat="45.588417124876024" lon="8.205546021022837"><ele>348.0</ele><time>2026-04-18T12:43:16Z</time></trkpt><trkpt lat="45.58852998039756" lon="8.205446030030817"><ele>348.0</ele><time>2026-04-18T12:43:17Z</time></trkpt><trkpt lat="45.58864076895534" lon="8.205342346153724"><ele>348.0</ele><time>2026-04-18T12:43:18Z</time></trkpt><trkpt lat="45.58875077074198" lon="8.205241337372629"><ele>348.0</ele><time>2026-04-18T12:43:19Z</time></trkpt><trkpt lat="45.58886150782902" lon="8.205143297270311"><ele>348.0</ele><time>2026-04-18T12:43:20Z</time></trkpt><trkpt lat="45.588972305920166" lon="8.205046091989384"><ele>348.5</ele><time>2026-04-18T12:43:21Z</time></trkpt><trkpt lat="45.589080425303166" lon="8.204941039424543"><ele>349.0</ele><time>2026-04-18T12:43:22Z</time></trkpt><trkpt lat="45.58918853825307" lon="8.20482908955728"><ele>349.5</ele><time>2026-04-18T12:43:23Z</time></trkpt><trkpt lat="45.589300419455924" lon="8.20472563017061"><ele>350.0</ele><time>2026-04-18T12:43:24Z</time></trkpt><trkpt lat="45.58941493300119" lon="8.204626119762832"><ele>346.5</ele><time>2026-04-18T12:43:25Z</time></trkpt><trkpt lat="45.58953041208238" lon="8.204522136571363"><ele>343.0</ele><time>2026-04-18T12:43:26Z</time></trkpt><trkpt lat="45.58964319735394" lon="8.204417613637425"><ele>339.5</ele><time>2026-04-18T12:43:27Z</time></trkpt><trkpt lat="45.58975721695061" lon="8.20430640721428"><ele>336.0</ele><time>2026-04-18T12:43:28Z</time></trkpt><trkpt lat="45.58987019756829" lon="8.204189313852636"><ele>336.0</ele><time>2026-04-18T12:43:29Z</time></trkpt><trkpt lat="45.58998193328207" lon="8.204079283440377"><ele>336.0</ele><time>2026-04-18T12:43:30Z</time></trkpt><trkpt lat="45.59008724794684" lon="8.203982180146115"><ele>336.0</ele><time>2026-04-18T12:43:31Z</time></trkpt><trkpt lat="45.59018603535746" lon="8.203891456447192"><ele>336.0</ele><time>2026-04-18T12:43:32Z</time></trkpt><trkpt lat="45.59028073066513" lon="8.20379479794523"><ele>335.8</ele><time>2026-04-18T12:43:33Z</time></trkpt><trkpt lat="45.590368741563076" lon="8.203710786922574"><ele>335.6</ele><time>2026-04-18T12:43:34Z</time></trkpt><trkpt lat="45.59045471323516" lon="8.203639135146592"><ele>335.4</ele><time>2026-04-18T12:43:35Z</time></trkpt><trkpt lat="45.59053141765057" lon="8.203583755912646"><ele>335.2</ele><time>2026-04-18T12:43:36Z</time></trkpt><trkpt lat="45.59062546613802" lon="8.203538548258392"><ele>335.0</ele><time>2026-04-18T12:43:38Z</time></trkpt><trkpt lat="45.59061746387942" lon="8.203349988892663"><ele>335.0</ele><time>2026-04-18T12:43:41Z</time></trkpt><trkpt lat="45.590663268282896" lon="8.203247913790882"><ele>335.0</ele><time>2026-04-18T12:43:44Z</time></trkpt><trkpt lat="45.590737433985886" lon="8.203259765721704"><ele>335.0</ele><time>2026-04-18T12:43:47.999Z</time></trkpt><trkpt lat="45.590766445482956" lon="8.203515306401062"><ele>335.0</ele><time>2026-04-18T12:43:48.999Z</time></trkpt><trkpt lat="45.59106030848928" lon="8.203008125461148"><ele>336.33333333333337</ele><time>2026-04-18T12:43:58.999Z</time></trkpt><trkpt lat="45.591157829784656" lon="8.20297768920375"><ele>337.6666666666667</ele><time>2026-04-18T12:44:01.999Z</time></trkpt><trkpt lat="45.59122332214465" lon="8.203000626248162"><ele>339.0</ele><time>2026-04-18T12:44:02.999Z</time></trkpt><trkpt lat="45.591301378994345" lon="8.20300933224006"><ele>340.3333333333333</ele><time>2026-04-18T12:44:04.999Z</time></trkpt><trkpt lat="45.591348351234174" lon="8.202931806424653"><ele>341.66666666666663</ele><time>2026-04-18T12:44:08.999Z</time></trkpt><trkpt lat="45.591378862023674" lon="8.202839462616073"><ele>343.0</ele><time>2026-04-18T12:44:11.999Z</time></trkpt><trkpt lat="45.59153427559194" lon="8.202535147366808"><ele>344.66666666666663</ele><time>2026-04-18T12:44:14.999Z</time></trkpt><trkpt lat="45.591583216186564" lon="8.202449701001216"><ele>346.3333333333333</ele><time>2026-04-18T12:44:15.999Z</time></trkpt><trkpt lat="45.59162165853544" lon="8.202362552508143"><ele>348.0</ele><time>2026-04-18T12:44:16.999Z</time></trkpt><trkpt lat="45.591660345995805" lon="8.202259803794792"><ele>349.6666666666667</ele><time>2026-04-18T12:44:17.999Z</time></trkpt><trkpt lat="45.591695801334424" lon="8.202143693061949"><ele>351.33333333333337</ele><time>2026-04-18T12:44:18.999Z</time></trkpt><trkpt lat="45.59173111576453" lon="8.202033258223922"><ele>353.0</ele><time>2026-04-18T12:44:19.999Z</time></trkpt><trkpt lat="45.59175423806865" lon="8.201925672534385"><ele>353.5</ele><time>2026-04-18T12:44:20.999Z</time></trkpt><trkpt lat="45.59176747862316" lon="8.20183661658517"><ele>354.0</ele><time>2026-04-18T12:44:21.999Z</time></trkpt><trkpt lat="45.59178266030145" lon="8.201698693728723"><ele>354.5</ele><time>2026-04-18T12:44:23.999Z</time></trkpt><trkpt lat="45.59178133530024" lon="8.201568025585384"><ele>355.0</ele><time>2026-04-18T12:44:25.999Z</time></trkpt><trkpt lat="45.59175624615751" lon="8.201483930607766"><ele>355.5</ele><time>2026-04-18T12:44:26.999Z</time></trkpt><trkpt lat="45.59173778727037" lon="8.201315107478495"><ele>356.0</ele><time>2026-04-18T12:44:28.999Z</time></trkpt><trkpt lat="45.591673444246744" lon="8.201239791741633"><ele>357.20000000000005</ele><time>2026-04-18T12:44:29.999Z</time></trkpt><trkpt lat="45.59166772361433" lon="8.201104189580755"><ele>358.40000000000003</ele><time>2026-04-18T12:44:31.999Z</time></trkpt><trkpt lat="45.591646439436275" lon="8.20094726370615"><ele>359.6</ele><time>2026-04-18T12:44:33.999Z</time></trkpt><trkpt lat="45.591649835245704" lon="8.200796033431997"><ele>360.8</ele><time>2026-04-18T12:44:35.999Z</time></trkpt><trkpt lat="45.591648762882784" lon="8.20066814004258"><ele>362.0</ele><time>2026-04-18T12:44:37.999Z</time></trkpt><trkpt lat="45.591647942620604" lon="8.200570313775389"><ele>362.5</ele><time>2026-04-18T12:44:39.999Z</time></trkpt><trkpt lat="45.591641407156835" lon="8.20046858799049"><ele>363.0</ele><time>2026-04-18T12:44:44.999Z</time></trkpt><trkpt lat="45.591728990870074" lon="8.200481133183066"><ele>363.5</ele><time>2026-04-18T12:44:45.999Z</time></trkpt><trkpt lat="45.591796965979235" lon="8.20045541069439"><ele>364.0</ele><time>2026-04-18T12:44:46.999Z</time></trkpt><trkpt lat="45.59187675491726" lon="8.20042018423734"><ele>364.5</ele><time>2026-04-18T12:44:47.999Z</time></trkpt><trkpt lat="45.59199235858975" lon="8.200346020291583"><ele>365.0</ele><time>2026-04-18T12:44:48.999Z</time></trkpt><trkpt lat="45.59209009487477" lon="8.200250394025769"><ele>365.0</ele><time>2026-04-18T12:44:49.999Z</time></trkpt><trkpt lat="45.592171537782434" lon="8.20013536737887"><ele>365.0</ele><time>2026-04-18T12:44:50.999Z</time></trkpt><trkpt lat="45.592236704479916" lon="8.20003954182525"><ele>365.0</ele><time>2026-04-18T12:44:51.999Z</time></trkpt><trkpt lat="45.59230556500056" lon="8.199933436172067"><ele>365.0</ele><time>2026-04-18T12:44:52.999Z</time></trkpt><trkpt lat="45.59237715259413" lon="8.19982270196402"><ele>365.0</ele><time>2026-04-18T12:44:53.999Z</time></trkpt><trkpt lat="45.59244669939704" lon="8.199713390340374"><ele>365.4</ele><time>2026-04-18T12:44:54.999Z</time></trkpt><trkpt lat="45.59251294970536" lon="8.19960375454829"><ele>365.8</ele><time>2026-04-18T12:44:55.999Z</time></trkpt><trkpt lat="45.5925876289137" lon="8.199492879271503"><ele>366.20000000000005</ele><time>2026-04-18T12:44:56.999Z</time></trkpt><trkpt lat="45.59266615464263" lon="8.199390421568594"><ele>366.6</ele><time>2026-04-18T12:44:57.999Z</time></trkpt><trkpt lat="45.59275602575131" lon="8.19930337125562"><ele>367.0</ele><time>2026-04-18T12:44:58.999Z</time></trkpt><trkpt lat="45.5928502600635" lon="8.199213921517677"><ele>367.0</ele><time>2026-04-18T12:44:59.999Z</time></trkpt><trkpt lat="45.592949125461594" lon="8.199122183437767"><ele>367.0</ele><time>2026-04-18T12:45:00.999Z</time></trkpt><trkpt lat="45.593050088924606" lon="8.199028498548646"><ele>367.0</ele><time>2026-04-18T12:45:01.999Z</time></trkpt><trkpt lat="45.593154630908856" lon="8.19893149310856"><ele>367.0</ele><time>2026-04-18T12:45:02.998Z</time></trkpt><trkpt lat="45.593252880757994" lon="8.198813951129397"><ele>366.75</ele><time>2026-04-18T12:45:03.998Z</time></trkpt><trkpt lat="45.59336668525801" lon="8.198726032543153"><ele>366.5</ele><time>2026-04-18T12:45:04.998Z</time></trkpt><trkpt lat="45.593471833515466" lon="8.19862016805666"><ele>366.25</ele><time>2026-04-18T12:45:05.998Z</time></trkpt><trkpt lat="45.59358045388819" lon="8.198518009517745"><ele>366.0</ele><time>2026-04-18T12:45:06.998Z</time></trkpt><trkpt lat="45.59369136451034" lon="8.198421890089625"><ele>365.75</ele><time>2026-04-18T12:45:07.998Z</time></trkpt><trkpt lat="45.59380469565545" lon="8.198330827109022"><ele>365.5</ele><time>2026-04-18T12:45:09Z</time></trkpt><trkpt lat="45.59392356764084" lon="8.198253201866788"><ele>365.25</ele><time>2026-04-18T12:45:10Z</time></trkpt><trkpt lat="45.594044807802256" lon="8.198185220136404"><ele>365.0</ele><time>2026-04-18T12:45:11Z</time></trkpt><trkpt lat="45.594167622132616" lon="8.198125157793458"><ele>365.5</ele><time>2026-04-18T12:45:12Z</time></trkpt><trkpt lat="45.594287080164605" lon="8.198055266281486"><ele>366.0</ele><time>2026-04-18T12:45:13Z</time></trkpt><trkpt lat="45.59440154423095" lon="8.197975633768632"><ele>366.5</ele><time>2026-04-18T12:45:14Z</time></trkpt><trkpt lat="45.5945169753366" lon="8.197895146291405"><ele>367.0</ele><time>2026-04-18T12:45:15Z</time></trkpt><trkpt lat="45.594625216114615" lon="8.197805150311632"><ele>367.25</ele><time>2026-04-18T12:45:16Z</time></trkpt><trkpt lat="45.59472226940247" lon="8.197687105104896"><ele>367.5</ele><time>2026-04-18T12:45:17Z</time></trkpt><trkpt lat="45.594792465675255" lon="8.197537137371466"><ele>367.75</ele><time>2026-04-18T12:45:18Z</time></trkpt><trkpt lat="45.59484176417738" lon="8.197370819218806"><ele>368.0</ele><time>2026-04-18T12:45:19Z</time></trkpt><trkpt lat="45.5948765133452" lon="8.197195839962975"><ele>368.75</ele><time>2026-04-18T12:45:20Z</time></trkpt><trkpt lat="45.59491085416854" lon="8.197038548190077"><ele>369.5</ele><time>2026-04-18T12:45:21Z</time></trkpt><trkpt lat="45.59495772860329" lon="8.196893584450688"><ele>370.25</ele><time>2026-04-18T12:45:22Z</time></trkpt><trkpt lat="45.59502786858905" lon="8.196766898918966"><ele>371.0</ele><time>2026-04-18T12:45:23Z</time></trkpt><trkpt lat="45.59513397772505" lon="8.19669747989499"><ele>371.0</ele><time>2026-04-18T12:45:24Z</time></trkpt><trkpt lat="45.59522820714111" lon="8.196599168393952"><ele>371.0</ele><time>2026-04-18T12:45:25Z</time></trkpt><trkpt lat="45.595332098899554" lon="8.196523103047978"><ele>371.0</ele><time>2026-04-18T12:45:26Z</time></trkpt><trkpt lat="45.59543670379867" lon="8.196444247259876"><ele>371.0</ele><time>2026-04-18T12:45:27Z</time></trkpt><trkpt lat="45.59554173885124" lon="8.196368956939068"><ele>370.5</ele><time>2026-04-18T12:45:28Z</time></trkpt><trkpt lat="45.59565539696786" lon="8.196318825880573"><ele>370.0</ele><time>2026-04-18T12:45:29Z</time></trkpt><trkpt lat="45.59577586666174" lon="8.196293499206853"><ele>369.5</ele><time>2026-04-18T12:45:30Z</time></trkpt><trkpt lat="45.595897678641855" lon="8.196283149269044"><ele>369.0</ele><time>2026-04-18T12:45:31Z</time></trkpt><trkpt lat="45.59601940233449" lon="8.196283004299763"><ele>369.0</ele><time>2026-04-18T12:45:32Z</time></trkpt><trkpt lat="45.59614053624141" lon="8.19626690182433"><ele>369.0</ele><time>2026-04-18T12:45:33Z</time></trkpt><trkpt lat="45.5962637869798" lon="8.196251607730456"><ele>369.0</ele><time>2026-04-18T12:45:34Z</time></trkpt><trkpt lat="45.596388446094466" lon="8.196240611184699"><ele>369.0</ele><time>2026-04-18T12:45:35Z</time></trkpt><trkpt lat="45.596507773420406" lon="8.196233415666791"><ele>370.6</ele><time>2026-04-18T12:45:36Z</time></trkpt><trkpt lat="45.59661488011993" lon="8.196224081534144"><ele>372.2</ele><time>2026-04-18T12:45:37Z</time></trkpt><trkpt lat="45.5967128256374" lon="8.196209597148014"><ele>373.8</ele><time>2026-04-18T12:45:38Z</time></trkpt><trkpt lat="45.596796865347535" lon="8.19615479385668"><ele>375.40000000000003</ele><time>2026-04-18T12:45:39Z</time></trkpt><trkpt lat="45.59688275953545" lon="8.196090043618762"><ele>377.0</ele><time>2026-04-18T12:45:40Z</time></trkpt><trkpt lat="45.596959980246716" lon="8.195973246442456"><ele>376.0</ele><time>2026-04-18T12:45:41Z</time></trkpt><trkpt lat="45.59701194062" lon="8.195834967860065"><ele>375.0</ele><time>2026-04-18T12:45:42Z</time></trkpt><trkpt lat="45.597050204660924" lon="8.195688831097161"><ele>374.0</ele><time>2026-04-18T12:45:43Z</time></trkpt><trkpt lat="45.597082785812844" lon="8.195538240922058"><ele>373.0</ele><time>2026-04-18T12:45:44Z</time></trkpt><trkpt lat="45.59711010305639" lon="8.19539343259387"><ele>372.0</ele><time>2026-04-18T12:45:45Z</time></trkpt><trkpt lat="45.59713692905111" lon="8.195255451970894"><ele>371.40000000000003</ele><time>2026-04-18T12:45:46Z</time></trkpt><trkpt lat="45.59715423044715" lon="8.195133335728354"><ele>370.8</ele><time>2026-04-18T12:45:47Z</time></trkpt><trkpt lat="45.597162500361144" lon="8.195032097865624"><ele>370.2</ele><time>2026-04-18T12:45:48Z</time></trkpt><trkpt lat="45.597175398798214" lon="8.194914174570629"><ele>369.6</ele><time>2026-04-18T12:45:50Z</time></trkpt><trkpt lat="45.59732736809412" lon="8.194958014333332"><ele>369.0</ele><time>2026-04-18T12:45:52.999Z</time></trkpt><trkpt lat="45.5973851847673" lon="8.195004081941635"><ele>369.0</ele><time>2026-04-18T12:45:53.999Z</time></trkpt><trkpt lat="45.597475032302306" lon="8.195052905670295"><ele>369.0</ele><time>2026-04-18T12:45:55.999Z</time></trkpt><trkpt lat="45.59742845868172" lon="8.195164342613257"><ele>369.0</ele><time>2026-04-18T12:45:59.999Z</time></trkpt><trkpt lat="45.5973663174062" lon="8.195272413920664"><ele>369.0</ele><time>2026-04-18T12:46:01.999Z</time></trkpt><trkpt lat="45.59744073131836" lon="8.195368940960657"><ele>369.0</ele><time>2026-04-18T12:46:03.999Z</time></trkpt><trkpt lat="45.5974892476183" lon="8.195437933503648"><ele>369.0</ele><time>2026-04-18T12:46:04.999Z</time></trkpt><trkpt lat="45.597556851443386" lon="8.19549595792263"><ele>369.0</ele><time>2026-04-18T12:46:05.999Z</time></trkpt><trkpt lat="45.59760534965713" lon="8.19557178474451"><ele>369.0</ele><time>2026-04-18T12:46:06.999Z</time></trkpt><trkpt lat="45.59768593913892" lon="8.195616626733438"><ele>369.0</ele><time>2026-04-18T12:46:08.999Z</time></trkpt><trkpt lat="45.597745677147486" lon="8.195663672155453"><ele>369.0</ele><time>2026-04-18T12:46:10.999Z</time></trkpt><trkpt lat="45.59777713891711" lon="8.195842231110813"><ele>369.0</ele><time>2026-04-18T12:46:12.999Z</time></trkpt><trkpt lat="45.597828338571546" lon="8.195990395637065"><ele>367.0</ele><time>2026-04-18T12:46:14.999Z</time></trkpt><trkpt lat="45.59790783900946" lon="8.196025339823928"><ele>365.0</ele><time>2026-04-18T12:46:15.999Z</time></trkpt><trkpt lat="45.59796405102473" lon="8.196071661141476"><ele>363.0</ele><time>2026-04-18T12:46:16.999Z</time></trkpt><trkpt lat="45.59801231512218" lon="8.196199154603502"><ele>361.0</ele><time>2026-04-18T12:46:18.999Z</time></trkpt><trkpt lat="45.59802529749034" lon="8.196348095779815"><ele>359.0</ele><time>2026-04-18T12:46:20.999Z</time></trkpt><trkpt lat="45.598060473557254" lon="8.19642773412272"><ele>357.0</ele><time>2026-04-18T12:46:22.999Z</time></trkpt><trkpt lat="45.59799969917954" lon="8.196508886264787"><ele>354.8333333333333</ele><time>2026-04-18T12:46:24.999Z</time></trkpt><trkpt lat="45.59797980235358" lon="8.196652790236776"><ele>352.6666666666667</ele><time>2026-04-18T12:46:27.999Z</time></trkpt><trkpt lat="45.597963456409865" lon="8.196781112849028"><ele>350.5</ele><time>2026-04-18T12:46:31.999Z</time></trkpt><trkpt lat="45.59797068918803" lon="8.196896187720036"><ele>348.33333333333337</ele><time>2026-04-18T12:46:33.999Z</time></trkpt><trkpt lat="45.59797579553955" lon="8.196986837638908"><ele>346.1666666666667</ele><time>2026-04-18T12:46:36.999Z</time></trkpt><trkpt lat="45.59797901912614" lon="8.19708928077522"><ele>344.0</ele><time>2026-04-18T12:46:39.999Z</time></trkpt><trkpt lat="45.598044239043645" lon="8.197077944754563"><ele>344.0</ele><time>2026-04-18T12:46:41.999Z</time></trkpt><trkpt lat="45.59810754542846" lon="8.19706630318323"><ele>344.0</ele><time>2026-04-18T12:46:43.999Z</time></trkpt><trkpt lat="45.59818775738991" lon="8.197058073764163"><ele>344.0</ele><time>2026-04-18T12:46:46.999Z</time></trkpt><trkpt lat="45.59827598065201" lon="8.197050040956949"><ele>344.0</ele><time>2026-04-18T12:46:49.999Z</time></trkpt><trkpt lat="45.5983568505887" lon="8.197070912462591"><ele>344.0</ele><time>2026-04-18T12:46:53.999Z</time></trkpt><trkpt lat="45.59843330449144" lon="8.197127101430784"><ele>344.0</ele><time>2026-04-18T12:46:57.999Z</time></trkpt><trkpt lat="45.59851014258375" lon="8.197244223557488"><ele>344.0</ele><time>2026-04-18T12:46:59.999Z</time></trkpt><trkpt lat="45.59863192960325" lon="8.197244564859561"><ele>344.0</ele><time>2026-04-18T12:47:01.999Z</time></trkpt><trkpt lat="45.5987479269291" lon="8.197338335419115"><ele>344.0</ele><time>2026-04-18T12:47:03.999Z</time></trkpt><trkpt lat="45.59882313996467" lon="8.197378135250013"><ele>344.0</ele><time>2026-04-18T12:47:05.999Z</time></trkpt><trkpt lat="45.598896143288485" lon="8.197382976401805"><ele>344.0</ele><time>2026-04-18T12:47:06.999Z</time></trkpt><trkpt lat="45.5989717458146" lon="8.197421108911959"><ele>343.25</ele><time>2026-04-18T12:47:07.999Z</time></trkpt><trkpt lat="45.599040278165994" lon="8.197501083171435"><ele>342.5</ele><time>2026-04-18T12:47:08.998Z</time></trkpt><trkpt lat="45.59909602379426" lon="8.197561740114516"><ele>341.75</ele><time>2026-04-18T12:47:10.998Z</time></trkpt><trkpt lat="45.59932662370862" lon="8.197514571601111"><ele>341.0</ele><time>2026-04-18T12:47:18Z</time></trkpt><trkpt lat="45.599427841174254" lon="8.197460718027969"><ele>341.33333333333337</ele><time>2026-04-18T12:47:23Z</time></trkpt><trkpt lat="45.59951906689144" lon="8.197394770171163"><ele>341.6666666666667</ele><time>2026-04-18T12:47:28Z</time></trkpt><trkpt lat="45.59958424449509" lon="8.197374682174004"><ele>342.0</ele><time>2026-04-18T12:47:32Z</time></trkpt><trkpt lat="45.59964276060729" lon="8.197301286237895"><ele>342.3333333333333</ele><time>2026-04-18T12:47:34Z</time></trkpt><trkpt lat="45.59974247594113" lon="8.197187816716168"><ele>342.66666666666663</ele><time>2026-04-18T12:47:36Z</time></trkpt><trkpt lat="45.59980435286169" lon="8.197143914715353"><ele>343.0</ele><time>2026-04-18T12:47:37Z</time></trkpt><trkpt lat="45.599874391143445" lon="8.197122405223649"><ele>343.0</ele><time>2026-04-18T12:47:38Z</time></trkpt><trkpt lat="45.59991505284082" lon="8.197001916913553"><ele>343.0</ele><time>2026-04-18T12:47:40Z</time></trkpt><trkpt lat="45.599983788210054" lon="8.196951909446176"><ele>343.0</ele><time>2026-04-18T12:47:42Z</time></trkpt><trkpt lat="45.60006128494519" lon="8.196885599718277"><ele>343.0</ele><time>2026-04-18T12:47:44Z</time></trkpt><trkpt lat="45.60022969075463" lon="8.196767857063671"><ele>343.0</ele><time>2026-04-18T12:47:49Z</time></trkpt><trkpt lat="45.60024553059797" lon="8.196915940024143"><ele>343.0</ele><time>2026-04-18T12:47:59.999Z</time></trkpt><trkpt lat="45.60026887352625" lon="8.197004330245308"><ele>343.0</ele><time>2026-04-18T12:48:00.999Z</time></trkpt><trkpt lat="45.60039542569634" lon="8.197074219726668"><ele>343.0</ele><time>2026-04-18T12:48:02.999Z</time></trkpt><trkpt lat="45.60048438828578" lon="8.197198576718737"><ele>343.0</ele><time>2026-04-18T12:48:04.999Z</time></trkpt><trkpt lat="45.6005525153913" lon="8.19723743674205"><ele>343.0</ele><time>2026-04-18T12:48:05.999Z</time></trkpt><trkpt lat="45.60061859706996" lon="8.197293547161818"><ele>343.59999999999997</ele><time>2026-04-18T12:48:06.999Z</time></trkpt><trkpt lat="45.60066950414585" lon="8.197401375608928"><ele>344.2</ele><time>2026-04-18T12:48:07.999Z</time></trkpt><trkpt lat="45.60072178033228" lon="8.197528744326068"><ele>344.8</ele><time>2026-04-18T12:48:08.999Z</time></trkpt><trkpt lat="45.60082386768175" lon="8.197552622589177"><ele>345.4</ele><time>2026-04-18T12:48:09.999Z</time></trkpt><trkpt lat="45.600891833631565" lon="8.197586033398448"><ele>346.0</ele><time>2026-04-18T12:48:10.999Z</time></trkpt><trkpt lat="45.60098187208466" lon="8.197617972031754"><ele>346.0</ele><time>2026-04-18T12:48:12.999Z</time></trkpt><trkpt lat="45.60105780748309" lon="8.197655837773489"><ele>346.0</ele><time>2026-04-18T12:48:14.999Z</time></trkpt><trkpt lat="45.60112109948538" lon="8.197689282608517"><ele>346.0</ele><time>2026-04-18T12:48:17.999Z</time></trkpt><trkpt lat="45.601188804869935" lon="8.197740984987103"><ele>346.0</ele><time>2026-04-18T12:48:20.999Z</time></trkpt><trkpt lat="45.60132166463336" lon="8.197841759200038"><ele>346.0</ele><time>2026-04-18T12:48:22.999Z</time></trkpt><trkpt lat="45.601397110325706" lon="8.197901907459691"><ele>347.8</ele><time>2026-04-18T12:48:23.999Z</time></trkpt><trkpt lat="45.60145094923124" lon="8.197960045318833"><ele>349.6</ele><time>2026-04-18T12:48:24.999Z</time></trkpt><trkpt lat="45.60154009551042" lon="8.198065302091386"><ele>351.4</ele><time>2026-04-18T12:48:26.999Z</time></trkpt><trkpt lat="45.601650483829935" lon="8.198198515397197"><ele>353.2</ele><time>2026-04-18T12:48:28.999Z</time></trkpt><trkpt lat="45.60172102095385" lon="8.198271137617784"><ele>355.0</ele><time>2026-04-18T12:48:29.999Z</time></trkpt><trkpt lat="45.601780296894596" lon="8.198330475828953"><ele>355.0</ele><time>2026-04-18T12:48:30.999Z</time></trkpt><trkpt lat="45.601855089391094" lon="8.19840866420162"><ele>355.0</ele><time>2026-04-18T12:48:32.999Z</time></trkpt><trkpt lat="45.60191833765195" lon="8.19842632183183"><ele>355.0</ele><time>2026-04-18T12:48:33.999Z</time></trkpt><trkpt lat="45.60198309512407" lon="8.198436071113228"><ele>355.0</ele><time>2026-04-18T12:48:34.999Z</time></trkpt><trkpt lat="45.60205303868767" lon="8.198459500077549"><ele>355.0</ele><time>2026-04-18T12:48:35.999Z</time></trkpt><trkpt lat="45.60211651059632" lon="8.198455934838028"><ele>355.0</ele><time>2026-04-18T12:48:36.999Z</time></trkpt><trkpt lat="45.60221795609086" lon="8.19847440287877"><ele>355.8333333333333</ele><time>2026-04-18T12:48:37.999Z</time></trkpt><trkpt lat="45.602287193307966" lon="8.198486178487082"><ele>356.66666666666663</ele><time>2026-04-18T12:48:38.999Z</time></trkpt><trkpt lat="45.60237470109899" lon="8.198478727245188"><ele>357.5</ele><time>2026-04-18T12:48:40.999Z</time></trkpt><trkpt lat="45.602441516030666" lon="8.198502120744102"><ele>358.3333333333333</ele><time>2026-04-18T12:48:41.999Z</time></trkpt><trkpt lat="45.60248973112228" lon="8.198413038797721"><ele>359.1666666666667</ele><time>2026-04-18T12:48:42.999Z</time></trkpt><trkpt lat="45.60253693945559" lon="8.198324490572551"><ele>360.0</ele><time>2026-04-18T12:48:43.999Z</time></trkpt><trkpt lat="45.60268614269231" lon="8.198289329634317"><ele>360.0</ele><time>2026-04-18T12:48:45.999Z</time></trkpt><trkpt lat="45.60276522918711" lon="8.198279572895272"><ele>360.0</ele><time>2026-04-18T12:48:46.999Z</time></trkpt><trkpt lat="45.60284259237253" lon="8.198269794982272"><ele>360.0</ele><time>2026-04-18T12:48:47.999Z</time></trkpt><trkpt lat="45.602898793110754" lon="8.198346638993197"><ele>360.0</ele><time>2026-04-18T12:48:51.999Z</time></trkpt><trkpt lat="45.60297377146168" lon="8.198365360041128"><ele>360.0</ele><time>2026-04-18T12:48:54.999Z</time></trkpt><trkpt lat="45.60304054676285" lon="8.198358693032306"><ele>360.0</ele><time>2026-04-18T12:48:55.999Z</time></trkpt><trkpt lat="45.60314006889183" lon="8.198364054440294"><ele>361.0</ele><time>2026-04-18T12:48:57.999Z</time></trkpt><trkpt lat="45.60321922790943" lon="8.198366701426037"><ele>362.0</ele><time>2026-04-18T12:49:00.999Z</time></trkpt><trkpt lat="45.60331811809817" lon="8.198527753290719"><ele>363.0</ele><time>2026-04-18T12:49:02.999Z</time></trkpt><trkpt lat="45.60339714728241" lon="8.198587838275058"><ele>364.0</ele><time>2026-04-18T12:49:03.999Z</time></trkpt><trkpt lat="45.60350932120193" lon="8.198638969958191"><ele>365.0</ele><time>2026-04-18T12:49:04.999Z</time></trkpt><trkpt lat="45.60353196569679" lon="8.198729131054037"><ele>365.0</ele><time>2026-04-18T12:49:06.999Z</time></trkpt><trkpt lat="45.60359209973258" lon="8.198763193096868"><ele>365.0</ele><time>2026-04-18T12:49:09.999Z</time></trkpt><trkpt lat="45.60368649452028" lon="8.198691984048622"><ele>365.0</ele><time>2026-04-18T12:49:11.999Z</time></trkpt><trkpt lat="45.60380113001058" lon="8.198653519838224"><ele>365.0</ele><time>2026-04-18T12:49:13.999Z</time></trkpt><trkpt lat="45.60388216997816" lon="8.198667432967587"><ele>365.0</ele><time>2026-04-18T12:49:14.999Z</time></trkpt><trkpt lat="45.60396665249297" lon="8.19870342048496"><ele>365.33333333333337</ele><time>2026-04-18T12:49:15.999Z</time></trkpt><trkpt lat="45.60403651186532" lon="8.198770450955147"><ele>365.6666666666667</ele><time>2026-04-18T12:49:16.999Z</time></trkpt><trkpt lat="45.60410112056027" lon="8.19882497526251"><ele>366.0</ele><time>2026-04-18T12:49:17.999Z</time></trkpt><trkpt lat="45.60419088222121" lon="8.198845053136925"><ele>366.3333333333333</ele><time>2026-04-18T12:49:19.998Z</time></trkpt><trkpt lat="45.60426976631882" lon="8.198895643767761"><ele>366.66666666666663</ele><time>2026-04-18T12:49:23Z</time></trkpt><trkpt lat="45.60433851436969" lon="8.198792943612222"><ele>367.0</ele><time>2026-04-18T12:49:24Z</time></trkpt><trkpt lat="45.60435734863491" lon="8.198900433906259"><ele>367.8</ele><time>2026-04-18T12:49:26Z</time></trkpt><trkpt lat="45.604391958656365" lon="8.19904247676903"><ele>368.6</ele><time>2026-04-18T12:49:27Z</time></trkpt><trkpt lat="45.60443635630777" lon="8.199167730900824"><ele>369.40000000000003</ele><time>2026-04-18T12:49:28Z</time></trkpt><trkpt lat="45.60443837261564" lon="8.199310327413695"><ele>370.20000000000005</ele><time>2026-04-18T12:49:30Z</time></trkpt><trkpt lat="45.60445407896639" lon="8.199440784283683"><ele>371.0</ele><time>2026-04-18T12:49:33Z</time></trkpt><trkpt lat="45.60449402558656" lon="8.199518180532422"><ele>372.0</ele><time>2026-04-18T12:49:34Z</time></trkpt><trkpt lat="45.60456139149012" lon="8.199585604052533"><ele>373.0</ele><time>2026-04-18T12:49:35Z</time></trkpt><trkpt lat="45.60461562389298" lon="8.19965563033576"><ele>374.0</ele><time>2026-04-18T12:49:36Z</time></trkpt><trkpt lat="45.60465853576636" lon="8.199734539443151"><ele>375.0</ele><time>2026-04-18T12:49:37Z</time></trkpt><trkpt lat="45.604706416299166" lon="8.199923595397012"><ele>376.0</ele><time>2026-04-18T12:49:39Z</time></trkpt><trkpt lat="45.60475336096372" lon="8.200002175367015"><ele>377.0</ele><time>2026-04-18T12:49:41Z</time></trkpt><trkpt lat="45.604787997164706" lon="8.200137443621582"><ele>377.33333333333337</ele><time>2026-04-18T12:49:43Z</time></trkpt><trkpt lat="45.60483105318423" lon="8.200205021086123"><ele>377.6666666666667</ele><time>2026-04-18T12:49:45Z</time></trkpt><trkpt lat="45.60491037095215" lon="8.200302847184236"><ele>378.0</ele><time>2026-04-18T12:49:47Z</time></trkpt><trkpt lat="45.60498903201438" lon="8.200349888924539"><ele>378.3333333333333</ele><time>2026-04-18T12:49:49Z</time></trkpt><trkpt lat="45.6050675088533" lon="8.200269006977898"><ele>378.66666666666663</ele><time>2026-04-18T12:49:52Z</time></trkpt><trkpt lat="45.60513385673234" lon="8.20020854023237"><ele>379.0</ele><time>2026-04-18T12:49:53Z</time></trkpt><trkpt lat="45.60523617277857" lon="8.20015652902747"><ele>379.0</ele><time>2026-04-18T12:49:55Z</time></trkpt><trkpt lat="45.60532015044617" lon="8.200103596960549"><ele>379.0</ele><time>2026-04-18T12:49:57Z</time></trkpt><trkpt lat="45.605319359292295" lon="8.200226167021007"><ele>379.0</ele><time>2026-04-18T12:50:02.999Z</time></trkpt><trkpt lat="45.60531212698194" lon="8.200364682454133"><ele>379.0</ele><time>2026-04-18T12:50:03.999Z</time></trkpt><trkpt lat="45.60532101745954" lon="8.200500917421683"><ele>379.0</ele><time>2026-04-18T12:50:04.999Z</time></trkpt><trkpt lat="45.605478908561246" lon="8.200544327902426"><ele>379.0</ele><time>2026-04-18T12:50:06.999Z</time></trkpt><trkpt lat="45.60549632947979" lon="8.200656707071115"><ele>379.0</ele><time>2026-04-18T12:50:07.999Z</time></trkpt><trkpt lat="45.60542483390353" lon="8.200802594174704"><ele>379.0</ele><time>2026-04-18T12:50:08.999Z</time></trkpt><trkpt lat="45.60548554730781" lon="8.200876162954609"><ele>379.0</ele><time>2026-04-18T12:50:09.999Z</time></trkpt><trkpt lat="45.60555226079698" lon="8.200803769348749"><ele>379.0</ele><time>2026-04-18T12:50:11.999Z</time></trkpt><trkpt lat="45.60562229783484" lon="8.200922200581646"><ele>379.0</ele><time>2026-04-18T12:50:14.999Z</time></trkpt><trkpt lat="45.60569355641803" lon="8.201000113501738"><ele>379.0</ele><time>2026-04-18T12:50:16.999Z</time></trkpt><trkpt lat="45.605772082062884" lon="8.201082697768529"><ele>379.0</ele><time>2026-04-18T12:50:18.999Z</time></trkpt><trkpt lat="45.605817018474774" lon="8.20114924521632"><ele>379.0</ele><time>2026-04-18T12:50:19.999Z</time></trkpt><trkpt lat="45.60592080571943" lon="8.201229249186772"><ele>379.0</ele><time>2026-04-18T12:50:20.999Z</time></trkpt><trkpt lat="45.60598655675769" lon="8.201262368220972"><ele>379.0</ele><time>2026-04-18T12:50:21.999Z</time></trkpt><trkpt lat="45.60604426891914" lon="8.201323518852162"><ele>379.0</ele><time>2026-04-18T12:50:22.999Z</time></trkpt><trkpt lat="45.60610383373492" lon="8.201388884980856"><ele>379.0</ele><time>2026-04-18T12:50:23.999Z</time></trkpt><trkpt lat="45.60616834542208" lon="8.20145177566603"><ele>379.0</ele><time>2026-04-18T12:50:24.999Z</time></trkpt><trkpt lat="45.60622254425382" lon="8.201515704694879"><ele>379.0</ele><time>2026-04-18T12:50:25.999Z</time></trkpt><trkpt lat="45.60626081173737" lon="8.20158903099415"><ele>379.0</ele><time>2026-04-18T12:50:26.999Z</time></trkpt><trkpt lat="45.60631832881261" lon="8.201718937453057"><ele>379.0</ele><time>2026-04-18T12:50:28.999Z</time></trkpt><trkpt lat="45.60635277469841" lon="8.201834453848415"><ele>377.8333333333333</ele><time>2026-04-18T12:50:30.999Z</time></trkpt><trkpt lat="45.60639581795651" lon="8.201940692971128"><ele>376.66666666666663</ele><time>2026-04-18T12:50:33.999Z</time></trkpt><trkpt lat="45.606419605910105" lon="8.20207640904758"><ele>375.5</ele><time>2026-04-18T12:50:35.999Z</time></trkpt><trkpt lat="45.60645860363547" lon="8.202221193824643"><ele>374.3333333333333</ele><time>2026-04-18T12:50:37.999Z</time></trkpt><trkpt lat="45.606500613792335" lon="8.202326770895699"><ele>373.1666666666667</ele><time>2026-04-18T12:50:39.999Z</time></trkpt><trkpt lat="45.60655400076208" lon="8.20239558147316"><ele>372.0</ele><time>2026-04-18T12:50:41.999Z</time></trkpt><trkpt lat="45.60661727700961" lon="8.202454627592976"><ele>371.8333333333333</ele><time>2026-04-18T12:54:36.999Z</time></trkpt><trkpt lat="45.60668148369528" lon="8.202551746942717"><ele>371.6666666666667</ele><time>2026-04-18T12:54:38.999Z</time></trkpt><trkpt lat="45.60671752786904" lon="8.202701757476346"><ele>371.5</ele><time>2026-04-18T12:54:40.999Z</time></trkpt><trkpt lat="45.606696779588525" lon="8.202792655141359"><ele>371.33333333333337</ele><time>2026-04-18T12:54:41.999Z</time></trkpt><trkpt lat="45.60665476363942" lon="8.202867993834086"><ele>371.1666666666667</ele><time>2026-04-18T12:54:42.999Z</time></trkpt><trkpt lat="45.60660451230004" lon="8.202929049621362"><ele>371.0</ele><time>2026-04-18T12:54:43.999Z</time></trkpt><trkpt lat="45.60658255978835" lon="8.203104497778838"><ele>370.83333333333337</ele><time>2026-04-18T12:54:45.999Z</time></trkpt><trkpt lat="45.606587414896126" lon="8.203213740802404"><ele>370.6666666666667</ele><time>2026-04-18T12:54:46.999Z</time></trkpt><trkpt lat="45.60658549888686" lon="8.203337440164896"><ele>370.5</ele><time>2026-04-18T12:54:47.999Z</time></trkpt><trkpt lat="45.606557815379915" lon="8.203441437422745"><ele>370.3333333333333</ele><time>2026-04-18T12:54:48.999Z</time></trkpt><trkpt lat="45.60652447227954" lon="8.203539636736194"><ele>370.16666666666663</ele><time>2026-04-18T12:54:49.999Z</time></trkpt><trkpt lat="45.60649849918717" lon="8.203649227095042"><ele>370.0</ele><time>2026-04-18T12:54:50.999Z</time></trkpt><trkpt lat="45.60647329417911" lon="8.203762654548974"><ele>370.0</ele><time>2026-04-18T12:54:51.999Z</time></trkpt><trkpt lat="45.606465270637024" lon="8.20386810608408"><ele>370.0</ele><time>2026-04-18T12:54:52.999Z</time></trkpt><trkpt lat="45.60648247622694" lon="8.203978323162984"><ele>370.0</ele><time>2026-04-18T12:54:53.999Z</time></trkpt><trkpt lat="45.606528640070515" lon="8.204091113912495"><ele>370.0</ele><time>2026-04-18T12:54:54.999Z</time></trkpt><trkpt lat="45.606571199800406" lon="8.204232820978094"><ele>370.0</ele><time>2026-04-18T12:54:55.999Z</time></trkpt><trkpt lat="45.606609619049195" lon="8.20436351816757"><ele>370.2</ele><time>2026-04-18T12:54:56.999Z</time></trkpt><trkpt lat="45.60665634492995" lon="8.204475405172207"><ele>370.4</ele><time>2026-04-18T12:54:57.999Z</time></trkpt><trkpt lat="45.606709822036656" lon="8.204548810943772"><ele>370.6</ele><time>2026-04-18T12:54:58.999Z</time></trkpt><trkpt lat="45.60680372665036" lon="8.204717824470304"><ele>370.8</ele><time>2026-04-18T12:55:00.999Z</time></trkpt><trkpt lat="45.6068659944348" lon="8.204864993852977"><ele>371.0</ele><time>2026-04-18T12:55:01.999Z</time></trkpt><trkpt lat="45.606956723127276" lon="8.20501329594225"><ele>371.8</ele><time>2026-04-18T12:55:02.999Z</time></trkpt><trkpt lat="45.60704754575913" lon="8.20512777793694"><ele>372.6</ele><time>2026-04-18T12:55:03.999Z</time></trkpt><trkpt lat="45.60713184564406" lon="8.20520374408598"><ele>373.4</ele><time>2026-04-18T12:55:04.999Z</time></trkpt><trkpt lat="45.60719539968911" lon="8.205263727668521"><ele>374.2</ele><time>2026-04-18T12:55:05.999Z</time></trkpt><trkpt lat="45.6072335339485" lon="8.205353586006382"><ele>375.0</ele><time>2026-04-18T12:55:06.999Z</time></trkpt><trkpt lat="45.607278134983815" lon="8.205464027354626"><ele>375.0</ele><time>2026-04-18T12:55:07.999Z</time></trkpt><trkpt lat="45.60734933053094" lon="8.205585069065727"><ele>375.0</ele><time>2026-04-18T12:55:08.999Z</time></trkpt><trkpt lat="45.607417682106984" lon="8.205689135258273"><ele>375.0</ele><time>2026-04-18T12:55:09.999Z</time></trkpt><trkpt lat="45.60748586808768" lon="8.205788428770404"><ele>375.0</ele><time>2026-04-18T12:55:10.999Z</time></trkpt><trkpt lat="45.60751554886727" lon="8.205903772526836"><ele>375.0</ele><time>2026-04-18T12:55:11.999Z</time></trkpt><trkpt lat="45.60755746125974" lon="8.206012487211009"><ele>374.6</ele><time>2026-04-18T12:55:12.999Z</time></trkpt><trkpt lat="45.60759070286984" lon="8.206105252908182"><ele>374.2</ele><time>2026-04-18T12:55:13.999Z</time></trkpt><trkpt lat="45.60761528491778" lon="8.206210507300959"><ele>373.79999999999995</ele><time>2026-04-18T12:55:14.999Z</time></trkpt><trkpt lat="45.60762684737649" lon="8.206398677007984"><ele>373.4</ele><time>2026-04-18T12:55:15.999Z</time></trkpt><trkpt lat="45.607673490978364" lon="8.206596202597922"><ele>373.0</ele><time>2026-04-18T12:55:16.999Z</time></trkpt><trkpt lat="45.60770316321418" lon="8.20672682647699"><ele>372.16666666666663</ele><time>2026-04-18T12:55:17.999Z</time></trkpt><trkpt lat="45.607742924151225" lon="8.206796987388342"><ele>371.3333333333333</ele><time>2026-04-18T12:55:18.999Z</time></trkpt><trkpt lat="45.60779142726348" lon="8.206856017445862"><ele>370.5</ele><time>2026-04-18T12:55:21.999Z</time></trkpt><trkpt lat="45.607844590533375" lon="8.206991138068986"><ele>369.6666666666667</ele><time>2026-04-18T12:55:24.999Z</time></trkpt><trkpt lat="45.607898548604965" lon="8.207068226071813"><ele>368.83333333333337</ele><time>2026-04-18T12:55:25.999Z</time></trkpt><trkpt lat="45.60797194217267" lon="8.207131457813677"><ele>368.0</ele><time>2026-04-18T12:55:26.999Z</time></trkpt><trkpt lat="45.60802236660895" lon="8.20720550316298"><ele>367.83333333333337</ele><time>2026-04-18T12:55:27.999Z</time></trkpt><trkpt lat="45.60806570933143" lon="8.207271703170745"><ele>367.6666666666667</ele><time>2026-04-18T12:55:28.999Z</time></trkpt><trkpt lat="45.608120401368154" lon="8.20731783990809"><ele>367.5</ele><time>2026-04-18T12:55:29.999Z</time></trkpt><trkpt lat="45.60818909613961" lon="8.207394901221978"><ele>367.3333333333333</ele><time>2026-04-18T12:55:33.999Z</time></trkpt><trkpt lat="45.60826011539807" lon="8.207469714315543"><ele>367.16666666666663</ele><time>2026-04-18T12:55:34.999Z</time></trkpt><trkpt lat="45.608327552791714" lon="8.207560775421383"><ele>367.0</ele><time>2026-04-18T12:55:35.998Z</time></trkpt><trkpt lat="45.6084018378111" lon="8.20766819503155"><ele>364.75</ele><time>2026-04-18T12:55:37Z</time></trkpt><trkpt lat="45.608477115568284" lon="8.207809151220314"><ele>362.5</ele><time>2026-04-18T12:55:38Z</time></trkpt><trkpt lat="45.60854673379284" lon="8.207908726368494"><ele>360.25</ele><time>2026-04-18T12:55:40Z</time></trkpt><trkpt lat="45.608687835727885" lon="8.20798249425329"><ele>358.0</ele><time>2026-04-18T12:55:42Z</time></trkpt><trkpt lat="45.60875740861689" lon="8.208037239376056"><ele>357.42857142857144</ele><time>2026-04-18T12:55:43Z</time></trkpt><trkpt lat="45.60874454493854" lon="8.208155027195428"><ele>356.8571428571429</ele><time>2026-04-18T12:55:48Z</time></trkpt><trkpt lat="45.60867915939991" lon="8.208173950444431"><ele>356.28571428571433</ele><time>2026-04-18T12:55:53Z</time></trkpt><trkpt lat="45.60859139157775" lon="8.208175774941777"><ele>355.7142857142857</ele><time>2026-04-18T12:55:55Z</time></trkpt><trkpt lat="45.60852430215845" lon="8.20816252628047"><ele>355.1428571428571</ele><time>2026-04-18T12:56:00Z</time></trkpt><trkpt lat="45.608497722880664" lon="8.208244994792285"><ele>354.5714285714286</ele><time>2026-04-18T12:56:05Z</time></trkpt><trkpt lat="45.60851156645355" lon="8.208345228279777"><ele>354.0</ele><time>2026-04-18T12:56:11.999Z</time></trkpt><trkpt lat="45.60847761830653" lon="8.20846050963203"><ele>354.0</ele><time>2026-04-18T12:56:14.999Z</time></trkpt><trkpt lat="45.60844671013146" lon="8.208556296886417"><ele>354.0</ele><time>2026-04-18T12:56:18.999Z</time></trkpt><trkpt lat="45.60844838700217" lon="8.208654132494443"><ele>354.0</ele><time>2026-04-18T12:56:21.999Z</time></trkpt><trkpt lat="45.60846817695095" lon="8.208739645323824"><ele>354.0</ele><time>2026-04-18T12:56:24.999Z</time></trkpt><trkpt lat="45.6084412497255" lon="8.208853772195042"><ele>354.0</ele><time>2026-04-18T12:56:27.999Z</time></trkpt><trkpt lat="45.608375677853886" lon="8.20887432017629"><ele>354.0</ele><time>2026-04-18T12:56:30.999Z</time></trkpt><trkpt lat="45.60831296541976" lon="8.20882411628657"><ele>354.0</ele><time>2026-04-18T12:56:33.999Z</time></trkpt><trkpt lat="45.60824801417946" lon="8.208834865224942"><ele>354.0</ele><time>2026-04-18T12:56:37.999Z</time></trkpt><trkpt lat="45.60814830282894" lon="8.208759546500756"><ele>354.0</ele><time>2026-04-18T12:56:40.999Z</time></trkpt><trkpt lat="45.608074562990595" lon="8.208771290606718"><ele>354.0</ele><time>2026-04-18T12:56:42.999Z</time></trkpt><trkpt lat="45.60797722290258" lon="8.208813045173201"><ele>354.0</ele><time>2026-04-18T12:56:43.999Z</time></trkpt><trkpt lat="45.607917804288086" lon="8.208847346423228"><ele>354.0</ele><time>2026-04-18T12:56:44.999Z</time></trkpt><trkpt lat="45.607816654537615" lon="8.20889076894205"><ele>355.8333333333333</ele><time>2026-04-18T12:56:46.999Z</time></trkpt><trkpt lat="45.607718147488775" lon="8.208937021667955"><ele>357.6666666666667</ele><time>2026-04-18T12:56:47.999Z</time></trkpt><trkpt lat="45.607646809893396" lon="8.208973232696657"><ele>359.5</ele><time>2026-04-18T12:56:48.999Z</time></trkpt><trkpt lat="45.60758196359789" lon="8.208940999434711"><ele>361.33333333333337</ele><time>2026-04-18T12:56:49.999Z</time></trkpt><trkpt lat="45.60752692656558" lon="8.208873974612501"><ele>363.1666666666667</ele><time>2026-04-18T12:56:51.999Z</time></trkpt><trkpt lat="45.60741541354237" lon="8.208908541002877"><ele>365.0</ele><time>2026-04-18T12:56:53.999Z</time></trkpt><trkpt lat="45.60735237661421" lon="8.208918179386515"><ele>365.0</ele><time>2026-04-18T12:56:54.999Z</time></trkpt><trkpt lat="45.60727272539269" lon="8.208913382032152"><ele>365.0</ele><time>2026-04-18T12:56:55.999Z</time></trkpt><trkpt lat="45.60716057328629" lon="8.208870979427406"><ele>365.0</ele><time>2026-04-18T12:56:56.999Z</time></trkpt><trkpt lat="45.60703700414221" lon="8.20889030296683"><ele>365.0</ele><time>2026-04-18T12:56:57.999Z</time></trkpt><trkpt lat="45.60694943057826" lon="8.208930206147297"><ele>365.0</ele><time>2026-04-18T12:56:58.999Z</time></trkpt><trkpt lat="45.60691165131807" lon="8.20905965383967"><ele>366.6</ele><time>2026-04-18T12:57:00.999Z</time></trkpt><trkpt lat="45.60688849041192" lon="8.209217105664536"><ele>368.2</ele><time>2026-04-18T12:57:01.999Z</time></trkpt><trkpt lat="45.60685171715777" lon="8.209307524718259"><ele>369.79999999999995</ele><time>2026-04-18T12:57:02.999Z</time></trkpt><trkpt lat="45.60693582688238" lon="8.209416174999093"><ele>371.4</ele><time>2026-04-18T12:57:03.999Z</time></trkpt><trkpt lat="45.606992046508594" lon="8.209499299272947"><ele>373.0</ele><time>2026-04-18T12:57:05.999Z</time></trkpt><trkpt lat="45.60701352827598" lon="8.209365263278357"><ele>374.5</ele><time>2026-04-18T12:57:14.999Z</time></trkpt><trkpt lat="45.60699419187669" lon="8.209278218202522"><ele>376.0</ele><time>2026-04-18T12:57:17.999Z</time></trkpt><trkpt lat="45.6069257867488" lon="8.209167104442994"><ele>377.5</ele><time>2026-04-18T12:57:19.999Z</time></trkpt><trkpt lat="45.60686388405444" lon="8.209125345116329"><ele>379.0</ele><time>2026-04-18T12:57:20.999Z</time></trkpt><trkpt lat="45.60678805427555" lon="8.209114634404989"><ele>380.5</ele><time>2026-04-18T12:57:21.999Z</time></trkpt><trkpt lat="45.60669440608559" lon="8.209143630938112"><ele>382.0</ele><time>2026-04-18T12:57:22.999Z</time></trkpt><trkpt lat="45.60660684838296" lon="8.209187894510116"><ele>382.0</ele><time>2026-04-18T12:57:23.999Z</time></trkpt><trkpt lat="45.606527317158005" lon="8.209221852551384"><ele>382.0</ele><time>2026-04-18T12:57:24.999Z</time></trkpt><trkpt lat="45.606422493856066" lon="8.20928405542623"><ele>382.0</ele><time>2026-04-18T12:57:26.999Z</time></trkpt><trkpt lat="45.60634000949216" lon="8.209306134520872"><ele>382.0</ele><time>2026-04-18T12:57:28.999Z</time></trkpt><trkpt lat="45.60622695763315" lon="8.20926719195347"><ele>382.0</ele><time>2026-04-18T12:57:29.999Z</time></trkpt><trkpt lat="45.60608169310856" lon="8.20922488045279"><ele>383.6</ele><time>2026-04-18T12:57:30.999Z</time></trkpt><trkpt lat="45.605955363648704" lon="8.209201828350558"><ele>385.20000000000005</ele><time>2026-04-18T12:57:31.999Z</time></trkpt><trkpt lat="45.60588784179781" lon="8.209185456487967"><ele>386.8</ele><time>2026-04-18T12:57:32.999Z</time></trkpt><trkpt lat="45.605770904768384" lon="8.20914622010682"><ele>388.4</ele><time>2026-04-18T12:57:34.999Z</time></trkpt><trkpt lat="45.605679799699466" lon="8.209172372674503"><ele>390.0</ele><time>2026-04-18T12:57:35.999Z</time></trkpt><trkpt lat="45.60562844362928" lon="8.209249319389743"><ele>390.0</ele><time>2026-04-18T12:57:36.999Z</time></trkpt><trkpt lat="45.60559636412687" lon="8.209343424471435"><ele>390.0</ele><time>2026-04-18T12:57:37.999Z</time></trkpt><trkpt lat="45.60559192370584" lon="8.209435564963835"><ele>390.0</ele><time>2026-04-18T12:57:40.999Z</time></trkpt><trkpt lat="45.60552392571482" lon="8.209518666211926"><ele>390.0</ele><time>2026-04-18T12:57:43Z</time></trkpt><trkpt lat="45.605495126848695" lon="8.209623608602078"><ele>390.0</ele><time>2026-04-18T12:57:46Z</time></trkpt><trkpt lat="45.605514507664445" lon="8.209731838038326"><ele>390.0</ele><time>2026-04-18T12:57:50Z</time></trkpt><trkpt lat="45.60551111115083" lon="8.209845181371174"><ele>390.1666666666667</ele><time>2026-04-18T12:57:53Z</time></trkpt><trkpt lat="45.60547703691478" lon="8.20998368077398"><ele>390.33333333333337</ele><time>2026-04-18T12:57:57Z</time></trkpt><trkpt lat="45.60548028529411" lon="8.210091578835451"><ele>390.5</ele><time>2026-04-18T12:58:00Z</time></trkpt><trkpt lat="45.605506320263274" lon="8.210219125108418"><ele>390.6666666666667</ele><time>2026-04-18T12:58:02Z</time></trkpt><trkpt lat="45.605528802775666" lon="8.210305251918172"><ele>390.83333333333337</ele><time>2026-04-18T12:58:03Z</time></trkpt><trkpt lat="45.60553551389868" lon="8.210405256439914"><ele>391.0</ele><time>2026-04-18T12:58:04Z</time></trkpt><trkpt lat="45.6055442305869" lon="8.210507519999489"><ele>391.0</ele><time>2026-04-18T12:58:05Z</time></trkpt><trkpt lat="45.60564865291626" lon="8.210511281235098"><ele>391.0</ele><time>2026-04-18T12:58:10.999Z</time></trkpt><trkpt lat="45.6057234129918" lon="8.210534825911887"><ele>391.0</ele><time>2026-04-18T12:58:11.999Z</time></trkpt><trkpt lat="45.60579098529882" lon="8.21054348126033"><ele>391.0</ele><time>2026-04-18T12:58:12.999Z</time></trkpt><trkpt lat="45.60594887996235" lon="8.21071126568251"><ele>391.0</ele><time>2026-04-18T12:58:13.999Z</time></trkpt><trkpt lat="45.60604190554219" lon="8.210715969927373"><ele>391.0</ele><time>2026-04-18T12:58:14.999Z</time></trkpt><trkpt lat="45.60613527485652" lon="8.210729911415289"><ele>391.0</ele><time>2026-04-18T12:58:15.999Z</time></trkpt><trkpt lat="45.60620463699282" lon="8.210768834031196"><ele>391.0</ele><time>2026-04-18T12:58:16.999Z</time></trkpt><trkpt lat="45.60632452731842" lon="8.210858053312336"><ele>391.0</ele><time>2026-04-18T12:58:18.999Z</time></trkpt><trkpt lat="45.60638405029799" lon="8.210906557975402"><ele>391.0</ele><time>2026-04-18T12:58:19.999Z</time></trkpt><trkpt lat="45.606463729650365" lon="8.21093281069726"><ele>391.00000000000006</ele><time>2026-04-18T12:58:20.999Z</time></trkpt><trkpt lat="45.60653818552419" lon="8.210867207771576"><ele>391.0</ele><time>2026-04-18T12:58:21.999Z</time></trkpt><trkpt lat="45.60660468081826" lon="8.2108338491551"><ele>391.0</ele><time>2026-04-18T12:58:22.999Z</time></trkpt><trkpt lat="45.60665742775547" lon="8.21076398447658"><ele>391.0</ele><time>2026-04-18T12:58:23.999Z</time></trkpt><trkpt lat="45.606730482618886" lon="8.210704582160032"><ele>391.00000000000006</ele><time>2026-04-18T12:58:25.999Z</time></trkpt><trkpt lat="45.60682649415637" lon="8.21059501401486"><ele>391.0</ele><time>2026-04-18T12:58:27.999Z</time></trkpt><trkpt lat="45.6068877500197" lon="8.210520931803385"><ele>390.1666666666667</ele><time>2026-04-18T12:58:29.999Z</time></trkpt><trkpt lat="45.606973806332576" lon="8.210443810338331"><ele>389.33333333333337</ele><time>2026-04-18T12:58:31.999Z</time></trkpt><trkpt lat="45.60703361064466" lon="8.210392853826585"><ele>388.5</ele><time>2026-04-18T12:58:32.999Z</time></trkpt><trkpt lat="45.607085715270316" lon="8.21029452488577"><ele>387.66666666666663</ele><time>2026-04-18T12:58:33.999Z</time></trkpt><trkpt lat="45.60717172011535" lon="8.210235549406699"><ele>386.8333333333333</ele><time>2026-04-18T12:58:34.999Z</time></trkpt><trkpt lat="45.607259149167014" lon="8.21022207112768"><ele>386.0</ele><time>2026-04-18T12:58:35.999Z</time></trkpt><trkpt lat="45.60736087263981" lon="8.210145798386362"><ele>385.0</ele><time>2026-04-18T12:58:36.999Z</time></trkpt><trkpt lat="45.60743785561322" lon="8.21008244096073"><ele>384.0</ele><time>2026-04-18T12:58:37.999Z</time></trkpt><trkpt lat="45.607509697078385" lon="8.210059519837865"><ele>383.0</ele><time>2026-04-18T12:58:38.999Z</time></trkpt><trkpt lat="45.60757746466753" lon="8.210080172830919"><ele>382.0</ele><time>2026-04-18T12:58:39.999Z</time></trkpt><trkpt lat="45.60769355320423" lon="8.210152062742475"><ele>381.0</ele><time>2026-04-18T12:58:41.999Z</time></trkpt><trkpt lat="45.60782902098944" lon="8.21015574270786"><ele>378.5</ele><time>2026-04-18T12:58:42.999Z</time></trkpt><trkpt lat="45.607899001931635" lon="8.210212702816692"><ele>376.0</ele><time>2026-04-18T12:58:43.999Z</time></trkpt><trkpt lat="45.60795716708057" lon="8.210291146455313"><ele>373.5</ele><time>2026-04-18T12:58:44.999Z</time></trkpt><trkpt lat="45.608007301524516" lon="8.21035959294171"><ele>371.0</ele><time>2026-04-18T12:58:46.999Z</time></trkpt><trkpt lat="45.608018197217454" lon="8.210455989133596"><ele>368.5</ele><time>2026-04-18T12:58:56.999Z</time></trkpt><trkpt lat="45.60803092786244" lon="8.210567630267116"><ele>366.0</ele><time>2026-04-18T12:58:58.999Z</time></trkpt><trkpt lat="45.60805124332959" lon="8.210723838575019"><ele>366.0</ele><time>2026-04-18T12:59:00.999Z</time></trkpt><trkpt lat="45.60807667946789" lon="8.210890410120712"><ele>366.0</ele><time>2026-04-18T12:59:02.999Z</time></trkpt><trkpt lat="45.608151083810526" lon="8.210932582942073"><ele>366.0</ele><time>2026-04-18T12:59:04.999Z</time></trkpt><trkpt lat="45.60822574617572" lon="8.210956506100475"><ele>366.0</ele><time>2026-04-18T12:59:05.999Z</time></trkpt><trkpt lat="45.608307692158526" lon="8.211092777527492"><ele>366.0</ele><time>2026-04-18T12:59:07.999Z</time></trkpt><trkpt lat="45.60835637012777" lon="8.21117771352302"><ele>366.0</ele><time>2026-04-18T12:59:08.999Z</time></trkpt><trkpt lat="45.60840764690424" lon="8.211303250529074"><ele>366.0</ele><time>2026-04-18T12:59:09.999Z</time></trkpt><trkpt lat="45.60844564765534" lon="8.211403181539383"><ele>366.0</ele><time>2026-04-18T12:59:10.999Z</time></trkpt><trkpt lat="45.6084748771193" lon="8.211578164641821"><ele>366.0</ele><time>2026-04-18T12:59:12.999Z</time></trkpt><trkpt lat="45.60850690620418" lon="8.21166023002951"><ele>366.0</ele><time>2026-04-18T12:59:13.999Z</time></trkpt><trkpt lat="45.60853322642949" lon="8.211773360772058"><ele>366.0</ele><time>2026-04-18T12:59:14.999Z</time></trkpt><trkpt lat="45.60855236721451" lon="8.211861226855751"><ele>366.0</ele><time>2026-04-18T12:59:15.999Z</time></trkpt><trkpt lat="45.60854082066705" lon="8.212010035394888"><ele>366.0</ele><time>2026-04-18T12:59:17.999Z</time></trkpt><trkpt lat="45.60858499531773" lon="8.212096713012265"><ele>366.0</ele><time>2026-04-18T12:59:18.999Z</time></trkpt><trkpt lat="45.6086335890993" lon="8.212177635486624"><ele>366.0</ele><time>2026-04-18T12:59:19.999Z</time></trkpt><trkpt lat="45.60865627618848" lon="8.212265570145593"><ele>366.0</ele><time>2026-04-18T12:59:20.999Z</time></trkpt><trkpt lat="45.60865964183601" lon="8.212374672897148"><ele>362.5</ele><time>2026-04-18T12:59:21.999Z</time></trkpt><trkpt lat="45.608684862144074" lon="8.212498543907934"><ele>359.0</ele><time>2026-04-18T12:59:22.999Z</time></trkpt><trkpt lat="45.608740574688575" lon="8.212588657102277"><ele>355.5</ele><time>2026-04-18T12:59:23.999Z</time></trkpt><trkpt lat="45.60881802010174" lon="8.212638118138013"><ele>352.0</ele><time>2026-04-18T12:59:24.999Z</time></trkpt><trkpt lat="45.60887217786096" lon="8.212692168829278"><ele>348.5</ele><time>2026-04-18T12:59:25.999Z</time></trkpt><trkpt lat="45.60891320848157" lon="8.21276721117271"><ele>345.0</ele><time>2026-04-18T12:59:26.999Z</time></trkpt><trkpt lat="45.60898552379254" lon="8.212859875175468"><ele>345.0</ele><time>2026-04-18T12:59:28.999Z</time></trkpt><trkpt lat="45.60901893248739" lon="8.21305389726689"><ele>345.0</ele><time>2026-04-18T12:59:30.999Z</time></trkpt><trkpt lat="45.60909294030394" lon="8.213136314717893"><ele>345.0</ele><time>2026-04-18T12:59:32.999Z</time></trkpt><trkpt lat="45.60916449403826" lon="8.21313266774716"><ele>345.0</ele><time>2026-04-18T12:59:34.999Z</time></trkpt><trkpt lat="45.60914479913105" lon="8.213259083338166"><ele>345.0</ele><time>2026-04-18T12:59:37.999Z</time></trkpt><trkpt lat="45.609186407958745" lon="8.21334094580485"><ele>346.42857142857144</ele><time>2026-04-18T12:59:46.999Z</time></trkpt><trkpt lat="45.609118020722576" lon="8.21338680857545"><ele>347.85714285714283</ele><time>2026-04-18T13:11:55.998Z</time></trkpt><trkpt lat="45.60906369420132" lon="8.213457379354077"><ele>349.2857142857143</ele><time>2026-04-18T13:11:58.998Z</time></trkpt><trkpt lat="45.60901527243193" lon="8.213548295009732"><ele>350.7142857142857</ele><time>2026-04-18T13:12:01.998Z</time></trkpt><trkpt lat="45.608982682079116" lon="8.213639347797173"><ele>352.14285714285717</ele><time>2026-04-18T13:12:03.998Z</time></trkpt><trkpt lat="45.6089236054099" lon="8.213599332414374"><ele>353.57142857142856</ele><time>2026-04-18T13:12:07.998Z</time></trkpt><trkpt lat="45.60886290756816" lon="8.213532699642354"><ele>355.0</ele><time>2026-04-18T13:12:09.998Z</time></trkpt><trkpt lat="45.60879386406028" lon="8.213563047796807"><ele>355.0</ele><time>2026-04-18T13:12:11.998Z</time></trkpt><trkpt lat="45.608745185824574" lon="8.213665761531045"><ele>355.0</ele><time>2026-04-18T13:12:14.998Z</time></trkpt><trkpt lat="45.60871980117777" lon="8.213773373690913"><ele>355.0</ele><time>2026-04-18T13:12:16.998Z</time></trkpt><trkpt lat="45.60865482882418" lon="8.213764399460045"><ele>355.0</ele><time>2026-04-18T13:12:19.998Z</time></trkpt><trkpt lat="45.608587314535654" lon="8.213788694617515"><ele>355.0</ele><time>2026-04-18T13:12:21.998Z</time></trkpt><trkpt lat="45.60855270508076" lon="8.213868236130189"><ele>355.0</ele><time>2026-04-18T13:12:30.997Z</time></trkpt><trkpt lat="45.60848195745593" lon="8.213877604136199"><ele>355.0</ele><time>2026-04-18T13:12:34.997Z</time></trkpt><trkpt lat="45.608407446333764" lon="8.21386837004989"><ele>354.2857142857143</ele><time>2026-04-18T13:12:36.997Z</time></trkpt><trkpt lat="45.60833298596905" lon="8.213873498198005"><ele>353.57142857142856</ele><time>2026-04-18T13:12:40.998Z</time></trkpt><trkpt lat="45.60830544715614" lon="8.213791247690976"><ele>352.8571428571429</ele><time>2026-04-18T13:12:42.998Z</time></trkpt><trkpt lat="45.60823476846701" lon="8.213793272066985"><ele>352.1428571428571</ele><time>2026-04-18T13:12:45.998Z</time></trkpt><trkpt lat="45.60816731278195" lon="8.21381371032773"><ele>351.42857142857144</ele><time>2026-04-18T13:12:48.998Z</time></trkpt><trkpt lat="45.608126167702" lon="8.21373205043782"><ele>350.7142857142857</ele><time>2026-04-18T13:12:51.999Z</time></trkpt><trkpt lat="45.60808111951269" lon="8.213656841039308"><ele>350.0</ele><time>2026-04-18T13:12:54.999Z</time></trkpt><trkpt lat="45.60800734249259" lon="8.21363101549615"><ele>350.0</ele><time>2026-04-18T13:12:56.999Z</time></trkpt><trkpt lat="45.60794147229482" lon="8.213635557681675"><ele>350.0</ele><time>2026-04-18T13:12:59.999Z</time></trkpt><trkpt lat="45.60787176832875" lon="8.213693377485695"><ele>350.0</ele><time>2026-04-18T13:13:05.999Z</time></trkpt><trkpt lat="45.60781263286479" lon="8.213740008854614"><ele>350.0</ele><time>2026-04-18T13:13:07.999Z</time></trkpt><trkpt lat="45.60775089048765" lon="8.21369857611677"><ele>350.0</ele><time>2026-04-18T13:13:21.999Z</time></trkpt><trkpt lat="45.60768801110057" lon="8.2136382790902"><ele>350.0</ele><time>2026-04-18T13:13:24.999Z</time></trkpt><trkpt lat="45.60758723834069" lon="8.213620360870882"><ele>351.5</ele><time>2026-04-18T13:13:26.999Z</time></trkpt><trkpt lat="45.60751240826036" lon="8.213637959673422"><ele>353.0</ele><time>2026-04-18T13:13:27.999Z</time></trkpt><trkpt lat="45.60741967311346" lon="8.213616286908874"><ele>354.5</ele><time>2026-04-18T13:13:29.999Z</time></trkpt><trkpt lat="45.60735494119449" lon="8.21357415690296"><ele>356.0</ele><time>2026-04-18T13:13:32Z</time></trkpt><trkpt lat="45.60725193063725" lon="8.213568531784231"><ele>357.5</ele><time>2026-04-18T13:13:34Z</time></trkpt><trkpt lat="45.607177848855216" lon="8.213586126398427"><ele>359.0</ele><time>2026-04-18T13:13:36Z</time></trkpt><trkpt lat="45.60714964958045" lon="8.213669708049919"><ele>359.0</ele><time>2026-04-18T13:13:43Z</time></trkpt><trkpt lat="45.60710472521875" lon="8.213737946476455"><ele>359.0</ele><time>2026-04-18T13:13:49Z</time></trkpt><trkpt lat="45.60705750135398" lon="8.213805453294619"><ele>359.0</ele><time>2026-04-18T13:13:54Z</time></trkpt><trkpt lat="45.60698431942409" lon="8.213864062972352"><ele>359.0</ele><time>2026-04-18T13:14:31.999Z</time></trkpt><trkpt lat="45.606978984136" lon="8.213964389847638"><ele>359.0</ele><time>2026-04-18T13:14:37.999Z</time></trkpt><trkpt lat="45.60700549847874" lon="8.214068505203572"><ele>359.0</ele><time>2026-04-18T13:14:41.999Z</time></trkpt><trkpt lat="45.606979356911694" lon="8.214165724476187"><ele>359.0</ele><time>2026-04-18T13:14:47.999Z</time></trkpt><trkpt lat="45.60691150535624" lon="8.214184213916003"><ele>362.57142857142856</ele><time>2026-04-18T13:14:50.999Z</time></trkpt><trkpt lat="45.60683998178269" lon="8.21422280176584"><ele>366.14285714285717</ele><time>2026-04-18T13:14:55Z</time></trkpt><trkpt lat="45.606767477028804" lon="8.214212100226476"><ele>369.71428571428567</ele><time>2026-04-18T13:14:58Z</time></trkpt><trkpt lat="45.60670173868959" lon="8.214240246219635"><ele>373.2857142857143</ele><time>2026-04-18T13:15:01Z</time></trkpt><trkpt lat="45.60670360681666" lon="8.214351592628049"><ele>376.85714285714283</ele><time>2026-04-18T13:15:05Z</time></trkpt><trkpt lat="45.60665015102794" lon="8.214408417752026"><ele>380.4285714285714</ele><time>2026-04-18T13:15:15Z</time></trkpt><trkpt lat="45.606631846361424" lon="8.214529507165132"><ele>384.0</ele><time>2026-04-18T13:15:19Z</time></trkpt><trkpt lat="45.60665109163254" lon="8.214650772114807"><ele>384.0</ele><time>2026-04-18T13:15:23Z</time></trkpt><trkpt lat="45.60669218935425" lon="8.214760308863003"><ele>384.0</ele><time>2026-04-18T13:15:25Z</time></trkpt><trkpt lat="45.606744248457986" lon="8.214844340027623"><ele>384.0</ele><time>2026-04-18T13:15:27Z</time></trkpt><trkpt lat="45.60676487494873" lon="8.215031524722818"><ele>384.0</ele><time>2026-04-18T13:15:30Z</time></trkpt><trkpt lat="45.60678673000935" lon="8.215126098948305"><ele>384.0</ele><time>2026-04-18T13:15:31Z</time></trkpt><trkpt lat="45.60682127909917" lon="8.215217316582706"><ele>384.0</ele><time>2026-04-18T13:15:32Z</time></trkpt><trkpt lat="45.606848223542634" lon="8.21531712632014"><ele>384.4</ele><time>2026-04-18T13:15:35Z</time></trkpt><trkpt lat="45.60695202414761" lon="8.215354190300333"><ele>384.79999999999995</ele><time>2026-04-18T13:16:07Z</time></trkpt><trkpt lat="45.60690614348932" lon="8.215468688316287"><ele>385.20000000000005</ele><time>2026-04-18T13:16:13Z</time></trkpt><trkpt lat="45.6068552192845" lon="8.215604634143894"><ele>385.6</ele><time>2026-04-18T13:16:15Z</time></trkpt><trkpt lat="45.606806682340206" lon="8.215670230089223"><ele>386.0</ele><time>2026-04-18T13:16:16Z</time></trkpt><trkpt lat="45.606733795840974" lon="8.215746731410501"><ele>384.8</ele><time>2026-04-18T13:16:17Z</time></trkpt><trkpt lat="45.606641641298346" lon="8.215841187707444"><ele>383.6</ele><time>2026-04-18T13:16:18Z</time></trkpt><trkpt lat="45.606562841909806" lon="8.215946406131149"><ele>382.4</ele><time>2026-04-18T13:16:19Z</time></trkpt><trkpt lat="45.60650109477293" lon="8.216055122614128"><ele>381.2</ele><time>2026-04-18T13:16:20Z</time></trkpt><trkpt lat="45.606476707416874" lon="8.216177072029057"><ele>380.0</ele><time>2026-04-18T13:16:21Z</time></trkpt><trkpt lat="45.60647447971068" lon="8.216335396897547"><ele>377.6</ele><time>2026-04-18T13:16:22Z</time></trkpt><trkpt lat="45.606492365828416" lon="8.216526743715246"><ele>375.2</ele><time>2026-04-18T13:16:23.001Z</time></trkpt><trkpt lat="45.606487044169064" lon="8.216658286801893"><ele>372.79999999999995</ele><time>2026-04-18T13:16:24.001Z</time></trkpt><trkpt lat="45.60645322569624" lon="8.216769153644366"><ele>370.4</ele><time>2026-04-18T13:16:25.001Z</time></trkpt><trkpt lat="45.60638383690896" lon="8.216893220217464"><ele>368.0</ele><time>2026-04-18T13:16:26.001Z</time></trkpt><trkpt lat="45.60627005851009" lon="8.216987984019854"><ele>368.0</ele><time>2026-04-18T13:16:27.001Z</time></trkpt><trkpt lat="45.60617068750411" lon="8.217052960722892"><ele>368.0</ele><time>2026-04-18T13:16:28.001Z</time></trkpt><trkpt lat="45.606127287401634" lon="8.21715975654009"><ele>368.0</ele><time>2026-04-18T13:16:29.001Z</time></trkpt><trkpt lat="45.606056995720216" lon="8.217261083876625"><ele>368.0</ele><time>2026-04-18T13:16:30.001Z</time></trkpt><trkpt lat="45.60598173664524" lon="8.217363146124772"><ele>368.0</ele><time>2026-04-18T13:16:31.001Z</time></trkpt><trkpt lat="45.605905315630864" lon="8.21746883512625"><ele>367.79999999999995</ele><time>2026-04-18T13:16:32.001Z</time></trkpt><trkpt lat="45.605832717609665" lon="8.21756942375134"><ele>367.6</ele><time>2026-04-18T13:16:33.001Z</time></trkpt><trkpt lat="45.60576922499813" lon="8.217675064558982"><ele>367.4</ele><time>2026-04-18T13:16:34.001Z</time></trkpt><trkpt lat="45.605701362370645" lon="8.217786490297582"><ele>367.20000000000005</ele><time>2026-04-18T13:16:35Z</time></trkpt><trkpt lat="45.605636853723375" lon="8.217882168000138"><ele>367.0</ele><time>2026-04-18T13:16:36Z</time></trkpt><trkpt lat="45.605578345881206" lon="8.217977463421114"><ele>367.0</ele><time>2026-04-18T13:16:37Z</time></trkpt><trkpt lat="45.60553399770938" lon="8.218062638307643"><ele>367.0</ele><time>2026-04-18T13:16:38Z</time></trkpt><trkpt lat="45.6054923443419" lon="8.218167279692763"><ele>367.0</ele><time>2026-04-18T13:16:39Z</time></trkpt><trkpt lat="45.60543619031101" lon="8.21827728196866"><ele>367.0</ele><time>2026-04-18T13:16:40Z</time></trkpt><trkpt lat="45.60536952448514" lon="8.218379038231891"><ele>367.0</ele><time>2026-04-18T13:16:41Z</time></trkpt><trkpt lat="45.605287346523795" lon="8.218465514901736"><ele>366.8</ele><time>2026-04-18T13:16:42Z</time></trkpt><trkpt lat="45.60519831576282" lon="8.21857396954511"><ele>366.6</ele><time>2026-04-18T13:16:43Z</time></trkpt><trkpt lat="45.605125866127494" lon="8.218672667290512"><ele>366.40000000000003</ele><time>2026-04-18T13:16:44Z</time></trkpt><trkpt lat="45.605062381586286" lon="8.218774520409951"><ele>366.20000000000005</ele><time>2026-04-18T13:16:45Z</time></trkpt><trkpt lat="45.60499817538551" lon="8.218846423346509"><ele>366.0</ele><time>2026-04-18T13:16:46Z</time></trkpt><trkpt lat="45.60492008132727" lon="8.218858448235174"><ele>366.0</ele><time>2026-04-18T13:16:47Z</time></trkpt><trkpt lat="45.60482999950946" lon="8.218860460029795"><ele>366.0</ele><time>2026-04-18T13:16:48Z</time></trkpt><trkpt lat="45.60474149894535" lon="8.218873394134405"><ele>366.0</ele><time>2026-04-18T13:16:49Z</time></trkpt><trkpt lat="45.60466071162859" lon="8.218918768136406"><ele>366.0</ele><time>2026-04-18T13:16:50Z</time></trkpt><trkpt lat="45.60459384541206" lon="8.218995428555457"><ele>366.0</ele><time>2026-04-18T13:16:51Z</time></trkpt><trkpt lat="45.60450662184198" lon="8.219074900088422"><ele>364.3333333333333</ele><time>2026-04-18T13:16:52Z</time></trkpt><trkpt lat="45.60442330994576" lon="8.219149365007363"><ele>362.6666666666667</ele><time>2026-04-18T13:16:53Z</time></trkpt><trkpt lat="45.60434297088911" lon="8.219203783408783"><ele>361.0</ele><time>2026-04-18T13:16:54Z</time></trkpt><trkpt lat="45.60427480374828" lon="8.219235697851223"><ele>359.33333333333337</ele><time>2026-04-18T13:16:55Z</time></trkpt><trkpt lat="45.60420121850384" lon="8.219249934582049"><ele>357.6666666666667</ele><time>2026-04-18T13:16:56Z</time></trkpt><trkpt lat="45.60411782177502" lon="8.219311488050261"><ele>356.0</ele><time>2026-04-18T13:16:57Z</time></trkpt><trkpt lat="45.60403309391479" lon="8.219398745601735"><ele>356.0</ele><time>2026-04-18T13:16:58Z</time></trkpt><trkpt lat="45.60394821800112" lon="8.219507481003474"><ele>356.0</ele><time>2026-04-18T13:16:59Z</time></trkpt><trkpt lat="45.60385682899682" lon="8.219644395342332"><ele>356.0</ele><time>2026-04-18T13:17:00Z</time></trkpt><trkpt lat="45.6037519527806" lon="8.2197962462966"><ele>356.0</ele><time>2026-04-18T13:17:01Z</time></trkpt><trkpt lat="45.60364714054637" lon="8.219953506224131"><ele>354.6</ele><time>2026-04-18T13:17:02Z</time></trkpt><trkpt lat="45.60357799299896" lon="8.22007759886854"><ele>353.20000000000005</ele><time>2026-04-18T13:17:03Z</time></trkpt><trkpt lat="45.60352423416743" lon="8.220168513832103"><ele>351.79999999999995</ele><time>2026-04-18T13:17:04.001Z</time></trkpt><trkpt lat="45.603456581867356" lon="8.220289351899421"><ele>350.4</ele><time>2026-04-18T13:17:05.001Z</time></trkpt><trkpt lat="45.60339586928383" lon="8.22041610129239"><ele>349.0</ele><time>2026-04-18T13:17:06.001Z</time></trkpt><trkpt lat="45.60334803680285" lon="8.220571042008997"><ele>349.75</ele><time>2026-04-18T13:17:07.001Z</time></trkpt><trkpt lat="45.603290442678706" lon="8.220728864833292"><ele>350.5</ele><time>2026-04-18T13:17:08.001Z</time></trkpt><trkpt lat="45.60322579806306" lon="8.22091646693678"><ele>351.25</ele><time>2026-04-18T13:17:09.001Z</time></trkpt><trkpt lat="45.60315507489167" lon="8.221090664609727"><ele>352.0</ele><time>2026-04-18T13:17:10.001Z</time></trkpt><trkpt lat="45.60314164252314" lon="8.221244256384956"><ele>352.0</ele><time>2026-04-18T13:17:11.001Z</time></trkpt><trkpt lat="45.603170383371754" lon="8.221360713366398"><ele>352.0</ele><time>2026-04-18T13:17:12.001Z</time></trkpt><trkpt lat="45.60321308596741" lon="8.221481637309482"><ele>352.0</ele><time>2026-04-18T13:17:13.001Z</time></trkpt><trkpt lat="45.60317836320932" lon="8.221637106733915"><ele>352.0</ele><time>2026-04-18T13:17:14.001Z</time></trkpt><trkpt lat="45.60313545587128" lon="8.221821806006375"><ele>352.0</ele><time>2026-04-18T13:17:15.001Z</time></trkpt><trkpt lat="45.60309720607113" lon="8.222003170385843"><ele>352.0</ele><time>2026-04-18T13:17:16.001Z</time></trkpt><trkpt lat="45.603070005487915" lon="8.222174238933581"><ele>352.0</ele><time>2026-04-18T13:17:17.001Z</time></trkpt><trkpt lat="45.60305374294255" lon="8.222301412606527"><ele>352.0</ele><time>2026-04-18T13:17:18.001Z</time></trkpt><trkpt lat="45.603007528388105" lon="8.222398676292011"><ele>352.0</ele><time>2026-04-18T13:17:19.001Z</time></trkpt><trkpt lat="45.60295901885097" lon="8.222458275232796"><ele>352.0</ele><time>2026-04-18T13:17:21.001Z</time></trkpt><trkpt lat="45.60302452647176" lon="8.222394910667724"><ele>352.0</ele><time>2026-04-18T13:17:27.001Z</time></trkpt><trkpt lat="45.60308506286068" lon="8.222356735660163"><ele>351.0</ele><time>2026-04-18T13:17:35.001Z</time></trkpt><trkpt lat="45.603163346374124" lon="8.222357396996506"><ele>350.0</ele><time>2026-04-18T13:17:38.001Z</time></trkpt><trkpt lat="45.60322120578541" lon="8.222432680207975"><ele>349.0</ele><time>2026-04-18T13:17:41.001Z</time></trkpt><trkpt lat="45.60331537948507" lon="8.222560488190359"><ele>348.0</ele><time>2026-04-18T13:17:43.001Z</time></trkpt><trkpt lat="45.60337123355674" lon="8.222635330082547"><ele>347.0</ele><time>2026-04-18T13:17:44.001Z</time></trkpt><trkpt lat="45.603420642852214" lon="8.222705827715847"><ele>346.0</ele><time>2026-04-18T13:17:45.001Z</time></trkpt><trkpt lat="45.60349466376541" lon="8.222812451324005"><ele>346.0</ele><time>2026-04-18T13:17:47.001Z</time></trkpt><trkpt lat="45.60359321490983" lon="8.222899477887198"><ele>346.0</ele><time>2026-04-18T13:17:54.001Z</time></trkpt><trkpt lat="45.60364452259087" lon="8.222846456078399"><ele>346.0</ele><time>2026-04-18T13:18:00.001Z</time></trkpt><trkpt lat="45.603530149162275" lon="8.22282042641314"><ele>346.0</ele><time>2026-04-18T13:18:05.001Z</time></trkpt><trkpt lat="45.60346987076053" lon="8.222739799039052"><ele>346.0</ele><time>2026-04-18T13:18:06.001Z</time></trkpt><trkpt lat="45.60342934867249" lon="8.222658888354404"><ele>346.0</ele><time>2026-04-18T13:18:07.001Z</time></trkpt><trkpt lat="45.60337120274715" lon="8.22257958183277"><ele>346.0</ele><time>2026-04-18T13:18:08.001Z</time></trkpt><trkpt lat="45.603317972453524" lon="8.222513897483713"><ele>346.0</ele><time>2026-04-18T13:18:09.001Z</time></trkpt><trkpt lat="45.603239560542924" lon="8.222459727345209"><ele>346.0</ele><time>2026-04-18T13:18:12.001Z</time></trkpt><trkpt lat="45.60318279916934" lon="8.222387802472321"><ele>346.0</ele><time>2026-04-18T13:18:14.001Z</time></trkpt><trkpt lat="45.60309865525642" lon="8.222340574019945"><ele>346.0</ele><time>2026-04-18T13:18:16.001Z</time></trkpt><trkpt lat="45.60302436298615" lon="8.22235212098474"><ele>346.0</ele><time>2026-04-18T13:18:18.001Z</time></trkpt><trkpt lat="45.60291689711065" lon="8.222414335505091"><ele>346.0</ele><time>2026-04-18T13:18:20.001Z</time></trkpt><trkpt lat="45.602854744804034" lon="8.222433783964684"><ele>346.0</ele><time>2026-04-18T13:18:21.001Z</time></trkpt><trkpt lat="45.60276594558964" lon="8.22250614280814"><ele>346.0</ele><time>2026-04-18T13:18:22.001Z</time></trkpt><trkpt lat="45.60268945215577" lon="8.22253952455971"><ele>346.0</ele><time>2026-04-18T13:18:23.001Z</time></trkpt><trkpt lat="45.602677560071804" lon="8.222924486189655"><ele>345.20000000000005</ele><time>2026-04-18T13:18:24.001Z</time></trkpt><trkpt lat="45.60266484980004" lon="8.223113405904169"><ele>344.40000000000003</ele><time>2026-04-18T13:18:25.001Z</time></trkpt><trkpt lat="45.6026165112599" lon="8.223223263599381"><ele>343.6</ele><time>2026-04-18T13:18:26.001Z</time></trkpt><trkpt lat="45.60259124204665" lon="8.223329544710364"><ele>342.8</ele><time>2026-04-18T13:18:27.001Z</time></trkpt><trkpt lat="45.602554271920084" lon="8.223441281492153"><ele>342.0</ele><time>2026-04-18T13:18:28.001Z</time></trkpt><trkpt lat="45.60251896179663" lon="8.223555249217915"><ele>342.0</ele><time>2026-04-18T13:18:29.001Z</time></trkpt><trkpt lat="45.602477253972054" lon="8.223658338695872"><ele>342.0</ele><time>2026-04-18T13:18:30.001Z</time></trkpt><trkpt lat="45.60243547675413" lon="8.223751690872223"><ele>342.0</ele><time>2026-04-18T13:18:31.001Z</time></trkpt><trkpt lat="45.602385520765665" lon="8.22385643362964"><ele>342.0</ele><time>2026-04-18T13:18:32.001Z</time></trkpt><trkpt lat="45.60234221683322" lon="8.223967102856871"><ele>342.0</ele><time>2026-04-18T13:18:33.001Z</time></trkpt><trkpt lat="45.602310315424475" lon="8.224109886709778"><ele>342.0</ele><time>2026-04-18T13:18:34.001Z</time></trkpt><trkpt lat="45.602287100775435" lon="8.224246724882398"><ele>341.20000000000005</ele><time>2026-04-18T13:18:35.001Z</time></trkpt><trkpt lat="45.602256458315" lon="8.224380110619366"><ele>340.4</ele><time>2026-04-18T13:18:36.001Z</time></trkpt><trkpt lat="45.60223511836936" lon="8.224494319319096"><ele>339.6</ele><time>2026-04-18T13:18:37.001Z</time></trkpt><trkpt lat="45.60222410108397" lon="8.22461789864406"><ele>338.79999999999995</ele><time>2026-04-18T13:18:38.001Z</time></trkpt><trkpt lat="45.602229760033104" lon="8.224746196457312"><ele>338.0</ele><time>2026-04-18T13:18:39.001Z</time></trkpt><trkpt lat="45.60221203663192" lon="8.224878562982878"><ele>336.1666666666667</ele><time>2026-04-18T13:18:40.001Z</time></trkpt><trkpt lat="45.60219764951345" lon="8.224977158393829"><ele>334.33333333333337</ele><time>2026-04-18T13:18:41.001Z</time></trkpt><trkpt lat="45.60213353314674" lon="8.22512582957659"><ele>332.5</ele><time>2026-04-18T13:18:43.001Z</time></trkpt><trkpt lat="45.60206096916873" lon="8.22525420251392"><ele>330.6666666666667</ele><time>2026-04-18T13:18:45.001Z</time></trkpt><trkpt lat="45.60201060003068" lon="8.225313080777235"><ele>328.8333333333333</ele><time>2026-04-18T13:18:46.001Z</time></trkpt><trkpt lat="45.60195660323262" lon="8.225365417379104"><ele>327.0</ele><time>2026-04-18T13:18:47.001Z</time></trkpt><trkpt lat="45.60189364410272" lon="8.22536277622668"><ele>326.1666666666667</ele><time>2026-04-18T13:18:48.001Z</time></trkpt><trkpt lat="45.60182640167538" lon="8.2253565841982"><ele>325.3333333333333</ele><time>2026-04-18T13:18:49.001Z</time></trkpt><trkpt lat="45.601760622269055" lon="8.225317568023405"><ele>324.5</ele><time>2026-04-18T13:18:50.001Z</time></trkpt><trkpt lat="45.60170160404291" lon="8.22528079289963"><ele>323.66666666666663</ele><time>2026-04-18T13:18:51.001Z</time></trkpt><trkpt lat="45.60162978347386" lon="8.225269836559997"><ele>322.8333333333333</ele><time>2026-04-18T13:18:54.001Z</time></trkpt><trkpt lat="45.60171392817186" lon="8.22534649420227"><ele>322.0</ele><time>2026-04-18T13:18:56.001Z</time></trkpt><trkpt lat="45.601796100140454" lon="8.225403366527935"><ele>322.0</ele><time>2026-04-18T13:18:57.001Z</time></trkpt><trkpt lat="45.60186140514401" lon="8.22547928996391"><ele>322.0</ele><time>2026-04-18T13:18:58.001Z</time></trkpt><trkpt lat="45.60177675122404" lon="8.225449213773622"><ele>322.0</ele><time>2026-04-18T13:18:59.001Z</time></trkpt><trkpt lat="45.60192077914026" lon="8.225553622855095"><ele>322.0</ele><time>2026-04-18T13:19:00.001Z</time></trkpt><trkpt lat="45.60200022867466" lon="8.225571469186734"><ele>322.0</ele><time>2026-04-18T13:19:01.001Z</time></trkpt><trkpt lat="45.602022631881944" lon="8.225691705449949"><ele>320.8333333333333</ele><time>2026-04-18T13:19:03.001Z</time></trkpt><trkpt lat="45.60191206805147" lon="8.225669001717655"><ele>319.66666666666663</ele><time>2026-04-18T13:19:04.001Z</time></trkpt><trkpt lat="45.60184017352194" lon="8.225710033714801"><ele>318.5</ele><time>2026-04-18T13:19:05.001Z</time></trkpt><trkpt lat="45.601761918022376" lon="8.225703911724402"><ele>317.3333333333333</ele><time>2026-04-18T13:19:06.001Z</time></trkpt><trkpt lat="45.60169596521164" lon="8.225737491961084"><ele>316.1666666666667</ele><time>2026-04-18T13:19:07.001Z</time></trkpt><trkpt lat="45.60165912626616" lon="8.225831069800345"><ele>315.0</ele><time>2026-04-18T13:19:08.001Z</time></trkpt><trkpt lat="45.60167889750458" lon="8.225954823452424"><ele>315.0</ele><time>2026-04-18T13:19:09.001Z</time></trkpt><trkpt lat="45.601680342263556" lon="8.226070765013644"><ele>315.0</ele><time>2026-04-18T13:19:10.001Z</time></trkpt><trkpt lat="45.60169459748107" lon="8.226182125880587"><ele>315.0</ele><time>2026-04-18T13:19:11.001Z</time></trkpt><trkpt lat="45.601684865998614" lon="8.226300877813893"><ele>315.0</ele><time>2026-04-18T13:19:12.001Z</time></trkpt><trkpt lat="45.60165663724531" lon="8.226408003731928"><ele>315.0</ele><time>2026-04-18T13:19:13.001Z</time></trkpt><trkpt lat="45.60162426775023" lon="8.226520585122456"><ele>315.0</ele><time>2026-04-18T13:19:14.001Z</time></trkpt><trkpt lat="45.60156494856289" lon="8.226597720799742"><ele>312.4</ele><time>2026-04-18T13:19:15.001Z</time></trkpt><trkpt lat="45.60150378749972" lon="8.226664876489766"><ele>309.8</ele><time>2026-04-18T13:19:16.001Z</time></trkpt><trkpt lat="45.601413661050195" lon="8.226748829654996"><ele>307.2</ele><time>2026-04-18T13:19:17.001Z</time></trkpt><trkpt lat="45.60132885096009" lon="8.226813920418344"><ele>304.6</ele><time>2026-04-18T13:19:18.001Z</time></trkpt><trkpt lat="45.6012477551625" lon="8.226852501260828"><ele>302.0</ele><time>2026-04-18T13:19:19.001Z</time></trkpt><trkpt lat="45.60116077547315" lon="8.226890402079336"><ele>301.1666666666667</ele><time>2026-04-18T13:19:20.001Z</time></trkpt><trkpt lat="45.601084042106024" lon="8.226905765947569"><ele>300.33333333333337</ele><time>2026-04-18T13:19:21.001Z</time></trkpt><trkpt lat="45.600985786995466" lon="8.226919355903595"><ele>299.5</ele><time>2026-04-18T13:19:22.001Z</time></trkpt><trkpt lat="45.60089820451858" lon="8.22691520661008"><ele>298.6666666666667</ele><time>2026-04-18T13:19:23.001Z</time></trkpt><trkpt lat="45.60082183542348" lon="8.226884011151357"><ele>297.8333333333333</ele><time>2026-04-18T13:19:24.001Z</time></trkpt><trkpt lat="45.60076190234825" lon="8.226837849973489"><ele>297.0</ele><time>2026-04-18T13:19:25.001Z</time></trkpt><trkpt lat="45.60069691992922" lon="8.22676775625152"><ele>297.0</ele><time>2026-04-18T13:19:26.001Z</time></trkpt><trkpt lat="45.600649917934035" lon="8.226690901896077"><ele>297.0</ele><time>2026-04-18T13:19:27.001Z</time></trkpt><trkpt lat="45.600625996343624" lon="8.226518149462605"><ele>297.0</ele><time>2026-04-18T13:19:29.001Z</time></trkpt><trkpt lat="45.600655809833235" lon="8.226401049358554"><ele>297.0</ele><time>2026-04-18T13:19:30.001Z</time></trkpt><trkpt lat="45.60067519595251" lon="8.226277317203301"><ele>297.0</ele><time>2026-04-18T13:19:31.001Z</time></trkpt><trkpt lat="45.600661330640705" lon="8.226169245279616"><ele>297.0</ele><time>2026-04-18T13:19:32.001Z</time></trkpt><trkpt lat="45.60062403010422" lon="8.226062097204776"><ele>298.0</ele><time>2026-04-18T13:19:33.001Z</time></trkpt><trkpt lat="45.6005520349063" lon="8.225985473795367"><ele>299.0</ele><time>2026-04-18T13:19:34.001Z</time></trkpt><trkpt lat="45.600472419660925" lon="8.225908586655871"><ele>300.0</ele><time>2026-04-18T13:19:35.001Z</time></trkpt><trkpt lat="45.60041689178345" lon="8.225813060582201"><ele>301.0</ele><time>2026-04-18T13:19:36.001Z</time></trkpt><trkpt lat="45.600350422643125" lon="8.225729180883842"><ele>302.0</ele><time>2026-04-18T13:19:37.001Z</time></trkpt><trkpt lat="45.60033917488625" lon="8.225638200698153"><ele>303.0</ele><time>2026-04-18T13:19:38.001Z</time></trkpt><trkpt lat="45.60035328400463" lon="8.225521503687572"><ele>303.0</ele><time>2026-04-18T13:19:39.001Z</time></trkpt><trkpt lat="45.600388656440614" lon="8.225438758575423"><ele>303.0</ele><time>2026-04-18T13:19:40.001Z</time></trkpt><trkpt lat="45.60036084872902" lon="8.225331235221184"><ele>303.0</ele><time>2026-04-18T13:19:42.001Z</time></trkpt><trkpt lat="45.60022500769392" lon="8.225411069303949"><ele>303.0</ele><time>2026-04-18T13:19:44.001Z</time></trkpt><trkpt lat="45.600201276303984" lon="8.22554503257082"><ele>303.0</ele><time>2026-04-18T13:19:45.001Z</time></trkpt><trkpt lat="45.600185547563804" lon="8.225676994435693"><ele>299.0</ele><time>2026-04-18T13:19:46.001Z</time></trkpt><trkpt lat="45.60017055425622" lon="8.225811653107591"><ele>295.0</ele><time>2026-04-18T13:19:47.001Z</time></trkpt><trkpt lat="45.600163217149145" lon="8.22593629238873"><ele>291.0</ele><time>2026-04-18T13:19:48.001Z</time></trkpt><trkpt lat="45.60017142921489" lon="8.226047943272738"><ele>287.0</ele><time>2026-04-18T13:19:49.001Z</time></trkpt><trkpt lat="45.60019160208981" lon="8.226155084800105"><ele>283.0</ele><time>2026-04-18T13:19:50.001Z</time></trkpt><trkpt lat="45.60026006446442" lon="8.226190843081502"><ele>279.0</ele><time>2026-04-18T13:19:51.001Z</time></trkpt><trkpt lat="45.60027915112082" lon="8.226308711316964"><ele>279.0</ele><time>2026-04-18T13:19:53.001Z</time></trkpt><trkpt lat="45.600211217138664" lon="8.226346860457479"><ele>279.0</ele><time>2026-04-18T13:19:54.001Z</time></trkpt><trkpt lat="45.60010824852716" lon="8.22625008077018"><ele>279.0</ele><time>2026-04-18T13:19:56.001Z</time></trkpt><trkpt lat="45.60005166528167" lon="8.226192125039761"><ele>279.0</ele><time>2026-04-18T13:19:57.001Z</time></trkpt><trkpt lat="45.59998838536149" lon="8.22614386552495"><ele>279.0</ele><time>2026-04-18T13:19:58.001Z</time></trkpt><trkpt lat="45.599916950878416" lon="8.226121413249583"><ele>279.0</ele><time>2026-04-18T13:19:59.001Z</time></trkpt><trkpt lat="45.59985556850983" lon="8.226079998478907"><ele>279.0</ele><time>2026-04-18T13:20:00.001Z</time></trkpt><trkpt lat="45.599789993206535" lon="8.226145073105423"><ele>279.0</ele><time>2026-04-18T13:20:01.001Z</time></trkpt><trkpt lat="45.59978065485217" lon="8.226278982888456"><ele>279.0</ele><time>2026-04-18T13:20:02.001Z</time></trkpt><trkpt lat="45.59981083091002" lon="8.226386786494448"><ele>279.0</ele><time>2026-04-18T13:20:03.001Z</time></trkpt><trkpt lat="45.59985470062191" lon="8.226492921923285"><ele>279.0</ele><time>2026-04-18T13:20:04.001Z</time></trkpt><trkpt lat="45.59989045014505" lon="8.226600949050964"><ele>279.0</ele><time>2026-04-18T13:20:05.001Z</time></trkpt><trkpt lat="45.59991479756163" lon="8.226704290436894"><ele>278.1666666666667</ele><time>2026-04-18T13:20:06.001Z</time></trkpt><trkpt lat="45.59992736670739" lon="8.226799349220082"><ele>277.3333333333333</ele><time>2026-04-18T13:20:07.001Z</time></trkpt><trkpt lat="45.59992337689171" lon="8.226889207933363"><ele>276.5</ele><time>2026-04-18T13:20:08.001Z</time></trkpt><trkpt lat="45.59987833282116" lon="8.227014238489314"><ele>275.66666666666663</ele><time>2026-04-18T13:20:10.001Z</time></trkpt><trkpt lat="45.59980699101335" lon="8.226987369294937"><ele>274.8333333333333</ele><time>2026-04-18T13:20:12.001Z</time></trkpt><trkpt lat="45.59973478980583" lon="8.226892775312692"><ele>274.0</ele><time>2026-04-18T13:20:14.001Z</time></trkpt><trkpt lat="45.59967103526994" lon="8.226861787282814"><ele>274.0</ele><time>2026-04-18T13:20:15.001Z</time></trkpt><trkpt lat="45.59959878013315" lon="8.226846769148416"><ele>274.0</ele><time>2026-04-18T13:20:16.001Z</time></trkpt><trkpt lat="45.5995284276141" lon="8.22680277056571"><ele>274.0</ele><time>2026-04-18T13:20:17.001Z</time></trkpt><trkpt lat="45.59945225833051" lon="8.226784976797576"><ele>274.0</ele><time>2026-04-18T13:20:18.001Z</time></trkpt><trkpt lat="45.59937462093844" lon="8.226770770287484"><ele>274.0</ele><time>2026-04-18T13:20:19.001Z</time></trkpt><trkpt lat="45.59929192236862" lon="8.226759267478979"><ele>274.0</ele><time>2026-04-18T13:20:20.001Z</time></trkpt><trkpt lat="45.59920945842379" lon="8.226767478137948"><ele>273.0</ele><time>2026-04-18T13:20:21.001Z</time></trkpt><trkpt lat="45.59912881579437" lon="8.226757024500023"><ele>272.0</ele><time>2026-04-18T13:20:22.001Z</time></trkpt><trkpt lat="45.599052606258205" lon="8.226755545262062"><ele>271.0</ele><time>2026-04-18T13:20:23.001Z</time></trkpt><trkpt lat="45.59897699336114" lon="8.226798542670526"><ele>270.0</ele><time>2026-04-18T13:20:25.001Z</time></trkpt><trkpt lat="45.598912754027175" lon="8.226844556124414"><ele>269.0</ele><time>2026-04-18T13:20:30.001Z</time></trkpt><trkpt lat="45.59882853064642" lon="8.226896460981676"><ele>268.0</ele><time>2026-04-18T13:20:32.002Z</time></trkpt><trkpt lat="45.59893347203188" lon="8.226926116643378"><ele>268.0</ele><time>2026-04-18T13:20:43.002Z</time></trkpt><trkpt lat="45.59900455873406" lon="8.226849057064367"><ele>268.0</ele><time>2026-04-18T13:20:45.002Z</time></trkpt><trkpt lat="45.59893108750577" lon="8.226885296689991"><ele>268.0</ele><time>2026-04-18T13:20:49.002Z</time></trkpt><trkpt lat="45.59886740282639" lon="8.226929700129082"><ele>268.0</ele><time>2026-04-18T13:20:50.002Z</time></trkpt><trkpt lat="45.5987458628082" lon="8.226999703221352"><ele>268.0</ele><time>2026-04-18T13:20:52.002Z</time></trkpt><trkpt lat="45.59868135117301" lon="8.227049964767478"><ele>268.0</ele><time>2026-04-18T13:20:53.002Z</time></trkpt><trkpt lat="45.59861148355918" lon="8.227096349921757"><ele>268.16666666666663</ele><time>2026-04-18T13:20:54.002Z</time></trkpt><trkpt lat="45.598537085641674" lon="8.227150896040827"><ele>268.3333333333333</ele><time>2026-04-18T13:20:55.002Z</time></trkpt><trkpt lat="45.59846475495132" lon="8.227207374012636"><ele>268.5</ele><time>2026-04-18T13:20:56.002Z</time></trkpt><trkpt lat="45.59838569055879" lon="8.227264146377792"><ele>268.6666666666667</ele><time>2026-04-18T13:20:57.002Z</time></trkpt><trkpt lat="45.59830052684167" lon="8.227320529941364"><ele>268.83333333333337</ele><time>2026-04-18T13:20:58.002Z</time></trkpt><trkpt lat="45.598214760686844" lon="8.227384365098139"><ele>269.0</ele><time>2026-04-18T13:20:59.002Z</time></trkpt><trkpt lat="45.59812810764518" lon="8.227450009179783"><ele>269.0</ele><time>2026-04-18T13:21:00.002Z</time></trkpt><trkpt lat="45.59804045182734" lon="8.227510449189012"><ele>269.0</ele><time>2026-04-18T13:21:01.002Z</time></trkpt><trkpt lat="45.5979503402126" lon="8.22756317120208"><ele>269.0</ele><time>2026-04-18T13:21:02.002Z</time></trkpt><trkpt lat="45.59786113866482" lon="8.227607649951414"><ele>269.0</ele><time>2026-04-18T13:21:03.002Z</time></trkpt><trkpt lat="45.5977694782816" lon="8.227660635977621"><ele>269.0</ele><time>2026-04-18T13:21:04.002Z</time></trkpt><trkpt lat="45.597677547113456" lon="8.227716681237291"><ele>268.59999999999997</ele><time>2026-04-18T13:21:05.001Z</time></trkpt><trkpt lat="45.59758363873436" lon="8.227770211201594"><ele>268.2</ele><time>2026-04-18T13:21:06.001Z</time></trkpt><trkpt lat="45.59748731424167" lon="8.227826392527922"><ele>267.79999999999995</ele><time>2026-04-18T13:21:07.001Z</time></trkpt><trkpt lat="45.59739153871548" lon="8.227878691028033"><ele>267.4</ele><time>2026-04-18T13:21:08.001Z</time></trkpt><trkpt lat="45.597299825298684" lon="8.227931722438106"><ele>267.0</ele><time>2026-04-18T13:21:09.001Z</time></trkpt><trkpt lat="45.59720622238029" lon="8.227993344821579"><ele>267.0</ele><time>2026-04-18T13:21:10.001Z</time></trkpt><trkpt lat="45.59711079726498" lon="8.228052932714467"><ele>267.0</ele><time>2026-04-18T13:21:11.001Z</time></trkpt><trkpt lat="45.59702209484092" lon="8.228115191994108"><ele>267.0</ele><time>2026-04-18T13:21:12.001Z</time></trkpt><trkpt lat="45.596918567569524" lon="8.228164862417051"><ele>267.0</ele><time>2026-04-18T13:21:13.001Z</time></trkpt><trkpt lat="45.59682900228803" lon="8.228218802060564"><ele>267.0</ele><time>2026-04-18T13:21:14.001Z</time></trkpt><trkpt lat="45.59673723925277" lon="8.228281188268012"><ele>267.2</ele><time>2026-04-18T13:21:15.001Z</time></trkpt><trkpt lat="45.59665203777071" lon="8.228370329810287"><ele>267.4</ele><time>2026-04-18T13:21:16.001Z</time></trkpt><trkpt lat="45.59657303622321" lon="8.22846500250612"><ele>267.6</ele><time>2026-04-18T13:21:17.001Z</time></trkpt><trkpt lat="45.59650084962855" lon="8.228573178116823"><ele>267.8</ele><time>2026-04-18T13:21:18.001Z</time></trkpt><trkpt lat="45.59643244870537" lon="8.22868237845958"><ele>268.0</ele><time>2026-04-18T13:21:19.001Z</time></trkpt><trkpt lat="45.59636301159715" lon="8.22879045363473"><ele>268.0</ele><time>2026-04-18T13:21:20.001Z</time></trkpt><trkpt lat="45.596291806390674" lon="8.228898307807464"><ele>268.0</ele><time>2026-04-18T13:21:21.001Z</time></trkpt><trkpt lat="45.596227303185216" lon="8.22901652459133"><ele>268.0</ele><time>2026-04-18T13:21:22.001Z</time></trkpt><trkpt lat="45.596164553724066" lon="8.229133340873627"><ele>268.0</ele><time>2026-04-18T13:21:23.001Z</time></trkpt><trkpt lat="45.59609441279347" lon="8.229238271008908"><ele>268.0</ele><time>2026-04-18T13:21:24.001Z</time></trkpt><trkpt lat="45.59602466082904" lon="8.22934366640789"><ele>268.3333333333333</ele><time>2026-04-18T13:21:25.001Z</time></trkpt><trkpt lat="45.59595823222773" lon="8.229448045444466"><ele>268.66666666666663</ele><time>2026-04-18T13:21:26.001Z</time></trkpt><trkpt lat="45.59591278341511" lon="8.229543274324822"><ele>269.0</ele><time>2026-04-18T13:21:27.001Z</time></trkpt><trkpt lat="45.59588270608845" lon="8.229624782393074"><ele>269.3333333333333</ele><time>2026-04-18T13:21:29.001Z</time></trkpt><trkpt lat="45.595893137770865" lon="8.229796616734024"><ele>269.6666666666667</ele><time>2026-04-18T13:21:33.001Z</time></trkpt><trkpt lat="45.59589803733973" lon="8.229910680302279"><ele>270.0</ele><time>2026-04-18T13:21:34.001Z</time></trkpt><trkpt lat="45.59590032394942" lon="8.230031124190374"><ele>270.0</ele><time>2026-04-18T13:21:35.001Z</time></trkpt><trkpt lat="45.59589117376726" lon="8.230149134060927"><ele>270.0</ele><time>2026-04-18T13:21:36.001Z</time></trkpt><trkpt lat="45.59585893885198" lon="8.230262265585633"><ele>270.0</ele><time>2026-04-18T13:21:37.001Z</time></trkpt><trkpt lat="45.59580799413825" lon="8.230360997707752"><ele>270.0</ele><time>2026-04-18T13:21:38.001Z</time></trkpt><trkpt lat="45.595739010675096" lon="8.230422311861762"><ele>270.0</ele><time>2026-04-18T13:21:39.001Z</time></trkpt><trkpt lat="45.59566371543209" lon="8.230468740277287"><ele>270.0</ele><time>2026-04-18T13:21:40.001Z</time></trkpt><trkpt lat="45.59558201240813" lon="8.23046323086624"><ele>270.0</ele><time>2026-04-18T13:21:41.001Z</time></trkpt><trkpt lat="45.59548570394752" lon="8.23044098879774"><ele>270.0</ele><time>2026-04-18T13:21:42.001Z</time></trkpt><trkpt lat="45.59538356804472" lon="8.230410151653812"><ele>270.0</ele><time>2026-04-18T13:21:43.001Z</time></trkpt><trkpt lat="45.595276546833404" lon="8.23038031131479"><ele>270.0</ele><time>2026-04-18T13:21:44.001Z</time></trkpt><trkpt lat="45.59516391172601" lon="8.230417990851855"><ele>270.0</ele><time>2026-04-18T13:21:45.001Z</time></trkpt><trkpt lat="45.59505268180608" lon="8.23044628957619"><ele>269.8</ele><time>2026-04-18T13:21:46.001Z</time></trkpt><trkpt lat="45.594949903690456" lon="8.230502502673204"><ele>269.6</ele><time>2026-04-18T13:21:47.001Z</time></trkpt><trkpt lat="45.594854201290055" lon="8.230586172012517"><ele>269.4</ele><time>2026-04-18T13:21:48.001Z</time></trkpt><trkpt lat="45.594767179190484" lon="8.230680765877679"><ele>269.2</ele><time>2026-04-18T13:21:49.001Z</time></trkpt><trkpt lat="45.59470143723169" lon="8.23079814044424"><ele>269.0</ele><time>2026-04-18T13:21:50.001Z</time></trkpt><trkpt lat="45.5946522507782" lon="8.23091035322494"><ele>269.0</ele><time>2026-04-18T13:21:51.001Z</time></trkpt><trkpt lat="45.59459949812525" lon="8.23102923547056"><ele>269.0</ele><time>2026-04-18T13:21:52.001Z</time></trkpt><trkpt lat="45.59454402975212" lon="8.231146787434149"><ele>269.0</ele><time>2026-04-18T13:21:53.001Z</time></trkpt><trkpt lat="45.59451355439513" lon="8.231263639127047"><ele>269.0</ele><time>2026-04-18T13:21:54.001Z</time></trkpt><trkpt lat="45.59446187894062" lon="8.231450908691523"><ele>269.0</ele><time>2026-04-18T13:21:56.001Z</time></trkpt><trkpt lat="45.59444368619822" lon="8.231555358032153"><ele>269.2</ele><time>2026-04-18T13:21:57.001Z</time></trkpt><trkpt lat="45.59442138981532" lon="8.231698570128264"><ele>269.4</ele><time>2026-04-18T13:21:59.001Z</time></trkpt><trkpt lat="45.59445263219047" lon="8.231822266628043"><ele>269.6</ele><time>2026-04-18T13:22:02.001Z</time></trkpt><trkpt lat="45.59452179824072" lon="8.231856338111548"><ele>269.8</ele><time>2026-04-18T13:22:03.001Z</time></trkpt><trkpt lat="45.59462034347751" lon="8.231831154141133"><ele>270.0</ele><time>2026-04-18T13:22:04.001Z</time></trkpt><trkpt lat="45.59471910155393" lon="8.231821574899376"><ele>268.4</ele><time>2026-04-18T13:22:05.001Z</time></trkpt><trkpt lat="45.59481094380932" lon="8.231812906227384"><ele>266.8</ele><time>2026-04-18T13:22:06.001Z</time></trkpt><trkpt lat="45.59493321363334" lon="8.231792091792235"><ele>265.2</ele><time>2026-04-18T13:22:08.001Z</time></trkpt><trkpt lat="45.59493060170415" lon="8.231969155974804"><ele>263.6</ele><time>2026-04-18T13:22:09.001Z</time></trkpt><trkpt lat="45.59493060632661" lon="8.232079515808044"><ele>262.0</ele><time>2026-04-18T13:22:10.001Z</time></trkpt><trkpt lat="45.59493337225058" lon="8.232199066930338"><ele>261.6</ele><time>2026-04-18T13:22:11.001Z</time></trkpt><trkpt lat="45.59493481148275" lon="8.232331070749595"><ele>261.2</ele><time>2026-04-18T13:22:12.001Z</time></trkpt><trkpt lat="45.59491788028878" lon="8.232468534228945"><ele>260.8</ele><time>2026-04-18T13:22:13.001Z</time></trkpt><trkpt lat="45.59490258349309" lon="8.232594511448092"><ele>260.4</ele><time>2026-04-18T13:22:14.001Z</time></trkpt><trkpt lat="45.594888339789996" lon="8.232729961479318"><ele>260.0</ele><time>2026-04-18T13:22:15.001Z</time></trkpt><trkpt lat="45.59486828931397" lon="8.232872443555996"><ele>260.0</ele><time>2026-04-18T13:22:16.001Z</time></trkpt><trkpt lat="45.594848899593906" lon="8.23302192064222"><ele>260.0</ele><time>2026-04-18T13:22:17.001Z</time></trkpt><trkpt lat="45.59482888938176" lon="8.23317046059502"><ele>260.0</ele><time>2026-04-18T13:22:18.001Z</time></trkpt><trkpt lat="45.594808274279565" lon="8.233317192018013"><ele>260.0</ele><time>2026-04-18T13:22:19.001Z</time></trkpt><trkpt lat="45.59478852047752" lon="8.233463631898637"><ele>260.0</ele><time>2026-04-18T13:22:20.001Z</time></trkpt><trkpt lat="45.594768276979714" lon="8.233611092271305"><ele>260.0</ele><time>2026-04-18T13:22:21.001Z</time></trkpt><trkpt lat="45.594745934873515" lon="8.233762477319535"><ele>260.0</ele><time>2026-04-18T13:22:22.001Z</time></trkpt><trkpt lat="45.594757305513944" lon="8.233927040887815"><ele>260.0</ele><time>2026-04-18T13:22:23.001Z</time></trkpt><trkpt lat="45.59473080444117" lon="8.234081219961569"><ele>260.0</ele><time>2026-04-18T13:22:24.001Z</time></trkpt><trkpt lat="45.594704411512076" lon="8.234234769908337"><ele>260.0</ele><time>2026-04-18T13:22:25.001Z</time></trkpt><trkpt lat="45.59466620370927" lon="8.234388165104985"><ele>260.75</ele><time>2026-04-18T13:22:26.001Z</time></trkpt><trkpt lat="45.594647018276156" lon="8.234553499504367"><ele>261.5</ele><time>2026-04-18T13:22:27.001Z</time></trkpt><trkpt lat="45.59462888204104" lon="8.234722358135825"><ele>262.25</ele><time>2026-04-18T13:22:28.002Z</time></trkpt><trkpt lat="45.59460895413724" lon="8.234895984478259"><ele>263.0</ele><time>2026-04-18T13:22:29.002Z</time></trkpt><trkpt lat="45.59463612007365" lon="8.235074647194832"><ele>263.75</ele><time>2026-04-18T13:22:30.002Z</time></trkpt><trkpt lat="45.59455866082482" lon="8.2352359871048"><ele>264.5</ele><time>2026-04-18T13:22:31.002Z</time></trkpt><trkpt lat="45.59453222649141" lon="8.235403936728664"><ele>265.25</ele><time>2026-04-18T13:22:32.002Z</time></trkpt><trkpt lat="45.59450196120751" lon="8.235567543182185"><ele>266.0</ele><time>2026-04-18T13:22:33.002Z</time></trkpt><trkpt lat="45.594473641634494" lon="8.23573171016581"><ele>264.5</ele><time>2026-04-18T13:22:34.002Z</time></trkpt><trkpt lat="45.59444281048393" lon="8.235889001610124"><ele>263.0</ele><time>2026-04-18T13:22:35.002Z</time></trkpt><trkpt lat="45.59440643513974" lon="8.236041083297144"><ele>261.5</ele><time>2026-04-18T13:22:36.002Z</time></trkpt><trkpt lat="45.59434829069265" lon="8.236177033399615"><ele>260.0</ele><time>2026-04-18T13:22:37.002Z</time></trkpt><trkpt lat="45.594275516800415" lon="8.236298278797568"><ele>260.0</ele><time>2026-04-18T13:22:38.002Z</time></trkpt><trkpt lat="45.59420279962122" lon="8.23641965508137"><ele>260.0</ele><time>2026-04-18T13:22:39.002Z</time></trkpt><trkpt lat="45.59413470572555" lon="8.236544643733035"><ele>260.0</ele><time>2026-04-18T13:22:40.002Z</time></trkpt><trkpt lat="45.59406435380793" lon="8.236666014952636"><ele>260.0</ele><time>2026-04-18T13:22:41.002Z</time></trkpt><trkpt lat="45.59399627418468" lon="8.236789161633231"><ele>260.0</ele><time>2026-04-18T13:22:42.002Z</time></trkpt><trkpt lat="45.593935104592" lon="8.23691644627925"><ele>261.6</ele><time>2026-04-18T13:22:43.002Z</time></trkpt><trkpt lat="45.59389095937662" lon="8.237063879093037"><ele>263.2</ele><time>2026-04-18T13:22:44.002Z</time></trkpt><trkpt lat="45.59385677316014" lon="8.237214739741537"><ele>264.8</ele><time>2026-04-18T13:22:45.002Z</time></trkpt><trkpt lat="45.593835017222226" lon="8.237369298246573"><ele>266.4</ele><time>2026-04-18T13:22:46.002Z</time></trkpt><trkpt lat="45.59383776034979" lon="8.237526050523226"><ele>268.0</ele><time>2026-04-18T13:22:47.002Z</time></trkpt><trkpt lat="45.59386335302448" lon="8.237683044882516"><ele>269.25</ele><time>2026-04-18T13:22:48.002Z</time></trkpt><trkpt lat="45.593905957356434" lon="8.237838602519249"><ele>270.5</ele><time>2026-04-18T13:22:49.002Z</time></trkpt><trkpt lat="45.59396305548864" lon="8.237991843584604"><ele>271.75</ele><time>2026-04-18T13:22:50.002Z</time></trkpt><trkpt lat="45.59402011935411" lon="8.238145366496473"><ele>273.0</ele><time>2026-04-18T13:22:51.002Z</time></trkpt><trkpt lat="45.594076311658796" lon="8.238300376092608"><ele>274.0</ele><time>2026-04-18T13:22:52.002Z</time></trkpt><trkpt lat="45.59412716415134" lon="8.238456723903663"><ele>275.0</ele><time>2026-04-18T13:22:53.002Z</time></trkpt><trkpt lat="45.594175880459225" lon="8.238615115176565"><ele>276.0</ele><time>2026-04-18T13:22:54.002Z</time></trkpt><trkpt lat="45.59421409403039" lon="8.238783125298964"><ele>277.0</ele><time>2026-04-18T13:22:55.002Z</time></trkpt><trkpt lat="45.594244195716115" lon="8.238963025869813"><ele>279.25</ele><time>2026-04-18T13:22:56.002Z</time></trkpt><trkpt lat="45.59426685931971" lon="8.239136194523907"><ele>281.5</ele><time>2026-04-18T13:22:57.002Z</time></trkpt><trkpt lat="45.59427859412632" lon="8.239309325790337"><ele>283.75</ele><time>2026-04-18T13:22:58.002Z</time></trkpt><trkpt lat="45.59427024361584" lon="8.239488482774586"><ele>286.0</ele><time>2026-04-18T13:22:59.002Z</time></trkpt><trkpt lat="45.59425084100187" lon="8.23966688060129"><ele>288.25</ele><time>2026-04-18T13:23:00.002Z</time></trkpt><trkpt lat="45.594234127748706" lon="8.239840877521189"><ele>290.5</ele><time>2026-04-18T13:23:01.002Z</time></trkpt><trkpt lat="45.594214617596826" lon="8.240012685717582"><ele>292.75</ele><time>2026-04-18T13:23:02.002Z</time></trkpt><trkpt lat="45.59419365424207" lon="8.240183294818795"><ele>295.0</ele><time>2026-04-18T13:23:03.002Z</time></trkpt><trkpt lat="45.594173543954376" lon="8.240354112974082"><ele>295.0</ele><time>2026-04-18T13:23:04.002Z</time></trkpt><trkpt lat="45.59415419081527" lon="8.240525186382463"><ele>295.0</ele><time>2026-04-18T13:23:05.002Z</time></trkpt><trkpt lat="45.59413459207513" lon="8.240696598265023"><ele>295.0</ele><time>2026-04-18T13:23:06.002Z</time></trkpt><trkpt lat="45.594115082259734" lon="8.240870268158604"><ele>295.0</ele><time>2026-04-18T13:23:07.002Z</time></trkpt><trkpt lat="45.59409576743571" lon="8.241042687257924"><ele>294.8</ele><time>2026-04-18T13:23:08.002Z</time></trkpt><trkpt lat="45.59408743739071" lon="8.24119955824832"><ele>294.6</ele><time>2026-04-18T13:23:09.002Z</time></trkpt><trkpt lat="45.594088472901426" lon="8.241353674422388"><ele>294.4</ele><time>2026-04-18T13:23:10.002Z</time></trkpt><trkpt lat="45.59412788865414" lon="8.241502885357532"><ele>294.2</ele><time>2026-04-18T13:23:11.002Z</time></trkpt><trkpt lat="45.594194500718686" lon="8.241644839993503"><ele>294.0</ele><time>2026-04-18T13:23:12.002Z</time></trkpt><trkpt lat="45.594261520434415" lon="8.24179205599016"><ele>294.0</ele><time>2026-04-18T13:23:13.002Z</time></trkpt><trkpt lat="45.59432625926748" lon="8.241939994935464"><ele>294.0</ele><time>2026-04-18T13:23:14.002Z</time></trkpt><trkpt lat="45.594383692217065" lon="8.242087956222203"><ele>294.0</ele><time>2026-04-18T13:23:15.002Z</time></trkpt><trkpt lat="45.59443097416111" lon="8.242239224527209"><ele>294.0</ele><time>2026-04-18T13:23:16.002Z</time></trkpt><trkpt lat="45.59447027225819" lon="8.24237810793775"><ele>292.59999999999997</ele><time>2026-04-18T13:23:17.001Z</time></trkpt><trkpt lat="45.59449951273984" lon="8.242518897345189"><ele>291.2</ele><time>2026-04-18T13:23:18.001Z</time></trkpt><trkpt lat="45.5945103455226" lon="8.2426647384909"><ele>289.79999999999995</ele><time>2026-04-18T13:23:19.001Z</time></trkpt><trkpt lat="45.594508032786585" lon="8.242771434438058"><ele>288.4</ele><time>2026-04-18T13:23:20.001Z</time></trkpt><trkpt lat="45.59450865075059" lon="8.242912551291129"><ele>287.0</ele><time>2026-04-18T13:23:22.001Z</time></trkpt><trkpt lat="45.59463117552264" lon="8.242789205226694"><ele>287.0</ele><time>2026-04-18T13:23:26.001Z</time></trkpt><trkpt lat="45.594622963320624" lon="8.242693338483825"><ele>287.0</ele><time>2026-04-18T13:23:28.001Z</time></trkpt><trkpt lat="45.59449978141194" lon="8.242769886633281"><ele>287.0</ele><time>2026-04-18T13:23:30.001Z</time></trkpt><trkpt lat="45.59423570553049" lon="8.24296790652822"><ele>286.85714285714283</ele><time>2026-04-18T13:23:34.001Z</time></trkpt><trkpt lat="45.59420123113691" lon="8.243080383868985"><ele>286.7142857142857</ele><time>2026-04-18T13:23:35.001Z</time></trkpt><trkpt lat="45.59416176544546" lon="8.243169989510294"><ele>286.57142857142856</ele><time>2026-04-18T13:23:36.001Z</time></trkpt><trkpt lat="45.5941248964177" lon="8.243259885858262"><ele>286.42857142857144</ele><time>2026-04-18T13:23:37.001Z</time></trkpt><trkpt lat="45.59410142455226" lon="8.243349081866757"><ele>286.2857142857143</ele><time>2026-04-18T13:23:38.001Z</time></trkpt><trkpt lat="45.59406598116905" lon="8.243430135859722"><ele>286.1428571428571</ele><time>2026-04-18T13:23:39.001Z</time></trkpt><trkpt lat="45.594027218992466" lon="8.243520155495698"><ele>286.0</ele><time>2026-04-18T13:23:40.001Z</time></trkpt><trkpt lat="45.593993294024386" lon="8.243617979696198"><ele>285.0</ele><time>2026-04-18T13:23:41.001Z</time></trkpt><trkpt lat="45.593940745400054" lon="8.243732262579748"><ele>284.0</ele><time>2026-04-18T13:23:42.001Z</time></trkpt><trkpt lat="45.59389364947982" lon="8.243841372607315"><ele>283.0</ele><time>2026-04-18T13:23:43.001Z</time></trkpt><trkpt lat="45.5938623194696" lon="8.243944479774171"><ele>282.0</ele><time>2026-04-18T13:23:44.001Z</time></trkpt><trkpt lat="45.593832962851955" lon="8.24404664985577"><ele>281.0</ele><time>2026-04-18T13:23:45.001Z</time></trkpt><trkpt lat="45.59379878484831" lon="8.244140852002756"><ele>280.0</ele><time>2026-04-18T13:23:46.001Z</time></trkpt><trkpt lat="45.59375858661151" lon="8.244295045222703"><ele>278.8</ele><time>2026-04-18T13:23:48.001Z</time></trkpt><trkpt lat="45.593717522689154" lon="8.244406067629617"><ele>277.6</ele><time>2026-04-18T13:23:50.001Z</time></trkpt><trkpt lat="45.593682844533085" lon="8.244508444035938"><ele>276.4</ele><time>2026-04-18T13:23:52.001Z</time></trkpt><trkpt lat="45.593620403445875" lon="8.244547771732119"><ele>275.2</ele><time>2026-04-18T13:23:54.001Z</time></trkpt><trkpt lat="45.59359970979453" lon="8.244430818406306"><ele>274.0</ele><time>2026-04-18T13:23:57.001Z</time></trkpt><trkpt lat="45.59338302606397" lon="8.24435486509317"><ele>273.8333333333333</ele><time>2026-04-18T13:23:59.001Z</time></trkpt><trkpt lat="45.593315798044834" lon="8.244315465284059"><ele>273.66666666666663</ele><time>2026-04-18T13:24:00.001Z</time></trkpt><trkpt lat="45.59325004873808" lon="8.2442691000161"><ele>273.5</ele><time>2026-04-18T13:24:01.001Z</time></trkpt><trkpt lat="45.59316412525016" lon="8.244214772893773"><ele>273.3333333333333</ele><time>2026-04-18T13:24:02.001Z</time></trkpt><trkpt lat="45.59307704472031" lon="8.244141128214311"><ele>273.1666666666667</ele><time>2026-04-18T13:24:03.001Z</time></trkpt><trkpt lat="45.592999778699415" lon="8.244073508773285"><ele>273.0</ele><time>2026-04-18T13:24:04.001Z</time></trkpt><trkpt lat="45.59293272630098" lon="8.2440000442077"><ele>273.4</ele><time>2026-04-18T13:24:05.001Z</time></trkpt><trkpt lat="45.59287941940864" lon="8.243917522079405"><ele>273.8</ele><time>2026-04-18T13:24:06.001Z</time></trkpt><trkpt lat="45.59282626461282" lon="8.243749389044087"><ele>274.2</ele><time>2026-04-18T13:24:08.001Z</time></trkpt><trkpt lat="45.59279908021687" lon="8.243629861127749"><ele>274.6</ele><time>2026-04-18T13:24:09.001Z</time></trkpt><trkpt lat="45.592754037522546" lon="8.243469377077634"><ele>275.0</ele><time>2026-04-18T13:24:10.001Z</time></trkpt><trkpt lat="45.5927190527204" lon="8.24337480962159"><ele>274.33333333333337</ele><time>2026-04-18T13:24:11.001Z</time></trkpt><trkpt lat="45.592678121934604" lon="8.243304250535282"><ele>273.6666666666667</ele><time>2026-04-18T13:24:12.001Z</time></trkpt><trkpt lat="45.592588203910076" lon="8.243249577678405"><ele>273.0</ele><time>2026-04-18T13:24:14.001Z</time></trkpt><trkpt lat="45.592505107232654" lon="8.243215479007628"><ele>272.3333333333333</ele><time>2026-04-18T13:24:15.001Z</time></trkpt><trkpt lat="45.592392043015906" lon="8.243216509856616"><ele>271.66666666666663</ele><time>2026-04-18T13:24:16.001Z</time></trkpt><trkpt lat="45.59232304597808" lon="8.243216833832802"><ele>271.0</ele><time>2026-04-18T13:24:17.001Z</time></trkpt><trkpt lat="45.59219673472929" lon="8.243169400730373"><ele>271.0</ele><time>2026-04-18T13:24:19.001Z</time></trkpt><trkpt lat="45.59213248036388" lon="8.243148469531416"><ele>271.0</ele><time>2026-04-18T13:24:20.001Z</time></trkpt><trkpt lat="45.5920401375835" lon="8.243104857792005"><ele>271.0</ele><time>2026-04-18T13:24:22.001Z</time></trkpt><trkpt lat="45.59196088938535" lon="8.243100796840412"><ele>271.0</ele><time>2026-04-18T13:24:23.001Z</time></trkpt><trkpt lat="45.59188078156759" lon="8.24311060253453"><ele>271.0</ele><time>2026-04-18T13:24:24.001Z</time></trkpt><trkpt lat="45.591777679198024" lon="8.243148715285132"><ele>271.0</ele><time>2026-04-18T13:24:25.001Z</time></trkpt><trkpt lat="45.591686685912016" lon="8.243191345046528"><ele>270.6</ele><time>2026-04-18T13:24:26.001Z</time></trkpt><trkpt lat="45.5915947115709" lon="8.243291218854377"><ele>270.20000000000005</ele><time>2026-04-18T13:24:28.001Z</time></trkpt><trkpt lat="45.59154522958314" lon="8.243380232197627"><ele>269.79999999999995</ele><time>2026-04-18T13:24:29.001Z</time></trkpt><trkpt lat="45.5914534311724" lon="8.243445609814074"><ele>269.4</ele><time>2026-04-18T13:24:31.001Z</time></trkpt><trkpt lat="45.59132747873715" lon="8.243429802583604"><ele>269.0</ele><time>2026-04-18T13:24:33.001Z</time></trkpt><trkpt lat="45.591246526645634" lon="8.24340296121863"><ele>269.0</ele><time>2026-04-18T13:24:34.001Z</time></trkpt><trkpt lat="45.59118326558492" lon="8.243371529121745"><ele>269.0</ele><time>2026-04-18T13:24:35.001Z</time></trkpt><trkpt lat="45.5911181573261" lon="8.24334369042074"><ele>269.0</ele><time>2026-04-18T13:24:37.001Z</time></trkpt><trkpt lat="45.59105582939459" lon="8.243310161613437"><ele>269.0</ele><time>2026-04-18T13:24:48.001Z</time></trkpt><trkpt lat="45.590974970730294" lon="8.243246865142146"><ele>269.0</ele><time>2026-04-18T13:24:51.001Z</time></trkpt><trkpt lat="45.59090969410725" lon="8.243198062873278"><ele>269.0</ele><time>2026-04-18T13:24:53.001Z</time></trkpt><trkpt lat="45.59084233967409" lon="8.243196642187405"><ele>269.0</ele><time>2026-04-18T13:24:56.001Z</time></trkpt><trkpt lat="45.59078005248646" lon="8.243257230808966"><ele>268.6666666666667</ele><time>2026-04-18T13:24:59.002Z</time></trkpt><trkpt lat="45.59072079283445" lon="8.24336160559633"><ele>268.33333333333337</ele><time>2026-04-18T13:25:01.002Z</time></trkpt><trkpt lat="45.590724017165456" lon="8.24347285149097"><ele>268.0</ele><time>2026-04-18T13:25:03.002Z</time></trkpt><trkpt lat="45.590706514010556" lon="8.243614568584103"><ele>267.6666666666667</ele><time>2026-04-18T13:25:05.002Z</time></trkpt><trkpt lat="45.59064011488612" lon="8.243626803076603"><ele>267.3333333333333</ele><time>2026-04-18T13:25:09.002Z</time></trkpt><trkpt lat="45.59053756123776" lon="8.243636601489658"><ele>267.0</ele><time>2026-04-18T13:25:13.002Z</time></trkpt><trkpt lat="45.59043668322208" lon="8.243613868284571"><ele>267.0</ele><time>2026-04-18T13:25:15.002Z</time></trkpt><trkpt lat="45.59037453849902" lon="8.24356957185872"><ele>267.0</ele><time>2026-04-18T13:25:17.001Z</time></trkpt><trkpt lat="45.590307122018174" lon="8.243507735262506"><ele>267.0</ele><time>2026-04-18T13:25:21.001Z</time></trkpt><trkpt lat="45.590229294011294" lon="8.24350886496297"><ele>267.0</ele><time>2026-04-18T13:25:27.001Z</time></trkpt><trkpt lat="45.59013255026778" lon="8.243586613154793"><ele>267.0</ele><time>2026-04-18T13:25:32.001Z</time></trkpt><trkpt lat="45.59008221737651" lon="8.24364490541463"><ele>267.0</ele><time>2026-04-18T13:25:33.001Z</time></trkpt><trkpt lat="45.59008933813882" lon="8.24379160783126"><ele>267.0</ele><time>2026-04-18T13:25:36.001Z</time></trkpt><trkpt lat="45.59013787618124" lon="8.243875380543383"><ele>267.0</ele><time>2026-04-18T13:25:37.001Z</time></trkpt><trkpt lat="45.590188934342386" lon="8.243989219968709"><ele>267.0</ele><time>2026-04-18T13:25:39.001Z</time></trkpt><trkpt lat="45.590139546171784" lon="8.244068575699965"><ele>267.0</ele><time>2026-04-18T13:25:41.001Z</time></trkpt><trkpt lat="45.59005555185257" lon="8.244219938352447"><ele>267.0</ele><time>2026-04-18T13:25:43.001Z</time></trkpt><trkpt lat="45.58997824203251" lon="8.24420368982091"><ele>266.8333333333333</ele><time>2026-04-18T13:25:44.001Z</time></trkpt><trkpt lat="45.589878218623184" lon="8.244205866879335"><ele>266.6666666666667</ele><time>2026-04-18T13:25:45.001Z</time></trkpt><trkpt lat="45.58980526067146" lon="8.244216786903158"><ele>266.5</ele><time>2026-04-18T13:25:46.001Z</time></trkpt><trkpt lat="45.589729254808915" lon="8.244248031322805"><ele>266.33333333333337</ele><time>2026-04-18T13:25:47.001Z</time></trkpt><trkpt lat="45.58965402005189" lon="8.244289882877945"><ele>266.1666666666667</ele><time>2026-04-18T13:25:48.001Z</time></trkpt><trkpt lat="45.589590816740085" lon="8.24432211330099"><ele>266.0</ele><time>2026-04-18T13:25:49.001Z</time></trkpt><trkpt lat="45.58950797684469" lon="8.244411238343165"><ele>266.0</ele><time>2026-04-18T13:25:51.001Z</time></trkpt><trkpt lat="45.58945775677672" lon="8.244491711500526"><ele>266.0</ele><time>2026-04-18T13:25:53.001Z</time></trkpt><trkpt lat="45.589413215517126" lon="8.244557975220355"><ele>266.0</ele><time>2026-04-18T13:25:55.001Z</time></trkpt><trkpt lat="45.58935753266521" lon="8.244640564937113"><ele>266.0</ele><time>2026-04-18T13:25:58.001Z</time></trkpt><trkpt lat="45.58929092354569" lon="8.24466308856723"><ele>266.0</ele><time>2026-04-18T13:26:00.001Z</time></trkpt><trkpt lat="45.589216920176554" lon="8.244669656208076"><ele>266.0</ele><time>2026-04-18T13:26:01.001Z</time></trkpt><trkpt lat="45.58914125411909" lon="8.244670818836033"><ele>266.0</ele><time>2026-04-18T13:26:02.001Z</time></trkpt><trkpt lat="45.589051502040924" lon="8.244665503299554"><ele>266.0</ele><time>2026-04-18T13:26:03.001Z</time></trkpt><trkpt lat="45.588971808023466" lon="8.244667190009686"><ele>266.0</ele><time>2026-04-18T13:26:04.001Z</time></trkpt><trkpt lat="45.588871326228755" lon="8.244829828386685"><ele>266.0</ele><time>2026-04-18T13:26:06.001Z</time></trkpt><trkpt lat="45.58881105668091" lon="8.244922217764355"><ele>266.0</ele><time>2026-04-18T13:26:07.001Z</time></trkpt><trkpt lat="45.58876384782867" lon="8.24499417418533"><ele>266.0</ele><time>2026-04-18T13:26:09.001Z</time></trkpt><trkpt lat="45.588691558878864" lon="8.244981950238603"><ele>266.0</ele><time>2026-04-18T13:26:11.001Z</time></trkpt><trkpt lat="45.58862356584768" lon="8.244999854619957"><ele>266.0</ele><time>2026-04-18T13:26:12.001Z</time></trkpt><trkpt lat="45.58851509583182" lon="8.245064739000446"><ele>266.0</ele><time>2026-04-18T13:26:13.001Z</time></trkpt><trkpt lat="45.588416752037084" lon="8.245135058710336"><ele>266.0</ele><time>2026-04-18T13:26:14.001Z</time></trkpt><trkpt lat="45.58833064073102" lon="8.245244181501624"><ele>266.0</ele><time>2026-04-18T13:26:15.001Z</time></trkpt><trkpt lat="45.588253633216254" lon="8.245333748485104"><ele>266.0</ele><time>2026-04-18T13:26:16.001Z</time></trkpt><trkpt lat="45.588185257838205" lon="8.2453968739415"><ele>266.0</ele><time>2026-04-18T13:26:17.001Z</time></trkpt><trkpt lat="45.588123793959454" lon="8.24546770556883"><ele>266.0</ele><time>2026-04-18T13:26:18.001Z</time></trkpt><trkpt lat="45.58805676219869" lon="8.24552544019712"><ele>266.0</ele><time>2026-04-18T13:26:19.001Z</time></trkpt><trkpt lat="45.587998372842776" lon="8.245578039263936"><ele>266.0</ele><time>2026-04-18T13:26:20.001Z</time></trkpt><trkpt lat="45.58793494243221" lon="8.245639731576379"><ele>266.0</ele><time>2026-04-18T13:26:21.001Z</time></trkpt><trkpt lat="45.587893643684524" lon="8.245721318858113"><ele>266.0</ele><time>2026-04-18T13:26:33.001Z</time></trkpt><trkpt lat="45.587835243231396" lon="8.245761020364105"><ele>266.0</ele><time>2026-04-18T13:26:41.001Z</time></trkpt><trkpt lat="45.587751512502535" lon="8.245739186125226"><ele>266.0</ele><time>2026-04-18T13:26:44.001Z</time></trkpt><trkpt lat="45.58768390259271" lon="8.245717825852587"><ele>266.0</ele><time>2026-04-18T13:26:48.001Z</time></trkpt><trkpt lat="45.58761652380411" lon="8.245732030871343"><ele>266.0</ele><time>2026-04-18T13:26:51.001Z</time></trkpt><trkpt lat="45.58748804114548" lon="8.245704448663348"><ele>266.0</ele><time>2026-04-18T13:26:53.001Z</time></trkpt><trkpt lat="45.58742237526133" lon="8.245669578145975"><ele>266.0</ele><time>2026-04-18T13:26:54.001Z</time></trkpt><trkpt lat="45.58735350519311" lon="8.245634039124216"><ele>266.0</ele><time>2026-04-18T13:26:55.001Z</time></trkpt><trkpt lat="45.58728029174835" lon="8.245621274656202"><ele>266.0</ele><time>2026-04-18T13:26:58.001Z</time></trkpt><trkpt lat="45.58721476834394" lon="8.245682624425722"><ele>266.0</ele><time>2026-04-18T13:27:01.001Z</time></trkpt><trkpt lat="45.587152798371825" lon="8.245733788830236"><ele>266.0</ele><time>2026-04-18T13:27:04.001Z</time></trkpt><trkpt lat="45.58708548218392" lon="8.245738165725438"><ele>266.0</ele><time>2026-04-18T13:27:07.001Z</time></trkpt><trkpt lat="45.587015027591704" lon="8.245769103591336"><ele>266.0</ele><time>2026-04-18T13:28:04.001Z</time></trkpt><trkpt lat="45.5869592817097" lon="8.245661634228203"><ele>265.2</ele><time>2026-04-18T13:28:06.001Z</time></trkpt><trkpt lat="45.586923911676806" lon="8.245536493541985"><ele>264.40000000000003</ele><time>2026-04-18T13:28:09.001Z</time></trkpt><trkpt lat="45.586833739425416" lon="8.2454261769432"><ele>263.6</ele><time>2026-04-18T13:28:11.001Z</time></trkpt><trkpt lat="45.586773706942886" lon="8.245379527684504"><ele>262.8</ele><time>2026-04-18T13:28:13.001Z</time></trkpt><trkpt lat="45.58672265980978" lon="8.24525830671438"><ele>262.0</ele><time>2026-04-18T13:28:15.001Z</time></trkpt><trkpt lat="45.58671401073174" lon="8.245064658020926"><ele>262.0</ele><time>2026-04-18T13:28:17.001Z</time></trkpt><trkpt lat="45.58673244451308" lon="8.244969719562082"><ele>262.0</ele><time>2026-04-18T13:28:18.001Z</time></trkpt><trkpt lat="45.58667004949968" lon="8.244891584921907"><ele>262.0</ele><time>2026-04-18T13:28:19.001Z</time></trkpt><trkpt lat="45.58670033854907" lon="8.244769681438406"><ele>262.0</ele><time>2026-04-18T13:28:23.001Z</time></trkpt><trkpt lat="45.58666449213532" lon="8.24485625166982"><ele>262.0</ele><time>2026-04-18T13:28:33.001Z</time></trkpt><trkpt lat="45.58669690426679" lon="8.244993214731023"><ele>262.0</ele><time>2026-04-18T13:28:34.001Z</time></trkpt><trkpt lat="45.58665657695314" lon="8.245162599513389"><ele>262.0</ele><time>2026-04-18T13:28:36.001Z</time></trkpt><trkpt lat="45.5866475471604" lon="8.245254058304829"><ele>262.0</ele><time>2026-04-18T13:28:37.001Z</time></trkpt><trkpt lat="45.586684300586406" lon="8.245374463906037"><ele>262.0</ele><time>2026-04-18T13:28:39.001Z</time></trkpt><trkpt lat="45.58661206478981" lon="8.246068034264956"><ele>263.0</ele><time>2026-04-18T13:28:44.001Z</time></trkpt><trkpt lat="45.58652969040473" lon="8.246115991305118"><ele>264.0</ele><time>2026-04-18T13:28:47.001Z</time></trkpt><trkpt lat="45.58636059838212" lon="8.245645078481008"><ele>264.0</ele><time>2026-04-18T13:28:48.001Z</time></trkpt><trkpt lat="45.586289774644065" lon="8.245672467986886"><ele>264.0</ele><time>2026-04-18T13:28:50.001Z</time></trkpt><trkpt lat="45.58617962859579" lon="8.245732800454158"><ele>264.0</ele><time>2026-04-18T13:28:52.001Z</time></trkpt><trkpt lat="45.58607713285402" lon="8.24578227658712"><ele>264.0</ele><time>2026-04-18T13:28:54.001Z</time></trkpt><trkpt lat="45.585998369100814" lon="8.245809914744648"><ele>264.0</ele><time>2026-04-18T13:28:56Z</time></trkpt><trkpt lat="45.58591634164217" lon="8.245816213654662"><ele>263.4</ele><time>2026-04-18T13:28:58Z</time></trkpt><trkpt lat="45.58582512163396" lon="8.245819619137837"><ele>262.79999999999995</ele><time>2026-04-18T13:29:00Z</time></trkpt><trkpt lat="45.585744931345964" lon="8.245776430072791"><ele>262.20000000000005</ele><time>2026-04-18T13:29:02Z</time></trkpt><trkpt lat="45.58564111908843" lon="8.245700662727975"><ele>261.6</ele><time>2026-04-18T13:29:04Z</time></trkpt><trkpt lat="45.58557569509977" lon="8.245671868934906"><ele>261.0</ele><time>2026-04-18T13:29:06Z</time></trkpt><trkpt lat="45.58548948319069" lon="8.245630587389362"><ele>261.0</ele><time>2026-04-18T13:29:09Z</time></trkpt><trkpt lat="45.58542480864919" lon="8.24562628011507"><ele>261.0</ele><time>2026-04-18T13:29:11Z</time></trkpt><trkpt lat="45.58534093944005" lon="8.245623055639747"><ele>261.0</ele><time>2026-04-18T13:29:13Z</time></trkpt><trkpt lat="45.585264974070036" lon="8.24561555940534"><ele>261.0</ele><time>2026-04-18T13:29:15Z</time></trkpt><trkpt lat="45.58518797712091" lon="8.245463280744149"><ele>261.0</ele><time>2026-04-18T13:29:17Z</time></trkpt><trkpt lat="45.5851140834859" lon="8.24536048564426"><ele>261.0</ele><time>2026-04-18T13:29:19Z</time></trkpt><trkpt lat="45.58507662152288" lon="8.245283917295701"><ele>261.0</ele><time>2026-04-18T13:29:22Z</time></trkpt><trkpt lat="45.58500654906609" lon="8.24515722081042"><ele>261.0</ele><time>2026-04-18T13:29:47Z</time></trkpt><trkpt lat="45.58501495547598" lon="8.245063901949232"><ele>261.0</ele><time>2026-04-18T13:29:49Z</time></trkpt><trkpt lat="45.585031034188624" lon="8.244969409504357"><ele>261.0</ele><time>2026-04-18T13:29:51Z</time></trkpt><trkpt lat="45.5850579151413" lon="8.244864576922545"><ele>261.0</ele><time>2026-04-18T13:29:54Z</time></trkpt><trkpt lat="45.584995629094266" lon="8.245032177353501"><ele>261.0</ele><time>2026-04-18T13:30:02Z</time></trkpt><trkpt lat="45.584953214495265" lon="8.245147920702449"><ele>261.0</ele><time>2026-04-18T13:30:04Z</time></trkpt><trkpt lat="45.58494645280611" lon="8.245273628959282"><ele>261.0</ele><time>2026-04-18T13:30:07Z</time></trkpt><trkpt lat="45.58499783884811" lon="8.245380015316812"><ele>261.0</ele><time>2026-04-18T13:30:09Z</time></trkpt><trkpt lat="45.58504646307135" lon="8.245442718883142"><ele>261.0</ele><time>2026-04-18T13:30:10Z</time></trkpt><trkpt lat="45.58509479215661" lon="8.245558323175672"><ele>261.0</ele><time>2026-04-18T13:30:12Z</time></trkpt><trkpt lat="45.58516538471671" lon="8.245633391138457"><ele>261.0</ele><time>2026-04-18T13:30:14Z</time></trkpt><trkpt lat="45.585285134830926" lon="8.245658681868548"><ele>261.0</ele><time>2026-04-18T13:30:16Z</time></trkpt><trkpt lat="45.58536935072134" lon="8.245704550815264"><ele>261.0</ele><time>2026-04-18T13:30:18Z</time></trkpt><trkpt lat="45.58546857770781" lon="8.245745036006381"><ele>261.0</ele><time>2026-04-18T13:30:20Z</time></trkpt><trkpt lat="45.58561045068694" lon="8.245806527502609"><ele>261.0</ele><time>2026-04-18T13:30:22Z</time></trkpt><trkpt lat="45.58568012390616" lon="8.245848389304697"><ele>261.0</ele><time>2026-04-18T13:30:23Z</time></trkpt><trkpt lat="45.585750364886664" lon="8.24588845196768"><ele>261.0</ele><time>2026-04-18T13:30:24Z</time></trkpt><trkpt lat="45.58581727529704" lon="8.245907183141949"><ele>261.0</ele><time>2026-04-18T13:30:25Z</time></trkpt><trkpt lat="45.585944636353474" lon="8.245890084145023"><ele>261.0</ele><time>2026-04-18T13:30:27Z</time></trkpt><trkpt lat="45.5860228206483" lon="8.24586334642274"><ele>261.0</ele><time>2026-04-18T13:30:28Z</time></trkpt><trkpt lat="45.58610183686931" lon="8.245823223136945"><ele>261.0</ele><time>2026-04-18T13:30:29Z</time></trkpt><trkpt lat="45.58617508856383" lon="8.245779953308372"><ele>261.0</ele><time>2026-04-18T13:30:30Z</time></trkpt><trkpt lat="45.58624482668312" lon="8.245751323686946"><ele>261.0</ele><time>2026-04-18T13:30:31Z</time></trkpt><trkpt lat="45.58631030896183" lon="8.245717789441684"><ele>261.0</ele><time>2026-04-18T13:30:32Z</time></trkpt><trkpt lat="45.58639416678628" lon="8.245687440977811"><ele>261.0</ele><time>2026-04-18T13:30:34Z</time></trkpt><trkpt lat="45.58651686361402" lon="8.245680787674567"><ele>261.0</ele><time>2026-04-18T13:30:36Z</time></trkpt><trkpt lat="45.586576977231765" lon="8.245624969048574"><ele>261.1666666666667</ele><time>2026-04-18T13:30:37Z</time></trkpt><trkpt lat="45.586623075297666" lon="8.245544314068644"><ele>261.3333333333333</ele><time>2026-04-18T13:30:38Z</time></trkpt><trkpt lat="45.586665586577666" lon="8.245468878049964"><ele>261.5</ele><time>2026-04-18T13:30:39Z</time></trkpt><trkpt lat="45.58674591437409" lon="8.245413472565215"><ele>261.66666666666663</ele><time>2026-04-18T13:30:41Z</time></trkpt><trkpt lat="45.58681462814702" lon="8.245436244653458"><ele>261.8333333333333</ele><time>2026-04-18T13:30:42Z</time></trkpt><trkpt lat="45.58688469231895" lon="8.245498675033767"><ele>262.0</ele><time>2026-04-18T13:30:43Z</time></trkpt><trkpt lat="45.58694465546716" lon="8.245560871659977"><ele>262.3333333333333</ele><time>2026-04-18T13:30:44Z</time></trkpt><trkpt lat="45.586986457993845" lon="8.24564575437979"><ele>262.66666666666663</ele><time>2026-04-18T13:30:45Z</time></trkpt><trkpt lat="45.58697778412865" lon="8.245787861618705"><ele>263.0</ele><time>2026-04-18T13:30:47Z</time></trkpt><trkpt lat="45.58689942824113" lon="8.245820545946648"><ele>263.3333333333333</ele><time>2026-04-18T13:30:49Z</time></trkpt><trkpt lat="45.586844401222855" lon="8.245879528993214"><ele>263.6666666666667</ele><time>2026-04-18T13:30:52Z</time></trkpt><trkpt lat="45.58679355913132" lon="8.245971364493847"><ele>264.0</ele><time>2026-04-18T13:30:54Z</time></trkpt><trkpt lat="45.58671602967613" lon="8.246072823551385"><ele>264.0</ele><time>2026-04-18T13:30:56Z</time></trkpt><trkpt lat="45.586641604885436" lon="8.246100078453324"><ele>264.0</ele><time>2026-04-18T13:30:57Z</time></trkpt><trkpt lat="45.586558661058625" lon="8.246163532715599"><ele>264.0</ele><time>2026-04-18T13:30:58Z</time></trkpt><trkpt lat="45.58643191552151" lon="8.246207770715408"><ele>264.0</ele><time>2026-04-18T13:30:59Z</time></trkpt><trkpt lat="45.58631789380571" lon="8.246306299978425"><ele>264.0</ele><time>2026-04-18T13:31:00Z</time></trkpt><trkpt lat="45.58622281327701" lon="8.246444828204668"><ele>263.8</ele><time>2026-04-18T13:31:01Z</time></trkpt><trkpt lat="45.58611527501419" lon="8.246569593235094"><ele>263.59999999999997</ele><time>2026-04-18T13:31:02Z</time></trkpt><trkpt lat="45.58603020458518" lon="8.24667676837194"><ele>263.4</ele><time>2026-04-18T13:31:03Z</time></trkpt><trkpt lat="45.58596125058014" lon="8.246769502955017"><ele>263.2</ele><time>2026-04-18T13:31:04Z</time></trkpt><trkpt lat="45.58591484786808" lon="8.246834084318094"><ele>263.0</ele><time>2026-04-18T13:31:05Z</time></trkpt><trkpt lat="45.585849920378585" lon="8.246945087768815"><ele>263.0</ele><time>2026-04-18T13:31:07Z</time></trkpt><trkpt lat="45.58580152382719" lon="8.247120608865435"><ele>263.0</ele><time>2026-04-18T13:31:09Z</time></trkpt><trkpt lat="45.5857657480825" lon="8.247211418478642"><ele>263.0</ele><time>2026-04-18T13:31:10Z</time></trkpt><trkpt lat="45.58574810179767" lon="8.247311907763546"><ele>263.0</ele><time>2026-04-18T13:31:11Z</time></trkpt><trkpt lat="45.585717350892835" lon="8.247399233317667"><ele>263.0</ele><time>2026-04-18T13:31:12Z</time></trkpt><trkpt lat="45.58568305766473" lon="8.247489792977936"><ele>263.0</ele><time>2026-04-18T13:31:13Z</time></trkpt><trkpt lat="45.58565436017178" lon="8.247583062526664"><ele>263.6666666666667</ele><time>2026-04-18T13:31:14Z</time></trkpt><trkpt lat="45.58562712075856" lon="8.24767292763223"><ele>264.33333333333337</ele><time>2026-04-18T13:31:15Z</time></trkpt><trkpt lat="45.585562168920355" lon="8.247832689511036"><ele>265.0</ele><time>2026-04-18T13:31:17Z</time></trkpt><trkpt lat="45.585532664107774" lon="8.247918041005946"><ele>265.6666666666667</ele><time>2026-04-18T13:31:18Z</time></trkpt><trkpt lat="45.58549007803579" lon="8.24798881566271"><ele>266.3333333333333</ele><time>2026-04-18T13:31:19Z</time></trkpt><trkpt lat="45.58542316216796" lon="8.248021982991407"><ele>267.0</ele><time>2026-04-18T13:31:20Z</time></trkpt><trkpt lat="45.58537661061782" lon="8.248091173138993"><ele>267.0</ele><time>2026-04-18T13:31:21Z</time></trkpt><trkpt lat="45.58532204383437" lon="8.248138586637827"><ele>267.0</ele><time>2026-04-18T13:31:22Z</time></trkpt><trkpt lat="45.585227239213815" lon="8.248228060030671"><ele>267.0</ele><time>2026-04-18T13:31:24Z</time></trkpt><trkpt lat="45.58515016797004" lon="8.248295854856558"><ele>267.0</ele><time>2026-04-18T13:31:26Z</time></trkpt><trkpt lat="45.58508587278528" lon="8.248335018126138"><ele>267.0</ele><time>2026-04-18T13:32:04Z</time></trkpt><trkpt lat="45.58503944345005" lon="8.248217717594425"><ele>267.0</ele><time>2026-04-18T13:32:06Z</time></trkpt><trkpt lat="45.58501210615082" lon="8.248065848601643"><ele>266.8333333333333</ele><time>2026-04-18T13:32:08Z</time></trkpt><trkpt lat="45.5849867197755" lon="8.247971930354147"><ele>266.6666666666667</ele><time>2026-04-18T13:32:09Z</time></trkpt><trkpt lat="45.5849228070493" lon="8.247830720483133"><ele>266.5</ele><time>2026-04-18T13:32:11Z</time></trkpt><trkpt lat="45.584875290486835" lon="8.247742718645206"><ele>266.33333333333337</ele><time>2026-04-18T13:32:13Z</time></trkpt><trkpt lat="45.58493541823736" lon="8.247817321696408"><ele>266.1666666666667</ele><time>2026-04-18T13:32:50Z</time></trkpt><trkpt lat="45.58496411108716" lon="8.247913296197254"><ele>266.0</ele><time>2026-04-18T13:32:52Z</time></trkpt><trkpt lat="45.5850111939335" lon="8.248059367029361"><ele>266.2</ele><time>2026-04-18T13:32:54Z</time></trkpt><trkpt lat="45.58504595688886" lon="8.24819987683529"><ele>266.40000000000003</ele><time>2026-04-18T13:32:56Z</time></trkpt><trkpt lat="45.585045884493105" lon="8.248292020990764"><ele>266.6</ele><time>2026-04-18T13:32:58Z</time></trkpt><trkpt lat="45.58492361226555" lon="8.248277696091005"><ele>266.8</ele><time>2026-04-18T13:33:01Z</time></trkpt><trkpt lat="45.58486091349193" lon="8.24824438595278"><ele>267.0</ele><time>2026-04-18T13:33:02Z</time></trkpt><trkpt lat="45.58473440498898" lon="8.248239512535195"><ele>267.0</ele><time>2026-04-18T13:33:04Z</time></trkpt><trkpt lat="45.58466785789989" lon="8.248250827573356"><ele>267.0</ele><time>2026-04-18T13:33:05Z</time></trkpt><trkpt lat="45.58455322959013" lon="8.248269135752347"><ele>267.0</ele><time>2026-04-18T13:33:07Z</time></trkpt><trkpt lat="45.58446318037203" lon="8.24827746695934"><ele>267.0</ele><time>2026-04-18T13:33:09Z</time></trkpt><trkpt lat="45.58437657274362" lon="8.248274424307992"><ele>267.0</ele><time>2026-04-18T13:33:11Z</time></trkpt><trkpt lat="45.58429166659108" lon="8.248257891648434"><ele>267.0</ele><time>2026-04-18T13:33:13Z</time></trkpt><trkpt lat="45.584200510724784" lon="8.248236496835325"><ele>266.6</ele><time>2026-04-18T13:33:15Z</time></trkpt><trkpt lat="45.584098436568496" lon="8.248244868991177"><ele>266.2</ele><time>2026-04-18T13:33:17Z</time></trkpt><trkpt lat="45.583960343320996" lon="8.248276084861303"><ele>265.8</ele><time>2026-04-18T13:33:19Z</time></trkpt><trkpt lat="45.58388441911598" lon="8.24829607734434"><ele>265.4</ele><time>2026-04-18T13:33:20Z</time></trkpt><trkpt lat="45.58381327911945" lon="8.248313065238158"><ele>265.0</ele><time>2026-04-18T13:33:21Z</time></trkpt><trkpt lat="45.58372369579631" lon="8.248334823405104"><ele>264.5</ele><time>2026-04-18T13:33:22Z</time></trkpt><trkpt lat="45.583640673500156" lon="8.248354987991918"><ele>264.0</ele><time>2026-04-18T13:33:23Z</time></trkpt><trkpt lat="45.58355591128643" lon="8.248367773856451"><ele>263.5</ele><time>2026-04-18T13:33:24Z</time></trkpt><trkpt lat="45.583481006682156" lon="8.248378473544403"><ele>263.0</ele><time>2026-04-18T13:33:25Z</time></trkpt><trkpt lat="45.58340088962351" lon="8.248385869856113"><ele>262.5</ele><time>2026-04-18T13:33:26Z</time></trkpt><trkpt lat="45.58331654288929" lon="8.24839118512137"><ele>262.0</ele><time>2026-04-18T13:33:27Z</time></trkpt><trkpt lat="45.58323311811974" lon="8.248393795098497"><ele>262.0</ele><time>2026-04-18T13:33:28Z</time></trkpt><trkpt lat="45.583142086545934" lon="8.248393838083812"><ele>262.0</ele><time>2026-04-18T13:33:29Z</time></trkpt><trkpt lat="45.58304302110753" lon="8.248403967944432"><ele>262.0</ele><time>2026-04-18T13:33:30Z</time></trkpt><trkpt lat="45.58294980153438" lon="8.248422695652165"><ele>262.0</ele><time>2026-04-18T13:33:31Z</time></trkpt><trkpt lat="45.58286760352856" lon="8.248442882087481"><ele>262.0</ele><time>2026-04-18T13:33:32Z</time></trkpt><trkpt lat="45.58278275366429" lon="8.248451379982553"><ele>261.6</ele><time>2026-04-18T13:33:33Z</time></trkpt><trkpt lat="45.58269017144657" lon="8.248453306665738"><ele>261.2</ele><time>2026-04-18T13:33:34Z</time></trkpt><trkpt lat="45.58259757909304" lon="8.248442477017779"><ele>260.8</ele><time>2026-04-18T13:33:35Z</time></trkpt><trkpt lat="45.58250559061815" lon="8.24842577493668"><ele>260.4</ele><time>2026-04-18T13:33:36Z</time></trkpt><trkpt lat="45.58242041866243" lon="8.248420836049082"><ele>260.0</ele><time>2026-04-18T13:33:37Z</time></trkpt><trkpt lat="45.58233137598211" lon="8.248415050310433"><ele>260.0</ele><time>2026-04-18T13:33:38Z</time></trkpt><trkpt lat="45.5822479139884" lon="8.24841676200446"><ele>260.0</ele><time>2026-04-18T13:33:39Z</time></trkpt><trkpt lat="45.58217246892159" lon="8.248424506868721"><ele>260.0</ele><time>2026-04-18T13:33:40Z</time></trkpt><trkpt lat="45.58210211404439" lon="8.248431030104289"><ele>260.0</ele><time>2026-04-18T13:33:41Z</time></trkpt><trkpt lat="45.581996972201786" lon="8.248432276299452"><ele>260.0</ele><time>2026-04-18T13:33:43Z</time></trkpt><trkpt lat="45.5819192840486" lon="8.24842715712192"><ele>260.0</ele><time>2026-04-18T13:33:45Z</time></trkpt><trkpt lat="45.58184711551541" lon="8.248372797726605"><ele>259.8</ele><time>2026-04-18T13:33:47Z</time></trkpt><trkpt lat="45.58168916795823" lon="8.248302509825777"><ele>259.6</ele><time>2026-04-18T13:33:50Z</time></trkpt><trkpt lat="45.58156671989528" lon="8.248259496116626"><ele>259.4</ele><time>2026-04-18T13:33:52Z</time></trkpt><trkpt lat="45.58150015708155" lon="8.248238120679517"><ele>259.2</ele><time>2026-04-18T13:33:53Z</time></trkpt><trkpt lat="45.58142909721695" lon="8.248212388814563"><ele>259.0</ele><time>2026-04-18T13:33:54Z</time></trkpt><trkpt lat="45.581353469142" lon="8.248184825064678"><ele>259.0</ele><time>2026-04-18T13:33:55Z</time></trkpt><trkpt lat="45.58127497070235" lon="8.248160908913265"><ele>259.0</ele><time>2026-04-18T13:33:56Z</time></trkpt><trkpt lat="45.58118534631809" lon="8.248144243962196"><ele>259.0</ele><time>2026-04-18T13:33:57Z</time></trkpt><trkpt lat="45.581079946410746" lon="8.248124958001183"><ele>259.0</ele><time>2026-04-18T13:33:58Z</time></trkpt><trkpt lat="45.58098855999141" lon="8.248104182120459"><ele>259.0</ele><time>2026-04-18T13:33:59Z</time></trkpt><trkpt lat="45.58089912999047" lon="8.24808162938314"><ele>259.2</ele><time>2026-04-18T13:34:00Z</time></trkpt><trkpt lat="45.580802500629176" lon="8.248056772026041"><ele>259.4</ele><time>2026-04-18T13:34:01Z</time></trkpt><trkpt lat="45.58070936009708" lon="8.248032812251783"><ele>259.6</ele><time>2026-04-18T13:34:02Z</time></trkpt><trkpt lat="45.5806198049813" lon="8.248009183879068"><ele>259.8</ele><time>2026-04-18T13:34:03Z</time></trkpt><trkpt lat="45.580530913878675" lon="8.247985220921333"><ele>260.0</ele><time>2026-04-18T13:34:04Z</time></trkpt><trkpt lat="45.580438202509434" lon="8.247960228122684"><ele>259.6</ele><time>2026-04-18T13:34:05Z</time></trkpt><trkpt lat="45.58034684189563" lon="8.247934164247873"><ele>259.2</ele><time>2026-04-18T13:34:06Z</time></trkpt><trkpt lat="45.58027031030772" lon="8.247911614970132"><ele>258.8</ele><time>2026-04-18T13:34:07Z</time></trkpt><trkpt lat="45.58019677979259" lon="8.247882484499275"><ele>258.4</ele><time>2026-04-18T13:34:08Z</time></trkpt><trkpt lat="45.58013020589503" lon="8.247866663499563"><ele>258.0</ele><time>2026-04-18T13:34:10Z</time></trkpt><trkpt lat="45.5801829685299" lon="8.24753834096337"><ele>258.0</ele><time>2026-04-18T13:34:13Z</time></trkpt><trkpt lat="45.580198020844726" lon="8.247424824471146"><ele>258.0</ele><time>2026-04-18T13:34:14Z</time></trkpt><trkpt lat="45.58023130776065" lon="8.247298073117491"><ele>258.0</ele><time>2026-04-18T13:34:15Z</time></trkpt><trkpt lat="45.580275029962095" lon="8.247171962939277"><ele>258.0</ele><time>2026-04-18T13:34:16Z</time></trkpt><trkpt lat="45.580332785927645" lon="8.247055689150782"><ele>258.0</ele><time>2026-04-18T13:34:17Z</time></trkpt><trkpt lat="45.58039082542177" lon="8.246934534919774"><ele>258.2</ele><time>2026-04-18T13:34:18Z</time></trkpt><trkpt lat="45.58043843741079" lon="8.246813285738465"><ele>258.4</ele><time>2026-04-18T13:34:19Z</time></trkpt><trkpt lat="45.580491400783146" lon="8.246687706111882"><ele>258.59999999999997</ele><time>2026-04-18T13:34:20Z</time></trkpt><trkpt lat="45.58055886714718" lon="8.246572700353527"><ele>258.8</ele><time>2026-04-18T13:34:21Z</time></trkpt><trkpt lat="45.58062615015115" lon="8.246457819466116"><ele>259.0</ele><time>2026-04-18T13:34:22Z</time></trkpt><trkpt lat="45.580694552042964" lon="8.246338251155231"><ele>259.4</ele><time>2026-04-18T13:34:23Z</time></trkpt><trkpt lat="45.58075690925381" lon="8.246217033816942"><ele>259.79999999999995</ele><time>2026-04-18T13:34:24Z</time></trkpt><trkpt lat="45.580804362190385" lon="8.246090096916312"><ele>260.20000000000005</ele><time>2026-04-18T13:34:25Z</time></trkpt><trkpt lat="45.58083953615958" lon="8.245960195465052"><ele>260.6</ele><time>2026-04-18T13:34:26Z</time></trkpt><trkpt lat="45.58084177991629" lon="8.245786146145624"><ele>261.0</ele><time>2026-04-18T13:34:27Z</time></trkpt><trkpt lat="45.58084619287413" lon="8.245639978350505"><ele>260.2</ele><time>2026-04-18T13:34:28Z</time></trkpt><trkpt lat="45.580871290643394" lon="8.245512959785144"><ele>259.40000000000003</ele><time>2026-04-18T13:34:29Z</time></trkpt><trkpt lat="45.580894266332585" lon="8.245424929128069"><ele>258.6</ele><time>2026-04-18T13:34:30Z</time></trkpt><trkpt lat="45.58092955923716" lon="8.245254102812805"><ele>257.8</ele><time>2026-04-18T13:34:32Z</time></trkpt><trkpt lat="45.5809459269697" lon="8.245161362364415"><ele>257.0</ele><time>2026-04-18T13:34:33Z</time></trkpt><trkpt lat="45.580948590323004" lon="8.244978818223636"><ele>257.0</ele><time>2026-04-18T13:34:35Z</time></trkpt><trkpt lat="45.580955340724856" lon="8.244856490470923"><ele>257.0</ele><time>2026-04-18T13:34:37Z</time></trkpt><trkpt lat="45.58089257371101" lon="8.244801984259585"><ele>257.0</ele><time>2026-04-18T13:34:42Z</time></trkpt><trkpt lat="45.58083287574182" lon="8.244746653711779"><ele>257.0</ele><time>2026-04-18T13:34:46Z</time></trkpt><trkpt lat="45.58076400351618" lon="8.244723808033147"><ele>257.0</ele><time>2026-04-18T13:34:48Z</time></trkpt><trkpt lat="45.58069021982683" lon="8.24468600046748"><ele>257.0</ele><time>2026-04-18T13:34:49Z</time></trkpt><trkpt lat="45.58060672781233" lon="8.244659281019254"><ele>257.0</ele><time>2026-04-18T13:34:50Z</time></trkpt><trkpt lat="45.580521785517846" lon="8.244632338459633"><ele>257.0</ele><time>2026-04-18T13:34:51Z</time></trkpt><trkpt lat="45.580420944296" lon="8.244618831197869"><ele>257.0</ele><time>2026-04-18T13:34:52Z</time></trkpt><trkpt lat="45.58032412084948" lon="8.244607361923103"><ele>257.0</ele><time>2026-04-18T13:34:53Z</time></trkpt><trkpt lat="45.580247859244906" lon="8.24461215605448"><ele>257.0</ele><time>2026-04-18T13:34:54Z</time></trkpt><trkpt lat="45.58017538618817" lon="8.244628724020291"><ele>257.0</ele><time>2026-04-18T13:34:55Z</time></trkpt><trkpt lat="45.580057288616395" lon="8.244624393813762"><ele>256.5</ele><time>2026-04-18T13:34:57Z</time></trkpt><trkpt lat="45.57993745344956" lon="8.244618573269573"><ele>256.0</ele><time>2026-04-18T13:34:59Z</time></trkpt><trkpt lat="45.579869655697074" lon="8.244618643825603"><ele>255.5</ele><time>2026-04-18T13:35:00Z</time></trkpt><trkpt lat="45.57979567701622" lon="8.244608746476597"><ele>255.0</ele><time>2026-04-18T13:35:01Z</time></trkpt><trkpt lat="45.57972117865787" lon="8.244613135746041"><ele>254.50000000000003</ele><time>2026-04-18T13:35:02Z</time></trkpt><trkpt lat="45.579645132956074" lon="8.24461062472196"><ele>254.0</ele><time>2026-04-18T13:35:03Z</time></trkpt><trkpt lat="45.5795647128859" lon="8.244599129290943"><ele>254.00000000000003</ele><time>2026-04-18T13:35:04Z</time></trkpt><trkpt lat="45.57948221738351" lon="8.244558977422818"><ele>254.0</ele><time>2026-04-18T13:35:05Z</time></trkpt><trkpt lat="45.57939174577362" lon="8.244526817590089"><ele>254.0</ele><time>2026-04-18T13:35:06Z</time></trkpt><trkpt lat="45.579304337898115" lon="8.244510734419421"><ele>254.0</ele><time>2026-04-18T13:35:07Z</time></trkpt><trkpt lat="45.57922035503512" lon="8.244511333518378"><ele>254.00000000000003</ele><time>2026-04-18T13:35:08Z</time></trkpt><trkpt lat="45.579142544964554" lon="8.244496565247923"><ele>254.0</ele><time>2026-04-18T13:35:09Z</time></trkpt><trkpt lat="45.579059837681186" lon="8.244481447588964"><ele>254.0</ele><time>2026-04-18T13:35:10Z</time></trkpt><trkpt lat="45.57896379564103" lon="8.244474210954612"><ele>253.99999999999997</ele><time>2026-04-18T13:35:11Z</time></trkpt><trkpt lat="45.578870920360835" lon="8.244488127680595"><ele>253.99999999999997</ele><time>2026-04-18T13:35:12Z</time></trkpt><trkpt lat="45.578773111549076" lon="8.244488972009739"><ele>254.0</ele><time>2026-04-18T13:35:13Z</time></trkpt><trkpt lat="45.57868191263144" lon="8.244480437294172"><ele>254.0</ele><time>2026-04-18T13:35:14Z</time></trkpt><trkpt lat="45.57859217778762" lon="8.244441404035825"><ele>254.39999999999998</ele><time>2026-04-18T13:35:15Z</time></trkpt><trkpt lat="45.57849333552097" lon="8.244436390401654"><ele>254.79999999999998</ele><time>2026-04-18T13:35:16Z</time></trkpt><trkpt lat="45.57838939529027" lon="8.244432911310628"><ele>255.20000000000002</ele><time>2026-04-18T13:35:17Z</time></trkpt><trkpt lat="45.57827871783478" lon="8.244418129444279"><ele>255.60000000000002</ele><time>2026-04-18T13:35:18Z</time></trkpt><trkpt lat="45.57816990985789" lon="8.244412010733795"><ele>256.0</ele><time>2026-04-18T13:35:19Z</time></trkpt><trkpt lat="45.57805917997071" lon="8.244394684002563"><ele>256.0</ele><time>2026-04-18T13:35:20Z</time></trkpt><trkpt lat="45.577950617575056" lon="8.24437783106781"><ele>256.0</ele><time>2026-04-18T13:35:21Z</time></trkpt><trkpt lat="45.57783781709829" lon="8.244354956193641"><ele>256.0</ele><time>2026-04-18T13:35:22Z</time></trkpt><trkpt lat="45.577753965639616" lon="8.244330789550174"><ele>256.0</ele><time>2026-04-18T13:35:23Z</time></trkpt><trkpt lat="45.57769250037285" lon="8.244289903952609"><ele>256.0</ele><time>2026-04-18T13:35:24Z</time></trkpt><trkpt lat="45.577658317460006" lon="8.244169525100848"><ele>255.4</ele><time>2026-04-18T13:35:25Z</time></trkpt><trkpt lat="45.577638373908954" lon="8.244050310869703"><ele>254.8</ele><time>2026-04-18T13:35:26Z</time></trkpt><trkpt lat="45.57757396123704" lon="8.24391768830148"><ele>254.20000000000002</ele><time>2026-04-18T13:35:28Z</time></trkpt><trkpt lat="45.57750590023087" lon="8.243827216765913"><ele>253.60000000000002</ele><time>2026-04-18T13:36:02Z</time></trkpt><trkpt lat="45.57749459389075" lon="8.243648466460677"><ele>253.0</ele><time>2026-04-18T13:36:04Z</time></trkpt><trkpt lat="45.577490733568716" lon="8.243533618497036"><ele>254.4</ele><time>2026-04-18T13:36:05Z</time></trkpt><trkpt lat="45.5774859097003" lon="8.243403402678155"><ele>255.8</ele><time>2026-04-18T13:36:06Z</time></trkpt><trkpt lat="45.577499832438" lon="8.243260089267878"><ele>257.2</ele><time>2026-04-18T13:36:07Z</time></trkpt><trkpt lat="45.57748685303951" lon="8.2431415287621"><ele>258.6</ele><time>2026-04-18T13:36:08Z</time></trkpt><trkpt lat="45.5774816569604" lon="8.243013406911594"><ele>260.0</ele><time>2026-04-18T13:36:09Z</time></trkpt><trkpt lat="45.57747358155588" lon="8.242889505766865"><ele>262.0</ele><time>2026-04-18T13:36:10Z</time></trkpt><trkpt lat="45.577451964489676" lon="8.24277456202015"><ele>264.0</ele><time>2026-04-18T13:36:11Z</time></trkpt><trkpt lat="45.57741924143112" lon="8.242663650604586"><ele>266.0</ele><time>2026-04-18T13:36:12Z</time></trkpt><trkpt lat="45.57737911487505" lon="8.242561613170091"><ele>268.0</ele><time>2026-04-18T13:36:13Z</time></trkpt><trkpt lat="45.57733869446528" lon="8.242464830553802"><ele>270.0</ele><time>2026-04-18T13:36:14Z</time></trkpt><trkpt lat="45.57730721469825" lon="8.242364709562281"><ele>272.0</ele><time>2026-04-18T13:36:15Z</time></trkpt><trkpt lat="45.57725292496324" lon="8.242265617482909"><ele>272.8</ele><time>2026-04-18T13:36:16Z</time></trkpt><trkpt lat="45.57720929496957" lon="8.242176208900617"><ele>273.6</ele><time>2026-04-18T13:36:17Z</time></trkpt><trkpt lat="45.57717820753595" lon="8.242064263830727"><ele>274.40000000000003</ele><time>2026-04-18T13:36:18Z</time></trkpt><trkpt lat="45.57711293443834" lon="8.241926952221284"><ele>275.2</ele><time>2026-04-18T13:36:20Z</time></trkpt><trkpt lat="45.57707520308147" lon="8.241771890211066"><ele>276.0</ele><time>2026-04-18T13:36:22Z</time></trkpt><trkpt lat="45.57703754837049" lon="8.241681775765738"><ele>275.8</ele><time>2026-04-18T13:36:26Z</time></trkpt><trkpt lat="45.57692585943328" lon="8.241616617614909"><ele>275.6</ele><time>2026-04-18T13:36:28Z</time></trkpt><trkpt lat="45.57685625956148" lon="8.24156577136876"><ele>275.4</ele><time>2026-04-18T13:36:29Z</time></trkpt><trkpt lat="45.57678477750514" lon="8.241472858508436"><ele>275.2</ele><time>2026-04-18T13:36:30Z</time></trkpt><trkpt lat="45.5767217579138" lon="8.241370892241793"><ele>275.0</ele><time>2026-04-18T13:36:31Z</time></trkpt><trkpt lat="45.57665652022035" lon="8.241311990007858"><ele>274.0</ele><time>2026-04-18T13:36:32Z</time></trkpt><trkpt lat="45.57659126783283" lon="8.241274670760998"><ele>273.0</ele><time>2026-04-18T13:36:33Z</time></trkpt><trkpt lat="45.5765279735084" lon="8.241203585401344"><ele>272.0</ele><time>2026-04-18T13:36:34Z</time></trkpt><trkpt lat="45.576468301765146" lon="8.241080936675072"><ele>271.0</ele><time>2026-04-18T13:36:35Z</time></trkpt><trkpt lat="45.5764083397009" lon="8.240951923356967"><ele>270.0</ele><time>2026-04-18T13:36:36Z</time></trkpt><trkpt lat="45.5763545920249" lon="8.240845329596445"><ele>270.0</ele><time>2026-04-18T13:36:37Z</time></trkpt><trkpt lat="45.57632256795571" lon="8.24076589748886"><ele>270.0</ele><time>2026-04-18T13:36:38Z</time></trkpt><trkpt lat="45.5762441210676" lon="8.240704948162216"><ele>270.0</ele><time>2026-04-18T13:36:40Z</time></trkpt><trkpt lat="45.57617881582325" lon="8.24068344548124"><ele>270.0</ele><time>2026-04-18T13:36:41Z</time></trkpt><trkpt lat="45.57611911446828" lon="8.240638456271817"><ele>270.0</ele><time>2026-04-18T13:36:42Z</time></trkpt><trkpt lat="45.576058137077915" lon="8.240614019954702"><ele>270.0</ele><time>2026-04-18T13:36:43Z</time></trkpt><trkpt lat="45.57599494256466" lon="8.240597492179305"><ele>270.0</ele><time>2026-04-18T13:36:44Z</time></trkpt><trkpt lat="45.575913375839626" lon="8.240616401726422"><ele>270.5</ele><time>2026-04-18T13:36:45Z</time></trkpt><trkpt lat="45.57580680129464" lon="8.240660909248325"><ele>271.0</ele><time>2026-04-18T13:36:47Z</time></trkpt><trkpt lat="45.57573600752009" lon="8.240663235826387"><ele>271.5</ele><time>2026-04-18T13:36:48Z</time></trkpt><trkpt lat="45.57565193123646" lon="8.24060132653376"><ele>272.0</ele><time>2026-04-18T13:36:50Z</time></trkpt><trkpt lat="45.575663582256695" lon="8.240464342180577"><ele>272.5</ele><time>2026-04-18T13:36:52Z</time></trkpt><trkpt lat="45.57569529668645" lon="8.240367654345812"><ele>273.0</ele><time>2026-04-18T13:36:53Z</time></trkpt><trkpt lat="45.57568293599967" lon="8.240276299897962"><ele>271.8</ele><time>2026-04-18T13:36:54Z</time></trkpt><trkpt lat="45.57563219056986" lon="8.2401802689151"><ele>270.6</ele><time>2026-04-18T13:36:56Z</time></trkpt><trkpt lat="45.575580417397234" lon="8.240061396236454"><ele>269.4</ele><time>2026-04-18T13:36:57Z</time></trkpt><trkpt lat="45.57551052534274" lon="8.239950135070677"><ele>268.2</ele><time>2026-04-18T13:36:58Z</time></trkpt><trkpt lat="45.575455362005265" lon="8.239825620778243"><ele>267.0</ele><time>2026-04-18T13:36:59Z</time></trkpt><trkpt lat="45.57543179508892" lon="8.239729573642691"><ele>266.6</ele><time>2026-04-18T13:37:00Z</time></trkpt><trkpt lat="45.57533329562767" lon="8.239814889385658"><ele>266.2</ele><time>2026-04-18T13:37:03Z</time></trkpt><trkpt lat="45.57527041203284" lon="8.239874121352306"><ele>265.8</ele><time>2026-04-18T13:37:04Z</time></trkpt><trkpt lat="45.57522965768862" lon="8.239945287324465"><ele>265.4</ele><time>2026-04-18T13:37:05Z</time></trkpt><trkpt lat="45.575162199109926" lon="8.240051374455474"><ele>265.0</ele><time>2026-04-18T13:37:06Z</time></trkpt><trkpt lat="45.575071906450916" lon="8.240095459572379"><ele>265.0</ele><time>2026-04-18T13:37:07Z</time></trkpt><trkpt lat="45.574976246922674" lon="8.24010703283782"><ele>265.0</ele><time>2026-04-18T13:37:08Z</time></trkpt><trkpt lat="45.57489450813891" lon="8.24012897471268"><ele>265.0</ele><time>2026-04-18T13:37:09Z</time></trkpt><trkpt lat="45.57477008875562" lon="8.240172756001812"><ele>265.0</ele><time>2026-04-18T13:37:10Z</time></trkpt><trkpt lat="45.57468815281091" lon="8.240205491775267"><ele>265.0</ele><time>2026-04-18T13:37:11Z</time></trkpt><trkpt lat="45.574585916413014" lon="8.240215264226089"><ele>264.5</ele><time>2026-04-18T13:37:12Z</time></trkpt><trkpt lat="45.57449100468645" lon="8.240170714963927"><ele>264.0</ele><time>2026-04-18T13:37:13Z</time></trkpt><trkpt lat="45.574365156481896" lon="8.240186330623596"><ele>263.5</ele><time>2026-04-18T13:37:14Z</time></trkpt><trkpt lat="45.57422851193165" lon="8.240189599605081"><ele>263.0</ele><time>2026-04-18T13:37:15Z</time></trkpt><trkpt lat="45.574078798019194" lon="8.24023456183204"><ele>263.0</ele><time>2026-04-18T13:37:16Z</time></trkpt><trkpt lat="45.573995408569935" lon="8.240274600776766"><ele>263.0</ele><time>2026-04-18T13:37:17Z</time></trkpt><trkpt lat="45.57391206035498" lon="8.240232061659327"><ele>263.0</ele><time>2026-04-18T13:37:19Z</time></trkpt><trkpt lat="45.57389361495937" lon="8.240119685654234"><ele>263.0</ele><time>2026-04-18T13:37:20Z</time></trkpt><trkpt lat="45.57389724737655" lon="8.240022164159633"><ele>263.0</ele><time>2026-04-18T13:37:21Z</time></trkpt><trkpt lat="45.57387455291905" lon="8.239929988571618"><ele>263.0</ele><time>2026-04-18T13:37:22Z</time></trkpt><trkpt lat="45.57388352004934" lon="8.239827206986657"><ele>262.33333333333337</ele><time>2026-04-18T13:37:23Z</time></trkpt><trkpt lat="45.57390024972228" lon="8.23968404395312"><ele>261.6666666666667</ele><time>2026-04-18T13:37:24Z</time></trkpt><trkpt lat="45.57385747904796" lon="8.239552932578645"><ele>261.0</ele><time>2026-04-18T13:37:26Z</time></trkpt><trkpt lat="45.573850317263286" lon="8.239428013540161"><ele>260.3333333333333</ele><time>2026-04-18T13:37:28Z</time></trkpt><trkpt lat="45.57385495658366" lon="8.239316430925834"><ele>259.66666666666663</ele><time>2026-04-18T13:37:29Z</time></trkpt><trkpt lat="45.573853745775594" lon="8.239213616498384"><ele>259.0</ele><time>2026-04-18T13:37:30Z</time></trkpt><trkpt lat="45.57386867090528" lon="8.239099104088611"><ele>259.0</ele><time>2026-04-18T13:37:31Z</time></trkpt><trkpt lat="45.57386572939409" lon="8.238982876727768"><ele>259.0</ele><time>2026-04-18T13:37:32Z</time></trkpt><trkpt lat="45.573816891666944" lon="8.23886395418772"><ele>259.0</ele><time>2026-04-18T13:37:33Z</time></trkpt><trkpt lat="45.57376276954816" lon="8.238791574276469"><ele>259.0</ele><time>2026-04-18T13:37:34.001Z</time></trkpt><trkpt lat="45.5736663996955" lon="8.238759084042938"><ele>259.0</ele><time>2026-04-18T13:37:36.001Z</time></trkpt><trkpt lat="45.573566470558305" lon="8.238719228951123"><ele>258.0</ele><time>2026-04-18T13:37:38.001Z</time></trkpt><trkpt lat="45.573478145809325" lon="8.23868287878511"><ele>257.0</ele><time>2026-04-18T13:37:40.001Z</time></trkpt><trkpt lat="45.573395057571" lon="8.238659786860932"><ele>256.0</ele><time>2026-04-18T13:37:42.001Z</time></trkpt><trkpt lat="45.57336149642178" lon="8.238569151959288"><ele>255.0</ele><time>2026-04-18T13:37:46.001Z</time></trkpt><trkpt lat="45.5732467015304" lon="8.23783302286278"><ele>254.33333333333334</ele><time>2026-04-18T13:37:50.001Z</time></trkpt><trkpt lat="45.57325245505721" lon="8.23770625519529"><ele>253.66666666666669</ele><time>2026-04-18T13:37:51Z</time></trkpt><trkpt lat="45.573266557646484" lon="8.237576229384048"><ele>253.0</ele><time>2026-04-18T13:37:52Z</time></trkpt><trkpt lat="45.573284115115264" lon="8.237465603896787"><ele>252.33333333333334</ele><time>2026-04-18T13:37:53Z</time></trkpt><trkpt lat="45.57325323763671" lon="8.237327338753637"><ele>251.66666666666669</ele><time>2026-04-18T13:37:55Z</time></trkpt><trkpt lat="45.57323087812975" lon="8.237241348401993"><ele>251.0</ele><time>2026-04-18T13:37:56Z</time></trkpt><trkpt lat="45.57320809251364" lon="8.237109851708897"><ele>249.0</ele><time>2026-04-18T13:37:57Z</time></trkpt><trkpt lat="45.573178627439496" lon="8.236965480314694"><ele>247.00000000000003</ele><time>2026-04-18T13:37:58Z</time></trkpt><trkpt lat="45.57315526535663" lon="8.236789558066917"><ele>245.00000000000003</ele><time>2026-04-18T13:37:59Z</time></trkpt><trkpt lat="45.57314573801181" lon="8.236636474095773"><ele>243.0</ele><time>2026-04-18T13:38:00Z</time></trkpt><trkpt lat="45.57315983940859" lon="8.236527214868689"><ele>241.0</ele><time>2026-04-18T13:38:01Z</time></trkpt><trkpt lat="45.57321489624626" lon="8.236377355855595"><ele>240.66666666666666</ele><time>2026-04-18T13:38:03Z</time></trkpt><trkpt lat="45.573252290452615" lon="8.236301964278104"><ele>240.33333333333331</ele><time>2026-04-18T13:38:04Z</time></trkpt><trkpt lat="45.57328539733802" lon="8.23620161740106"><ele>240.0</ele><time>2026-04-18T13:38:06Z</time></trkpt><trkpt lat="45.57323913653123" lon="8.236101192093194"><ele>239.66666666666669</ele><time>2026-04-18T13:38:08Z</time></trkpt><trkpt lat="45.573129794076245" lon="8.23600869542193"><ele>239.33333333333334</ele><time>2026-04-18T13:38:10Z</time></trkpt><trkpt lat="45.573067813213655" lon="8.23598661588928"><ele>239.0</ele><time>2026-04-18T13:38:11Z</time></trkpt><trkpt lat="45.57298793357581" lon="8.235909928859112"><ele>239.0</ele><time>2026-04-18T13:38:13Z</time></trkpt><trkpt lat="45.572958926391685" lon="8.23573540331218"><ele>238.99999999999997</ele><time>2026-04-18T13:38:15Z</time></trkpt><trkpt lat="45.57293539524053" lon="8.23563540769532"><ele>238.99999999999997</ele><time>2026-04-18T13:38:16Z</time></trkpt><trkpt lat="45.57291264213701" lon="8.23541947098791"><ele>239.0</ele><time>2026-04-18T13:38:18Z</time></trkpt><trkpt lat="45.57288296781595" lon="8.235294288498643"><ele>239.0</ele><time>2026-04-18T13:38:19Z</time></trkpt><trkpt lat="45.572857480490185" lon="8.235204451830626"><ele>238.16666666666669</ele><time>2026-04-18T13:38:20Z</time></trkpt><trkpt lat="45.572785902785114" lon="8.235183557705623"><ele>237.33333333333334</ele><time>2026-04-18T13:38:22Z</time></trkpt><trkpt lat="45.57270086199811" lon="8.235289617439289"><ele>236.5</ele><time>2026-04-18T13:38:23Z</time></trkpt><trkpt lat="45.572624605057946" lon="8.235312862706698"><ele>235.66666666666669</ele><time>2026-04-18T13:38:24Z</time></trkpt><trkpt lat="45.57258122229759" lon="8.235239175457597"><ele>234.83333333333334</ele><time>2026-04-18T13:38:26Z</time></trkpt><trkpt lat="45.57255415487779" lon="8.235092253456948"><ele>234.0</ele><time>2026-04-18T13:38:28Z</time></trkpt><trkpt lat="45.57250366482835" lon="8.23497222955545"><ele>234.0</ele><time>2026-04-18T13:38:29Z</time></trkpt><trkpt lat="45.572485450498974" lon="8.234859556746954"><ele>234.0</ele><time>2026-04-18T13:38:30Z</time></trkpt><trkpt lat="45.572452770039966" lon="8.234742108106126"><ele>234.0</ele><time>2026-04-18T13:38:32Z</time></trkpt><trkpt lat="45.57241814946457" lon="8.234626791482812"><ele>234.0</ele><time>2026-04-18T13:38:36Z</time></trkpt><trkpt lat="45.57249266708347" lon="8.234538606898042"><ele>234.0</ele><time>2026-04-18T13:38:39Z</time></trkpt><trkpt lat="45.57256096533633" lon="8.23451775591248"><ele>234.0</ele><time>2026-04-18T13:38:40Z</time></trkpt><trkpt lat="45.572657776190226" lon="8.234539681275999"><ele>234.2</ele><time>2026-04-18T13:38:41Z</time></trkpt><trkpt lat="45.572730658773175" lon="8.23452306585777"><ele>234.39999999999998</ele><time>2026-04-18T13:38:42Z</time></trkpt><trkpt lat="45.57280473097523" lon="8.234441769072482"><ele>234.6</ele><time>2026-04-18T13:38:44Z</time></trkpt><trkpt lat="45.572851768753885" lon="8.234310593629257"><ele>234.8</ele><time>2026-04-18T13:38:45Z</time></trkpt><trkpt lat="45.572884398039506" lon="8.23416853717116"><ele>235.0</ele><time>2026-04-18T13:38:46Z</time></trkpt><trkpt lat="45.57292425413493" lon="8.23399709478359"><ele>235.66666666666666</ele><time>2026-04-18T13:38:47Z</time></trkpt><trkpt lat="45.57295579756481" lon="8.233871440441707"><ele>236.33333333333331</ele><time>2026-04-18T13:38:48Z</time></trkpt><trkpt lat="45.57296874247503" lon="8.233761375339338"><ele>237.0</ele><time>2026-04-18T13:38:49Z</time></trkpt><trkpt lat="45.572952734014564" lon="8.233650175191242"><ele>237.66666666666669</ele><time>2026-04-18T13:38:50Z</time></trkpt><trkpt lat="45.572939338181634" lon="8.233559762364218"><ele>238.33333333333334</ele><time>2026-04-18T13:38:51Z</time></trkpt><trkpt lat="45.57290731358102" lon="8.23345041986155"><ele>239.0</ele><time>2026-04-18T13:38:53Z</time></trkpt><trkpt lat="45.57281206697073" lon="8.233352445235939"><ele>239.2</ele><time>2026-04-18T13:39:01Z</time></trkpt><trkpt lat="45.572732413079216" lon="8.233342820038274"><ele>239.39999999999998</ele><time>2026-04-18T13:39:02Z</time></trkpt><trkpt lat="45.572639514156634" lon="8.233342518081946"><ele>239.6</ele><time>2026-04-18T13:39:03Z</time></trkpt><trkpt lat="45.572522937402766" lon="8.233339142111925"><ele>239.8</ele><time>2026-04-18T13:39:04Z</time></trkpt><trkpt lat="45.572410429143716" lon="8.23336588740785"><ele>240.0</ele><time>2026-04-18T13:39:05Z</time></trkpt><trkpt lat="45.57229786550833" lon="8.233378410446155"><ele>240.0</ele><time>2026-04-18T13:39:06Z</time></trkpt><trkpt lat="45.57219295553476" lon="8.233392737448453"><ele>240.0</ele><time>2026-04-18T13:39:07Z</time></trkpt><trkpt lat="45.57209430497673" lon="8.233420959415099"><ele>240.0</ele><time>2026-04-18T13:39:08Z</time></trkpt><trkpt lat="45.571988745469234" lon="8.233413247669231"><ele>240.0</ele><time>2026-04-18T13:39:09Z</time></trkpt><trkpt lat="45.571881142007186" lon="8.233441688097678"><ele>240.0</ele><time>2026-04-18T13:39:10Z</time></trkpt><trkpt lat="45.571773291871814" lon="8.233442776016702"><ele>240.8</ele><time>2026-04-18T13:39:11Z</time></trkpt><trkpt lat="45.57167094178648" lon="8.233476773861973"><ele>241.6</ele><time>2026-04-18T13:39:12Z</time></trkpt><trkpt lat="45.571565328429" lon="8.233478889594858"><ele>242.39999999999998</ele><time>2026-04-18T13:39:13Z</time></trkpt><trkpt lat="45.57145197994024" lon="8.233502956694814"><ele>243.2</ele><time>2026-04-18T13:39:14Z</time></trkpt><trkpt lat="45.57133587804359" lon="8.233518437690147"><ele>244.0</ele><time>2026-04-18T13:39:15Z</time></trkpt><trkpt lat="45.57121832540834" lon="8.233532566012528"><ele>243.0</ele><time>2026-04-18T13:39:16Z</time></trkpt><trkpt lat="45.57110024525074" lon="8.233544786305748"><ele>242.0</ele><time>2026-04-18T13:39:17Z</time></trkpt><trkpt lat="45.57098045525895" lon="8.233562038170508"><ele>241.0</ele><time>2026-04-18T13:39:18Z</time></trkpt><trkpt lat="45.570865675883056" lon="8.233582415628085"><ele>240.0</ele><time>2026-04-18T13:39:19Z</time></trkpt><trkpt lat="45.57076375803446" lon="8.233599896974722"><ele>240.0</ele><time>2026-04-18T13:39:20Z</time></trkpt><trkpt lat="45.570653524494915" lon="8.233611385196243"><ele>240.0</ele><time>2026-04-18T13:39:21Z</time></trkpt><trkpt lat="45.57053554470119" lon="8.233629162454676"><ele>240.0</ele><time>2026-04-18T13:39:22Z</time></trkpt><trkpt lat="45.57041564336333" lon="8.233645900817269"><ele>240.0</ele><time>2026-04-18T13:39:23Z</time></trkpt><trkpt lat="45.57028585040247" lon="8.233663090921679"><ele>239.25</ele><time>2026-04-18T13:39:24Z</time></trkpt><trkpt lat="45.57015311002568" lon="8.233680208923676"><ele>238.5</ele><time>2026-04-18T13:39:25Z</time></trkpt><trkpt lat="45.570014422092314" lon="8.233696486205616"><ele>237.75</ele><time>2026-04-18T13:39:26Z</time></trkpt><trkpt lat="45.569872623429866" lon="8.233687487825776"><ele>237.0</ele><time>2026-04-18T13:39:27Z</time></trkpt><trkpt lat="45.56973060796291" lon="8.23370945211836"><ele>237.0</ele><time>2026-04-18T13:39:28Z</time></trkpt><trkpt lat="45.56959296041769" lon="8.233690704614256"><ele>237.0</ele><time>2026-04-18T13:39:29Z</time></trkpt><trkpt lat="45.56945708226563" lon="8.233676785718112"><ele>237.0</ele><time>2026-04-18T13:39:30Z</time></trkpt><trkpt lat="45.569322776423014" lon="8.233657602254215"><ele>237.0</ele><time>2026-04-18T13:39:31Z</time></trkpt><trkpt lat="45.56918615702286" lon="8.233664875536723"><ele>237.25</ele><time>2026-04-18T13:39:32Z</time></trkpt><trkpt lat="45.56905532292089" lon="8.233644279606555"><ele>237.5</ele><time>2026-04-18T13:39:33Z</time></trkpt><trkpt lat="45.568924711299466" lon="8.233624144797488"><ele>237.75</ele><time>2026-04-18T13:39:34Z</time></trkpt><trkpt lat="45.568792456871954" lon="8.233603899626507"><ele>238.0</ele><time>2026-04-18T13:39:35Z</time></trkpt><trkpt lat="45.56867444048614" lon="8.233581494070647"><ele>237.99999999999997</ele><time>2026-04-18T13:39:36Z</time></trkpt><trkpt lat="45.5685663457125" lon="8.233558314403052"><ele>238.0</ele><time>2026-04-18T13:39:37Z</time></trkpt><trkpt lat="45.568468034737634" lon="8.233547284390644"><ele>238.0</ele><time>2026-04-18T13:39:38Z</time></trkpt><trkpt lat="45.56840085922221" lon="8.233537856135326"><ele>238.0</ele><time>2026-04-18T13:39:39.001Z</time></trkpt><trkpt lat="45.56833866814857" lon="8.233511934809242"><ele>237.99999999999997</ele><time>2026-04-18T13:39:40.001Z</time></trkpt><trkpt lat="45.568237291892075" lon="8.233497319471455"><ele>238.0</ele><time>2026-04-18T13:39:42.001Z</time></trkpt><trkpt lat="45.56812426365227" lon="8.233491386600004"><ele>237.99999999999997</ele><time>2026-04-18T13:39:44.001Z</time></trkpt><trkpt lat="45.5680512339135" lon="8.23347640734313"><ele>238.0</ele><time>2026-04-18T13:39:45.001Z</time></trkpt><trkpt lat="45.56797131691119" lon="8.233464944582222"><ele>238.0</ele><time>2026-04-18T13:39:46.001Z</time></trkpt><trkpt lat="45.5678944034403" lon="8.233439384308223"><ele>238.0</ele><time>2026-04-18T13:39:47.001Z</time></trkpt><trkpt lat="45.56782023164887" lon="8.23339086051103"><ele>237.99999999999997</ele><time>2026-04-18T13:39:48.001Z</time></trkpt><trkpt lat="45.56775075242327" lon="8.233313504182155"><ele>238.0</ele><time>2026-04-18T13:39:49.001Z</time></trkpt><trkpt lat="45.56768655891243" lon="8.233214487514056"><ele>236.8</ele><time>2026-04-18T13:39:50.001Z</time></trkpt><trkpt lat="45.56763315994148" lon="8.233098907304468"><ele>235.60000000000002</ele><time>2026-04-18T13:39:51.001Z</time></trkpt><trkpt lat="45.567587625559106" lon="8.232985285585455"><ele>234.39999999999998</ele><time>2026-04-18T13:39:52.001Z</time></trkpt><trkpt lat="45.567545546255275" lon="8.232876024509498"><ele>233.2</ele><time>2026-04-18T13:39:53.001Z</time></trkpt><trkpt lat="45.56751418855598" lon="8.23275954958633"><ele>232.0</ele><time>2026-04-18T13:39:54.001Z</time></trkpt><trkpt lat="45.56747706891473" lon="8.23263105047884"><ele>231.99999999999997</ele><time>2026-04-18T13:39:55.001Z</time></trkpt><trkpt lat="45.56743158662187" lon="8.232523336761172"><ele>232.0</ele><time>2026-04-18T13:39:56.001Z</time></trkpt><trkpt lat="45.56739307885558" lon="8.232420744070522"><ele>232.0</ele><time>2026-04-18T13:39:57.001Z</time></trkpt><trkpt lat="45.567357108629615" lon="8.232321781845442"><ele>232.0</ele><time>2026-04-18T13:39:58.001Z</time></trkpt><trkpt lat="45.56732027807378" lon="8.232227874299722"><ele>231.99999999999997</ele><time>2026-04-18T13:39:59.001Z</time></trkpt><trkpt lat="45.56728465543848" lon="8.232132378116367"><ele>232.0</ele><time>2026-04-18T13:40:00.001Z</time></trkpt><trkpt lat="45.56724829385544" lon="8.232032334617683"><ele>231.83333333333331</ele><time>2026-04-18T13:40:01Z</time></trkpt><trkpt lat="45.56720925042307" lon="8.231931769886781"><ele>231.66666666666666</ele><time>2026-04-18T13:40:02Z</time></trkpt><trkpt lat="45.567164620003304" lon="8.231828140593148"><ele>231.5</ele><time>2026-04-18T13:40:03Z</time></trkpt><trkpt lat="45.56712232033339" lon="8.231716248656497"><ele>231.33333333333331</ele><time>2026-04-18T13:40:04Z</time></trkpt><trkpt lat="45.5670829275373" lon="8.231596508802212"><ele>231.16666666666666</ele><time>2026-04-18T13:40:05Z</time></trkpt><trkpt lat="45.5670387409587" lon="8.231476949087744"><ele>231.0</ele><time>2026-04-18T13:40:06Z</time></trkpt><trkpt lat="45.56699122594353" lon="8.231358113540228"><ele>231.0</ele><time>2026-04-18T13:40:07Z</time></trkpt><trkpt lat="45.5669464043919" lon="8.23123962432314"><ele>231.0</ele><time>2026-04-18T13:40:08Z</time></trkpt><trkpt lat="45.566897457523396" lon="8.231124248340347"><ele>231.0</ele><time>2026-04-18T13:40:09Z</time></trkpt><trkpt lat="45.56685261033347" lon="8.231012102414061"><ele>231.0</ele><time>2026-04-18T13:40:10Z</time></trkpt><trkpt lat="45.56682137574734" lon="8.230914143978179"><ele>231.0</ele><time>2026-04-18T13:40:11Z</time></trkpt><trkpt lat="45.566792414494856" lon="8.230811994319282"><ele>231.0</ele><time>2026-04-18T13:40:13Z</time></trkpt><trkpt lat="45.566890577365285" lon="8.231200442272616"><ele>231.0</ele><time>2026-04-18T13:40:23Z</time></trkpt><trkpt lat="45.56694507601577" lon="8.231335827517693"><ele>231.00000000000003</ele><time>2026-04-18T13:40:24Z</time></trkpt><trkpt lat="45.566992704534954" lon="8.231470928741517"><ele>231.00000000000003</ele><time>2026-04-18T13:40:25Z</time></trkpt><trkpt lat="45.56704736606779" lon="8.231609250996282"><ele>231.0</ele><time>2026-04-18T13:40:26Z</time></trkpt><trkpt lat="45.56710387504262" lon="8.23174390923109"><ele>231.0</ele><time>2026-04-18T13:40:27Z</time></trkpt><trkpt lat="45.56716224110606" lon="8.231892428807742"><ele>231.0</ele><time>2026-04-18T13:40:28Z</time></trkpt><trkpt lat="45.56721577021399" lon="8.232037081133505"><ele>231.0</ele><time>2026-04-18T13:40:29Z</time></trkpt><trkpt lat="45.56727458231591" lon="8.232185770324442"><ele>231.0</ele><time>2026-04-18T13:40:30Z</time></trkpt><trkpt lat="45.5673268815761" lon="8.23233409730735"><ele>231.0</ele><time>2026-04-18T13:40:31Z</time></trkpt><trkpt lat="45.56738334080783" lon="8.232479164535338"><ele>231.20000000000002</ele><time>2026-04-18T13:40:32Z</time></trkpt><trkpt lat="45.567435776955016" lon="8.232623234636023"><ele>231.40000000000003</ele><time>2026-04-18T13:40:33Z</time></trkpt><trkpt lat="45.567487246910424" lon="8.232764719868262"><ele>231.6</ele><time>2026-04-18T13:40:34Z</time></trkpt><trkpt lat="45.56753096582079" lon="8.232907365803861"><ele>231.8</ele><time>2026-04-18T13:40:35Z</time></trkpt><trkpt lat="45.56758167237654" lon="8.233031829556513"><ele>232.0</ele><time>2026-04-18T13:40:36Z</time></trkpt><trkpt lat="45.56762732279431" lon="8.233151150981401"><ele>232.16666666666666</ele><time>2026-04-18T13:40:37Z</time></trkpt><trkpt lat="45.56767912261715" lon="8.233260278750716"><ele>232.33333333333331</ele><time>2026-04-18T13:40:38Z</time></trkpt><trkpt lat="45.567736172976105" lon="8.233347551417053"><ele>232.5</ele><time>2026-04-18T13:40:39Z</time></trkpt><trkpt lat="45.567790201272246" lon="8.233407650151488"><ele>232.66666666666669</ele><time>2026-04-18T13:40:40Z</time></trkpt><trkpt lat="45.56785178567457" lon="8.233460402052849"><ele>232.83333333333334</ele><time>2026-04-18T13:40:42Z</time></trkpt><trkpt lat="45.567915381474656" lon="8.233499304342267"><ele>233.0</ele><time>2026-04-18T13:40:44Z</time></trkpt><trkpt lat="45.5678468801458" lon="8.233530909758146"><ele>233.00000000000003</ele><time>2026-04-18T13:41:00Z</time></trkpt><trkpt lat="45.56777394590436" lon="8.233494827019205"><ele>233.0</ele><time>2026-04-18T13:41:02Z</time></trkpt><trkpt lat="45.56770416035035" lon="8.233508861409499"><ele>233.0</ele><time>2026-04-18T13:41:04Z</time></trkpt><trkpt lat="45.56763816519048" lon="8.233523507312107"><ele>233.0</ele><time>2026-04-18T13:41:09Z</time></trkpt><trkpt lat="45.56756816003668" lon="8.233567123849985"><ele>233.00000000000003</ele><time>2026-04-18T13:41:15Z</time></trkpt><trkpt lat="45.567492962349284" lon="8.233547200401102"><ele>233.0</ele><time>2026-04-18T13:41:18Z</time></trkpt><trkpt lat="45.56741771262105" lon="8.23359655911562"><ele>233.0</ele><time>2026-04-18T13:41:23Z</time></trkpt><trkpt lat="45.56733368408056" lon="8.233637253337026"><ele>233.0</ele><time>2026-04-18T13:41:25Z</time></trkpt><trkpt lat="45.56726749685779" lon="8.233657166056265"><ele>233.0</ele><time>2026-04-18T13:41:26Z</time></trkpt><trkpt lat="45.56720828296009" lon="8.233692559686336"><ele>233.0</ele><time>2026-04-18T13:41:27Z</time></trkpt><trkpt lat="45.567159232703425" lon="8.233762278214721"><ele>233.0</ele><time>2026-04-18T13:41:28Z</time></trkpt><trkpt lat="45.56709909865582" lon="8.23382099843526"><ele>233.0</ele><time>2026-04-18T13:41:29Z</time></trkpt><trkpt lat="45.56704680030361" lon="8.233889288553785"><ele>233.0</ele><time>2026-04-18T13:41:30Z</time></trkpt><trkpt lat="45.56697816271571" lon="8.233945495208795"><ele>232.66666666666669</ele><time>2026-04-18T13:41:31Z</time></trkpt><trkpt lat="45.56690106644479" lon="8.233997454749987"><ele>232.33333333333334</ele><time>2026-04-18T13:41:32Z</time></trkpt><trkpt lat="45.5668238818019" lon="8.234060088480069"><ele>232.0</ele><time>2026-04-18T13:41:33Z</time></trkpt><trkpt lat="45.566744495179115" lon="8.234116443012892"><ele>231.66666666666669</ele><time>2026-04-18T13:41:34Z</time></trkpt><trkpt lat="45.56668863099929" lon="8.234181218202403"><ele>231.33333333333334</ele><time>2026-04-18T13:41:35Z</time></trkpt><trkpt lat="45.566661435100116" lon="8.23426753301075"><ele>231.0</ele><time>2026-04-18T13:41:36Z</time></trkpt><trkpt lat="45.56660318588381" lon="8.234365908126524"><ele>231.0</ele><time>2026-04-18T13:41:37Z</time></trkpt><trkpt lat="45.5665323491286" lon="8.2344415530606"><ele>231.0</ele><time>2026-04-18T13:41:38Z</time></trkpt><trkpt lat="45.566473260641274" lon="8.234508060052194"><ele>231.0</ele><time>2026-04-18T13:41:39Z</time></trkpt><trkpt lat="45.566402832717394" lon="8.234561700064729"><ele>231.0</ele><time>2026-04-18T13:41:40Z</time></trkpt><trkpt lat="45.56634100931905" lon="8.2346392511573"><ele>231.0</ele><time>2026-04-18T13:41:41Z</time></trkpt><trkpt lat="45.56627282121685" lon="8.234700888998244"><ele>231.0</ele><time>2026-04-18T13:41:42Z</time></trkpt><trkpt lat="45.566214912492185" lon="8.234765048342595"><ele>231.5</ele><time>2026-04-18T13:41:43Z</time></trkpt><trkpt lat="45.56615260543908" lon="8.234829478891408"><ele>232.0</ele><time>2026-04-18T13:41:44Z</time></trkpt><trkpt lat="45.566081987843845" lon="8.234904128216392"><ele>232.5</ele><time>2026-04-18T13:41:45.001Z</time></trkpt><trkpt lat="45.566013670150085" lon="8.234981771864886"><ele>233.0</ele><time>2026-04-18T13:41:46.001Z</time></trkpt><trkpt lat="45.56594979052289" lon="8.235059399341951"><ele>233.5</ele><time>2026-04-18T13:41:47.001Z</time></trkpt><trkpt lat="45.56588234861072" lon="8.235124792681805"><ele>234.0</ele><time>2026-04-18T13:41:48.001Z</time></trkpt><trkpt lat="45.56578683227876" lon="8.235146262618732"><ele>234.0</ele><time>2026-04-18T13:41:49.001Z</time></trkpt><trkpt lat="45.565717448970105" lon="8.235218498167946"><ele>234.0</ele><time>2026-04-18T13:41:50.001Z</time></trkpt><trkpt lat="45.56564954744914" lon="8.235291739271808"><ele>234.0</ele><time>2026-04-18T13:41:51.001Z</time></trkpt><trkpt lat="45.565579611315584" lon="8.235370265991074"><ele>234.0</ele><time>2026-04-18T13:41:52.001Z</time></trkpt><trkpt lat="45.56550948134612" lon="8.235449010380501"><ele>234.0</ele><time>2026-04-18T13:41:53.001Z</time></trkpt><trkpt lat="45.56544289470669" lon="8.23552377602224"><ele>234.0</ele><time>2026-04-18T13:41:54.001Z</time></trkpt><trkpt lat="45.565376740650336" lon="8.235598056220178"><ele>233.66666666666666</ele><time>2026-04-18T13:41:55.001Z</time></trkpt><trkpt lat="45.56530792113159" lon="8.235671555549217"><ele>233.33333333333331</ele><time>2026-04-18T13:41:56.001Z</time></trkpt><trkpt lat="45.565242474417246" lon="8.235740989180426"><ele>233.0</ele><time>2026-04-18T13:41:57.001Z</time></trkpt><trkpt lat="45.56517800832445" lon="8.235809382435635"><ele>232.66666666666666</ele><time>2026-04-18T13:41:58.001Z</time></trkpt><trkpt lat="45.565114202555115" lon="8.235877075218815"><ele>232.33333333333331</ele><time>2026-04-18T13:41:59.001Z</time></trkpt><trkpt lat="45.56504936415259" lon="8.235949351635613"><ele>232.0</ele><time>2026-04-18T13:42:00.001Z</time></trkpt><trkpt lat="45.56498413625293" lon="8.236024427959329"><ele>231.99999999999997</ele><time>2026-04-18T13:42:01.001Z</time></trkpt><trkpt lat="45.56491839164303" lon="8.236100099137936"><ele>232.0</ele><time>2026-04-18T13:42:02.001Z</time></trkpt><trkpt lat="45.5648580331198" lon="8.236169073883028"><ele>232.0</ele><time>2026-04-18T13:42:03.001Z</time></trkpt><trkpt lat="45.56480370320727" lon="8.236229359244616"><ele>232.0</ele><time>2026-04-18T13:42:04.001Z</time></trkpt><trkpt lat="45.56475315610181" lon="8.23628544718629"><ele>231.99999999999997</ele><time>2026-04-18T13:42:05.001Z</time></trkpt><trkpt lat="45.56465874149277" lon="8.236388714082011"><ele>232.0</ele><time>2026-04-18T13:42:07.001Z</time></trkpt><trkpt lat="45.564603832829526" lon="8.236442446398058"><ele>231.99999999999997</ele><time>2026-04-18T13:42:08.001Z</time></trkpt><trkpt lat="45.56454713225905" lon="8.236495002905363"><ele>232.0</ele><time>2026-04-18T13:42:10Z</time></trkpt><trkpt lat="45.56451452875668" lon="8.23639742907397"><ele>232.0</ele><time>2026-04-18T13:42:14Z</time></trkpt><trkpt lat="45.56453388764597" lon="8.236299016223816"><ele>232.0</ele><time>2026-04-18T13:42:15Z</time></trkpt><trkpt lat="45.56456485353341" lon="8.236174408709244"><ele>231.99999999999997</ele><time>2026-04-18T13:42:16Z</time></trkpt><trkpt lat="45.564584253326984" lon="8.236048494993904"><ele>232.0</ele><time>2026-04-18T13:42:17Z</time></trkpt><trkpt lat="45.5646016202602" lon="8.235945392256117"><ele>232.0</ele><time>2026-04-18T13:42:18Z</time></trkpt><trkpt lat="45.56463740915841" lon="8.235857028829857"><ele>232.0</ele><time>2026-04-18T13:42:20Z</time></trkpt><trkpt lat="45.56443973786258" lon="8.23568081695503"><ele>232.0</ele><time>2026-04-18T13:42:23Z</time></trkpt><trkpt lat="45.56437547840674" lon="8.235653119810308"><ele>232.0</ele><time>2026-04-18T13:42:24Z</time></trkpt><trkpt lat="45.564245732179124" lon="8.235665034399315"><ele>231.6</ele><time>2026-04-18T13:42:26Z</time></trkpt><trkpt lat="45.56410876201652" lon="8.23568367957455"><ele>231.2</ele><time>2026-04-18T13:42:28Z</time></trkpt><trkpt lat="45.56400575829588" lon="8.235736120279043"><ele>230.8</ele><time>2026-04-18T13:42:29Z</time></trkpt><trkpt lat="45.56392477722434" lon="8.235765565562707"><ele>230.4</ele><time>2026-04-18T13:42:30Z</time></trkpt><trkpt lat="45.56384738424416" lon="8.235792809655225"><ele>230.0</ele><time>2026-04-18T13:42:31Z</time></trkpt><trkpt lat="45.56378225785638" lon="8.235805597203065"><ele>230.0</ele><time>2026-04-18T13:42:32Z</time></trkpt><trkpt lat="45.563706979764774" lon="8.235854141703388"><ele>230.0</ele><time>2026-04-18T13:42:33Z</time></trkpt><trkpt lat="45.56363906726608" lon="8.235884454742163"><ele>230.0</ele><time>2026-04-18T13:42:34Z</time></trkpt><trkpt lat="45.56358521437854" lon="8.23594314371465"><ele>230.0</ele><time>2026-04-18T13:42:36Z</time></trkpt><trkpt lat="45.563457887171964" lon="8.236037761964754"><ele>230.0</ele><time>2026-04-18T13:42:38Z</time></trkpt><trkpt lat="45.563367569181985" lon="8.236064552949985"><ele>229.2</ele><time>2026-04-18T13:42:39Z</time></trkpt><trkpt lat="45.56329761949946" lon="8.236121057318622"><ele>228.4</ele><time>2026-04-18T13:42:40Z</time></trkpt><trkpt lat="45.563205804896036" lon="8.236173580215116"><ele>227.60000000000002</ele><time>2026-04-18T13:42:42Z</time></trkpt><trkpt lat="45.56308747651075" lon="8.23618574495499"><ele>226.8</ele><time>2026-04-18T13:42:46Z</time></trkpt><trkpt lat="45.56301186939373" lon="8.236169321304716"><ele>226.0</ele><time>2026-04-18T13:42:47Z</time></trkpt><trkpt lat="45.56292455366639" lon="8.23616842974193"><ele>227.25</ele><time>2026-04-18T13:42:50Z</time></trkpt><trkpt lat="45.56286249751323" lon="8.236197857748405"><ele>228.5</ele><time>2026-04-18T13:42:52Z</time></trkpt><trkpt lat="45.56279549448329" lon="8.236158851128677"><ele>229.75</ele><time>2026-04-18T13:42:56Z</time></trkpt><trkpt lat="45.56273525022036" lon="8.236124434785438"><ele>231.0</ele><time>2026-04-18T13:42:57Z</time></trkpt><trkpt lat="45.56233578362568" lon="8.236044772722915"><ele>231.0</ele><time>2026-04-18T13:42:59Z</time></trkpt><trkpt lat="45.562309277398874" lon="8.235918496899112"><ele>231.00000000000003</ele><time>2026-04-18T13:43:00Z</time></trkpt><trkpt lat="45.562303987059785" lon="8.23578971639367"><ele>231.00000000000003</ele><time>2026-04-18T13:43:01Z</time></trkpt><trkpt lat="45.562297469077286" lon="8.235660660627524"><ele>231.0</ele><time>2026-04-18T13:43:02Z</time></trkpt><trkpt lat="45.56227627746687" lon="8.235507690594307"><ele>231.0</ele><time>2026-04-18T13:43:03Z</time></trkpt><trkpt lat="45.5622439875847" lon="8.23537426205901"><ele>230.33333333333334</ele><time>2026-04-18T13:43:04Z</time></trkpt><trkpt lat="45.56219690244219" lon="8.235262223982636"><ele>229.66666666666669</ele><time>2026-04-18T13:43:05Z</time></trkpt><trkpt lat="45.56215854288524" lon="8.235150579926641"><ele>229.0</ele><time>2026-04-18T13:43:06Z</time></trkpt><trkpt lat="45.562141550465924" lon="8.235029306439456"><ele>228.33333333333334</ele><time>2026-04-18T13:43:08Z</time></trkpt><trkpt lat="45.562131613407" lon="8.234883651070561"><ele>227.66666666666669</ele><time>2026-04-18T13:43:10Z</time></trkpt><trkpt lat="45.56213385104152" lon="8.234772500243459"><ele>227.0</ele><time>2026-04-18T13:43:11Z</time></trkpt><trkpt lat="45.56212987617755" lon="8.234654532826376"><ele>226.83333333333334</ele><time>2026-04-18T13:43:12Z</time></trkpt><trkpt lat="45.56209785641558" lon="8.234565807718706"><ele>226.66666666666669</ele><time>2026-04-18T13:43:13Z</time></trkpt><trkpt lat="45.562055340738056" lon="8.234478271761144"><ele>226.5</ele><time>2026-04-18T13:43:14Z</time></trkpt><trkpt lat="45.562014445824424" lon="8.234342648221455"><ele>226.33333333333331</ele><time>2026-04-18T13:43:15Z</time></trkpt><trkpt lat="45.561987066512515" lon="8.234238995527255"><ele>226.16666666666666</ele><time>2026-04-18T13:43:16Z</time></trkpt><trkpt lat="45.56189720116358" lon="8.234148748279583"><ele>226.0</ele><time>2026-04-18T13:43:18Z</time></trkpt><trkpt lat="45.561828783657646" lon="8.234144673617163"><ele>225.60000000000002</ele><time>2026-04-18T13:43:19Z</time></trkpt><trkpt lat="45.56169750726362" lon="8.23418021856537"><ele>225.20000000000002</ele><time>2026-04-18T13:43:21Z</time></trkpt><trkpt lat="45.56159895965644" lon="8.23420266475726"><ele>224.79999999999998</ele><time>2026-04-18T13:43:22Z</time></trkpt><trkpt lat="45.56149567518344" lon="8.23423277148849"><ele>224.39999999999998</ele><time>2026-04-18T13:43:23Z</time></trkpt><trkpt lat="45.561405869801874" lon="8.234286505875378"><ele>224.0</ele><time>2026-04-18T13:43:24Z</time></trkpt><trkpt lat="45.56132852793159" lon="8.23434228445057"><ele>224.0</ele><time>2026-04-18T13:43:25Z</time></trkpt><trkpt lat="45.5612478435901" lon="8.23438082491318"><ele>223.99999999999997</ele><time>2026-04-18T13:43:26Z</time></trkpt><trkpt lat="45.56116261073476" lon="8.234424225587732"><ele>223.99999999999997</ele><time>2026-04-18T13:43:27Z</time></trkpt><trkpt lat="45.56106894667112" lon="8.234453808195036"><ele>224.0</ele><time>2026-04-18T13:43:28Z</time></trkpt><trkpt lat="45.56097822265039" lon="8.234486240439388"><ele>224.0</ele><time>2026-04-18T13:43:29Z</time></trkpt><trkpt lat="45.56088595300623" lon="8.234508172548198"><ele>224.16666666666669</ele><time>2026-04-18T13:43:30Z</time></trkpt><trkpt lat="45.560802084274016" lon="8.234545022173826"><ele>224.33333333333334</ele><time>2026-04-18T13:43:31Z</time></trkpt><trkpt lat="45.56071393923197" lon="8.234590822236"><ele>224.5</ele><time>2026-04-18T13:43:32Z</time></trkpt><trkpt lat="45.56062927429127" lon="8.234645709325276"><ele>224.66666666666669</ele><time>2026-04-18T13:43:33Z</time></trkpt><trkpt lat="45.56055355606054" lon="8.234693830105853"><ele>224.83333333333334</ele><time>2026-04-18T13:43:34Z</time></trkpt><trkpt lat="45.560476634483294" lon="8.234716609788984"><ele>225.0</ele><time>2026-04-18T13:43:35Z</time></trkpt><trkpt lat="45.560393429957884" lon="8.234744705478631"><ele>225.0</ele><time>2026-04-18T13:43:36Z</time></trkpt><trkpt lat="45.56030294603198" lon="8.234775719601528"><ele>225.0</ele><time>2026-04-18T13:43:37Z</time></trkpt><trkpt lat="45.56021835934121" lon="8.234816442504258"><ele>225.0</ele><time>2026-04-18T13:43:38Z</time></trkpt><trkpt lat="45.5601202261571" lon="8.234826522396567"><ele>225.0</ele><time>2026-04-18T13:43:39Z</time></trkpt><trkpt lat="45.56000972047745" lon="8.234819588896308"><ele>225.0</ele><time>2026-04-18T13:43:40Z</time></trkpt><trkpt lat="45.55989150177791" lon="8.234853659862662"><ele>225.0</ele><time>2026-04-18T13:43:41Z</time></trkpt><trkpt lat="45.5597951408174" lon="8.234886462389788"><ele>225.0</ele><time>2026-04-18T13:43:42Z</time></trkpt><trkpt lat="45.55972159441943" lon="8.23492087753596"><ele>225.0</ele><time>2026-04-18T13:43:43Z</time></trkpt><trkpt lat="45.559675827473434" lon="8.234998354563675"><ele>225.0</ele><time>2026-04-18T13:43:45Z</time></trkpt><trkpt lat="45.55969796128076" lon="8.2351236188921"><ele>225.0</ele><time>2026-04-18T13:43:47Z</time></trkpt><trkpt lat="45.55972130404888" lon="8.235236875433726"><ele>225.0</ele><time>2026-04-18T13:43:48Z</time></trkpt><trkpt lat="45.55975304090695" lon="8.235371256867557"><ele>225.0</ele><time>2026-04-18T13:43:49Z</time></trkpt><trkpt lat="45.55977550249568" lon="8.235491587488447"><ele>225.0</ele><time>2026-04-18T13:43:50Z</time></trkpt><trkpt lat="45.5597635393774" lon="8.23563354108779"><ele>225.0</ele><time>2026-04-18T13:43:51.001Z</time></trkpt><trkpt lat="45.559752694849166" lon="8.235757458767944"><ele>225.0</ele><time>2026-04-18T13:43:52.001Z</time></trkpt><trkpt lat="45.55977698059293" lon="8.235858771489788"><ele>225.0</ele><time>2026-04-18T13:43:54.001Z</time></trkpt><trkpt lat="45.55977809359551" lon="8.235964981060016"><ele>225.0</ele><time>2026-04-18T13:43:56.001Z</time></trkpt><trkpt lat="45.55977567866597" lon="8.236253330731808"><ele>224.83333333333334</ele><time>2026-04-18T13:43:58.001Z</time></trkpt><trkpt lat="45.55977278088608" lon="8.236352510590496"><ele>224.66666666666669</ele><time>2026-04-18T13:43:59.001Z</time></trkpt><trkpt lat="45.55977593475344" lon="8.23647963285044"><ele>224.5</ele><time>2026-04-18T13:44:00.001Z</time></trkpt><trkpt lat="45.55977364917446" lon="8.236610696042916"><ele>224.33333333333334</ele><time>2026-04-18T13:44:01.001Z</time></trkpt><trkpt lat="45.559772581876246" lon="8.236718620236147"><ele>224.16666666666669</ele><time>2026-04-18T13:44:02.001Z</time></trkpt><trkpt lat="45.559776320831304" lon="8.236822692501965"><ele>224.0</ele><time>2026-04-18T13:44:03.001Z</time></trkpt><trkpt lat="45.559780436874384" lon="8.236922095895913"><ele>224.66666666666669</ele><time>2026-04-18T13:44:04.001Z</time></trkpt><trkpt lat="45.559777216094055" lon="8.237029085815712"><ele>225.33333333333334</ele><time>2026-04-18T13:44:05.001Z</time></trkpt><trkpt lat="45.55977946931297" lon="8.237126756198801"><ele>226.0</ele><time>2026-04-18T13:44:06.001Z</time></trkpt><trkpt lat="45.55979067066776" lon="8.237236526522269"><ele>226.66666666666669</ele><time>2026-04-18T13:44:07.001Z</time></trkpt><trkpt lat="45.559800157517536" lon="8.237349458121196"><ele>227.33333333333334</ele><time>2026-04-18T13:44:08.001Z</time></trkpt><trkpt lat="45.55980259012474" lon="8.237462416383995"><ele>228.0</ele><time>2026-04-18T13:44:09.001Z</time></trkpt><trkpt lat="45.559796861443694" lon="8.237571906151883"><ele>228.5</ele><time>2026-04-18T13:44:10.001Z</time></trkpt><trkpt lat="45.55974402562599" lon="8.237739020773422"><ele>229.0</ele><time>2026-04-18T13:44:12Z</time></trkpt><trkpt lat="45.55971595702173" lon="8.23782329109607"><ele>229.5</ele><time>2026-04-18T13:44:13Z</time></trkpt><trkpt lat="45.559651582533185" lon="8.237814605922662"><ele>230.0</ele><time>2026-04-18T13:44:14Z</time></trkpt><trkpt lat="45.559598454380065" lon="8.237763639512131"><ele>230.5</ele><time>2026-04-18T13:44:15Z</time></trkpt><trkpt lat="45.559480439391734" lon="8.237711992796136"><ele>231.0</ele><time>2026-04-18T13:44:17Z</time></trkpt><trkpt lat="45.55938898336559" lon="8.237799631645405"><ele>231.0</ele><time>2026-04-18T13:44:19Z</time></trkpt><trkpt lat="45.559291514335726" lon="8.237793466144248"><ele>231.0</ele><time>2026-04-18T13:44:21Z</time></trkpt><trkpt lat="45.55922578811067" lon="8.237757304973535"><ele>231.0</ele><time>2026-04-18T13:44:24Z</time></trkpt><trkpt lat="45.55915201012748" lon="8.237736260965091"><ele>231.0</ele><time>2026-04-18T13:44:28Z</time></trkpt><trkpt lat="45.559096580933925" lon="8.237671333856946"><ele>231.0</ele><time>2026-04-18T13:44:30Z</time></trkpt><trkpt lat="45.559022923643404" lon="8.237558981444531"><ele>231.0</ele><time>2026-04-18T13:44:32Z</time></trkpt><trkpt lat="45.558997596736674" lon="8.237470885521029"><ele>231.0</ele><time>2026-04-18T13:44:33Z</time></trkpt><trkpt lat="45.55896508392608" lon="8.237328414170534"><ele>231.0</ele><time>2026-04-18T13:44:35Z</time></trkpt><trkpt lat="45.55894421070567" lon="8.237227445522793"><ele>231.0</ele><time>2026-04-18T13:44:36Z</time></trkpt><trkpt lat="45.558903601468316" lon="8.23714433981647"><ele>231.0</ele><time>2026-04-18T13:44:37Z</time></trkpt><trkpt lat="45.558927423450406" lon="8.237017930978277"><ele>231.0</ele><time>2026-04-18T13:44:40Z</time></trkpt><trkpt lat="45.55898631362448" lon="8.236965451128725"><ele>231.0</ele><time>2026-04-18T13:44:41Z</time></trkpt><trkpt lat="45.55900246183095" lon="8.23685987107716"><ele>230.8</ele><time>2026-04-18T13:44:46Z</time></trkpt><trkpt lat="45.559021944165195" lon="8.236725173657359"><ele>230.60000000000002</ele><time>2026-04-18T13:44:49Z</time></trkpt><trkpt lat="45.559021976441294" lon="8.236553924330797"><ele>230.4</ele><time>2026-04-18T13:44:51Z</time></trkpt><trkpt lat="45.55900777915813" lon="8.2364447529942"><ele>230.2</ele><time>2026-04-18T13:44:52Z</time></trkpt><trkpt lat="45.55898462659737" lon="8.236323370037153"><ele>230.0</ele><time>2026-04-18T13:44:53Z</time></trkpt><trkpt lat="45.55894768454793" lon="8.236198944571541"><ele>229.66666666666669</ele><time>2026-04-18T13:44:54Z</time></trkpt><trkpt lat="45.55890082048356" lon="8.236087201083608"><ele>229.33333333333334</ele><time>2026-04-18T13:44:55Z</time></trkpt><trkpt lat="45.5588247022759" lon="8.23597113446628"><ele>229.0</ele><time>2026-04-18T13:44:56Z</time></trkpt><trkpt lat="45.558769007488095" lon="8.23589912799702"><ele>228.66666666666669</ele><time>2026-04-18T13:44:57Z</time></trkpt><trkpt lat="45.55867936071315" lon="8.235875280101117"><ele>228.33333333333334</ele><time>2026-04-18T13:44:59Z</time></trkpt><trkpt lat="45.55860737759945" lon="8.235882223164687"><ele>228.0</ele><time>2026-04-18T13:45:00Z</time></trkpt><trkpt lat="45.55851578465872" lon="8.23585709304306"><ele>228.8</ele><time>2026-04-18T13:45:01Z</time></trkpt><trkpt lat="45.558414935815044" lon="8.235867791872085"><ele>229.60000000000002</ele><time>2026-04-18T13:45:02Z</time></trkpt><trkpt lat="45.55829814167313" lon="8.235902733192379"><ele>230.39999999999998</ele><time>2026-04-18T13:45:03Z</time></trkpt><trkpt lat="45.55817550286532" lon="8.235944891947293"><ele>231.2</ele><time>2026-04-18T13:45:04Z</time></trkpt><trkpt lat="45.55807665419113" lon="8.235983391499747"><ele>232.0</ele><time>2026-04-18T13:45:05Z</time></trkpt><trkpt lat="45.55799636634473" lon="8.236049467236787"><ele>231.99999999999997</ele><time>2026-04-18T13:45:06Z</time></trkpt><trkpt lat="45.557911000620415" lon="8.236082834931233"><ele>232.0</ele><time>2026-04-18T13:45:07Z</time></trkpt><trkpt lat="45.55781340854904" lon="8.236100646774549"><ele>232.0</ele><time>2026-04-18T13:45:08Z</time></trkpt><trkpt lat="45.55772784962551" lon="8.236103644845322"><ele>232.0</ele><time>2026-04-18T13:45:09Z</time></trkpt><trkpt lat="45.55766411929173" lon="8.236143733277988"><ele>231.99999999999997</ele><time>2026-04-18T13:45:11Z</time></trkpt><trkpt lat="45.55769035661478" lon="8.236260701631684"><ele>232.0</ele><time>2026-04-18T13:45:19Z</time></trkpt><trkpt lat="45.5576629613738" lon="8.23638164059398"><ele>231.8</ele><time>2026-04-18T13:45:21Z</time></trkpt><trkpt lat="45.55763351411942" lon="8.236479103792192"><ele>231.6</ele><time>2026-04-18T13:45:23Z</time></trkpt><trkpt lat="45.557599394654225" lon="8.236589167211532"><ele>231.40000000000003</ele><time>2026-04-18T13:45:24Z</time></trkpt><trkpt lat="45.557612732488955" lon="8.236733987821808"><ele>231.20000000000002</ele><time>2026-04-18T13:45:26Z</time></trkpt><trkpt lat="45.55754739759627" lon="8.23681360084863"><ele>231.0</ele><time>2026-04-18T13:45:29Z</time></trkpt><trkpt lat="45.55739591037231" lon="8.236921628469043"><ele>231.0</ele><time>2026-04-18T13:45:31Z</time></trkpt><trkpt lat="45.557332861215556" lon="8.236931077100417"><ele>231.0</ele><time>2026-04-18T13:45:32Z</time></trkpt><trkpt lat="45.55726936865098" lon="8.236916541014331"><ele>231.0</ele><time>2026-04-18T13:45:33Z</time></trkpt><trkpt lat="45.55720206120649" lon="8.236813508569234"><ele>231.0</ele><time>2026-04-18T13:45:35Z</time></trkpt><trkpt lat="45.55714480098984" lon="8.236738724468895"><ele>231.0</ele><time>2026-04-18T13:45:37Z</time></trkpt><trkpt lat="45.55706915801872" lon="8.236793753610891"><ele>231.0</ele><time>2026-04-18T13:45:39Z</time></trkpt><trkpt lat="45.55697918244863" lon="8.236850089202946"><ele>230.0</ele><time>2026-04-18T13:45:40Z</time></trkpt><trkpt lat="45.55687745847057" lon="8.236910538222093"><ele>229.00000000000003</ele><time>2026-04-18T13:45:41Z</time></trkpt><trkpt lat="45.55678900377651" lon="8.236963145542557"><ele>228.00000000000003</ele><time>2026-04-18T13:45:42Z</time></trkpt><trkpt lat="45.556701895272894" lon="8.23699819305846"><ele>227.0</ele><time>2026-04-18T13:45:43Z</time></trkpt><trkpt lat="45.55662066977608" lon="8.237000111281057"><ele>226.0</ele><time>2026-04-18T13:45:44Z</time></trkpt><trkpt lat="45.55654256127444" lon="8.236989620389355"><ele>225.99999999999997</ele><time>2026-04-18T13:45:45Z</time></trkpt><trkpt lat="45.55647425467021" lon="8.23695813633822"><ele>226.0</ele><time>2026-04-18T13:45:47Z</time></trkpt><trkpt lat="45.5563750493438" lon="8.23690356128847"><ele>226.0</ele><time>2026-04-18T13:45:49Z</time></trkpt><trkpt lat="45.55630854970323" lon="8.236878838972745"><ele>226.0</ele><time>2026-04-18T13:45:50Z</time></trkpt><trkpt lat="45.55624084681057" lon="8.236885996921455"><ele>225.99999999999997</ele><time>2026-04-18T13:45:51Z</time></trkpt><trkpt lat="45.5561814221359" lon="8.2369541729762"><ele>226.0</ele><time>2026-04-18T13:45:52Z</time></trkpt><trkpt lat="45.55609004724124" lon="8.236984974683207"><ele>226.25</ele><time>2026-04-18T13:45:53Z</time></trkpt><trkpt lat="45.55597504202931" lon="8.237036021921783"><ele>226.5</ele><time>2026-04-18T13:45:54Z</time></trkpt><trkpt lat="45.55585373351649" lon="8.237139091388046"><ele>226.75</ele><time>2026-04-18T13:45:55Z</time></trkpt><trkpt lat="45.555729563557925" lon="8.23723682002922"><ele>227.0</ele><time>2026-04-18T13:45:56Z</time></trkpt><trkpt lat="45.55564663258274" lon="8.237280494983075"><ele>227.0</ele><time>2026-04-18T13:45:57.001Z</time></trkpt><trkpt lat="45.55554710056219" lon="8.237296206695241"><ele>227.0</ele><time>2026-04-18T13:45:59.001Z</time></trkpt><trkpt lat="45.55548328828854" lon="8.237267263216529"><ele>227.0</ele><time>2026-04-18T13:46:00.001Z</time></trkpt><trkpt lat="45.55538887716359" lon="8.237229659064354"><ele>227.0</ele><time>2026-04-18T13:46:01.001Z</time></trkpt><trkpt lat="45.55526552584423" lon="8.237185613681602"><ele>227.0</ele><time>2026-04-18T13:46:02.001Z</time></trkpt><trkpt lat="45.55513755385126" lon="8.23716210507503"><ele>227.25</ele><time>2026-04-18T13:46:03.001Z</time></trkpt><trkpt lat="45.55502329139646" lon="8.237143290517436"><ele>227.5</ele><time>2026-04-18T13:46:04.001Z</time></trkpt><trkpt lat="45.55489939002192" lon="8.23712138638808"><ele>227.75</ele><time>2026-04-18T13:46:05.001Z</time></trkpt><trkpt lat="45.55478723193615" lon="8.237105291037587"><ele>228.0</ele><time>2026-04-18T13:46:06.001Z</time></trkpt><trkpt lat="45.55463815600689" lon="8.23707236765249"><ele>227.8</ele><time>2026-04-18T13:46:07.001Z</time></trkpt><trkpt lat="45.55452707948521" lon="8.237047890248903"><ele>227.60000000000002</ele><time>2026-04-18T13:46:08Z</time></trkpt><trkpt lat="45.554427431926065" lon="8.237024526726326"><ele>227.39999999999998</ele><time>2026-04-18T13:46:09Z</time></trkpt><trkpt lat="45.554333810816836" lon="8.236961679981775"><ele>227.2</ele><time>2026-04-18T13:46:10Z</time></trkpt><trkpt lat="45.554230434975864" lon="8.236914393366606"><ele>227.0</ele><time>2026-04-18T13:46:11Z</time></trkpt><trkpt lat="45.554134162225544" lon="8.2368587787315"><ele>227.0</ele><time>2026-04-18T13:46:12Z</time></trkpt><trkpt lat="45.55403460097335" lon="8.236776037953703"><ele>227.0</ele><time>2026-04-18T13:46:13Z</time></trkpt><trkpt lat="45.55392481123961" lon="8.236693464854826"><ele>227.0</ele><time>2026-04-18T13:46:14Z</time></trkpt><trkpt lat="45.553868224360144" lon="8.236648530757348"><ele>227.0</ele><time>2026-04-18T13:46:15Z</time></trkpt><trkpt lat="45.553792782785095" lon="8.236657301336495"><ele>227.0</ele><time>2026-04-18T13:46:21Z</time></trkpt><trkpt lat="45.553721489699576" lon="8.236632826994475"><ele>226.5</ele><time>2026-04-18T13:46:22Z</time></trkpt><trkpt lat="45.553600394709164" lon="8.236598847851042"><ele>226.0</ele><time>2026-04-18T13:46:23Z</time></trkpt><trkpt lat="45.5534559314625" lon="8.236589383745278"><ele>225.5</ele><time>2026-04-18T13:46:24Z</time></trkpt><trkpt lat="45.553314784914626" lon="8.236539206945375"><ele>225.0</ele><time>2026-04-18T13:46:25Z</time></trkpt><trkpt lat="45.553175063477184" lon="8.236547536313727"><ele>225.0</ele><time>2026-04-18T13:46:26Z</time></trkpt><trkpt lat="45.553040583680506" lon="8.23657206142847"><ele>225.0</ele><time>2026-04-18T13:46:27Z</time></trkpt><trkpt lat="45.55293010463154" lon="8.236607742371843"><ele>225.0</ele><time>2026-04-18T13:46:28Z</time></trkpt><trkpt lat="45.55281932323786" lon="8.236613936572597"><ele>225.0</ele><time>2026-04-18T13:46:29Z</time></trkpt><trkpt lat="45.55270359918887" lon="8.236598606184451"><ele>225.0</ele><time>2026-04-18T13:46:30Z</time></trkpt><trkpt lat="45.55258393308592" lon="8.236525694589918"><ele>225.0</ele><time>2026-04-18T13:46:31Z</time></trkpt><trkpt lat="45.552451212433155" lon="8.236504542443427"><ele>225.0</ele><time>2026-04-18T13:46:32Z</time></trkpt><trkpt lat="45.55233741186159" lon="8.236500644379166"><ele>225.0</ele><time>2026-04-18T13:46:33Z</time></trkpt><trkpt lat="45.55226754999356" lon="8.236498382480146"><ele>225.0</ele><time>2026-04-18T13:46:34Z</time></trkpt><trkpt lat="45.55215780176187" lon="8.236510187943818"><ele>224.66666666666666</ele><time>2026-04-18T13:46:36Z</time></trkpt><trkpt lat="45.55209733643842" lon="8.23644851628794"><ele>224.33333333333331</ele><time>2026-04-18T13:46:37Z</time></trkpt><trkpt lat="45.55200539546527" lon="8.236353365905135"><ele>224.0</ele><time>2026-04-18T13:46:39Z</time></trkpt><trkpt lat="45.5519512088192" lon="8.236302292936493"><ele>223.66666666666666</ele><time>2026-04-18T13:46:40Z</time></trkpt><trkpt lat="45.55188586722547" lon="8.236215655710653"><ele>223.33333333333331</ele><time>2026-04-18T13:46:41Z</time></trkpt><trkpt lat="45.551824910525596" lon="8.236164396669935"><ele>223.0</ele><time>2026-04-18T13:46:43Z</time></trkpt><trkpt lat="45.551756456121566" lon="8.236112405780075"><ele>222.2</ele><time>2026-04-18T13:46:45Z</time></trkpt><trkpt lat="45.55169365832588" lon="8.236003761910853"><ele>221.4</ele><time>2026-04-18T13:46:49Z</time></trkpt><trkpt lat="45.551777767594174" lon="8.235895896317436"><ele>220.59999999999997</ele><time>2026-04-18T13:46:51Z</time></trkpt><trkpt lat="45.55178014756947" lon="8.235782382594335"><ele>219.79999999999998</ele><time>2026-04-18T13:46:53Z</time></trkpt><trkpt lat="45.55178318336876" lon="8.23563759059058"><ele>219.0</ele><time>2026-04-18T13:46:55Z</time></trkpt><trkpt lat="45.55178693565037" lon="8.235458626561561"><ele>218.79999999999998</ele><time>2026-04-18T13:46:57Z</time></trkpt><trkpt lat="45.551789096602825" lon="8.23535556011808"><ele>218.59999999999997</ele><time>2026-04-18T13:46:58Z</time></trkpt><trkpt lat="45.55182351093846" lon="8.235224703319501"><ele>218.4</ele><time>2026-04-18T13:47:03Z</time></trkpt><trkpt lat="45.55180042912978" lon="8.23503532127168"><ele>218.2</ele><time>2026-04-18T13:47:05Z</time></trkpt><trkpt lat="45.55182836525011" lon="8.23491156864855"><ele>218.0</ele><time>2026-04-18T13:47:07Z</time></trkpt><trkpt lat="45.55184763056921" lon="8.234794039628126"><ele>217.83333333333334</ele><time>2026-04-18T13:47:09Z</time></trkpt><trkpt lat="45.55184632301354" lon="8.234612009485765"><ele>217.66666666666669</ele><time>2026-04-18T13:47:11Z</time></trkpt><trkpt lat="45.551844603992954" lon="8.234487321325174"><ele>217.5</ele><time>2026-04-18T13:47:12Z</time></trkpt><trkpt lat="45.551848413639945" lon="8.234376947668899"><ele>217.33333333333331</ele><time>2026-04-18T13:47:13Z</time></trkpt><trkpt lat="45.5518495513667" lon="8.23425723062243"><ele>217.16666666666666</ele><time>2026-04-18T13:47:14Z</time></trkpt><trkpt lat="45.55183980227465" lon="8.23415608764963"><ele>217.0</ele><time>2026-04-18T13:47:15Z</time></trkpt><trkpt lat="45.55183817749184" lon="8.234056851196302"><ele>217.16666666666666</ele><time>2026-04-18T13:47:16Z</time></trkpt><trkpt lat="45.551844897127985" lon="8.23393223076783"><ele>217.33333333333331</ele><time>2026-04-18T13:47:18Z</time></trkpt><trkpt lat="45.55186301102098" lon="8.233774027560932"><ele>217.5</ele><time>2026-04-18T13:47:20Z</time></trkpt><trkpt lat="45.55188911067017" lon="8.23367662230343"><ele>217.66666666666669</ele><time>2026-04-18T13:47:22Z</time></trkpt><trkpt lat="45.55187662370698" lon="8.233585449215235"><ele>217.83333333333334</ele><time>2026-04-18T13:47:25Z</time></trkpt><trkpt lat="45.55186670082308" lon="8.233474932710557"><ele>218.0</ele><time>2026-04-18T13:47:29Z</time></trkpt><trkpt lat="45.551867393111095" lon="8.233341819157443"><ele>218.00000000000003</ele><time>2026-04-18T13:47:46Z</time></trkpt><trkpt lat="45.55192435657544" lon="8.23338236058592"><ele>218.0</ele><time>2026-04-18T13:47:49Z</time></trkpt><trkpt lat="45.551856114875456" lon="8.23350163828752"><ele>218.0</ele><time>2026-04-18T13:47:52Z</time></trkpt><trkpt lat="45.55184081960388" lon="8.233623463163571"><ele>218.0</ele><time>2026-04-18T13:47:55.999Z</time></trkpt><trkpt lat="45.55183315396232" lon="8.233714885148908"><ele>218.00000000000003</ele><time>2026-04-18T13:47:57.999Z</time></trkpt><trkpt lat="45.5518153086917" lon="8.233825511752947"><ele>218.0</ele><time>2026-04-18T13:48:07Z</time></trkpt><trkpt lat="45.551830064384404" lon="8.23398202848622"><ele>217.8</ele><time>2026-04-18T13:48:09Z</time></trkpt><trkpt lat="45.551793395610716" lon="8.234090895666629"><ele>217.60000000000002</ele><time>2026-04-18T13:48:11Z</time></trkpt><trkpt lat="45.55175805080394" lon="8.234228885486838"><ele>217.39999999999998</ele><time>2026-04-18T13:48:14Z</time></trkpt><trkpt lat="45.55174430651403" lon="8.234358119752306"><ele>217.2</ele><time>2026-04-18T13:48:16Z</time></trkpt><trkpt lat="45.5517091427793" lon="8.234516941576624"><ele>217.0</ele><time>2026-04-18T13:48:18Z</time></trkpt><trkpt lat="45.55171196053388" lon="8.234627606556677"><ele>217.0</ele><time>2026-04-18T13:48:19Z</time></trkpt><trkpt lat="45.551712960921435" lon="8.234730944701822"><ele>217.0</ele><time>2026-04-18T13:48:20Z</time></trkpt><trkpt lat="45.55171729028461" lon="8.234871291863536"><ele>217.0</ele><time>2026-04-18T13:48:21Z</time></trkpt><trkpt lat="45.551717535114804" lon="8.235018422644695"><ele>217.0</ele><time>2026-04-18T13:48:22Z</time></trkpt><trkpt lat="45.551728069014935" lon="8.23519057640744"><ele>217.0</ele><time>2026-04-18T13:48:23Z</time></trkpt><trkpt lat="45.55173210598309" lon="8.235301599177065"><ele>217.16666666666666</ele><time>2026-04-18T13:48:24Z</time></trkpt><trkpt lat="45.551740063465445" lon="8.235396430731285"><ele>217.33333333333331</ele><time>2026-04-18T13:48:25Z</time></trkpt><trkpt lat="45.551751959636235" lon="8.235515897246657"><ele>217.5</ele><time>2026-04-18T13:48:26Z</time></trkpt><trkpt lat="45.55175734928964" lon="8.235635280489218"><ele>217.66666666666669</ele><time>2026-04-18T13:48:27Z</time></trkpt><trkpt lat="45.55176378491305" lon="8.235735883332795"><ele>217.83333333333334</ele><time>2026-04-18T13:48:28Z</time></trkpt><trkpt lat="45.55178840328898" lon="8.235854674259535"><ele>218.0</ele><time>2026-04-18T13:48:29Z</time></trkpt><trkpt lat="45.55180117095471" lon="8.235977889724007"><ele>218.2</ele><time>2026-04-18T13:48:30Z</time></trkpt><trkpt lat="45.551791116750636" lon="8.236086079540504"><ele>218.4</ele><time>2026-04-18T13:48:31Z</time></trkpt><trkpt lat="45.551762857089685" lon="8.236179613930917"><ele>218.59999999999997</ele><time>2026-04-18T13:48:32Z</time></trkpt><trkpt lat="45.551724682676436" lon="8.23630145805672"><ele>218.79999999999998</ele><time>2026-04-18T13:48:33Z</time></trkpt><trkpt lat="45.55167599847012" lon="8.236471072931105"><ele>219.0</ele><time>2026-04-18T13:48:35Z</time></trkpt><trkpt lat="45.55167425877964" lon="8.236598921842264"><ele>219.39999999999998</ele><time>2026-04-18T13:48:36Z</time></trkpt><trkpt lat="45.551670181977826" lon="8.236752836562001"><ele>219.79999999999998</ele><time>2026-04-18T13:48:37Z</time></trkpt><trkpt lat="45.55166642382652" lon="8.23687007786107"><ele>220.20000000000002</ele><time>2026-04-18T13:48:38Z</time></trkpt><trkpt lat="45.55166126532962" lon="8.237013187511803"><ele>220.60000000000002</ele><time>2026-04-18T13:48:39Z</time></trkpt><trkpt lat="45.551657028478374" lon="8.237130727940235"><ele>221.0</ele><time>2026-04-18T13:48:40Z</time></trkpt><trkpt lat="45.55165288280397" lon="8.237247707878996"><ele>221.0</ele><time>2026-04-18T13:48:41Z</time></trkpt><trkpt lat="45.55163010419361" lon="8.237357992473571"><ele>221.0</ele><time>2026-04-18T13:48:43Z</time></trkpt><trkpt lat="45.55137030055329" lon="8.237360646365973"><ele>221.0</ele><time>2026-04-18T13:48:44Z</time></trkpt><trkpt lat="45.55126427649387" lon="8.237388553506522"><ele>221.0</ele><time>2026-04-18T13:48:45Z</time></trkpt><trkpt lat="45.55117252905034" lon="8.237481224112324"><ele>221.0</ele><time>2026-04-18T13:48:46Z</time></trkpt><trkpt lat="45.55107647772998" lon="8.237604421545578"><ele>221.00000000000003</ele><time>2026-04-18T13:48:47Z</time></trkpt><trkpt lat="45.55098582953718" lon="8.237703241391692"><ele>221.00000000000003</ele><time>2026-04-18T13:48:48Z</time></trkpt><trkpt lat="45.55091257308989" lon="8.237761538129632"><ele>221.0</ele><time>2026-04-18T13:48:49Z</time></trkpt><trkpt lat="45.55081176553652" lon="8.237787803728182"><ele>221.0</ele><time>2026-04-18T13:48:50Z</time></trkpt><trkpt lat="45.550710729741205" lon="8.237840288779129"><ele>221.0</ele><time>2026-04-18T13:48:51Z</time></trkpt><trkpt lat="45.5506322511075" lon="8.237870268725413"><ele>221.00000000000003</ele><time>2026-04-18T13:48:52Z</time></trkpt><trkpt lat="45.55051296441131" lon="8.237788814067445"><ele>221.00000000000003</ele><time>2026-04-18T13:48:54Z</time></trkpt><trkpt lat="45.55041585398962" lon="8.237754225994761"><ele>221.0</ele><time>2026-04-18T13:48:55Z</time></trkpt><trkpt lat="45.55031358106256" lon="8.237720063839612"><ele>221.0</ele><time>2026-04-18T13:48:56Z</time></trkpt><trkpt lat="45.55018807614744" lon="8.237646387701275"><ele>221.4</ele><time>2026-04-18T13:48:57Z</time></trkpt><trkpt lat="45.55006892386359" lon="8.237575381470155"><ele>221.8</ele><time>2026-04-18T13:48:58Z</time></trkpt><trkpt lat="45.54996099872769" lon="8.237507128653537"><ele>222.20000000000002</ele><time>2026-04-18T13:48:59Z</time></trkpt><trkpt lat="45.54989033881705" lon="8.237427441353784"><ele>222.60000000000002</ele><time>2026-04-18T13:49:00Z</time></trkpt><trkpt lat="45.54983162629238" lon="8.23731527745588"><ele>223.0</ele><time>2026-04-18T13:49:01Z</time></trkpt><trkpt lat="45.5497604685754" lon="8.237218909209599"><ele>222.99999999999997</ele><time>2026-04-18T13:49:02Z</time></trkpt><trkpt lat="45.54968766504373" lon="8.23715381233082"><ele>223.0</ele><time>2026-04-18T13:49:03Z</time></trkpt><trkpt lat="45.54958651844493" lon="8.237142150587964"><ele>223.0</ele><time>2026-04-18T13:49:04Z</time></trkpt><trkpt lat="45.549492922555466" lon="8.237123856272554"><ele>223.0</ele><time>2026-04-18T13:49:05Z</time></trkpt><trkpt lat="45.54941055928384" lon="8.23708641353865"><ele>222.99999999999997</ele><time>2026-04-18T13:49:06Z</time></trkpt><trkpt lat="45.54933747851026" lon="8.237046646853871"><ele>223.0</ele><time>2026-04-18T13:49:07Z</time></trkpt><trkpt lat="45.54927007019491" lon="8.23703122754834"><ele>222.66666666666666</ele><time>2026-04-18T13:49:08Z</time></trkpt><trkpt lat="45.54919156330749" lon="8.236994645180735"><ele>222.33333333333331</ele><time>2026-04-18T13:49:09Z</time></trkpt><trkpt lat="45.54909492078779" lon="8.236952979631447"><ele>222.0</ele><time>2026-04-18T13:49:10Z</time></trkpt><trkpt lat="45.54901708772192" lon="8.236935617984116"><ele>221.66666666666669</ele><time>2026-04-18T13:49:11Z</time></trkpt><trkpt lat="45.54893907449581" lon="8.236888006393803"><ele>221.33333333333334</ele><time>2026-04-18T13:49:12Z</time></trkpt><trkpt lat="45.54885226545066" lon="8.236839728416465"><ele>221.0</ele><time>2026-04-18T13:49:13Z</time></trkpt><trkpt lat="45.548769601446885" lon="8.236777768779012"><ele>220.60000000000002</ele><time>2026-04-18T13:49:14Z</time></trkpt><trkpt lat="45.54870567196267" lon="8.236723569213112"><ele>220.20000000000002</ele><time>2026-04-18T13:49:15Z</time></trkpt><trkpt lat="45.54864325699531" lon="8.236628515093518"><ele>219.79999999999998</ele><time>2026-04-18T13:49:16Z</time></trkpt><trkpt lat="45.54856575948769" lon="8.236526260691306"><ele>219.39999999999998</ele><time>2026-04-18T13:49:17Z</time></trkpt><trkpt lat="45.54848036821058" lon="8.236422750521584"><ele>219.0</ele><time>2026-04-18T13:49:18Z</time></trkpt><trkpt lat="45.54839885232595" lon="8.236326373901186"><ele>219.0</ele><time>2026-04-18T13:49:19Z</time></trkpt><trkpt lat="45.548325758406506" lon="8.23625870207075"><ele>218.99999999999997</ele><time>2026-04-18T13:49:20Z</time></trkpt><trkpt lat="45.548239884539015" lon="8.236120010485205"><ele>218.99999999999997</ele><time>2026-04-18T13:49:22Z</time></trkpt><trkpt lat="45.54824580310249" lon="8.236005711983474"><ele>219.0</ele><time>2026-04-18T13:49:23Z</time></trkpt><trkpt lat="45.54827439703234" lon="8.23587634285337"><ele>219.0</ele><time>2026-04-18T13:49:24Z</time></trkpt><trkpt lat="45.54830821463135" lon="8.23574328614452"><ele>219.16666666666666</ele><time>2026-04-18T13:49:25Z</time></trkpt><trkpt lat="45.54831825834443" lon="8.235626164761964"><ele>219.33333333333331</ele><time>2026-04-18T13:49:26Z</time></trkpt><trkpt lat="45.54832192550915" lon="8.23553290945717"><ele>219.5</ele><time>2026-04-18T13:49:27Z</time></trkpt><trkpt lat="45.54827246549839" lon="8.235456060732668"><ele>219.66666666666666</ele><time>2026-04-18T13:49:29Z</time></trkpt><trkpt lat="45.54813551842628" lon="8.235434254283861"><ele>219.83333333333331</ele><time>2026-04-18T13:49:31Z</time></trkpt><trkpt lat="45.548062472070896" lon="8.235420342567021"><ele>220.0</ele><time>2026-04-18T13:49:32Z</time></trkpt><trkpt lat="45.54798173426754" lon="8.235386692905985"><ele>220.0</ele><time>2026-04-18T13:49:33Z</time></trkpt><trkpt lat="45.54789943696967" lon="8.235350201831649"><ele>220.0</ele><time>2026-04-18T13:49:34Z</time></trkpt><trkpt lat="45.54782684369906" lon="8.235334042497174"><ele>220.0</ele><time>2026-04-18T13:49:35Z</time></trkpt><trkpt lat="45.54776846157873" lon="8.235412995548895"><ele>220.0</ele><time>2026-04-18T13:49:35.999Z</time></trkpt><trkpt lat="45.54769265727322" lon="8.2355242272104"><ele>220.0</ele><time>2026-04-18T13:49:36.999Z</time></trkpt><trkpt lat="45.54761523836085" lon="8.235654348606328"><ele>220.33333333333331</ele><time>2026-04-18T13:49:37.999Z</time></trkpt><trkpt lat="45.547547693570344" lon="8.235675795190197"><ele>220.66666666666666</ele><time>2026-04-18T13:49:38.999Z</time></trkpt><trkpt lat="45.54747194185974" lon="8.235689791323109"><ele>221.0</ele><time>2026-04-18T13:49:39.999Z</time></trkpt><trkpt lat="45.54740939746066" lon="8.235642623327472"><ele>221.33333333333331</ele><time>2026-04-18T13:49:40.999Z</time></trkpt><trkpt lat="45.54728185754732" lon="8.235634709239797"><ele>221.66666666666666</ele><time>2026-04-18T13:49:42.999Z</time></trkpt><trkpt lat="45.5472438270452" lon="8.235707575578829"><ele>222.0</ele><time>2026-04-18T13:49:55.999Z</time></trkpt><trkpt lat="45.54718042468715" lon="8.235692194228662"><ele>222.0</ele><time>2026-04-18T13:50:27Z</time></trkpt><trkpt lat="45.54707304962473" lon="8.235650367430768"><ele>222.0</ele><time>2026-04-18T13:50:29Z</time></trkpt><trkpt lat="45.546994900343904" lon="8.235607151537785"><ele>222.0</ele><time>2026-04-18T13:50:31Z</time></trkpt><trkpt lat="45.546928324554784" lon="8.23559498358161"><ele>222.0</ele><time>2026-04-18T13:50:34Z</time></trkpt><trkpt lat="45.546834949752984" lon="8.235628679003105"><ele>222.0</ele><time>2026-04-18T13:50:37Z</time></trkpt><trkpt lat="45.546746109112675" lon="8.235581573105796"><ele>222.16666666666666</ele><time>2026-04-18T13:50:39Z</time></trkpt><trkpt lat="45.54667751558435" lon="8.235511229514493"><ele>222.33333333333331</ele><time>2026-04-18T13:50:41Z</time></trkpt><trkpt lat="45.54661948992578" lon="8.235458120492824"><ele>222.5</ele><time>2026-04-18T13:50:45Z</time></trkpt><trkpt lat="45.54659983000077" lon="8.235308458485074"><ele>222.66666666666666</ele><time>2026-04-18T13:50:47Z</time></trkpt><trkpt lat="45.54659477971266" lon="8.235214731002026"><ele>222.83333333333331</ele><time>2026-04-18T13:50:48Z</time></trkpt><trkpt lat="45.54658405609518" lon="8.235050676107477"><ele>223.0</ele><time>2026-04-18T13:50:50Z</time></trkpt><trkpt lat="45.54655794553453" lon="8.234907230556091"><ele>222.66666666666666</ele><time>2026-04-18T13:50:52Z</time></trkpt><trkpt lat="45.546542312196884" lon="8.234766307284342"><ele>222.33333333333331</ele><time>2026-04-18T13:50:54Z</time></trkpt><trkpt lat="45.54653972676398" lon="8.234675395980108"><ele>222.0</ele><time>2026-04-18T13:50:55Z</time></trkpt><trkpt lat="45.546549169959114" lon="8.23455449282488"><ele>221.66666666666669</ele><time>2026-04-18T13:50:56Z</time></trkpt><trkpt lat="45.54654781645185" lon="8.234426488600038"><ele>221.33333333333334</ele><time>2026-04-18T13:50:57Z</time></trkpt><trkpt lat="45.54654469395995" lon="8.23431024186646"><ele>221.0</ele><time>2026-04-18T13:50:58Z</time></trkpt><trkpt lat="45.54653569191224" lon="8.234201034247773"><ele>221.00000000000003</ele><time>2026-04-18T13:50:59Z</time></trkpt><trkpt lat="45.546529392428205" lon="8.234093241327782"><ele>221.0</ele><time>2026-04-18T13:51:00Z</time></trkpt><trkpt lat="45.546541625823046" lon="8.233993289396452"><ele>221.0</ele><time>2026-04-18T13:51:01Z</time></trkpt><trkpt lat="45.54659556382608" lon="8.233895115823522"><ele>221.0</ele><time>2026-04-18T13:51:03Z</time></trkpt><trkpt lat="45.54665907580479" lon="8.233881786062904"><ele>221.0</ele><time>2026-04-18T13:51:08Z</time></trkpt><trkpt lat="45.546718216423464" lon="8.233847277831616"><ele>221.00000000000003</ele><time>2026-04-18T13:51:12Z</time></trkpt><trkpt lat="45.546784711406204" lon="8.233832843565063"><ele>221.0</ele><time>2026-04-18T13:51:16Z</time></trkpt><trkpt lat="45.5468077598079" lon="8.233738826863398"><ele>220.85714285714286</ele><time>2026-04-18T13:51:18Z</time></trkpt><trkpt lat="45.54683392076494" lon="8.233643862158463"><ele>220.71428571428572</ele><time>2026-04-18T13:51:21Z</time></trkpt><trkpt lat="45.54689107387178" lon="8.233594419216878"><ele>220.57142857142856</ele><time>2026-04-18T13:51:23.999Z</time></trkpt><trkpt lat="45.54694169375534" lon="8.233520573689608"><ele>220.42857142857144</ele><time>2026-04-18T13:51:25.999Z</time></trkpt><trkpt lat="45.54698040868983" lon="8.233440921384865"><ele>220.28571428571428</ele><time>2026-04-18T13:51:31.999Z</time></trkpt><trkpt lat="45.54690095078286" lon="8.233497368183304"><ele>220.14285714285714</ele><time>2026-04-18T13:52:08.999Z</time></trkpt><trkpt lat="45.54685905975135" lon="8.233402648857805"><ele>220.0</ele><time>2026-04-18T13:52:14Z</time></trkpt><trkpt lat="45.546866968075285" lon="8.23331034717002"><ele>219.99999999999997</ele><time>2026-04-18T13:52:16Z</time></trkpt><trkpt lat="45.54688892038254" lon="8.23320608220148"><ele>220.0</ele><time>2026-04-18T13:52:20Z</time></trkpt><trkpt lat="45.54689196007713" lon="8.233110975660814"><ele>220.0</ele><time>2026-04-18T13:52:46Z</time></trkpt><trkpt lat="45.5468728351199" lon="8.232988616021741"><ele>220.0</ele><time>2026-04-18T13:52:49Z</time></trkpt><trkpt lat="45.54683107082113" lon="8.23288596154203"><ele>219.99999999999997</ele><time>2026-04-18T13:52:52Z</time></trkpt><trkpt lat="45.54682750703728" lon="8.232778323898305"><ele>220.0</ele><time>2026-04-18T13:52:56Z</time></trkpt><trkpt lat="45.546831775179264" lon="8.232684053396962"><ele>219.7142857142857</ele><time>2026-04-18T13:52:58Z</time></trkpt><trkpt lat="45.54680896346943" lon="8.232595026460123"><ele>219.42857142857142</ele><time>2026-04-18T13:53:00Z</time></trkpt><trkpt lat="45.54678804382558" lon="8.232504186336357"><ele>219.14285714285714</ele><time>2026-04-18T13:53:03Z</time></trkpt><trkpt lat="45.54677740055838" lon="8.232407840291462"><ele>218.85714285714283</ele><time>2026-04-18T13:53:08Z</time></trkpt><trkpt lat="45.54680421302937" lon="8.232325300329405"><ele>218.57142857142858</ele><time>2026-04-18T13:53:11.999Z</time></trkpt><trkpt lat="45.54676697406221" lon="8.232239086257971"><ele>218.28571428571428</ele><time>2026-04-18T13:53:17.999Z</time></trkpt><trkpt lat="45.546831533199416" lon="8.232121059741932"><ele>218.0</ele><time>2026-04-18T13:53:20.999Z</time></trkpt><trkpt lat="45.546891866089304" lon="8.232032388349936"><ele>217.83333333333334</ele><time>2026-04-18T13:53:24.999Z</time></trkpt><trkpt lat="45.54692188146178" lon="8.231942727606617"><ele>217.66666666666669</ele><time>2026-04-18T13:53:28.999Z</time></trkpt><trkpt lat="45.546952048028515" lon="8.231828680173738"><ele>217.5</ele><time>2026-04-18T13:53:31.999Z</time></trkpt><trkpt lat="45.54695110551779" lon="8.231728046640713"><ele>217.33333333333331</ele><time>2026-04-18T13:53:47.999Z</time></trkpt><trkpt lat="45.546888649212235" lon="8.231681549385808"><ele>217.16666666666666</ele><time>2026-04-18T13:53:51.999Z</time></trkpt><trkpt lat="45.54686337778522" lon="8.23156990040254"><ele>217.0</ele><time>2026-04-18T13:53:57.999Z</time></trkpt><trkpt lat="45.54688331932324" lon="8.231446120769402"><ele>216.99999999999997</ele><time>2026-04-18T13:54:01.999Z</time></trkpt><trkpt lat="45.54684689953934" lon="8.231365437017073"><ele>217.0</ele><time>2026-04-18T13:54:07.999Z</time></trkpt><trkpt lat="45.54680579343715" lon="8.231289966121365"><ele>217.0</ele><time>2026-04-18T13:54:10.999Z</time></trkpt><trkpt lat="45.54672429101645" lon="8.231217211201331"><ele>217.0</ele><time>2026-04-18T13:54:12.999Z</time></trkpt><trkpt lat="45.54665939712828" lon="8.231176700433638"><ele>216.99999999999997</ele><time>2026-04-18T13:54:14.999Z</time></trkpt><trkpt lat="45.54665760876742" lon="8.231055490703364"><ele>217.0</ele><time>2026-04-18T13:54:18.999Z</time></trkpt><trkpt lat="45.546658114404195" lon="8.230943908567793"><ele>217.0</ele><time>2026-04-18T13:54:22Z</time></trkpt><trkpt lat="45.54672814809557" lon="8.23094284566063"><ele>217.0</ele><time>2026-04-18T13:54:25Z</time></trkpt><trkpt lat="45.54677880558769" lon="8.230847089217528"><ele>217.0</ele><time>2026-04-18T13:54:28Z</time></trkpt><trkpt lat="45.546822020460745" lon="8.230760759748728"><ele>217.0</ele><time>2026-04-18T13:54:31Z</time></trkpt><trkpt lat="45.546849077552714" lon="8.230674693126863"><ele>217.0</ele><time>2026-04-18T13:54:39Z</time></trkpt><trkpt lat="45.54688034697665" lon="8.23058697649333"><ele>217.0</ele><time>2026-04-18T13:54:43Z</time></trkpt><trkpt lat="45.54694033170123" lon="8.230532898898977"><ele>217.0</ele><time>2026-04-18T13:54:53Z</time></trkpt><trkpt lat="45.54697764079146" lon="8.230450241068747"><ele>216.83333333333331</ele><time>2026-04-18T13:55:08Z</time></trkpt><trkpt lat="45.546974360558956" lon="8.230345425215587"><ele>216.66666666666666</ele><time>2026-04-18T13:55:13Z</time></trkpt><trkpt lat="45.5469948605431" lon="8.230247454495299"><ele>216.5</ele><time>2026-04-18T13:55:17.999Z</time></trkpt><trkpt lat="45.547066216157155" lon="8.230177725214324"><ele>216.33333333333331</ele><time>2026-04-18T13:55:21.999Z</time></trkpt><trkpt lat="45.54713244682576" lon="8.230235201431885"><ele>216.16666666666666</ele><time>2026-04-18T13:55:23.999Z</time></trkpt><trkpt lat="45.54718499637479" lon="8.230334192786865"><ele>216.0</ele><time>2026-04-18T13:55:25.999Z</time></trkpt><trkpt lat="45.547240602706346" lon="8.230416072201697"><ele>216.5</ele><time>2026-04-18T13:55:27.999Z</time></trkpt><trkpt lat="45.54730867753188" lon="8.230379221875747"><ele>217.0</ele><time>2026-04-18T13:55:30.999Z</time></trkpt><trkpt lat="45.547323996495074" lon="8.230502083896134"><ele>217.5</ele><time>2026-04-18T13:55:34.999Z</time></trkpt><trkpt lat="45.54739216821145" lon="8.2306227571047"><ele>218.0</ele><time>2026-04-18T13:55:36.999Z</time></trkpt><trkpt lat="45.5474543765051" lon="8.230658693020136"><ele>218.5</ele><time>2026-04-18T13:55:37.999Z</time></trkpt><trkpt lat="45.547533806467186" lon="8.23074695075809"><ele>219.0</ele><time>2026-04-18T13:55:38.999Z</time></trkpt><trkpt lat="45.54760632363159" lon="8.230848839609195"><ele>219.16666666666666</ele><time>2026-04-18T13:55:39.999Z</time></trkpt><trkpt lat="45.547647009511344" lon="8.230953546612287"><ele>219.33333333333331</ele><time>2026-04-18T13:55:40.999Z</time></trkpt><trkpt lat="45.547663005929614" lon="8.231068134363992"><ele>219.5</ele><time>2026-04-18T13:55:41.999Z</time></trkpt><trkpt lat="45.54771554836372" lon="8.231185194113309"><ele>219.66666666666666</ele><time>2026-04-18T13:55:42.999Z</time></trkpt><trkpt lat="45.54776942162068" lon="8.231287966363938"><ele>219.83333333333331</ele><time>2026-04-18T13:55:43.999Z</time></trkpt><trkpt lat="45.547831360061025" lon="8.231368935345762"><ele>220.0</ele><time>2026-04-18T13:55:44.999Z</time></trkpt><trkpt lat="45.54790699947215" lon="8.231437438195726"><ele>220.2</ele><time>2026-04-18T13:55:45.999Z</time></trkpt><trkpt lat="45.54797623515665" lon="8.23149114000616"><ele>220.4</ele><time>2026-04-18T13:55:46.999Z</time></trkpt><trkpt lat="45.548093032439986" lon="8.231500386573064"><ele>220.60000000000002</ele><time>2026-04-18T13:55:48.999Z</time></trkpt><trkpt lat="45.54819108112856" lon="8.231639193321701"><ele>220.8</ele><time>2026-04-18T13:55:50.999Z</time></trkpt><trkpt lat="45.548276105735" lon="8.231659610213585"><ele>221.0</ele><time>2026-04-18T13:55:51.999Z</time></trkpt><trkpt lat="45.54838571151332" lon="8.231662489037149"><ele>221.0</ele><time>2026-04-18T13:55:52.999Z</time></trkpt><trkpt lat="45.54846588744125" lon="8.231708971312212"><ele>221.00000000000003</ele><time>2026-04-18T13:55:53.999Z</time></trkpt><trkpt lat="45.548532407834756" lon="8.23178739295292"><ele>221.00000000000003</ele><time>2026-04-18T13:55:54.999Z</time></trkpt><trkpt lat="45.54862686506391" lon="8.231889401387996"><ele>221.0</ele><time>2026-04-18T13:55:55.999Z</time></trkpt><trkpt lat="45.54874875043149" lon="8.231946295020052"><ele>221.0</ele><time>2026-04-18T13:55:56.999Z</time></trkpt><trkpt lat="45.548832799505874" lon="8.23200006658016"><ele>221.4</ele><time>2026-04-18T13:55:57.999Z</time></trkpt><trkpt lat="45.548901277915036" lon="8.23207303215014"><ele>221.8</ele><time>2026-04-18T13:55:58.999Z</time></trkpt><trkpt lat="45.54897185134709" lon="8.23217141647963"><ele>222.20000000000002</ele><time>2026-04-18T13:55:59.999Z</time></trkpt><trkpt lat="45.54902971666308" lon="8.232242814987615"><ele>222.60000000000002</ele><time>2026-04-18T13:56:00.999Z</time></trkpt><trkpt lat="45.549086827901526" lon="8.232373839330718"><ele>223.0</ele><time>2026-04-18T13:56:01.999Z</time></trkpt><trkpt lat="45.54913188398568" lon="8.232515181836527"><ele>222.99999999999997</ele><time>2026-04-18T13:56:02.999Z</time></trkpt><trkpt lat="45.54917047173219" lon="8.232604001958157"><ele>223.0</ele><time>2026-04-18T13:56:03.999Z</time></trkpt><trkpt lat="45.54920883443785" lon="8.232699235848507"><ele>223.0</ele><time>2026-04-18T13:56:04.999Z</time></trkpt><trkpt lat="45.54924897020134" lon="8.232771250324177"><ele>223.0</ele><time>2026-04-18T13:56:05.999Z</time></trkpt><trkpt lat="45.54928027121554" lon="8.232897124885492"><ele>222.99999999999997</ele><time>2026-04-18T13:56:06.999Z</time></trkpt><trkpt lat="45.54933790498988" lon="8.232978349255726"><ele>223.0</ele><time>2026-04-18T13:56:07.999Z</time></trkpt><trkpt lat="45.54940024559103" lon="8.233031482489436"><ele>222.99999999999997</ele><time>2026-04-18T13:56:09.999Z</time></trkpt><trkpt lat="45.549465457196476" lon="8.23304461033231"><ele>223.0</ele><time>2026-04-18T13:56:12.999Z</time></trkpt><trkpt lat="45.54948613356933" lon="8.233129646397344"><ele>223.0</ele><time>2026-04-18T13:56:14.999Z</time></trkpt><trkpt lat="45.54954900417486" lon="8.233123607576543"><ele>223.0</ele><time>2026-04-18T13:56:16.999Z</time></trkpt><trkpt lat="45.54960726448697" lon="8.233171944154693"><ele>222.99999999999997</ele><time>2026-04-18T13:56:19.999Z</time></trkpt><trkpt lat="45.54967833954242" lon="8.233289859609867"><ele>223.0</ele><time>2026-04-18T13:56:20.999Z</time></trkpt><trkpt lat="45.54973067179069" lon="8.23338196596624"><ele>223.60000000000002</ele><time>2026-04-18T13:56:21.999Z</time></trkpt><trkpt lat="45.54978695796926" lon="8.233521740313801"><ele>224.20000000000002</ele><time>2026-04-18T13:56:22.999Z</time></trkpt><trkpt lat="45.54982834264625" lon="8.233653624073618"><ele>224.8</ele><time>2026-04-18T13:56:23.999Z</time></trkpt><trkpt lat="45.549915149196444" lon="8.233763549830039"><ele>225.4</ele><time>2026-04-18T13:56:26Z</time></trkpt><trkpt lat="45.549986182309105" lon="8.23381050978753"><ele>226.0</ele><time>2026-04-18T13:56:27Z</time></trkpt><trkpt lat="45.55004664662839" lon="8.233839974405576"><ele>225.99999999999997</ele><time>2026-04-18T13:56:28Z</time></trkpt><trkpt lat="45.550098714482004" lon="8.233921038450273"><ele>226.0</ele><time>2026-04-18T13:56:29Z</time></trkpt><trkpt lat="45.55016247807193" lon="8.233958391598243"><ele>226.0</ele><time>2026-04-18T13:56:30Z</time></trkpt><trkpt lat="45.55024220362902" lon="8.233932144742017"><ele>226.0</ele><time>2026-04-18T13:56:31Z</time></trkpt><trkpt lat="45.55033603382931" lon="8.233907077075619"><ele>225.99999999999997</ele><time>2026-04-18T13:56:32Z</time></trkpt><trkpt lat="45.55043167757111" lon="8.233840564592906"><ele>226.0</ele><time>2026-04-18T13:56:33Z</time></trkpt><trkpt lat="45.55051793205626" lon="8.233753548571825"><ele>225.5</ele><time>2026-04-18T13:56:34Z</time></trkpt><trkpt lat="45.550628357469726" lon="8.233687055807394"><ele>225.0</ele><time>2026-04-18T13:56:35Z</time></trkpt><trkpt lat="45.55077798391018" lon="8.233643025817315"><ele>224.5</ele><time>2026-04-18T13:56:36Z</time></trkpt><trkpt lat="45.55091012018026" lon="8.233550056572561"><ele>224.0</ele><time>2026-04-18T13:56:37Z</time></trkpt><trkpt lat="45.55103703321292" lon="8.233440957437935"><ele>224.0</ele><time>2026-04-18T13:56:38Z</time></trkpt><trkpt lat="45.55113678949291" lon="8.233330988770845"><ele>223.99999999999997</ele><time>2026-04-18T13:56:39Z</time></trkpt><trkpt lat="45.55122110549165" lon="8.233240261443301"><ele>223.99999999999997</ele><time>2026-04-18T13:56:40Z</time></trkpt><trkpt lat="45.55128124321753" lon="8.233150116341218"><ele>224.0</ele><time>2026-04-18T13:56:41Z</time></trkpt><trkpt lat="45.55130491407358" lon="8.233016414683554"><ele>224.0</ele><time>2026-04-18T13:56:42Z</time></trkpt><trkpt lat="45.551323893878255" lon="8.23287353213323"><ele>224.0</ele><time>2026-04-18T13:56:43Z</time></trkpt><trkpt lat="45.55130878692242" lon="8.232687578342482"><ele>224.0</ele><time>2026-04-18T13:56:44Z</time></trkpt><trkpt lat="45.55134876947021" lon="8.23252481442879"><ele>224.0</ele><time>2026-04-18T13:56:45Z</time></trkpt><trkpt lat="45.55138337570683" lon="8.232346774908322"><ele>224.0</ele><time>2026-04-18T13:56:46Z</time></trkpt><trkpt lat="45.55142728534374" lon="8.232186599126175"><ele>224.00000000000003</ele><time>2026-04-18T13:56:47Z</time></trkpt><trkpt lat="45.551467911307405" lon="8.232064964824689"><ele>224.0</ele><time>2026-04-18T13:56:48Z</time></trkpt><trkpt lat="45.551504300733015" lon="8.231981782061524"><ele>224.0</ele><time>2026-04-18T13:56:49Z</time></trkpt><trkpt lat="45.551560661623256" lon="8.231871962427702"><ele>224.0</ele><time>2026-04-18T13:56:51Z</time></trkpt><trkpt lat="45.55158679969311" lon="8.2317119605234"><ele>224.00000000000003</ele><time>2026-04-18T13:56:53Z</time></trkpt><trkpt lat="45.55159391551896" lon="8.231611597441413"><ele>224.0</ele><time>2026-04-18T13:56:54Z</time></trkpt><trkpt lat="45.55159545983926" lon="8.231511669577765"><ele>225.00000000000003</ele><time>2026-04-18T13:56:55Z</time></trkpt><trkpt lat="45.55159845542536" lon="8.231407886367473"><ele>226.0</ele><time>2026-04-18T13:56:56Z</time></trkpt><trkpt lat="45.55159808224142" lon="8.231302207198686"><ele>227.0</ele><time>2026-04-18T13:56:57Z</time></trkpt><trkpt lat="45.551603890014526" lon="8.231208555177133"><ele>228.0</ele><time>2026-04-18T13:56:58Z</time></trkpt><trkpt lat="45.551626712170254" lon="8.231082410613016"><ele>229.00000000000003</ele><time>2026-04-18T13:57:00Z</time></trkpt><trkpt lat="45.55165968527813" lon="8.230991898556884"><ele>230.0</ele><time>2026-04-18T13:57:03Z</time></trkpt><trkpt lat="45.55163926718954" lon="8.230855677698665"><ele>230.00000000000003</ele><time>2026-04-18T13:57:06Z</time></trkpt><trkpt lat="45.551647765244674" lon="8.230734487522419"><ele>230.0</ele><time>2026-04-18T13:57:08Z</time></trkpt><trkpt lat="45.55163870576721" lon="8.230609575216755"><ele>230.0</ele><time>2026-04-18T13:57:10Z</time></trkpt><trkpt lat="45.55160564971422" lon="8.230522646803871"><ele>230.0</ele><time>2026-04-18T13:57:12Z</time></trkpt><trkpt lat="45.551535009104676" lon="8.23045288354352"><ele>230.00000000000003</ele><time>2026-04-18T13:57:14.999Z</time></trkpt><trkpt lat="45.55146460434698" lon="8.230383794086864"><ele>230.0</ele><time>2026-04-18T13:57:18.999Z</time></trkpt><trkpt lat="45.55139742977829" lon="8.230318724818074"><ele>230.66666666666669</ele><time>2026-04-18T13:57:21.999Z</time></trkpt><trkpt lat="45.55133218390349" lon="8.230283317159081"><ele>231.33333333333334</ele><time>2026-04-18T13:57:23.999Z</time></trkpt><trkpt lat="45.55128949813321" lon="8.230191678210979"><ele>232.0</ele><time>2026-04-18T13:57:25.999Z</time></trkpt><trkpt lat="45.55126336203655" lon="8.230066904221008"><ele>232.66666666666669</ele><time>2026-04-18T13:57:27.999Z</time></trkpt><trkpt lat="45.551300840319506" lon="8.22999228643875"><ele>233.33333333333334</ele><time>2026-04-18T13:57:30.999Z</time></trkpt><trkpt lat="45.55135687347892" lon="8.229924644158631"><ele>234.0</ele><time>2026-04-18T13:57:32.999Z</time></trkpt><trkpt lat="45.55140365909368" lon="8.229842382102413"><ele>234.16666666666666</ele><time>2026-04-18T13:57:34.999Z</time></trkpt><trkpt lat="45.55145286286458" lon="8.229766947107358"><ele>234.33333333333331</ele><time>2026-04-18T13:57:36.999Z</time></trkpt><trkpt lat="45.55144701075997" lon="8.229651889104263"><ele>234.5</ele><time>2026-04-18T13:57:39.999Z</time></trkpt><trkpt lat="45.55147517835408" lon="8.229546606974106"><ele>234.66666666666666</ele><time>2026-04-18T13:57:46.999Z</time></trkpt><trkpt lat="45.55150686108711" lon="8.229462589637349"><ele>234.83333333333331</ele><time>2026-04-18T13:57:49.999Z</time></trkpt><trkpt lat="45.551533968806346" lon="8.229339586070601"><ele>235.0</ele><time>2026-04-18T13:57:52.999Z</time></trkpt><trkpt lat="45.55155092469432" lon="8.22924910137193"><ele>235.0</ele><time>2026-04-18T13:57:55.999Z</time></trkpt><trkpt lat="45.55155219833085" lon="8.22914763055543"><ele>234.99999999999997</ele><time>2026-04-18T13:58:00.999Z</time></trkpt><trkpt lat="45.551497150084735" lon="8.229082000484453"><ele>235.0</ele><time>2026-04-18T13:58:05.999Z</time></trkpt><trkpt lat="45.55143387932242" lon="8.229016285638451"><ele>235.0</ele><time>2026-04-18T13:58:09.999Z</time></trkpt><trkpt lat="45.55140830290505" lon="8.228915747549268"><ele>234.99999999999997</ele><time>2026-04-18T13:58:13.999Z</time></trkpt><trkpt lat="45.55137743459774" lon="8.22881830397623"><ele>235.0</ele><time>2026-04-18T13:58:16.999Z</time></trkpt><trkpt lat="45.55140317000766" lon="8.228730026195334"><ele>235.0</ele><time>2026-04-18T13:58:19.999Z</time></trkpt><trkpt lat="45.55140451973619" lon="8.228622394085315"><ele>235.33333333333331</ele><time>2026-04-18T13:58:22.999Z</time></trkpt><trkpt lat="45.551409590689154" lon="8.228500093615885"><ele>235.66666666666666</ele><time>2026-04-18T13:58:25.999Z</time></trkpt><trkpt lat="45.55142515040034" lon="8.228381261682472"><ele>236.0</ele><time>2026-04-18T13:58:28.999Z</time></trkpt><trkpt lat="45.5514662747191" lon="8.228308201049078"><ele>236.33333333333331</ele><time>2026-04-18T13:58:32Z</time></trkpt><trkpt lat="45.55145111394987" lon="8.22818927165319"><ele>236.66666666666666</ele><time>2026-04-18T13:58:35Z</time></trkpt><trkpt lat="45.551451617653406" lon="8.228077118318009"><ele>237.0</ele><time>2026-04-18T13:58:38Z</time></trkpt><trkpt lat="45.55150050210315" lon="8.22800639450757"><ele>237.16666666666666</ele><time>2026-04-18T13:58:42Z</time></trkpt><trkpt lat="45.55157369049729" lon="8.227962155185299"><ele>237.33333333333331</ele><time>2026-04-18T13:58:44Z</time></trkpt><trkpt lat="45.551652644062386" lon="8.227949168991927"><ele>237.5</ele><time>2026-04-18T13:58:48Z</time></trkpt><trkpt lat="45.55170984667424" lon="8.227897791623992"><ele>237.66666666666666</ele><time>2026-04-18T13:58:51Z</time></trkpt><trkpt lat="45.551720184574414" lon="8.227775268229564"><ele>237.83333333333331</ele><time>2026-04-18T13:58:54Z</time></trkpt><trkpt lat="45.55173281635489" lon="8.227663172628752"><ele>238.0</ele><time>2026-04-18T13:58:58Z</time></trkpt><trkpt lat="45.55169843117413" lon="8.227565387127232"><ele>238.0</ele><time>2026-04-18T13:59:09Z</time></trkpt><trkpt lat="45.55163420455706" lon="8.227475135898516"><ele>238.0</ele><time>2026-04-18T13:59:15Z</time></trkpt><trkpt lat="45.55160070144062" lon="8.2273887917374"><ele>238.0</ele><time>2026-04-18T13:59:19Z</time></trkpt><trkpt lat="45.55158910558845" lon="8.227284976416488"><ele>238.0</ele><time>2026-04-18T13:59:26.999Z</time></trkpt><trkpt lat="45.55161266676095" lon="8.227200069815563"><ele>238.0</ele><time>2026-04-18T13:59:29.999Z</time></trkpt><trkpt lat="45.55166400350109" lon="8.227120831166383"><ele>238.0</ele><time>2026-04-18T13:59:32.999Z</time></trkpt><trkpt lat="45.5517139416527" lon="8.227055413321379"><ele>238.0</ele><time>2026-04-18T13:59:35.999Z</time></trkpt><trkpt lat="45.55172190593184" lon="8.226961013418043"><ele>238.49999999999997</ele><time>2026-04-18T13:59:37.999Z</time></trkpt><trkpt lat="45.55172358480033" lon="8.226859586826336"><ele>239.0</ele><time>2026-04-18T13:59:40.999Z</time></trkpt><trkpt lat="45.55174418808336" lon="8.226703406312478"><ele>239.5</ele><time>2026-04-18T13:59:43.999Z</time></trkpt><trkpt lat="45.55173764585893" lon="8.226556528567423"><ele>240.0</ele><time>2026-04-18T13:59:45.999Z</time></trkpt><trkpt lat="45.55172738550432" lon="8.226456385727161"><ele>240.49999999999997</ele><time>2026-04-18T13:59:48.999Z</time></trkpt><trkpt lat="45.55166946017061" lon="8.226365379696672"><ele>241.0</ele><time>2026-04-18T13:59:50.999Z</time></trkpt><trkpt lat="45.55164487979423" lon="8.22626322094756"><ele>241.42857142857144</ele><time>2026-04-18T13:59:52.999Z</time></trkpt><trkpt lat="45.55166198037443" lon="8.226171776440998"><ele>241.8571428571429</ele><time>2026-04-18T13:59:55.999Z</time></trkpt><trkpt lat="45.551704266404926" lon="8.226073198898211"><ele>242.28571428571428</ele><time>2026-04-18T13:59:58.999Z</time></trkpt><trkpt lat="45.55172153366651" lon="8.225982478846806"><ele>242.71428571428572</ele><time>2026-04-18T14:00:02.999Z</time></trkpt><trkpt lat="45.55168906382496" lon="8.225885761358596"><ele>243.14285714285714</ele><time>2026-04-18T14:00:16.999Z</time></trkpt><trkpt lat="45.55165304781135" lon="8.225795262187772"><ele>243.57142857142856</ele><time>2026-04-18T14:00:22.999Z</time></trkpt><trkpt lat="45.55160566992203" lon="8.225727110647185"><ele>243.99999999999997</ele><time>2026-04-18T14:00:26.999Z</time></trkpt><trkpt lat="45.55154508050239" lon="8.225691218519513"><ele>243.99999999999997</ele><time>2026-04-18T14:00:29.999Z</time></trkpt><trkpt lat="45.551482016312036" lon="8.225720146019983"><ele>244.0</ele><time>2026-04-18T14:00:32.999Z</time></trkpt><trkpt lat="45.55141584704889" lon="8.22570320146662"><ele>243.99999999999997</ele><time>2026-04-18T14:00:38Z</time></trkpt><trkpt lat="45.55135450086811" lon="8.225668636558535"><ele>243.99999999999997</ele><time>2026-04-18T14:00:41Z</time></trkpt><trkpt lat="45.55129119223943" lon="8.225692100030155"><ele>244.0</ele><time>2026-04-18T14:00:44Z</time></trkpt><trkpt lat="45.55122190547888" lon="8.225675933752557"><ele>243.99999999999997</ele><time>2026-04-18T14:00:49Z</time></trkpt><trkpt lat="45.55118609569995" lon="8.225766420042032"><ele>243.99999999999997</ele><time>2026-04-18T14:01:05Z</time></trkpt><trkpt lat="45.55112241218224" lon="8.225833126764961"><ele>243.83333333333331</ele><time>2026-04-18T14:01:09Z</time></trkpt><trkpt lat="45.551059063212534" lon="8.225896535673856"><ele>243.66666666666666</ele><time>2026-04-18T14:01:13Z</time></trkpt><trkpt lat="45.5509721623578" lon="8.225924502545306"><ele>243.5</ele><time>2026-04-18T14:01:16Z</time></trkpt><trkpt lat="45.55091194304882" lon="8.225957670489993"><ele>243.33333333333331</ele><time>2026-04-18T14:01:19Z</time></trkpt><trkpt lat="45.550835499099485" lon="8.225992200014387"><ele>243.16666666666666</ele><time>2026-04-18T14:01:23Z</time></trkpt><trkpt lat="45.55075621033729" lon="8.226017454251117"><ele>243.0</ele><time>2026-04-18T14:01:25Z</time></trkpt><trkpt lat="45.550712887625515" lon="8.226082752097673"><ele>243.0</ele><time>2026-04-18T14:01:43.999Z</time></trkpt><trkpt lat="45.55064107855129" lon="8.22600545541509"><ele>243.0</ele><time>2026-04-18T14:01:47.999Z</time></trkpt><trkpt lat="45.550660383928914" lon="8.225910257767442"><ele>243.0</ele><time>2026-04-18T14:01:49.999Z</time></trkpt><trkpt lat="45.550658234323535" lon="8.225803378942025"><ele>243.0</ele><time>2026-04-18T14:01:52.999Z</time></trkpt><trkpt lat="45.55061924208946" lon="8.225720024385232"><ele>243.0</ele><time>2026-04-18T14:01:55.999Z</time></trkpt><trkpt lat="45.550609998759086" lon="8.225613704992817"><ele>243.0</ele><time>2026-04-18T14:02:06.999Z</time></trkpt><trkpt lat="45.550680437189705" lon="8.2256368471983"><ele>243.66666666666666</ele><time>2026-04-18T14:02:14.999Z</time></trkpt><trkpt lat="45.55072735180897" lon="8.225567487898786"><ele>244.33333333333331</ele><time>2026-04-18T14:02:22.999Z</time></trkpt><trkpt lat="45.55066084950588" lon="8.225521541246552"><ele>245.0</ele><time>2026-04-18T14:02:34.999Z</time></trkpt><trkpt lat="45.550572351694534" lon="8.22551907863357"><ele>245.66666666666666</ele><time>2026-04-18T14:02:37.999Z</time></trkpt><trkpt lat="45.55049903745648" lon="8.22552027321161"><ele>246.33333333333331</ele><time>2026-04-18T14:02:41.999Z</time></trkpt><trkpt lat="45.55041292156309" lon="8.22551365419171"><ele>247.0</ele><time>2026-04-18T14:02:45Z</time></trkpt><trkpt lat="45.55036357086196" lon="8.225447814984369"><ele>247.0</ele><time>2026-04-18T14:02:48Z</time></trkpt><trkpt lat="45.550373457144474" lon="8.225319983546271"><ele>247.0</ele><time>2026-04-18T14:02:51Z</time></trkpt><trkpt lat="45.55039018858137" lon="8.225140431488237"><ele>247.0</ele><time>2026-04-18T14:02:53Z</time></trkpt><trkpt lat="45.550418807282995" lon="8.225056060739954"><ele>247.0</ele><time>2026-04-18T14:02:54Z</time></trkpt><trkpt lat="45.55042001469315" lon="8.224926014254788"><ele>247.0</ele><time>2026-04-18T14:02:56Z</time></trkpt><trkpt lat="45.550397914008535" lon="8.22472745143336"><ele>249.0</ele><time>2026-04-18T14:02:58Z</time></trkpt><trkpt lat="45.55040966167934" lon="8.224574815501"><ele>251.0</ele><time>2026-04-18T14:02:59Z</time></trkpt><trkpt lat="45.55039902591957" lon="8.22446374693537"><ele>253.0</ele><time>2026-04-18T14:03:00Z</time></trkpt><trkpt lat="45.550443759392905" lon="8.22429058149086"><ele>255.0</ele><time>2026-04-18T14:03:03Z</time></trkpt><trkpt lat="45.550475407246445" lon="8.224204061478245"><ele>257.0</ele><time>2026-04-18T14:03:04Z</time></trkpt><trkpt lat="45.55036730111405" lon="8.224161546092574"><ele>257.2</ele><time>2026-04-18T14:03:07Z</time></trkpt><trkpt lat="45.55035595259972" lon="8.224038192639542"><ele>257.4</ele><time>2026-04-18T14:03:12Z</time></trkpt><trkpt lat="45.55039949945815" lon="8.223878368514406"><ele>257.6</ele><time>2026-04-18T14:03:14Z</time></trkpt><trkpt lat="45.55038607438582" lon="8.223784379177605"><ele>257.8</ele><time>2026-04-18T14:03:15Z</time></trkpt><trkpt lat="45.55031363584394" lon="8.22363921052464"><ele>258.0</ele><time>2026-04-18T14:03:17Z</time></trkpt><trkpt lat="45.5502966572863" lon="8.223538948834829"><ele>258.6</ele><time>2026-04-18T14:03:18Z</time></trkpt><trkpt lat="45.5502608058843" lon="8.223455227989067"><ele>259.20000000000005</ele><time>2026-04-18T14:03:19Z</time></trkpt><trkpt lat="45.5502932107559" lon="8.223337973205178"><ele>259.8</ele><time>2026-04-18T14:03:21Z</time></trkpt><trkpt lat="45.55035245140253" lon="8.22320444543965"><ele>260.40000000000003</ele><time>2026-04-18T14:03:23Z</time></trkpt><trkpt lat="45.55046422909996" lon="8.223171389338749"><ele>261.0</ele><time>2026-04-18T14:03:25Z</time></trkpt><trkpt lat="45.55043474968564" lon="8.223044370457844"><ele>259.8333333333333</ele><time>2026-04-18T14:03:27.999Z</time></trkpt><trkpt lat="45.55032652815769" lon="8.223087254252972"><ele>258.6666666666667</ele><time>2026-04-18T14:03:29.999Z</time></trkpt><trkpt lat="45.55026430878654" lon="8.223152357430171"><ele>257.5</ele><time>2026-04-18T14:03:30.999Z</time></trkpt><trkpt lat="45.55020457908833" lon="8.223189051212724"><ele>256.33333333333337</ele><time>2026-04-18T14:03:32.999Z</time></trkpt><trkpt lat="45.55014710209534" lon="8.223144273354444"><ele>255.16666666666669</ele><time>2026-04-18T14:03:36.999Z</time></trkpt><trkpt lat="45.55005140865325" lon="8.223095642485854"><ele>254.0</ele><time>2026-04-18T14:03:39.999Z</time></trkpt><trkpt lat="45.54997123380629" lon="8.22313052550991"><ele>254.0</ele><time>2026-04-18T14:03:41.999Z</time></trkpt><trkpt lat="45.54986633832256" lon="8.223162885125182"><ele>254.0</ele><time>2026-04-18T14:03:43.999Z</time></trkpt><trkpt lat="45.54979788173357" lon="8.223112222221355"><ele>254.0</ele><time>2026-04-18T14:03:54.999Z</time></trkpt><trkpt lat="45.54972076197578" lon="8.22288285789611"><ele>254.0</ele><time>2026-04-18T14:03:57.999Z</time></trkpt><trkpt lat="45.549710930229374" lon="8.22273701259669"><ele>254.00000000000003</ele><time>2026-04-18T14:03:59.999Z</time></trkpt><trkpt lat="45.549706091591624" lon="8.222618295694698"><ele>254.0</ele><time>2026-04-18T14:04:01.999Z</time></trkpt><trkpt lat="45.54967543338531" lon="8.222528454097716"><ele>254.0</ele><time>2026-04-18T14:04:02.999Z</time></trkpt><trkpt lat="45.549610611522546" lon="8.22241118345315"><ele>254.0</ele><time>2026-04-18T14:04:03.999Z</time></trkpt><trkpt lat="45.549544736392036" lon="8.222337780623633"><ele>254.00000000000003</ele><time>2026-04-18T14:04:04.999Z</time></trkpt><trkpt lat="45.54947666240901" lon="8.222303194639018"><ele>254.0</ele><time>2026-04-18T14:04:05.999Z</time></trkpt><trkpt lat="45.54940885926043" lon="8.222265818378332"><ele>254.00000000000003</ele><time>2026-04-18T14:04:06.999Z</time></trkpt><trkpt lat="45.549347890861654" lon="8.222197274400108"><ele>254.0</ele><time>2026-04-18T14:04:07.999Z</time></trkpt><trkpt lat="45.549292773513876" lon="8.222092571978347"><ele>254.0</ele><time>2026-04-18T14:04:08.999Z</time></trkpt><trkpt lat="45.54923360618351" lon="8.221997780282324"><ele>254.0</ele><time>2026-04-18T14:04:09.999Z</time></trkpt><trkpt lat="45.5492016322753" lon="8.221916488758511"><ele>254.00000000000003</ele><time>2026-04-18T14:04:10.999Z</time></trkpt><trkpt lat="45.54915748773775" lon="8.221850294713398"><ele>254.0</ele><time>2026-04-18T14:04:12.999Z</time></trkpt><trkpt lat="45.54907504565966" lon="8.221736811052228"><ele>254.0</ele><time>2026-04-18T14:04:35.999Z</time></trkpt><trkpt lat="45.54904814904044" lon="8.221652631291402"><ele>253.99999999999997</ele><time>2026-04-18T14:04:36.999Z</time></trkpt><trkpt lat="45.54895832831817" lon="8.22153587586185"><ele>253.99999999999997</ele><time>2026-04-18T14:04:38.999Z</time></trkpt><trkpt lat="45.54897475809572" lon="8.22137769993475"><ele>254.0</ele><time>2026-04-18T14:04:43.999Z</time></trkpt><trkpt lat="45.54900674820015" lon="8.221222397337991"><ele>254.0</ele><time>2026-04-18T14:04:45.999Z</time></trkpt><trkpt lat="45.549004711999785" lon="8.221125692756445"><ele>254.39999999999998</ele><time>2026-04-18T14:04:46.999Z</time></trkpt><trkpt lat="45.548986626958126" lon="8.22103883695597"><ele>254.79999999999998</ele><time>2026-04-18T14:04:47.999Z</time></trkpt><trkpt lat="45.54894639873185" lon="8.220896193548647"><ele>255.20000000000002</ele><time>2026-04-18T14:04:50Z</time></trkpt><trkpt lat="45.54885091770841" lon="8.220834015884757"><ele>255.60000000000002</ele><time>2026-04-18T14:04:52Z</time></trkpt><trkpt lat="45.54873394807706" lon="8.220771322636839"><ele>256.0</ele><time>2026-04-18T14:04:54Z</time></trkpt><trkpt lat="45.548691618914" lon="8.220651687419274"><ele>256.8333333333333</ele><time>2026-04-18T14:04:56Z</time></trkpt><trkpt lat="45.54872662327353" lon="8.220524877105234"><ele>257.66666666666663</ele><time>2026-04-18T14:04:59Z</time></trkpt><trkpt lat="45.548768292049246" lon="8.220422792215619"><ele>258.5</ele><time>2026-04-18T14:05:01Z</time></trkpt><trkpt lat="45.54879422990377" lon="8.220324212507624"><ele>259.3333333333333</ele><time>2026-04-18T14:05:03Z</time></trkpt><trkpt lat="45.54881184094628" lon="8.220234440695611"><ele>260.1666666666667</ele><time>2026-04-18T14:05:04Z</time></trkpt><trkpt lat="45.54881941772971" lon="8.220126771590655"><ele>261.0</ele><time>2026-04-18T14:05:05Z</time></trkpt><trkpt lat="45.548834554610934" lon="8.219974758674358"><ele>261.0</ele><time>2026-04-18T14:05:07Z</time></trkpt><trkpt lat="45.54890077842381" lon="8.219853241684776"><ele>261.0</ele><time>2026-04-18T14:05:09Z</time></trkpt><trkpt lat="45.549032004973306" lon="8.219821160221187"><ele>261.0</ele><time>2026-04-18T14:05:11Z</time></trkpt><trkpt lat="45.54909376465056" lon="8.219786271365532"><ele>261.0</ele><time>2026-04-18T14:05:12Z</time></trkpt><trkpt lat="45.549035669708104" lon="8.219665909808237"><ele>261.0</ele><time>2026-04-18T14:05:14Z</time></trkpt><trkpt lat="45.54905562679398" lon="8.219501156063876"><ele>261.3333333333333</ele><time>2026-04-18T14:05:16Z</time></trkpt><trkpt lat="45.54904553719129" lon="8.2193899948457"><ele>261.6666666666667</ele><time>2026-04-18T14:05:19Z</time></trkpt><trkpt lat="45.54896402728468" lon="8.219399061827657"><ele>262.0</ele><time>2026-04-18T14:05:22Z</time></trkpt><trkpt lat="45.5488676540652" lon="8.21941210005371"><ele>262.33333333333337</ele><time>2026-04-18T14:05:23.999Z</time></trkpt><trkpt lat="45.54879631067288" lon="8.21943333492133"><ele>262.6666666666667</ele><time>2026-04-18T14:05:25.999Z</time></trkpt><trkpt lat="45.548725754910606" lon="8.219466346935668"><ele>263.0</ele><time>2026-04-18T14:05:27.999Z</time></trkpt><trkpt lat="45.54865033593904" lon="8.219423378318734"><ele>263.0</ele><time>2026-04-18T14:05:31.999Z</time></trkpt><trkpt lat="45.54861044871922" lon="8.219322431569182"><ele>263.0</ele><time>2026-04-18T14:05:34.999Z</time></trkpt><trkpt lat="45.54859303063172" lon="8.219230729639557"><ele>263.0</ele><time>2026-04-18T14:05:38.999Z</time></trkpt><trkpt lat="45.548600676481286" lon="8.219324986854435"><ele>263.0</ele><time>2026-04-18T14:06:20.999Z</time></trkpt><trkpt lat="45.548627238476676" lon="8.219420815653013"><ele>263.0</ele><time>2026-04-18T14:06:22.999Z</time></trkpt><trkpt lat="45.54871504227563" lon="8.219476573210558"><ele>263.0</ele><time>2026-04-18T14:06:25.999Z</time></trkpt><trkpt lat="45.54878224436009" lon="8.219442693345101"><ele>263.0</ele><time>2026-04-18T14:06:26.999Z</time></trkpt><trkpt lat="45.54889342159284" lon="8.219411013886962"><ele>263.0</ele><time>2026-04-18T14:06:28.999Z</time></trkpt><trkpt lat="45.548983101899545" lon="8.219396907421634"><ele>263.0</ele><time>2026-04-18T14:06:30.999Z</time></trkpt><trkpt lat="45.54905908526843" lon="8.219336575360677"><ele>263.0</ele><time>2026-04-18T14:06:33.999Z</time></trkpt><trkpt lat="45.54906624016647" lon="8.219219542731585"><ele>263.0</ele><time>2026-04-18T14:06:35.999Z</time></trkpt><trkpt lat="45.54909241106471" lon="8.219136234848737"><ele>263.0</ele><time>2026-04-18T14:06:36.999Z</time></trkpt><trkpt lat="45.54911956656546" lon="8.21903988144416"><ele>262.83333333333337</ele><time>2026-04-18T14:06:37.999Z</time></trkpt><trkpt lat="45.54912487578397" lon="8.21892543056684"><ele>262.6666666666667</ele><time>2026-04-18T14:06:38.999Z</time></trkpt><trkpt lat="45.5491336307594" lon="8.218780681981974"><ele>262.5</ele><time>2026-04-18T14:06:39.999Z</time></trkpt><trkpt lat="45.54914015558111" lon="8.218649928295457"><ele>262.3333333333333</ele><time>2026-04-18T14:06:40.999Z</time></trkpt><trkpt lat="45.549107935623354" lon="8.218560969428543"><ele>262.16666666666663</ele><time>2026-04-18T14:06:41.999Z</time></trkpt><trkpt lat="45.54903256978695" lon="8.21849215339278"><ele>262.0</ele><time>2026-04-18T14:06:42.999Z</time></trkpt><trkpt lat="45.548916695868805" lon="8.2184251727426"><ele>262.0</ele><time>2026-04-18T14:06:43.999Z</time></trkpt><trkpt lat="45.54882225908771" lon="8.21834482234936"><ele>262.0</ele><time>2026-04-18T14:06:44.999Z</time></trkpt><trkpt lat="45.54877868595769" lon="8.21819341380188"><ele>262.0</ele><time>2026-04-18T14:06:46.999Z</time></trkpt><trkpt lat="45.54880604837425" lon="8.21810602146737"><ele>262.0</ele><time>2026-04-18T14:06:47.999Z</time></trkpt><trkpt lat="45.54882516547583" lon="8.217979627038352"><ele>262.0</ele><time>2026-04-18T14:06:48.999Z</time></trkpt><trkpt lat="45.5488330982735" lon="8.217866105802383"><ele>260.5</ele><time>2026-04-18T14:06:49.999Z</time></trkpt><trkpt lat="45.54878492394625" lon="8.217713523250872"><ele>259.0</ele><time>2026-04-18T14:06:51.999Z</time></trkpt><trkpt lat="45.548708358068886" lon="8.217598721495886"><ele>257.5</ele><time>2026-04-18T14:06:52.999Z</time></trkpt><trkpt lat="45.5486186028075" lon="8.217459444410398"><ele>256.0</ele><time>2026-04-18T14:06:53.999Z</time></trkpt><trkpt lat="45.54853994275302" lon="8.217364419905454"><ele>253.8</ele><time>2026-04-18T14:06:54.999Z</time></trkpt><trkpt lat="45.54846517476668" lon="8.217290589680337"><ele>251.60000000000002</ele><time>2026-04-18T14:06:56Z</time></trkpt><trkpt lat="45.548422410837766" lon="8.217223826712079"><ele>249.4</ele><time>2026-04-18T14:06:57Z</time></trkpt><trkpt lat="45.54840655565108" lon="8.217024989502278"><ele>247.2</ele><time>2026-04-18T14:06:59Z</time></trkpt><trkpt lat="45.548414064580356" lon="8.21688224680929"><ele>245.0</ele><time>2026-04-18T14:07:01Z</time></trkpt><trkpt lat="45.54851778884699" lon="8.216820569174953"><ele>245.00000000000003</ele><time>2026-04-18T14:07:03Z</time></trkpt><trkpt lat="45.54859021546794" lon="8.21680235193459"><ele>245.0</ele><time>2026-04-18T14:07:04Z</time></trkpt><trkpt lat="45.54866692218211" lon="8.216762358715549"><ele>245.0</ele><time>2026-04-18T14:07:05Z</time></trkpt><trkpt lat="45.548739794796255" lon="8.21670950562266"><ele>245.0</ele><time>2026-04-18T14:07:06Z</time></trkpt><trkpt lat="45.548777905787446" lon="8.216615234737725"><ele>245.00000000000003</ele><time>2026-04-18T14:07:07Z</time></trkpt><trkpt lat="45.548806341401225" lon="8.21648311746416"><ele>245.0</ele><time>2026-04-18T14:07:08Z</time></trkpt><trkpt lat="45.548813154327924" lon="8.216339127879058"><ele>246.0</ele><time>2026-04-18T14:07:09Z</time></trkpt><trkpt lat="45.54883446363739" lon="8.216195687205868"><ele>247.0</ele><time>2026-04-18T14:07:10Z</time></trkpt><trkpt lat="45.54888269989356" lon="8.216052640693363"><ele>248.0</ele><time>2026-04-18T14:07:11Z</time></trkpt><trkpt lat="45.54892254237922" lon="8.215904730278657"><ele>249.0</ele><time>2026-04-18T14:07:12Z</time></trkpt><trkpt lat="45.5489434545661" lon="8.21579203667337"><ele>250.0</ele><time>2026-04-18T14:07:13Z</time></trkpt><trkpt lat="45.54892673172091" lon="8.21568987589973"><ele>249.66666666666666</ele><time>2026-04-18T14:07:14Z</time></trkpt><trkpt lat="45.54891897584559" lon="8.215596603915266"><ele>249.33333333333331</ele><time>2026-04-18T14:07:15Z</time></trkpt><trkpt lat="45.5489189827258" lon="8.215481120205386"><ele>249.0</ele><time>2026-04-18T14:07:16Z</time></trkpt><trkpt lat="45.54889112902262" lon="8.215308029401104"><ele>248.66666666666669</ele><time>2026-04-18T14:07:18Z</time></trkpt><trkpt lat="45.5488560897827" lon="8.215209300376685"><ele>248.33333333333334</ele><time>2026-04-18T14:07:19Z</time></trkpt><trkpt lat="45.54882262363454" lon="8.215121877688361"><ele>248.0</ele><time>2026-04-18T14:07:20Z</time></trkpt><trkpt lat="45.54877951875457" lon="8.215052444514827"><ele>248.0</ele><time>2026-04-18T14:07:21Z</time></trkpt><trkpt lat="45.54875130519352" lon="8.214970210812917"><ele>248.0</ele><time>2026-04-18T14:07:22Z</time></trkpt><trkpt lat="45.54880556605045" lon="8.214902080565773"><ele>248.0</ele><time>2026-04-18T14:07:24Z</time></trkpt><trkpt lat="45.548853524535716" lon="8.214797275537714"><ele>248.0</ele><time>2026-04-18T14:07:25Z</time></trkpt><trkpt lat="45.548915187156624" lon="8.214655675415639"><ele>248.0</ele><time>2026-04-18T14:07:26Z</time></trkpt><trkpt lat="45.54899229356423" lon="8.214519798648311"><ele>247.66666666666669</ele><time>2026-04-18T14:07:26.999Z</time></trkpt><trkpt lat="45.54904197857129" lon="8.214422905305165"><ele>247.33333333333334</ele><time>2026-04-18T14:07:27.999Z</time></trkpt><trkpt lat="45.54911986911511" lon="8.214335808294209"><ele>247.0</ele><time>2026-04-18T14:07:29.999Z</time></trkpt><trkpt lat="45.549200542081586" lon="8.21424727162497"><ele>246.66666666666669</ele><time>2026-04-18T14:07:31.999Z</time></trkpt><trkpt lat="45.549191274518385" lon="8.214142367500653"><ele>246.33333333333334</ele><time>2026-04-18T14:07:33.999Z</time></trkpt><trkpt lat="45.54923180773391" lon="8.214069089558654"><ele>246.0</ele><time>2026-04-18T14:07:36.999Z</time></trkpt><trkpt lat="45.54931444335279" lon="8.214056133705325"><ele>246.0</ele><time>2026-04-18T14:07:39.999Z</time></trkpt><trkpt lat="45.549388724098925" lon="8.214023425563143"><ele>246.00000000000003</ele><time>2026-04-18T14:07:42.999Z</time></trkpt><trkpt lat="45.54960247191478" lon="8.213982543300881"><ele>246.00000000000003</ele><time>2026-04-18T14:07:45.999Z</time></trkpt><trkpt lat="45.549607607054604" lon="8.213886045561056"><ele>246.0</ele><time>2026-04-18T14:07:47.999Z</time></trkpt><trkpt lat="45.54962020305079" lon="8.213795597098658"><ele>246.0</ele><time>2026-04-18T14:07:49.999Z</time></trkpt><trkpt lat="45.54967712369152" lon="8.213744409940842"><ele>246.5</ele><time>2026-04-18T14:07:51.999Z</time></trkpt><trkpt lat="45.54970246866166" lon="8.213637906044873"><ele>247.0</ele><time>2026-04-18T14:07:54.999Z</time></trkpt><trkpt lat="45.549734509255856" lon="8.213483428281219"><ele>247.5</ele><time>2026-04-18T14:07:57.999Z</time></trkpt><trkpt lat="45.549758617397494" lon="8.213394158010392"><ele>248.0</ele><time>2026-04-18T14:07:58.999Z</time></trkpt><trkpt lat="45.549777175258264" lon="8.212995089789553"><ele>248.00000000000003</ele><time>2026-04-18T14:07:59.999Z</time></trkpt><trkpt lat="45.54975818208985" lon="8.212902731136783"><ele>248.0</ele><time>2026-04-18T14:08:00.999Z</time></trkpt><trkpt lat="45.549750946494555" lon="8.212768663842677"><ele>248.0</ele><time>2026-04-18T14:08:03.999Z</time></trkpt><trkpt lat="45.54974506163197" lon="8.212666783044114"><ele>248.0</ele><time>2026-04-18T14:08:05.999Z</time></trkpt><trkpt lat="45.54975986494397" lon="8.212573898179214"><ele>248.00000000000003</ele><time>2026-04-18T14:08:06.999Z</time></trkpt><trkpt lat="45.54981180184878" lon="8.212406472120884"><ele>248.0</ele><time>2026-04-18T14:08:08.999Z</time></trkpt><trkpt lat="45.54985961109051" lon="8.212289058165727"><ele>248.00000000000003</ele><time>2026-04-18T14:08:10.999Z</time></trkpt><trkpt lat="45.549911395939425" lon="8.212211348732522"><ele>248.0</ele><time>2026-04-18T14:08:11.999Z</time></trkpt><trkpt lat="45.54994140489183" lon="8.212105212386817"><ele>248.0</ele><time>2026-04-18T14:08:14.999Z</time></trkpt><trkpt lat="45.549918341614664" lon="8.212011425654898"><ele>248.0</ele><time>2026-04-18T14:08:29.999Z</time></trkpt><trkpt lat="45.54995473000658" lon="8.211904543167023"><ele>248.00000000000003</ele><time>2026-04-18T14:08:32.999Z</time></trkpt><trkpt lat="45.550044094483866" lon="8.211857265845486"><ele>248.0</ele><time>2026-04-18T14:08:35.999Z</time></trkpt><trkpt lat="45.550089144653704" lon="8.211766663816729"><ele>248.0</ele><time>2026-04-18T14:08:36.999Z</time></trkpt><trkpt lat="45.5501251983481" lon="8.211630334192517"><ele>248.0</ele><time>2026-04-18T14:08:37.999Z</time></trkpt><trkpt lat="45.550161537403405" lon="8.211503919210848"><ele>248.0</ele><time>2026-04-18T14:08:38.999Z</time></trkpt><trkpt lat="45.55028732981602" lon="8.211415056291203"><ele>248.0</ele><time>2026-04-18T14:08:40.999Z</time></trkpt><trkpt lat="45.550337562066005" lon="8.211357440423473"><ele>248.0</ele><time>2026-04-18T14:08:41.999Z</time></trkpt><trkpt lat="45.55039925315533" lon="8.211256806241483"><ele>248.33333333333334</ele><time>2026-04-18T14:08:43.999Z</time></trkpt><trkpt lat="45.5504533879774" lon="8.211205993768926"><ele>248.66666666666669</ele><time>2026-04-18T14:08:44.999Z</time></trkpt><trkpt lat="45.55057020171567" lon="8.21111918739671"><ele>249.0</ele><time>2026-04-18T14:08:46.999Z</time></trkpt><trkpt lat="45.55063562576818" lon="8.211063504024288"><ele>249.33333333333331</ele><time>2026-04-18T14:08:47.999Z</time></trkpt><trkpt lat="45.55070186258307" lon="8.2110306265674"><ele>249.66666666666666</ele><time>2026-04-18T14:08:48.999Z</time></trkpt><trkpt lat="45.55077534387201" lon="8.210973607961895"><ele>250.0</ele><time>2026-04-18T14:08:49.999Z</time></trkpt><trkpt lat="45.55083013068988" lon="8.210883538582669"><ele>249.99999999999997</ele><time>2026-04-18T14:08:50.999Z</time></trkpt><trkpt lat="45.55087424944053" lon="8.210778915450895"><ele>250.0</ele><time>2026-04-18T14:08:51.999Z</time></trkpt><trkpt lat="45.550923343072505" lon="8.21071353289847"><ele>250.0</ele><time>2026-04-18T14:08:52.999Z</time></trkpt><trkpt lat="45.55098930456737" lon="8.210649243744799"><ele>250.0</ele><time>2026-04-18T14:08:53.999Z</time></trkpt><trkpt lat="45.551060367058795" lon="8.210569860639993"><ele>249.99999999999997</ele><time>2026-04-18T14:08:54.999Z</time></trkpt><trkpt lat="45.551106884611706" lon="8.210474743709883"><ele>250.0</ele><time>2026-04-18T14:08:55.999Z</time></trkpt><trkpt lat="45.55113375367509" lon="8.210366658915515"><ele>249.99999999999997</ele><time>2026-04-18T14:08:56.999Z</time></trkpt><trkpt lat="45.55119647016337" lon="8.210279859792381"><ele>250.0</ele><time>2026-04-18T14:08:58.999Z</time></trkpt><trkpt lat="45.551207735476616" lon="8.210172609518878"><ele>250.0</ele><time>2026-04-18T14:09:00.999Z</time></trkpt><trkpt lat="45.55121629242401" lon="8.210071169095588"><ele>250.0</ele><time>2026-04-18T14:09:03Z</time></trkpt><trkpt lat="45.551291918611305" lon="8.210096032142063"><ele>249.99999999999997</ele><time>2026-04-18T14:09:08Z</time></trkpt><trkpt lat="45.55131062140122" lon="8.210203237304794"><ele>250.0</ele><time>2026-04-18T14:09:13Z</time></trkpt><trkpt lat="45.55131056818492" lon="8.210293336494988"><ele>249.99999999999997</ele><time>2026-04-18T14:09:15Z</time></trkpt><trkpt lat="45.551337105692625" lon="8.210383974007016"><ele>250.0</ele><time>2026-04-18T14:09:19Z</time></trkpt><trkpt lat="45.551378627705965" lon="8.210459287419685"><ele>250.0</ele><time>2026-04-18T14:09:22Z</time></trkpt><trkpt lat="45.55143409536377" lon="8.210536649027812"><ele>250.0</ele><time>2026-04-18T14:09:24Z</time></trkpt><trkpt lat="45.551485424331524" lon="8.21062462883189"><ele>249.99999999999997</ele><time>2026-04-18T14:09:26Z</time></trkpt><trkpt lat="45.551561544158915" lon="8.210682961342902"><ele>250.0</ele><time>2026-04-18T14:09:27.999Z</time></trkpt><trkpt lat="45.55163063594661" lon="8.210798437701742"><ele>250.2</ele><time>2026-04-18T14:09:29.999Z</time></trkpt><trkpt lat="45.55169888886584" lon="8.21091923468011"><ele>250.4</ele><time>2026-04-18T14:09:31.999Z</time></trkpt><trkpt lat="45.55172965592504" lon="8.211011574692433"><ele>250.60000000000002</ele><time>2026-04-18T14:09:32.999Z</time></trkpt><trkpt lat="45.55178964688744" lon="8.211067536336538"><ele>250.8</ele><time>2026-04-18T14:09:33.999Z</time></trkpt><trkpt lat="45.55189908790061" lon="8.211030863580605"><ele>251.0</ele><time>2026-04-18T14:09:35.999Z</time></trkpt><trkpt lat="45.55196293398262" lon="8.210916133096427"><ele>251.00000000000003</ele><time>2026-04-18T14:09:37.999Z</time></trkpt><trkpt lat="45.55196796920988" lon="8.210811612336014"><ele>251.0</ele><time>2026-04-18T14:09:38.999Z</time></trkpt><trkpt lat="45.55204606948649" lon="8.210759346217014"><ele>251.0</ele><time>2026-04-18T14:09:41.999Z</time></trkpt><trkpt lat="45.55214290373952" lon="8.210744393112018"><ele>251.0</ele><time>2026-04-18T14:09:43.999Z</time></trkpt><trkpt lat="45.55217858789404" lon="8.210639528151912"><ele>251.00000000000003</ele><time>2026-04-18T14:09:46.999Z</time></trkpt><trkpt lat="45.55220275683035" lon="8.210536098660812"><ele>251.0</ele><time>2026-04-18T14:09:49.999Z</time></trkpt><trkpt lat="45.55227987366681" lon="8.21053200498875"><ele>250.66666666666669</ele><time>2026-04-18T14:09:50.999Z</time></trkpt><trkpt lat="45.55236242278683" lon="8.210561926036126"><ele>250.33333333333334</ele><time>2026-04-18T14:09:52.999Z</time></trkpt><trkpt lat="45.55243052378883" lon="8.21048742359074"><ele>250.0</ele><time>2026-04-18T14:09:53.999Z</time></trkpt><trkpt lat="45.55248246956965" lon="8.210433964280465"><ele>249.66666666666669</ele><time>2026-04-18T14:09:54.999Z</time></trkpt><trkpt lat="45.55252435045226" lon="8.210329517037971"><ele>249.33333333333334</ele><time>2026-04-18T14:09:55.999Z</time></trkpt><trkpt lat="45.552585646530986" lon="8.21025639234248"><ele>249.0</ele><time>2026-04-18T14:09:56.999Z</time></trkpt><trkpt lat="45.55266239155628" lon="8.210151221781835"><ele>249.0</ele><time>2026-04-18T14:09:58.999Z</time></trkpt><trkpt lat="45.552734319414796" lon="8.210071386635539"><ele>249.0</ele><time>2026-04-18T14:09:59.999Z</time></trkpt><trkpt lat="45.5528111119457" lon="8.210002254690863"><ele>249.0</ele><time>2026-04-18T14:10:00.999Z</time></trkpt><trkpt lat="45.55287189192757" lon="8.20993039562312"><ele>249.0</ele><time>2026-04-18T14:10:01.999Z</time></trkpt><trkpt lat="45.552806920437234" lon="8.209658835791524"><ele>249.0</ele><time>2026-04-18T14:10:02.999Z</time></trkpt><trkpt lat="45.55286295827677" lon="8.209589609468509"><ele>248.99999999999997</ele><time>2026-04-18T14:10:03.999Z</time></trkpt><trkpt lat="45.55292120484465" lon="8.209509858933908"><ele>248.99999999999997</ele><time>2026-04-18T14:10:04.999Z</time></trkpt><trkpt lat="45.55299353186684" lon="8.209402640689563"><ele>249.0</ele><time>2026-04-18T14:10:06.999Z</time></trkpt><trkpt lat="45.55303761595418" lon="8.209315716721301"><ele>249.0</ele><time>2026-04-18T14:10:08.999Z</time></trkpt><trkpt lat="45.5532486546574" lon="8.20949580392405"><ele>249.0</ele><time>2026-04-18T14:10:12.999Z</time></trkpt><trkpt lat="45.55331721049686" lon="8.209663695008501"><ele>248.99999999999997</ele><time>2026-04-18T14:10:14.999Z</time></trkpt><trkpt lat="45.553354377826615" lon="8.209770267152072"><ele>248.99999999999997</ele><time>2026-04-18T14:10:15.999Z</time></trkpt><trkpt lat="45.553390654880374" lon="8.209858700416493"><ele>249.0</ele><time>2026-04-18T14:10:16.999Z</time></trkpt><trkpt lat="45.553482847306086" lon="8.209836207540363"><ele>249.0</ele><time>2026-04-18T14:10:18.999Z</time></trkpt><trkpt lat="45.55354528896057" lon="8.2097783797392"><ele>249.0</ele><time>2026-04-18T14:10:19.999Z</time></trkpt><trkpt lat="45.553608888514766" lon="8.209708180500636"><ele>249.0</ele><time>2026-04-18T14:10:20.999Z</time></trkpt><trkpt lat="45.55369510800725" lon="8.20964151073731"><ele>249.0</ele><time>2026-04-18T14:10:22.999Z</time></trkpt><trkpt lat="45.55375119035939" lon="8.20959622644943"><ele>249.0</ele><time>2026-04-18T14:10:31.999Z</time></trkpt><trkpt lat="45.553798320908164" lon="8.209495211236494"><ele>249.0</ele><time>2026-04-18T14:10:50.999Z</time></trkpt><trkpt lat="45.553883371107545" lon="8.209421117328175"><ele>249.0</ele><time>2026-04-18T14:10:52.999Z</time></trkpt><trkpt lat="45.55395133363339" lon="8.20937687591233"><ele>250.79999999999998</ele><time>2026-04-18T14:10:53.999Z</time></trkpt><trkpt lat="45.554031364156494" lon="8.20935023258073"><ele>252.59999999999997</ele><time>2026-04-18T14:10:54.999Z</time></trkpt><trkpt lat="45.55411412135953" lon="8.209318549345484"><ele>254.4</ele><time>2026-04-18T14:10:55.999Z</time></trkpt><trkpt lat="45.55418753905439" lon="8.209289839303443"><ele>256.2</ele><time>2026-04-18T14:10:56.999Z</time></trkpt><trkpt lat="45.55428642024498" lon="8.2092596346704"><ele>258.0</ele><time>2026-04-18T14:10:57.999Z</time></trkpt><trkpt lat="45.554396182027986" lon="8.209229489989387"><ele>258.0</ele><time>2026-04-18T14:10:58.999Z</time></trkpt><trkpt lat="45.55449086024082" lon="8.209217552059874"><ele>258.0</ele><time>2026-04-18T14:10:59.999Z</time></trkpt><trkpt lat="45.554563930315425" lon="8.209214083226053"><ele>258.0</ele><time>2026-04-18T14:11:00.999Z</time></trkpt><trkpt lat="45.55464323040084" lon="8.20921724609744"><ele>258.0</ele><time>2026-04-18T14:11:01.999Z</time></trkpt><trkpt lat="45.554727122402994" lon="8.209213527542524"><ele>258.0</ele><time>2026-04-18T14:11:02.999Z</time></trkpt><trkpt lat="45.554807741986494" lon="8.209199022587953"><ele>258.0</ele><time>2026-04-18T14:11:03.999Z</time></trkpt><trkpt lat="45.55488819755376" lon="8.209208628482994"><ele>258.4285714285714</ele><time>2026-04-18T14:11:04.999Z</time></trkpt><trkpt lat="45.554955841362" lon="8.209225104668429"><ele>258.85714285714283</ele><time>2026-04-18T14:11:05.999Z</time></trkpt><trkpt lat="45.55502130211352" lon="8.209239112813732"><ele>259.2857142857143</ele><time>2026-04-18T14:11:06.999Z</time></trkpt><trkpt lat="45.555092896145744" lon="8.209236581206788"><ele>259.71428571428567</ele><time>2026-04-18T14:11:08Z</time></trkpt><trkpt lat="45.555179773318535" lon="8.20922321380248"><ele>260.1428571428571</ele><time>2026-04-18T14:11:09Z</time></trkpt><trkpt lat="45.555253748002336" lon="8.209225033719994"><ele>260.57142857142856</ele><time>2026-04-18T14:11:10Z</time></trkpt><trkpt lat="45.555325218677986" lon="8.209242450992676"><ele>261.0</ele><time>2026-04-18T14:11:11Z</time></trkpt><trkpt lat="45.55540223639323" lon="8.209234346685017"><ele>261.1666666666667</ele><time>2026-04-18T14:11:12Z</time></trkpt><trkpt lat="45.55547751502369" lon="8.209112401625887"><ele>261.3333333333333</ele><time>2026-04-18T14:11:14Z</time></trkpt><trkpt lat="45.555545487979494" lon="8.209017025434001"><ele>261.5</ele><time>2026-04-18T14:11:16Z</time></trkpt><trkpt lat="45.55560885993555" lon="8.209024959170163"><ele>261.66666666666663</ele><time>2026-04-18T14:11:17Z</time></trkpt><trkpt lat="45.55569756005968" lon="8.209042991366388"><ele>261.8333333333333</ele><time>2026-04-18T14:11:18Z</time></trkpt><trkpt lat="45.55577833561208" lon="8.209041073502139"><ele>262.0</ele><time>2026-04-18T14:11:19Z</time></trkpt><trkpt lat="45.5558511294094" lon="8.209014020881643"><ele>262.0</ele><time>2026-04-18T14:11:22Z</time></trkpt><trkpt lat="45.55592660175717" lon="8.20900836947632"><ele>262.0</ele><time>2026-04-18T14:11:24Z</time></trkpt><trkpt lat="45.556008914846984" lon="8.209028605774956"><ele>262.0</ele><time>2026-04-18T14:11:26Z</time></trkpt><trkpt lat="45.556106382420154" lon="8.209060694066412"><ele>262.0</ele><time>2026-04-18T14:11:28Z</time></trkpt><trkpt lat="45.55622864680945" lon="8.209102004102546"><ele>262.0</ele><time>2026-04-18T14:11:29Z</time></trkpt><trkpt lat="45.55626869096107" lon="8.209187903128186"><ele>262.0</ele><time>2026-04-18T14:11:31Z</time></trkpt><trkpt lat="45.55628335287659" lon="8.209289236094323"><ele>262.0</ele><time>2026-04-18T14:11:33Z</time></trkpt><trkpt lat="45.556357538271605" lon="8.209242129954935"><ele>262.0</ele><time>2026-04-18T14:11:34.999Z</time></trkpt><trkpt lat="45.556465448363525" lon="8.209227257492707"><ele>262.0</ele><time>2026-04-18T14:11:36.999Z</time></trkpt><trkpt lat="45.55658841204134" lon="8.209313837993719"><ele>262.0</ele><time>2026-04-18T14:11:38.999Z</time></trkpt><trkpt lat="45.55667261661212" lon="8.209317813225296"><ele>262.0</ele><time>2026-04-18T14:11:39.999Z</time></trkpt><trkpt lat="45.55676742400532" lon="8.209336543539106"><ele>262.0</ele><time>2026-04-18T14:11:40.999Z</time></trkpt><trkpt lat="45.55684523655578" lon="8.20935169055618"><ele>262.0</ele><time>2026-04-18T14:11:41.999Z</time></trkpt><trkpt lat="45.55691489167527" lon="8.209280394872833"><ele>262.0</ele><time>2026-04-18T14:11:43.999Z</time></trkpt><trkpt lat="45.55699101090195" lon="8.20916936621534"><ele>262.0</ele><time>2026-04-18T14:11:45.999Z</time></trkpt><trkpt lat="45.557058328270095" lon="8.209122626272414"><ele>262.0</ele><time>2026-04-18T14:11:47.999Z</time></trkpt><trkpt lat="45.55705594564204" lon="8.208999066772538"><ele>263.0</ele><time>2026-04-18T14:11:53.999Z</time></trkpt><trkpt lat="45.55705326059315" lon="8.208907661219389"><ele>264.0</ele><time>2026-04-18T14:11:55.999Z</time></trkpt><trkpt lat="45.557194158841206" lon="8.208489515314366"><ele>265.0</ele><time>2026-04-18T14:11:59.999Z</time></trkpt><trkpt lat="45.55726679730312" lon="8.208410372264565"><ele>265.0</ele><time>2026-04-18T14:12:00.999Z</time></trkpt><trkpt lat="45.55732340887934" lon="8.208351485405979"><ele>265.0</ele><time>2026-04-18T14:12:01.999Z</time></trkpt><trkpt lat="45.5573786634106" lon="8.208193443665166"><ele>265.0</ele><time>2026-04-18T14:12:03.999Z</time></trkpt><trkpt lat="45.55747711503513" lon="8.208133778394227"><ele>265.0</ele><time>2026-04-18T14:12:05.999Z</time></trkpt><trkpt lat="45.557571680630716" lon="8.208097515973112"><ele>265.0</ele><time>2026-04-18T14:12:07.999Z</time></trkpt><trkpt lat="45.55770480256413" lon="8.20811696750401"><ele>265.8333333333333</ele><time>2026-04-18T14:12:09.999Z</time></trkpt><trkpt lat="45.55778143306667" lon="8.208123900400635"><ele>266.66666666666663</ele><time>2026-04-18T14:12:10.999Z</time></trkpt><trkpt lat="45.55789401370133" lon="8.208132965902092"><ele>267.5</ele><time>2026-04-18T14:12:11.999Z</time></trkpt><trkpt lat="45.5579769661846" lon="8.208151448570325"><ele>268.3333333333333</ele><time>2026-04-18T14:12:12.999Z</time></trkpt><trkpt lat="45.55805782378398" lon="8.208162566796338"><ele>269.1666666666667</ele><time>2026-04-18T14:12:13.999Z</time></trkpt><trkpt lat="45.558137543331526" lon="8.208205710329167"><ele>270.0</ele><time>2026-04-18T14:12:14.999Z</time></trkpt><trkpt lat="45.55819753252521" lon="8.208255005479865"><ele>270.0</ele><time>2026-04-18T14:12:15.999Z</time></trkpt><trkpt lat="45.558251273149565" lon="8.208303074593305"><ele>270.0</ele><time>2026-04-18T14:12:16.999Z</time></trkpt><trkpt lat="45.558399765796764" lon="8.20829219696258"><ele>270.0</ele><time>2026-04-18T14:12:18.999Z</time></trkpt><trkpt lat="45.55847538136707" lon="8.208280274437309"><ele>270.0</ele><time>2026-04-18T14:12:20Z</time></trkpt><trkpt lat="45.55858001419522" lon="8.208245006401235"><ele>270.0</ele><time>2026-04-18T14:12:21Z</time></trkpt><trkpt lat="45.55867221742528" lon="8.208223870554502"><ele>269.4</ele><time>2026-04-18T14:12:22Z</time></trkpt><trkpt lat="45.55875300312396" lon="8.208202398270714"><ele>268.8</ele><time>2026-04-18T14:12:23Z</time></trkpt><trkpt lat="45.55889100912608" lon="8.208222217377099"><ele>268.2</ele><time>2026-04-18T14:12:25Z</time></trkpt><trkpt lat="45.558965884592354" lon="8.208243263771168"><ele>267.6</ele><time>2026-04-18T14:12:26Z</time></trkpt><trkpt lat="45.559042919618975" lon="8.208261828052422"><ele>267.0</ele><time>2026-04-18T14:12:27Z</time></trkpt><trkpt lat="45.559130392632284" lon="8.208314157312914"><ele>267.0</ele><time>2026-04-18T14:12:28Z</time></trkpt><trkpt lat="45.559196856182965" lon="8.208353882849636"><ele>267.0</ele><time>2026-04-18T14:12:29Z</time></trkpt><trkpt lat="45.559270028441205" lon="8.208353869622723"><ele>267.0</ele><time>2026-04-18T14:12:30Z</time></trkpt><trkpt lat="45.55936009604335" lon="8.208356095369124"><ele>267.0</ele><time>2026-04-18T14:12:31Z</time></trkpt><trkpt lat="45.55945483686703" lon="8.20840658482377"><ele>267.0</ele><time>2026-04-18T14:12:32Z</time></trkpt><trkpt lat="45.55953826022229" lon="8.20843166474934"><ele>267.0</ele><time>2026-04-18T14:12:33Z</time></trkpt><trkpt lat="45.55960984242005" lon="8.20843809338692"><ele>267.5</ele><time>2026-04-18T14:12:34Z</time></trkpt><trkpt lat="45.55969562269895" lon="8.20853040182157"><ele>268.0</ele><time>2026-04-18T14:12:36Z</time></trkpt><trkpt lat="45.55978684649078" lon="8.208457882301474"><ele>268.5</ele><time>2026-04-18T14:12:37Z</time></trkpt><trkpt lat="45.559920516907205" lon="8.208428926717522"><ele>269.0</ele><time>2026-04-18T14:12:38Z</time></trkpt><trkpt lat="45.56005201902423" lon="8.208477712235611"><ele>269.0</ele><time>2026-04-18T14:12:39Z</time></trkpt><trkpt lat="45.56019214294911" lon="8.208451601385862"><ele>269.0</ele><time>2026-04-18T14:12:40Z</time></trkpt><trkpt lat="45.56028528888479" lon="8.208407680335071"><ele>269.0</ele><time>2026-04-18T14:12:41Z</time></trkpt><trkpt lat="45.56037333953168" lon="8.208372108649575"><ele>269.0</ele><time>2026-04-18T14:12:42Z</time></trkpt><trkpt lat="45.56045372063403" lon="8.20834141116378"><ele>269.0</ele><time>2026-04-18T14:12:43Z</time></trkpt><trkpt lat="45.56058372590169" lon="8.208424379941386"><ele>268.6666666666667</ele><time>2026-04-18T14:12:45Z</time></trkpt><trkpt lat="45.56073267025027" lon="8.208353263361847"><ele>268.3333333333333</ele><time>2026-04-18T14:12:47Z</time></trkpt><trkpt lat="45.5609000873438" lon="8.208200301686912"><ele>268.0</ele><time>2026-04-18T14:12:48Z</time></trkpt><trkpt lat="45.561023795500276" lon="8.208122359157771"><ele>269.0</ele><time>2026-04-18T14:12:49Z</time></trkpt><trkpt lat="45.561096990895685" lon="8.208060965313411"><ele>270.0</ele><time>2026-04-18T14:12:50Z</time></trkpt><trkpt lat="45.56117622037961" lon="8.207983857118752"><ele>271.0</ele><time>2026-04-18T14:12:51Z</time></trkpt><trkpt lat="45.56124681754747" lon="8.207963406331636"><ele>272.0</ele><time>2026-04-18T14:12:52Z</time></trkpt><trkpt lat="45.561307647534456" lon="8.207891626758322"><ele>273.0</ele><time>2026-04-18T14:12:53Z</time></trkpt><trkpt lat="45.56136754386921" lon="8.207857409173887"><ele>274.0</ele><time>2026-04-18T14:12:54Z</time></trkpt><trkpt lat="45.56143811801314" lon="8.207947376389837"><ele>274.5</ele><time>2026-04-18T14:12:56Z</time></trkpt><trkpt lat="45.5615888284502" lon="8.207969012578383"><ele>275.0</ele><time>2026-04-18T14:12:58Z</time></trkpt><trkpt lat="45.56168546354334" lon="8.208006543530805"><ele>275.5</ele><time>2026-04-18T14:12:59Z</time></trkpt><trkpt lat="45.56182973677368" lon="8.208055309065854"><ele>276.0</ele><time>2026-04-18T14:13:01Z</time></trkpt><trkpt lat="45.56195024482438" lon="8.208064871248306"><ele>276.40000000000003</ele><time>2026-04-18T14:13:02Z</time></trkpt><trkpt lat="45.562058908126545" lon="8.208063719096483"><ele>276.8</ele><time>2026-04-18T14:13:03Z</time></trkpt><trkpt lat="45.562130343991704" lon="8.208120247314287"><ele>277.20000000000005</ele><time>2026-04-18T14:13:04Z</time></trkpt><trkpt lat="45.56222592416915" lon="8.208148753175468"><ele>277.6</ele><time>2026-04-18T14:13:05Z</time></trkpt><trkpt lat="45.56231883545727" lon="8.208186576113457"><ele>278.0</ele><time>2026-04-18T14:13:06Z</time></trkpt><trkpt lat="45.562452452714" lon="8.208188505464543"><ele>278.0</ele><time>2026-04-18T14:13:08Z</time></trkpt><trkpt lat="45.56254468829008" lon="8.20810968951218"><ele>278.0</ele><time>2026-04-18T14:13:09Z</time></trkpt><trkpt lat="45.5626270197911" lon="8.208069755932712"><ele>278.0</ele><time>2026-04-18T14:13:10Z</time></trkpt><trkpt lat="45.56274030861233" lon="8.208035616293586"><ele>278.0</ele><time>2026-04-18T14:13:11Z</time></trkpt><trkpt lat="45.562818462454" lon="8.2080095170691"><ele>278.0</ele><time>2026-04-18T14:13:12Z</time></trkpt><trkpt lat="45.56289734787" lon="8.208004696302995"><ele>277.4</ele><time>2026-04-18T14:13:13Z</time></trkpt><trkpt lat="45.56296901089558" lon="8.207953349894808"><ele>276.8</ele><time>2026-04-18T14:13:14.001Z</time></trkpt><trkpt lat="45.563082954808536" lon="8.207920209616988"><ele>276.2</ele><time>2026-04-18T14:13:15.001Z</time></trkpt><trkpt lat="45.563203962968004" lon="8.207851585904304"><ele>275.6</ele><time>2026-04-18T14:13:16.001Z</time></trkpt><trkpt lat="45.563302545539095" lon="8.207826699979334"><ele>275.0</ele><time>2026-04-18T14:13:17.001Z</time></trkpt><trkpt lat="45.56334944956603" lon="8.207759199581536"><ele>275.0</ele><time>2026-04-18T14:13:18.001Z</time></trkpt><trkpt lat="45.56334126474821" lon="8.20765590315265"><ele>275.0</ele><time>2026-04-18T14:13:19.001Z</time></trkpt><trkpt lat="45.56328691222017" lon="8.207528226923952"><ele>275.0</ele><time>2026-04-18T14:13:20.001Z</time></trkpt><trkpt lat="45.56330837620577" lon="8.207427439936929"><ele>275.0</ele><time>2026-04-18T14:13:22.001Z</time></trkpt><trkpt lat="45.56339396551808" lon="8.207378899728804"><ele>275.0</ele><time>2026-04-18T14:13:23.001Z</time></trkpt><trkpt lat="45.563478598728764" lon="8.207301672505883"><ele>275.0</ele><time>2026-04-18T14:13:24.001Z</time></trkpt><trkpt lat="45.563573974928715" lon="8.207216837909215"><ele>275.83333333333337</ele><time>2026-04-18T14:13:25.001Z</time></trkpt><trkpt lat="45.56367257683035" lon="8.207124753468632"><ele>276.6666666666667</ele><time>2026-04-18T14:13:26.001Z</time></trkpt><trkpt lat="45.56374396933688" lon="8.207045134567412"><ele>277.5</ele><time>2026-04-18T14:13:27.001Z</time></trkpt><trkpt lat="45.563819501987105" lon="8.206987113983931"><ele>278.3333333333333</ele><time>2026-04-18T14:13:28.001Z</time></trkpt><trkpt lat="45.56388268205416" lon="8.206989883470357"><ele>279.16666666666663</ele><time>2026-04-18T14:13:29.001Z</time></trkpt><trkpt lat="45.56394831572193" lon="8.20693629171186"><ele>280.0</ele><time>2026-04-18T14:13:30.001Z</time></trkpt><trkpt lat="45.56402955703789" lon="8.206873438576354"><ele>280.0</ele><time>2026-04-18T14:13:31Z</time></trkpt><trkpt lat="45.564113200051885" lon="8.206792935823016"><ele>280.0</ele><time>2026-04-18T14:13:32Z</time></trkpt><trkpt lat="45.56418440374687" lon="8.206733712229259"><ele>280.0</ele><time>2026-04-18T14:13:33Z</time></trkpt><trkpt lat="45.56427603009018" lon="8.206683120267023"><ele>280.0</ele><time>2026-04-18T14:13:35Z</time></trkpt><trkpt lat="45.56437009766048" lon="8.206644342650458"><ele>280.0</ele><time>2026-04-18T14:13:37Z</time></trkpt><trkpt lat="45.56441150654349" lon="8.206723624123697"><ele>280.0</ele><time>2026-04-18T14:13:42Z</time></trkpt><trkpt lat="45.56445047469229" lon="8.206808690799194"><ele>280.0</ele><time>2026-04-18T14:13:46Z</time></trkpt><trkpt lat="45.56451208968393" lon="8.206865421710368"><ele>280.0</ele><time>2026-04-18T14:13:50Z</time></trkpt><trkpt lat="45.56454636894312" lon="8.206981369922591"><ele>280.0</ele><time>2026-04-18T14:13:53Z</time></trkpt><trkpt lat="45.56457960555624" lon="8.207076483760975"><ele>280.0</ele><time>2026-04-18T14:13:56Z</time></trkpt><trkpt lat="45.56462596819478" lon="8.207143289522365"><ele>280.0</ele><time>2026-04-18T14:13:59Z</time></trkpt><trkpt lat="45.56470020082426" lon="8.207151273588957"><ele>280.0</ele><time>2026-04-18T14:14:12Z</time></trkpt><trkpt lat="45.56470295931974" lon="8.207042556746925"><ele>279.0</ele><time>2026-04-18T14:14:14Z</time></trkpt><trkpt lat="45.5647520783932" lon="8.206952677922459"><ele>278.0</ele><time>2026-04-18T14:14:17Z</time></trkpt><trkpt lat="45.564827615995156" lon="8.206866544213604"><ele>277.0</ele><time>2026-04-18T14:14:19Z</time></trkpt><trkpt lat="45.56489281752538" lon="8.206939058568176"><ele>276.0</ele><time>2026-04-18T14:14:22Z</time></trkpt><trkpt lat="45.564939408591755" lon="8.207032296864524"><ele>275.0</ele><time>2026-04-18T14:14:24Z</time></trkpt><trkpt lat="45.564979866877884" lon="8.20711869662054"><ele>274.0</ele><time>2026-04-18T14:14:28Z</time></trkpt><trkpt lat="45.564963959443766" lon="8.20721298669166"><ele>274.0</ele><time>2026-04-18T14:14:32Z</time></trkpt><trkpt lat="45.564908465282464" lon="8.207263885446205"><ele>274.0</ele><time>2026-04-18T14:14:34Z</time></trkpt><trkpt lat="45.56484087251151" lon="8.207329647708816"><ele>274.0</ele><time>2026-04-18T14:14:36Z</time></trkpt><trkpt lat="45.564767935673416" lon="8.20737385032061"><ele>274.0</ele><time>2026-04-18T14:14:41Z</time></trkpt><trkpt lat="45.56469894330005" lon="8.20737573368031"><ele>274.0</ele><time>2026-04-18T14:14:44Z</time></trkpt><trkpt lat="45.56464982599388" lon="8.207452851942195"><ele>274.0</ele><time>2026-04-18T14:14:47Z</time></trkpt><trkpt lat="45.56457962807783" lon="8.207529584736152"><ele>273.8333333333333</ele><time>2026-04-18T14:14:49Z</time></trkpt><trkpt lat="45.564500963306145" lon="8.207582073469023"><ele>273.66666666666663</ele><time>2026-04-18T14:14:52Z</time></trkpt><trkpt lat="45.56442173796148" lon="8.207656326418633"><ele>273.5</ele><time>2026-04-18T14:14:55Z</time></trkpt><trkpt lat="45.56438307365458" lon="8.2077435824925"><ele>273.3333333333333</ele><time>2026-04-18T14:14:58Z</time></trkpt><trkpt lat="45.564426198295266" lon="8.207833286153097"><ele>273.1666666666667</ele><time>2026-04-18T14:15:01Z</time></trkpt><trkpt lat="45.564524309291876" lon="8.207831953779365"><ele>273.0</ele><time>2026-04-18T14:15:03Z</time></trkpt><trkpt lat="45.564609400590804" lon="8.20781400964507"><ele>273.0</ele><time>2026-04-18T14:15:05Z</time></trkpt><trkpt lat="45.564683245229084" lon="8.207798901114678"><ele>273.0</ele><time>2026-04-18T14:15:06.999Z</time></trkpt><trkpt lat="45.56477012579398" lon="8.207827483190274"><ele>273.0</ele><time>2026-04-18T14:15:09.999Z</time></trkpt><trkpt lat="45.56484872270723" lon="8.207865477910106"><ele>273.0</ele><time>2026-04-18T14:15:12.999Z</time></trkpt><trkpt lat="45.56494170919315" lon="8.207864950375205"><ele>273.0</ele><time>2026-04-18T14:15:14.999Z</time></trkpt><trkpt lat="45.565035320941" lon="8.20788451027155"><ele>273.0</ele><time>2026-04-18T14:15:17.999Z</time></trkpt><trkpt lat="45.56511173926902" lon="8.20792032820188"><ele>273.0</ele><time>2026-04-18T14:15:21Z</time></trkpt><trkpt lat="45.565174876594064" lon="8.207914473775322"><ele>273.0</ele><time>2026-04-18T14:15:29Z</time></trkpt><trkpt lat="45.56523305359591" lon="8.207878729357827"><ele>273.0</ele><time>2026-04-18T14:15:33Z</time></trkpt><trkpt lat="45.56529032305044" lon="8.20784022785208"><ele>273.0</ele><time>2026-04-18T14:16:01Z</time></trkpt><trkpt lat="45.565223687879175" lon="8.207894560496916"><ele>273.0</ele><time>2026-04-18T14:16:03Z</time></trkpt><trkpt lat="45.56516809726952" lon="8.207945924928541"><ele>273.0</ele><time>2026-04-18T14:16:04Z</time></trkpt><trkpt lat="45.56508467407471" lon="8.207970667459572"><ele>273.0</ele><time>2026-04-18T14:16:06Z</time></trkpt><trkpt lat="45.56512156162761" lon="8.208184928115678"><ele>273.8333333333333</ele><time>2026-04-18T14:16:09Z</time></trkpt><trkpt lat="45.565215943077604" lon="8.20824314270154"><ele>274.6666666666667</ele><time>2026-04-18T14:16:11Z</time></trkpt><trkpt lat="45.565278832686154" lon="8.208230347109403"><ele>275.5</ele><time>2026-04-18T14:16:12Z</time></trkpt><trkpt lat="45.565353281731255" lon="8.208218780631691"><ele>276.33333333333337</ele><time>2026-04-18T14:16:13Z</time></trkpt><trkpt lat="45.565419255155255" lon="8.208214027075828"><ele>277.1666666666667</ele><time>2026-04-18T14:16:14Z</time></trkpt><trkpt lat="45.56549229561685" lon="8.208212603128933"><ele>278.0</ele><time>2026-04-18T14:16:16Z</time></trkpt><trkpt lat="45.565416201454575" lon="8.208309289161551"><ele>278.0</ele><time>2026-04-18T14:16:20Z</time></trkpt><trkpt lat="45.56534263114448" lon="8.208356382117111"><ele>278.0</ele><time>2026-04-18T14:16:21Z</time></trkpt><trkpt lat="45.56525016093311" lon="8.208471447463436"><ele>278.0</ele><time>2026-04-18T14:16:23Z</time></trkpt><trkpt lat="45.56515736679091" lon="8.208518063251674"><ele>278.0</ele><time>2026-04-18T14:16:25Z</time></trkpt><trkpt lat="45.565094994804454" lon="8.208481250992916"><ele>278.0</ele><time>2026-04-18T14:16:26Z</time></trkpt><trkpt lat="45.56499446917272" lon="8.20842737242531"><ele>278.0</ele><time>2026-04-18T14:16:27Z</time></trkpt><trkpt lat="45.564921750252445" lon="8.208469180380282"><ele>278.0</ele><time>2026-04-18T14:16:28Z</time></trkpt><trkpt lat="45.56489438074163" lon="8.208557919717899"><ele>278.0</ele><time>2026-04-18T14:16:29Z</time></trkpt><trkpt lat="45.56489481487869" lon="8.208659956089653"><ele>278.0</ele><time>2026-04-18T14:16:30Z</time></trkpt><trkpt lat="45.56490826698716" lon="8.208755864906015"><ele>278.0</ele><time>2026-04-18T14:16:31Z</time></trkpt><trkpt lat="45.5649653447534" lon="8.208845643190156"><ele>278.0</ele><time>2026-04-18T14:16:32Z</time></trkpt><trkpt lat="45.56504903798486" lon="8.208873384189413"><ele>278.0</ele><time>2026-04-18T14:16:33Z</time></trkpt><trkpt lat="45.56513163891632" lon="8.208909929397725"><ele>278.0</ele><time>2026-04-18T14:16:34Z</time></trkpt><trkpt lat="45.56519916156473" lon="8.208903130656656"><ele>278.0</ele><time>2026-04-18T14:16:35Z</time></trkpt><trkpt lat="45.56528427894229" lon="8.208880713848773"><ele>278.0</ele><time>2026-04-18T14:16:36Z</time></trkpt><trkpt lat="45.565364366812354" lon="8.208897128609339"><ele>278.0</ele><time>2026-04-18T14:16:37Z</time></trkpt><trkpt lat="45.5654265207532" lon="8.208912340977925"><ele>278.0</ele><time>2026-04-18T14:16:38Z</time></trkpt><trkpt lat="45.56549300924218" lon="8.208981198669385"><ele>280.5</ele><time>2026-04-18T14:16:39Z</time></trkpt><trkpt lat="45.56559786822457" lon="8.209038335795633"><ele>283.0</ele><time>2026-04-18T14:16:40Z</time></trkpt><trkpt lat="45.56572117537762" lon="8.209058652815127"><ele>285.5</ele><time>2026-04-18T14:16:41Z</time></trkpt><trkpt lat="45.565572637782736" lon="8.209059782368035"><ele>288.0</ele><time>2026-04-18T14:16:45Z</time></trkpt><trkpt lat="45.56542221452438" lon="8.209033763151137"><ele>288.0</ele><time>2026-04-18T14:16:47Z</time></trkpt><trkpt lat="45.56530252455871" lon="8.209038352134343"><ele>288.0</ele><time>2026-04-18T14:16:48Z</time></trkpt><trkpt lat="45.56520542272739" lon="8.209057916039512"><ele>288.0</ele><time>2026-04-18T14:16:49Z</time></trkpt><trkpt lat="45.56512285670179" lon="8.209076832946021"><ele>288.0</ele><time>2026-04-18T14:16:50Z</time></trkpt><trkpt lat="45.56505664006145" lon="8.209181621956876"><ele>288.0</ele><time>2026-04-18T14:16:52Z</time></trkpt><trkpt lat="45.56519135254407" lon="8.209182596659273"><ele>288.0</ele><time>2026-04-18T14:16:54Z</time></trkpt><trkpt lat="45.565301144128185" lon="8.209172411279907"><ele>288.0</ele><time>2026-04-18T14:16:55Z</time></trkpt><trkpt lat="45.56541904035047" lon="8.209143343484039"><ele>288.0</ele><time>2026-04-18T14:16:56Z</time></trkpt><trkpt lat="45.565516681083764" lon="8.209132606407357"><ele>288.0</ele><time>2026-04-18T14:16:57Z</time></trkpt><trkpt lat="45.56559470873633" lon="8.209145844207422"><ele>288.0</ele><time>2026-04-18T14:16:58Z</time></trkpt><trkpt lat="45.5655467091561" lon="8.209204850674123"><ele>288.0</ele><time>2026-04-18T14:16:59Z</time></trkpt><trkpt lat="45.565429180678976" lon="8.209241793894392"><ele>288.0</ele><time>2026-04-18T14:17:00Z</time></trkpt><trkpt lat="45.5653242732338" lon="8.209238902737589"><ele>288.0</ele><time>2026-04-18T14:17:01Z</time></trkpt><trkpt lat="45.56522258779379" lon="8.209261501265066"><ele>288.0</ele><time>2026-04-18T14:17:02Z</time></trkpt><trkpt lat="45.565127615945954" lon="8.20928224828455"><ele>288.0</ele><time>2026-04-18T14:17:03Z</time></trkpt><trkpt lat="45.56504003357135" lon="8.209315790633674"><ele>288.0</ele><time>2026-04-18T14:17:05Z</time></trkpt><trkpt lat="45.565153851184704" lon="8.209327673959091"><ele>288.0</ele><time>2026-04-18T14:17:06Z</time></trkpt><trkpt lat="45.56516886636396" lon="8.20944770928893"><ele>288.0</ele><time>2026-04-18T14:17:09Z</time></trkpt><trkpt lat="45.565153283997624" lon="8.20954697999365"><ele>288.0</ele><time>2026-04-18T14:17:11Z</time></trkpt><trkpt lat="45.565099141959216" lon="8.209598303401634"><ele>288.0</ele><time>2026-04-18T14:17:19.999Z</time></trkpt></trkseg></trk></gpx>